<?xml version="1.0" encoding="UTF-8" standalone="no" ?>
<gpx xmlns="http://www.topografix.com/GPX/1/1" xmlns:xsi="http://www.w3.org/2001/XMLSchema-instance" xsi:schemaLocation="http://www.topografix.com/GPX/1/1 http://www.topografix.com/GPX/1/1/gpx.xsd" version="1.1" creator="VisuGPX - https://www.visugpx.com">
  <metadata>
    <name>Curbans Cyclisme</name>
    <desc><![CDATA[curbans;curbans par urtis, col du buissonnet, le caire,  col de blau]]></desc>
  </metadata>
  <trk>
    <name><![CDATA[Curbans Cyclisme]]></name>
    <trkseg>
      <trkpt lat="44.42115" lon="6.02929">
        <ele>611.59997558594</ele>
        <time>2021-07-06T08:42:27.000Z</time>
      </trkpt>
      <trkpt lat="44.42112" lon="6.02932">
        <ele>611.40002441406</ele>
        <time>2021-07-06T08:42:44.000Z</time>
      </trkpt>
      <trkpt lat="44.421" lon="6.02942">
        <ele>611.20001220703</ele>
        <time>2021-07-06T08:43:08.000Z</time>
      </trkpt>
      <trkpt lat="44.42101" lon="6.02942">
        <ele>611.20001220703</ele>
        <time>2021-07-06T08:43:26.000Z</time>
      </trkpt>
      <trkpt lat="44.42101" lon="6.02942">
        <ele>611.40002441406</ele>
        <time>2021-07-06T08:43:42.000Z</time>
      </trkpt>
      <trkpt lat="44.421" lon="6.02942">
        <ele>611.59997558594</ele>
        <time>2021-07-06T08:44:32.000Z</time>
      </trkpt>
      <trkpt lat="44.421" lon="6.02942">
        <ele>611.59997558594</ele>
        <time>2021-07-06T08:44:44.000Z</time>
      </trkpt>
      <trkpt lat="44.421" lon="6.02942">
        <ele>612</ele>
        <time>2021-07-06T08:45:16.000Z</time>
      </trkpt>
      <trkpt lat="44.42103" lon="6.02941">
        <ele>612</ele>
        <time>2021-07-06T08:45:33.000Z</time>
      </trkpt>
      <trkpt lat="44.42103" lon="6.02941">
        <ele>611.79998779297</ele>
        <time>2021-07-06T08:45:46.000Z</time>
      </trkpt>
      <trkpt lat="44.42109" lon="6.02942">
        <ele>611.79998779297</ele>
        <time>2021-07-06T08:45:56.000Z</time>
      </trkpt>
      <trkpt lat="44.42106" lon="6.02949">
        <ele>611.59997558594</ele>
        <time>2021-07-06T08:46:00.000Z</time>
      </trkpt>
      <trkpt lat="44.421" lon="6.0295">
        <ele>611.59997558594</ele>
        <time>2021-07-06T08:46:03.000Z</time>
      </trkpt>
      <trkpt lat="44.42095" lon="6.02952">
        <ele>611.59997558594</ele>
        <time>2021-07-06T08:46:05.000Z</time>
      </trkpt>
      <trkpt lat="44.42082" lon="6.02963">
        <ele>612.20001220703</ele>
        <time>2021-07-06T08:46:11.000Z</time>
      </trkpt>
      <trkpt lat="44.42078" lon="6.02967">
        <ele>612.59997558594</ele>
        <time>2021-07-06T08:46:13.000Z</time>
      </trkpt>
      <trkpt lat="44.42069" lon="6.02974">
        <ele>613.59997558594</ele>
        <time>2021-07-06T08:46:17.000Z</time>
      </trkpt>
      <trkpt lat="44.42061" lon="6.0298">
        <ele>614.59997558594</ele>
        <time>2021-07-06T08:46:21.000Z</time>
      </trkpt>
      <trkpt lat="44.42051" lon="6.02988">
        <ele>615.40002441406</ele>
        <time>2021-07-06T08:46:26.000Z</time>
      </trkpt>
      <trkpt lat="44.42044" lon="6.02994">
        <ele>616.20001220703</ele>
        <time>2021-07-06T08:46:30.000Z</time>
      </trkpt>
      <trkpt lat="44.42042" lon="6.02996">
        <ele>616.59997558594</ele>
        <time>2021-07-06T08:46:31.000Z</time>
      </trkpt>
      <trkpt lat="44.42031" lon="6.03006">
        <ele>617.79998779297</ele>
        <time>2021-07-06T08:46:37.000Z</time>
      </trkpt>
      <trkpt lat="44.42029" lon="6.03008">
        <ele>618</ele>
        <time>2021-07-06T08:46:38.000Z</time>
      </trkpt>
      <trkpt lat="44.42022" lon="6.03015">
        <ele>618.79998779297</ele>
        <time>2021-07-06T08:46:42.000Z</time>
      </trkpt>
      <trkpt lat="44.42013" lon="6.0302">
        <ele>619.59997558594</ele>
        <time>2021-07-06T08:46:46.000Z</time>
      </trkpt>
      <trkpt lat="44.4201" lon="6.03023">
        <ele>620</ele>
        <time>2021-07-06T08:46:48.000Z</time>
      </trkpt>
      <trkpt lat="44.41998" lon="6.03032">
        <ele>621</ele>
        <time>2021-07-06T08:46:54.000Z</time>
      </trkpt>
      <trkpt lat="44.41996" lon="6.03033">
        <ele>621.20001220703</ele>
        <time>2021-07-06T08:46:55.000Z</time>
      </trkpt>
      <trkpt lat="44.41991" lon="6.03037">
        <ele>622.20001220703</ele>
        <time>2021-07-06T08:46:58.000Z</time>
      </trkpt>
      <trkpt lat="44.4198" lon="6.03046">
        <ele>623.40002441406</ele>
        <time>2021-07-06T08:47:04.000Z</time>
      </trkpt>
      <trkpt lat="44.41968" lon="6.03055">
        <ele>624.40002441406</ele>
        <time>2021-07-06T08:47:10.000Z</time>
      </trkpt>
      <trkpt lat="44.4196" lon="6.03062">
        <ele>625.40002441406</ele>
        <time>2021-07-06T08:47:14.000Z</time>
      </trkpt>
      <trkpt lat="44.41958" lon="6.03064">
        <ele>625.59997558594</ele>
        <time>2021-07-06T08:47:15.000Z</time>
      </trkpt>
      <trkpt lat="44.41945" lon="6.03074">
        <ele>626.79998779297</ele>
        <time>2021-07-06T08:47:21.000Z</time>
      </trkpt>
      <trkpt lat="44.41938" lon="6.0308">
        <ele>627.59997558594</ele>
        <time>2021-07-06T08:47:25.000Z</time>
      </trkpt>
      <trkpt lat="44.41936" lon="6.03082">
        <ele>628</ele>
        <time>2021-07-06T08:47:26.000Z</time>
      </trkpt>
      <trkpt lat="44.41927" lon="6.03089">
        <ele>629</ele>
        <time>2021-07-06T08:47:31.000Z</time>
      </trkpt>
      <trkpt lat="44.41925" lon="6.0309">
        <ele>629.20001220703</ele>
        <time>2021-07-06T08:47:32.000Z</time>
      </trkpt>
      <trkpt lat="44.41917" lon="6.03097">
        <ele>630</ele>
        <time>2021-07-06T08:47:36.000Z</time>
      </trkpt>
      <trkpt lat="44.41909" lon="6.03103">
        <ele>631</ele>
        <time>2021-07-06T08:47:40.000Z</time>
      </trkpt>
      <trkpt lat="44.41907" lon="6.03105">
        <ele>631.20001220703</ele>
        <time>2021-07-06T08:47:41.000Z</time>
      </trkpt>
      <trkpt lat="44.419" lon="6.03111">
        <ele>632.20001220703</ele>
        <time>2021-07-06T08:47:45.000Z</time>
      </trkpt>
      <trkpt lat="44.41893" lon="6.03117">
        <ele>633.20001220703</ele>
        <time>2021-07-06T08:47:49.000Z</time>
      </trkpt>
      <trkpt lat="44.41892" lon="6.03118">
        <ele>633.40002441406</ele>
        <time>2021-07-06T08:47:50.000Z</time>
      </trkpt>
      <trkpt lat="44.41883" lon="6.03126">
        <ele>634.59997558594</ele>
        <time>2021-07-06T08:47:55.000Z</time>
      </trkpt>
      <trkpt lat="44.41877" lon="6.03131">
        <ele>635.40002441406</ele>
        <time>2021-07-06T08:47:58.000Z</time>
      </trkpt>
      <trkpt lat="44.41874" lon="6.03134">
        <ele>635.59997558594</ele>
        <time>2021-07-06T08:48:00.000Z</time>
      </trkpt>
      <trkpt lat="44.41866" lon="6.0314">
        <ele>636.59997558594</ele>
        <time>2021-07-06T08:48:04.000Z</time>
      </trkpt>
      <trkpt lat="44.41865" lon="6.03142">
        <ele>636.79998779297</ele>
        <time>2021-07-06T08:48:05.000Z</time>
      </trkpt>
      <trkpt lat="44.41854" lon="6.03148">
        <ele>638</ele>
        <time>2021-07-06T08:48:11.000Z</time>
      </trkpt>
      <trkpt lat="44.41844" lon="6.03156">
        <ele>639.20001220703</ele>
        <time>2021-07-06T08:48:17.000Z</time>
      </trkpt>
      <trkpt lat="44.41841" lon="6.03159">
        <ele>639.40002441406</ele>
        <time>2021-07-06T08:48:19.000Z</time>
      </trkpt>
      <trkpt lat="44.41836" lon="6.03162">
        <ele>640.20001220703</ele>
        <time>2021-07-06T08:48:22.000Z</time>
      </trkpt>
      <trkpt lat="44.41828" lon="6.03169">
        <ele>641</ele>
        <time>2021-07-06T08:48:27.000Z</time>
      </trkpt>
      <trkpt lat="44.41824" lon="6.0317">
        <ele>641.40002441406</ele>
        <time>2021-07-06T08:48:29.000Z</time>
      </trkpt>
      <trkpt lat="44.41823" lon="6.03171">
        <ele>641.79998779297</ele>
        <time>2021-07-06T08:48:32.000Z</time>
      </trkpt>
      <trkpt lat="44.41823" lon="6.03171">
        <ele>642.40002441406</ele>
        <time>2021-07-06T08:48:35.000Z</time>
      </trkpt>
      <trkpt lat="44.41823" lon="6.03171">
        <ele>643.40002441406</ele>
        <time>2021-07-06T08:48:42.000Z</time>
      </trkpt>
      <trkpt lat="44.41823" lon="6.03173">
        <ele>643.40002441406</ele>
        <time>2021-07-06T08:48:47.000Z</time>
      </trkpt>
      <trkpt lat="44.41826" lon="6.03173">
        <ele>643.40002441406</ele>
        <time>2021-07-06T08:48:50.000Z</time>
      </trkpt>
      <trkpt lat="44.41832" lon="6.0317">
        <ele>643.40002441406</ele>
        <time>2021-07-06T08:48:52.000Z</time>
      </trkpt>
      <trkpt lat="44.41847" lon="6.03158">
        <ele>643.40002441406</ele>
        <time>2021-07-06T08:48:56.000Z</time>
      </trkpt>
      <trkpt lat="44.41875" lon="6.03134">
        <ele>643.40002441406</ele>
        <time>2021-07-06T08:49:01.000Z</time>
      </trkpt>
      <trkpt lat="44.41899" lon="6.03114">
        <ele>642</ele>
        <time>2021-07-06T08:49:05.000Z</time>
      </trkpt>
      <trkpt lat="44.41911" lon="6.03104">
        <ele>640.79998779297</ele>
        <time>2021-07-06T08:49:07.000Z</time>
      </trkpt>
      <trkpt lat="44.41924" lon="6.03093">
        <ele>639.59997558594</ele>
        <time>2021-07-06T08:49:09.000Z</time>
      </trkpt>
      <trkpt lat="44.41937" lon="6.03083">
        <ele>638.40002441406</ele>
        <time>2021-07-06T08:49:11.000Z</time>
      </trkpt>
      <trkpt lat="44.4195" lon="6.03073">
        <ele>637.20001220703</ele>
        <time>2021-07-06T08:49:13.000Z</time>
      </trkpt>
      <trkpt lat="44.41956" lon="6.03068">
        <ele>635.79998779297</ele>
        <time>2021-07-06T08:49:14.000Z</time>
      </trkpt>
      <trkpt lat="44.41968" lon="6.03059">
        <ele>634.40002441406</ele>
        <time>2021-07-06T08:49:16.000Z</time>
      </trkpt>
      <trkpt lat="44.41973" lon="6.03055">
        <ele>633.59997558594</ele>
        <time>2021-07-06T08:49:17.000Z</time>
      </trkpt>
      <trkpt lat="44.41978" lon="6.03051">
        <ele>632.79998779297</ele>
        <time>2021-07-06T08:49:18.000Z</time>
      </trkpt>
      <trkpt lat="44.41986" lon="6.03045">
        <ele>631.40002441406</ele>
        <time>2021-07-06T08:49:20.000Z</time>
      </trkpt>
      <trkpt lat="44.4199" lon="6.03044">
        <ele>630.59997558594</ele>
        <time>2021-07-06T08:49:21.000Z</time>
      </trkpt>
      <trkpt lat="44.41993" lon="6.03045">
        <ele>629.79998779297</ele>
        <time>2021-07-06T08:49:22.000Z</time>
      </trkpt>
      <trkpt lat="44.41997" lon="6.03052">
        <ele>628.20001220703</ele>
        <time>2021-07-06T08:49:24.000Z</time>
      </trkpt>
      <trkpt lat="44.42" lon="6.0306">
        <ele>626.79998779297</ele>
        <time>2021-07-06T08:49:26.000Z</time>
      </trkpt>
      <trkpt lat="44.42003" lon="6.03067">
        <ele>625.79998779297</ele>
        <time>2021-07-06T08:49:28.000Z</time>
      </trkpt>
      <trkpt lat="44.42009" lon="6.03078">
        <ele>624.59997558594</ele>
        <time>2021-07-06T08:49:31.000Z</time>
      </trkpt>
      <trkpt lat="44.42019" lon="6.03105">
        <ele>624.20001220703</ele>
        <time>2021-07-06T08:49:38.000Z</time>
      </trkpt>
      <trkpt lat="44.4203" lon="6.03131">
        <ele>624</ele>
        <time>2021-07-06T08:49:45.000Z</time>
      </trkpt>
      <trkpt lat="44.42043" lon="6.03154">
        <ele>623.79998779297</ele>
        <time>2021-07-06T08:49:50.000Z</time>
      </trkpt>
      <trkpt lat="44.42046" lon="6.03158">
        <ele>623.79998779297</ele>
        <time>2021-07-06T08:49:51.000Z</time>
      </trkpt>
      <trkpt lat="44.42069" lon="6.03188">
        <ele>623.79998779297</ele>
        <time>2021-07-06T08:49:57.000Z</time>
      </trkpt>
      <trkpt lat="44.42072" lon="6.03194">
        <ele>623.79998779297</ele>
        <time>2021-07-06T08:49:58.000Z</time>
      </trkpt>
      <trkpt lat="44.42082" lon="6.03222">
        <ele>623.59997558594</ele>
        <time>2021-07-06T08:50:02.000Z</time>
      </trkpt>
      <trkpt lat="44.42083" lon="6.03229">
        <ele>623.59997558594</ele>
        <time>2021-07-06T08:50:03.000Z</time>
      </trkpt>
      <trkpt lat="44.42091" lon="6.03283">
        <ele>623.40002441406</ele>
        <time>2021-07-06T08:50:11.000Z</time>
      </trkpt>
      <trkpt lat="44.42103" lon="6.03327">
        <ele>623.59997558594</ele>
        <time>2021-07-06T08:50:18.000Z</time>
      </trkpt>
      <trkpt lat="44.42119" lon="6.03367">
        <ele>623.79998779297</ele>
        <time>2021-07-06T08:50:25.000Z</time>
      </trkpt>
      <trkpt lat="44.4214" lon="6.03404">
        <ele>624</ele>
        <time>2021-07-06T08:50:31.000Z</time>
      </trkpt>
      <trkpt lat="44.42162" lon="6.03429">
        <ele>623.59997558594</ele>
        <time>2021-07-06T08:50:36.000Z</time>
      </trkpt>
      <trkpt lat="44.4217" lon="6.03437">
        <ele>623.20001220703</ele>
        <time>2021-07-06T08:50:38.000Z</time>
      </trkpt>
      <trkpt lat="44.42187" lon="6.03452">
        <ele>622.59997558594</ele>
        <time>2021-07-06T08:50:42.000Z</time>
      </trkpt>
      <trkpt lat="44.42197" lon="6.03468">
        <ele>622.20001220703</ele>
        <time>2021-07-06T08:50:45.000Z</time>
      </trkpt>
      <trkpt lat="44.42204" lon="6.03475">
        <ele>622</ele>
        <time>2021-07-06T08:50:47.000Z</time>
      </trkpt>
      <trkpt lat="44.42214" lon="6.03485">
        <ele>621.79998779297</ele>
        <time>2021-07-06T08:50:50.000Z</time>
      </trkpt>
      <trkpt lat="44.42227" lon="6.03497">
        <ele>621.59997558594</ele>
        <time>2021-07-06T08:50:53.000Z</time>
      </trkpt>
      <trkpt lat="44.42254" lon="6.03518">
        <ele>621.20001220703</ele>
        <time>2021-07-06T08:50:58.000Z</time>
      </trkpt>
      <trkpt lat="44.42259" lon="6.03522">
        <ele>621.20001220703</ele>
        <time>2021-07-06T08:50:59.000Z</time>
      </trkpt>
      <trkpt lat="44.42264" lon="6.03526">
        <ele>621.20001220703</ele>
        <time>2021-07-06T08:51:00.000Z</time>
      </trkpt>
      <trkpt lat="44.42289" lon="6.03543">
        <ele>621</ele>
        <time>2021-07-06T08:51:06.000Z</time>
      </trkpt>
      <trkpt lat="44.4229" lon="6.03546">
        <ele>621</ele>
        <time>2021-07-06T08:51:07.000Z</time>
      </trkpt>
      <trkpt lat="44.42291" lon="6.03548">
        <ele>621</ele>
        <time>2021-07-06T08:51:09.000Z</time>
      </trkpt>
      <trkpt lat="44.42292" lon="6.03549">
        <ele>620.79998779297</ele>
        <time>2021-07-06T08:51:20.000Z</time>
      </trkpt>
      <trkpt lat="44.42292" lon="6.03548">
        <ele>621</ele>
        <time>2021-07-06T08:51:33.000Z</time>
      </trkpt>
      <trkpt lat="44.42291" lon="6.03544">
        <ele>621</ele>
        <time>2021-07-06T08:51:36.000Z</time>
      </trkpt>
      <trkpt lat="44.42283" lon="6.03539">
        <ele>621</ele>
        <time>2021-07-06T08:51:39.000Z</time>
      </trkpt>
      <trkpt lat="44.42264" lon="6.03525">
        <ele>620.79998779297</ele>
        <time>2021-07-06T08:51:44.000Z</time>
      </trkpt>
      <trkpt lat="44.42248" lon="6.03512">
        <ele>620.79998779297</ele>
        <time>2021-07-06T08:51:48.000Z</time>
      </trkpt>
      <trkpt lat="44.42237" lon="6.03502">
        <ele>620.79998779297</ele>
        <time>2021-07-06T08:51:51.000Z</time>
      </trkpt>
      <trkpt lat="44.42217" lon="6.03484">
        <ele>621</ele>
        <time>2021-07-06T08:51:56.000Z</time>
      </trkpt>
      <trkpt lat="44.42215" lon="6.0348">
        <ele>621</ele>
        <time>2021-07-06T08:51:57.000Z</time>
      </trkpt>
      <trkpt lat="44.42205" lon="6.03466">
        <ele>620.79998779297</ele>
        <time>2021-07-06T08:52:00.000Z</time>
      </trkpt>
      <trkpt lat="44.42202" lon="6.03458">
        <ele>620.79998779297</ele>
        <time>2021-07-06T08:52:02.000Z</time>
      </trkpt>
      <trkpt lat="44.42203" lon="6.03453">
        <ele>620.79998779297</ele>
        <time>2021-07-06T08:52:06.000Z</time>
      </trkpt>
      <trkpt lat="44.42205" lon="6.03454">
        <ele>620.79998779297</ele>
        <time>2021-07-06T08:52:07.000Z</time>
      </trkpt>
      <trkpt lat="44.42211" lon="6.03454">
        <ele>620.79998779297</ele>
        <time>2021-07-06T08:52:10.000Z</time>
      </trkpt>
      <trkpt lat="44.42218" lon="6.03461">
        <ele>620.20001220703</ele>
        <time>2021-07-06T08:52:15.000Z</time>
      </trkpt>
      <trkpt lat="44.4222" lon="6.03463">
        <ele>619.79998779297</ele>
        <time>2021-07-06T08:52:16.000Z</time>
      </trkpt>
      <trkpt lat="44.42222" lon="6.03467">
        <ele>619.40002441406</ele>
        <time>2021-07-06T08:52:17.000Z</time>
      </trkpt>
      <trkpt lat="44.42227" lon="6.03472">
        <ele>618.59997558594</ele>
        <time>2021-07-06T08:52:19.000Z</time>
      </trkpt>
      <trkpt lat="44.42242" lon="6.03481">
        <ele>617.40002441406</ele>
        <time>2021-07-06T08:52:23.000Z</time>
      </trkpt>
      <trkpt lat="44.42259" lon="6.03493">
        <ele>616.40002441406</ele>
        <time>2021-07-06T08:52:29.000Z</time>
      </trkpt>
      <trkpt lat="44.42272" lon="6.035">
        <ele>615.40002441406</ele>
        <time>2021-07-06T08:52:35.000Z</time>
      </trkpt>
      <trkpt lat="44.42289" lon="6.03511">
        <ele>614.20001220703</ele>
        <time>2021-07-06T08:52:40.000Z</time>
      </trkpt>
      <trkpt lat="44.42303" lon="6.03511">
        <ele>614</ele>
        <time>2021-07-06T08:52:44.000Z</time>
      </trkpt>
      <trkpt lat="44.42323" lon="6.03509">
        <ele>613.20001220703</ele>
        <time>2021-07-06T08:52:48.000Z</time>
      </trkpt>
      <trkpt lat="44.42327" lon="6.03509">
        <ele>613</ele>
        <time>2021-07-06T08:52:49.000Z</time>
      </trkpt>
      <trkpt lat="44.42347" lon="6.03519">
        <ele>612</ele>
        <time>2021-07-06T08:52:54.000Z</time>
      </trkpt>
      <trkpt lat="44.42367" lon="6.03519">
        <ele>611.20001220703</ele>
        <time>2021-07-06T08:52:58.000Z</time>
      </trkpt>
      <trkpt lat="44.42373" lon="6.03523">
        <ele>610.79998779297</ele>
        <time>2021-07-06T08:53:00.000Z</time>
      </trkpt>
      <trkpt lat="44.42377" lon="6.03526">
        <ele>610.79998779297</ele>
        <time>2021-07-06T08:53:01.000Z</time>
      </trkpt>
      <trkpt lat="44.42397" lon="6.03531">
        <ele>610.59997558594</ele>
        <time>2021-07-06T08:53:06.000Z</time>
      </trkpt>
      <trkpt lat="44.42418" lon="6.0353">
        <ele>610</ele>
        <time>2021-07-06T08:53:11.000Z</time>
      </trkpt>
      <trkpt lat="44.42422" lon="6.03529">
        <ele>610</ele>
        <time>2021-07-06T08:53:12.000Z</time>
      </trkpt>
      <trkpt lat="44.42427" lon="6.03529">
        <ele>609.79998779297</ele>
        <time>2021-07-06T08:53:13.000Z</time>
      </trkpt>
      <trkpt lat="44.42453" lon="6.03526">
        <ele>608.59997558594</ele>
        <time>2021-07-06T08:53:18.000Z</time>
      </trkpt>
      <trkpt lat="44.42474" lon="6.03517">
        <ele>607.40002441406</ele>
        <time>2021-07-06T08:53:22.000Z</time>
      </trkpt>
      <trkpt lat="44.4248" lon="6.03511">
        <ele>607</ele>
        <time>2021-07-06T08:53:23.000Z</time>
      </trkpt>
      <trkpt lat="44.42501" lon="6.03492">
        <ele>606</ele>
        <time>2021-07-06T08:53:27.000Z</time>
      </trkpt>
      <trkpt lat="44.42506" lon="6.03486">
        <ele>605.79998779297</ele>
        <time>2021-07-06T08:53:28.000Z</time>
      </trkpt>
      <trkpt lat="44.42522" lon="6.03464">
        <ele>605.59997558594</ele>
        <time>2021-07-06T08:53:32.000Z</time>
      </trkpt>
      <trkpt lat="44.42529" lon="6.03446">
        <ele>604.79998779297</ele>
        <time>2021-07-06T08:53:37.000Z</time>
      </trkpt>
      <trkpt lat="44.4253" lon="6.03443">
        <ele>604.40002441406</ele>
        <time>2021-07-06T08:53:38.000Z</time>
      </trkpt>
      <trkpt lat="44.42538" lon="6.03435">
        <ele>604.20001220703</ele>
        <time>2021-07-06T08:53:42.000Z</time>
      </trkpt>
      <trkpt lat="44.42557" lon="6.03435">
        <ele>604.20001220703</ele>
        <time>2021-07-06T08:53:48.000Z</time>
      </trkpt>
      <trkpt lat="44.4256" lon="6.03435">
        <ele>604.59997558594</ele>
        <time>2021-07-06T08:53:50.000Z</time>
      </trkpt>
      <trkpt lat="44.42562" lon="6.03438">
        <ele>604.79998779297</ele>
        <time>2021-07-06T08:53:52.000Z</time>
      </trkpt>
      <trkpt lat="44.42563" lon="6.03439">
        <ele>605.40002441406</ele>
        <time>2021-07-06T08:53:58.000Z</time>
      </trkpt>
      <trkpt lat="44.42563" lon="6.03439">
        <ele>605.59997558594</ele>
        <time>2021-07-06T08:53:59.000Z</time>
      </trkpt>
      <trkpt lat="44.42563" lon="6.03438">
        <ele>605.79998779297</ele>
        <time>2021-07-06T08:54:12.000Z</time>
      </trkpt>
      <trkpt lat="44.42563" lon="6.03438">
        <ele>605.79998779297</ele>
        <time>2021-07-06T08:54:28.000Z</time>
      </trkpt>
      <trkpt lat="44.42563" lon="6.03438">
        <ele>605.59997558594</ele>
        <time>2021-07-06T08:54:45.000Z</time>
      </trkpt>
      <trkpt lat="44.42563" lon="6.03439">
        <ele>605.59997558594</ele>
        <time>2021-07-06T08:55:03.000Z</time>
      </trkpt>
      <trkpt lat="44.42564" lon="6.03439">
        <ele>605.59997558594</ele>
        <time>2021-07-06T08:55:18.000Z</time>
      </trkpt>
      <trkpt lat="44.42568" lon="6.03442">
        <ele>605.79998779297</ele>
        <time>2021-07-06T08:55:28.000Z</time>
      </trkpt>
      <trkpt lat="44.4257" lon="6.03443">
        <ele>605.79998779297</ele>
        <time>2021-07-06T08:55:29.000Z</time>
      </trkpt>
      <trkpt lat="44.42575" lon="6.03448">
        <ele>605.79998779297</ele>
        <time>2021-07-06T08:55:31.000Z</time>
      </trkpt>
      <trkpt lat="44.42578" lon="6.0345">
        <ele>605.79998779297</ele>
        <time>2021-07-06T08:55:32.000Z</time>
      </trkpt>
      <trkpt lat="44.42581" lon="6.03453">
        <ele>605.79998779297</ele>
        <time>2021-07-06T08:55:33.000Z</time>
      </trkpt>
      <trkpt lat="44.42594" lon="6.03471">
        <ele>606</ele>
        <time>2021-07-06T08:55:38.000Z</time>
      </trkpt>
      <trkpt lat="44.42614" lon="6.03506">
        <ele>606.79998779297</ele>
        <time>2021-07-06T08:55:46.000Z</time>
      </trkpt>
      <trkpt lat="44.42616" lon="6.0351">
        <ele>607</ele>
        <time>2021-07-06T08:55:47.000Z</time>
      </trkpt>
      <trkpt lat="44.42629" lon="6.03528">
        <ele>608</ele>
        <time>2021-07-06T08:55:52.000Z</time>
      </trkpt>
      <trkpt lat="44.42632" lon="6.03531">
        <ele>608.20001220703</ele>
        <time>2021-07-06T08:55:53.000Z</time>
      </trkpt>
      <trkpt lat="44.42643" lon="6.03543">
        <ele>609.20001220703</ele>
        <time>2021-07-06T08:55:57.000Z</time>
      </trkpt>
      <trkpt lat="44.42651" lon="6.0355">
        <ele>609.79998779297</ele>
        <time>2021-07-06T08:56:00.000Z</time>
      </trkpt>
      <trkpt lat="44.42656" lon="6.03554">
        <ele>610.40002441406</ele>
        <time>2021-07-06T08:56:02.000Z</time>
      </trkpt>
      <trkpt lat="44.42667" lon="6.0356">
        <ele>611.59997558594</ele>
        <time>2021-07-06T08:56:07.000Z</time>
      </trkpt>
      <trkpt lat="44.42673" lon="6.03565">
        <ele>612.79998779297</ele>
        <time>2021-07-06T08:56:10.000Z</time>
      </trkpt>
      <trkpt lat="44.42683" lon="6.03572">
        <ele>614.20001220703</ele>
        <time>2021-07-06T08:56:14.000Z</time>
      </trkpt>
      <trkpt lat="44.42685" lon="6.03574">
        <ele>614.59997558594</ele>
        <time>2021-07-06T08:56:15.000Z</time>
      </trkpt>
      <trkpt lat="44.42692" lon="6.03581">
        <ele>615.40002441406</ele>
        <time>2021-07-06T08:56:18.000Z</time>
      </trkpt>
      <trkpt lat="44.42703" lon="6.03591">
        <ele>616.20001220703</ele>
        <time>2021-07-06T08:56:22.000Z</time>
      </trkpt>
      <trkpt lat="44.42706" lon="6.03592">
        <ele>616.59997558594</ele>
        <time>2021-07-06T08:56:23.000Z</time>
      </trkpt>
      <trkpt lat="44.42717" lon="6.03602">
        <ele>617.59997558594</ele>
        <time>2021-07-06T08:56:28.000Z</time>
      </trkpt>
      <trkpt lat="44.42724" lon="6.03607">
        <ele>618.20001220703</ele>
        <time>2021-07-06T08:56:31.000Z</time>
      </trkpt>
      <trkpt lat="44.42729" lon="6.03612">
        <ele>618.79998779297</ele>
        <time>2021-07-06T08:56:33.000Z</time>
      </trkpt>
      <trkpt lat="44.42739" lon="6.0362">
        <ele>619.79998779297</ele>
        <time>2021-07-06T08:56:37.000Z</time>
      </trkpt>
      <trkpt lat="44.42745" lon="6.03623">
        <ele>620.40002441406</ele>
        <time>2021-07-06T08:56:39.000Z</time>
      </trkpt>
      <trkpt lat="44.4275" lon="6.03626">
        <ele>620.79998779297</ele>
        <time>2021-07-06T08:56:41.000Z</time>
      </trkpt>
      <trkpt lat="44.42769" lon="6.03638">
        <ele>621.79998779297</ele>
        <time>2021-07-06T08:56:48.000Z</time>
      </trkpt>
      <trkpt lat="44.42778" lon="6.03648">
        <ele>623</ele>
        <time>2021-07-06T08:56:52.000Z</time>
      </trkpt>
      <trkpt lat="44.42785" lon="6.03657">
        <ele>623.79998779297</ele>
        <time>2021-07-06T08:56:55.000Z</time>
      </trkpt>
      <trkpt lat="44.42788" lon="6.03664">
        <ele>624.20001220703</ele>
        <time>2021-07-06T08:56:57.000Z</time>
      </trkpt>
      <trkpt lat="44.42789" lon="6.03668">
        <ele>624.40002441406</ele>
        <time>2021-07-06T08:56:58.000Z</time>
      </trkpt>
      <trkpt lat="44.42788" lon="6.03675">
        <ele>624.79998779297</ele>
        <time>2021-07-06T08:57:00.000Z</time>
      </trkpt>
      <trkpt lat="44.42781" lon="6.03677">
        <ele>625.40002441406</ele>
        <time>2021-07-06T08:57:03.000Z</time>
      </trkpt>
      <trkpt lat="44.42776" lon="6.03673">
        <ele>625.59997558594</ele>
        <time>2021-07-06T08:57:05.000Z</time>
      </trkpt>
      <trkpt lat="44.42771" lon="6.0367">
        <ele>626.40002441406</ele>
        <time>2021-07-06T08:57:07.000Z</time>
      </trkpt>
      <trkpt lat="44.42765" lon="6.03665">
        <ele>627</ele>
        <time>2021-07-06T08:57:09.000Z</time>
      </trkpt>
      <trkpt lat="44.4276" lon="6.03659">
        <ele>627.59997558594</ele>
        <time>2021-07-06T08:57:11.000Z</time>
      </trkpt>
      <trkpt lat="44.42752" lon="6.03655">
        <ele>628.20001220703</ele>
        <time>2021-07-06T08:57:14.000Z</time>
      </trkpt>
      <trkpt lat="44.42749" lon="6.03656">
        <ele>628.40002441406</ele>
        <time>2021-07-06T08:57:15.000Z</time>
      </trkpt>
      <trkpt lat="44.42745" lon="6.03661">
        <ele>628.59997558594</ele>
        <time>2021-07-06T08:57:17.000Z</time>
      </trkpt>
      <trkpt lat="44.42746" lon="6.03666">
        <ele>629</ele>
        <time>2021-07-06T08:57:19.000Z</time>
      </trkpt>
      <trkpt lat="44.42749" lon="6.0367">
        <ele>629.40002441406</ele>
        <time>2021-07-06T08:57:21.000Z</time>
      </trkpt>
      <trkpt lat="44.42751" lon="6.03672">
        <ele>629.59997558594</ele>
        <time>2021-07-06T08:57:22.000Z</time>
      </trkpt>
      <trkpt lat="44.42758" lon="6.03678">
        <ele>630.40002441406</ele>
        <time>2021-07-06T08:57:25.000Z</time>
      </trkpt>
      <trkpt lat="44.42762" lon="6.03682">
        <ele>630.79998779297</ele>
        <time>2021-07-06T08:57:27.000Z</time>
      </trkpt>
      <trkpt lat="44.42765" lon="6.03691">
        <ele>631.20001220703</ele>
        <time>2021-07-06T08:57:30.000Z</time>
      </trkpt>
      <trkpt lat="44.42766" lon="6.03701">
        <ele>632</ele>
        <time>2021-07-06T08:57:33.000Z</time>
      </trkpt>
      <trkpt lat="44.42765" lon="6.03715">
        <ele>633.20001220703</ele>
        <time>2021-07-06T08:57:37.000Z</time>
      </trkpt>
      <trkpt lat="44.42762" lon="6.03726">
        <ele>634.20001220703</ele>
        <time>2021-07-06T08:57:40.000Z</time>
      </trkpt>
      <trkpt lat="44.42759" lon="6.03738">
        <ele>635.20001220703</ele>
        <time>2021-07-06T08:57:43.000Z</time>
      </trkpt>
      <trkpt lat="44.42759" lon="6.03742">
        <ele>635.59997558594</ele>
        <time>2021-07-06T08:57:44.000Z</time>
      </trkpt>
      <trkpt lat="44.42759" lon="6.0376">
        <ele>636.59997558594</ele>
        <time>2021-07-06T08:57:48.000Z</time>
      </trkpt>
      <trkpt lat="44.4276" lon="6.03764">
        <ele>636.79998779297</ele>
        <time>2021-07-06T08:57:49.000Z</time>
      </trkpt>
      <trkpt lat="44.42769" lon="6.03786">
        <ele>637.79998779297</ele>
        <time>2021-07-06T08:57:54.000Z</time>
      </trkpt>
      <trkpt lat="44.42773" lon="6.03799">
        <ele>638.40002441406</ele>
        <time>2021-07-06T08:57:58.000Z</time>
      </trkpt>
      <trkpt lat="44.42775" lon="6.0381">
        <ele>638.40002441406</ele>
        <time>2021-07-06T08:58:00.000Z</time>
      </trkpt>
      <trkpt lat="44.42776" lon="6.03818">
        <ele>638.59997558594</ele>
        <time>2021-07-06T08:58:01.000Z</time>
      </trkpt>
      <trkpt lat="44.42782" lon="6.03857">
        <ele>638.59997558594</ele>
        <time>2021-07-06T08:58:05.000Z</time>
      </trkpt>
      <trkpt lat="44.42791" lon="6.03913">
        <ele>636.79998779297</ele>
        <time>2021-07-06T08:58:10.000Z</time>
      </trkpt>
      <trkpt lat="44.42792" lon="6.03924">
        <ele>636.20001220703</ele>
        <time>2021-07-06T08:58:11.000Z</time>
      </trkpt>
      <trkpt lat="44.42794" lon="6.03947">
        <ele>635</ele>
        <time>2021-07-06T08:58:13.000Z</time>
      </trkpt>
      <trkpt lat="44.42799" lon="6.03977">
        <ele>633.79998779297</ele>
        <time>2021-07-06T08:58:16.000Z</time>
      </trkpt>
      <trkpt lat="44.42811" lon="6.04026">
        <ele>632.79998779297</ele>
        <time>2021-07-06T08:58:21.000Z</time>
      </trkpt>
      <trkpt lat="44.42819" lon="6.04043">
        <ele>632.59997558594</ele>
        <time>2021-07-06T08:58:23.000Z</time>
      </trkpt>
      <trkpt lat="44.42828" lon="6.04054">
        <ele>632.40002441406</ele>
        <time>2021-07-06T08:58:25.000Z</time>
      </trkpt>
      <trkpt lat="44.42843" lon="6.0406">
        <ele>631.59997558594</ele>
        <time>2021-07-06T08:58:28.000Z</time>
      </trkpt>
      <trkpt lat="44.42847" lon="6.0406">
        <ele>631.59997558594</ele>
        <time>2021-07-06T08:58:29.000Z</time>
      </trkpt>
      <trkpt lat="44.42858" lon="6.04051">
        <ele>631.59997558594</ele>
        <time>2021-07-06T08:58:33.000Z</time>
      </trkpt>
      <trkpt lat="44.42854" lon="6.04041">
        <ele>631.59997558594</ele>
        <time>2021-07-06T08:58:36.000Z</time>
      </trkpt>
      <trkpt lat="44.42845" lon="6.04035">
        <ele>631.79998779297</ele>
        <time>2021-07-06T08:58:39.000Z</time>
      </trkpt>
      <trkpt lat="44.42838" lon="6.04028">
        <ele>632.59997558594</ele>
        <time>2021-07-06T08:58:42.000Z</time>
      </trkpt>
      <trkpt lat="44.42836" lon="6.04026">
        <ele>632.79998779297</ele>
        <time>2021-07-06T08:58:43.000Z</time>
      </trkpt>
      <trkpt lat="44.42831" lon="6.04018">
        <ele>633.59997558594</ele>
        <time>2021-07-06T08:58:46.000Z</time>
      </trkpt>
      <trkpt lat="44.42829" lon="6.04008">
        <ele>634.40002441406</ele>
        <time>2021-07-06T08:58:49.000Z</time>
      </trkpt>
      <trkpt lat="44.42828" lon="6.04005">
        <ele>634.59997558594</ele>
        <time>2021-07-06T08:58:50.000Z</time>
      </trkpt>
      <trkpt lat="44.42826" lon="6.03992">
        <ele>635.79998779297</ele>
        <time>2021-07-06T08:58:54.000Z</time>
      </trkpt>
      <trkpt lat="44.42826" lon="6.03984">
        <ele>637</ele>
        <time>2021-07-06T08:58:56.000Z</time>
      </trkpt>
      <trkpt lat="44.42826" lon="6.0398">
        <ele>637.40002441406</ele>
        <time>2021-07-06T08:58:57.000Z</time>
      </trkpt>
      <trkpt lat="44.42828" lon="6.03974">
        <ele>638.20001220703</ele>
        <time>2021-07-06T08:58:59.000Z</time>
      </trkpt>
      <trkpt lat="44.42833" lon="6.03965">
        <ele>639.20001220703</ele>
        <time>2021-07-06T08:59:02.000Z</time>
      </trkpt>
      <trkpt lat="44.42835" lon="6.03964">
        <ele>639.40002441406</ele>
        <time>2021-07-06T08:59:03.000Z</time>
      </trkpt>
      <trkpt lat="44.42842" lon="6.03965">
        <ele>640.40002441406</ele>
        <time>2021-07-06T08:59:06.000Z</time>
      </trkpt>
      <trkpt lat="44.42849" lon="6.03974">
        <ele>641.20001220703</ele>
        <time>2021-07-06T08:59:11.000Z</time>
      </trkpt>
      <trkpt lat="44.42852" lon="6.03974">
        <ele>641.79998779297</ele>
        <time>2021-07-06T08:59:13.000Z</time>
      </trkpt>
      <trkpt lat="44.42856" lon="6.03974">
        <ele>642.40002441406</ele>
        <time>2021-07-06T08:59:15.000Z</time>
      </trkpt>
      <trkpt lat="44.42861" lon="6.03971">
        <ele>643.20001220703</ele>
        <time>2021-07-06T08:59:17.000Z</time>
      </trkpt>
      <trkpt lat="44.42864" lon="6.0397">
        <ele>643.40002441406</ele>
        <time>2021-07-06T08:59:18.000Z</time>
      </trkpt>
      <trkpt lat="44.4287" lon="6.03967">
        <ele>644.20001220703</ele>
        <time>2021-07-06T08:59:21.000Z</time>
      </trkpt>
      <trkpt lat="44.42877" lon="6.0397">
        <ele>645.40002441406</ele>
        <time>2021-07-06T08:59:24.000Z</time>
      </trkpt>
      <trkpt lat="44.42886" lon="6.03973">
        <ele>646.59997558594</ele>
        <time>2021-07-06T08:59:28.000Z</time>
      </trkpt>
      <trkpt lat="44.42897" lon="6.03968">
        <ele>647.59997558594</ele>
        <time>2021-07-06T08:59:32.000Z</time>
      </trkpt>
      <trkpt lat="44.42901" lon="6.03964">
        <ele>648.20001220703</ele>
        <time>2021-07-06T08:59:34.000Z</time>
      </trkpt>
      <trkpt lat="44.42906" lon="6.03959">
        <ele>648.79998779297</ele>
        <time>2021-07-06T08:59:36.000Z</time>
      </trkpt>
      <trkpt lat="44.42914" lon="6.03954">
        <ele>650</ele>
        <time>2021-07-06T08:59:40.000Z</time>
      </trkpt>
      <trkpt lat="44.42921" lon="6.03954">
        <ele>651</ele>
        <time>2021-07-06T08:59:43.000Z</time>
      </trkpt>
      <trkpt lat="44.42928" lon="6.03955">
        <ele>652</ele>
        <time>2021-07-06T08:59:46.000Z</time>
      </trkpt>
      <trkpt lat="44.42934" lon="6.03955">
        <ele>653.20001220703</ele>
        <time>2021-07-06T08:59:48.000Z</time>
      </trkpt>
      <trkpt lat="44.42938" lon="6.03956">
        <ele>654.59997558594</ele>
        <time>2021-07-06T08:59:50.000Z</time>
      </trkpt>
      <trkpt lat="44.42942" lon="6.03957">
        <ele>655.59997558594</ele>
        <time>2021-07-06T08:59:52.000Z</time>
      </trkpt>
      <trkpt lat="44.42944" lon="6.03958">
        <ele>655.79998779297</ele>
        <time>2021-07-06T08:59:53.000Z</time>
      </trkpt>
      <trkpt lat="44.42952" lon="6.03963">
        <ele>656.79998779297</ele>
        <time>2021-07-06T08:59:56.000Z</time>
      </trkpt>
      <trkpt lat="44.42957" lon="6.03966">
        <ele>657.59997558594</ele>
        <time>2021-07-06T08:59:58.000Z</time>
      </trkpt>
      <trkpt lat="44.42959" lon="6.03968">
        <ele>658</ele>
        <time>2021-07-06T08:59:59.000Z</time>
      </trkpt>
      <trkpt lat="44.42967" lon="6.03973">
        <ele>659</ele>
        <time>2021-07-06T09:00:02.000Z</time>
      </trkpt>
      <trkpt lat="44.42978" lon="6.03981">
        <ele>660</ele>
        <time>2021-07-06T09:00:06.000Z</time>
      </trkpt>
      <trkpt lat="44.42991" lon="6.03995">
        <ele>661.20001220703</ele>
        <time>2021-07-06T09:00:11.000Z</time>
      </trkpt>
      <trkpt lat="44.42998" lon="6.04">
        <ele>661.59997558594</ele>
        <time>2021-07-06T09:00:13.000Z</time>
      </trkpt>
      <trkpt lat="44.43009" lon="6.04014">
        <ele>662.40002441406</ele>
        <time>2021-07-06T09:00:17.000Z</time>
      </trkpt>
      <trkpt lat="44.43016" lon="6.04025">
        <ele>663</ele>
        <time>2021-07-06T09:00:20.000Z</time>
      </trkpt>
      <trkpt lat="44.4302" lon="6.04033">
        <ele>663.40002441406</ele>
        <time>2021-07-06T09:00:22.000Z</time>
      </trkpt>
      <trkpt lat="44.43028" lon="6.04048">
        <ele>664</ele>
        <time>2021-07-06T09:00:25.000Z</time>
      </trkpt>
      <trkpt lat="44.43031" lon="6.04054">
        <ele>664.20001220703</ele>
        <time>2021-07-06T09:00:26.000Z</time>
      </trkpt>
      <trkpt lat="44.43039" lon="6.04065">
        <ele>664.59997558594</ele>
        <time>2021-07-06T09:00:28.000Z</time>
      </trkpt>
      <trkpt lat="44.43043" lon="6.04071">
        <ele>664.79998779297</ele>
        <time>2021-07-06T09:00:29.000Z</time>
      </trkpt>
      <trkpt lat="44.43053" lon="6.04079">
        <ele>665</ele>
        <time>2021-07-06T09:00:31.000Z</time>
      </trkpt>
      <trkpt lat="44.43057" lon="6.04083">
        <ele>665</ele>
        <time>2021-07-06T09:00:32.000Z</time>
      </trkpt>
      <trkpt lat="44.43076" lon="6.04103">
        <ele>665.20001220703</ele>
        <time>2021-07-06T09:00:37.000Z</time>
      </trkpt>
      <trkpt lat="44.43099" lon="6.04137">
        <ele>665.20001220703</ele>
        <time>2021-07-06T09:00:43.000Z</time>
      </trkpt>
      <trkpt lat="44.43121" lon="6.0419">
        <ele>664</ele>
        <time>2021-07-06T09:00:50.000Z</time>
      </trkpt>
      <trkpt lat="44.43125" lon="6.04204">
        <ele>663.59997558594</ele>
        <time>2021-07-06T09:00:52.000Z</time>
      </trkpt>
      <trkpt lat="44.43134" lon="6.04227">
        <ele>662.59997558594</ele>
        <time>2021-07-06T09:00:56.000Z</time>
      </trkpt>
      <trkpt lat="44.43138" lon="6.04239">
        <ele>662.59997558594</ele>
        <time>2021-07-06T09:00:58.000Z</time>
      </trkpt>
      <trkpt lat="44.43138" lon="6.04251">
        <ele>662.59997558594</ele>
        <time>2021-07-06T09:01:00.000Z</time>
      </trkpt>
      <trkpt lat="44.43132" lon="6.04258">
        <ele>662.59997558594</ele>
        <time>2021-07-06T09:01:02.000Z</time>
      </trkpt>
      <trkpt lat="44.43121" lon="6.04252">
        <ele>662.79998779297</ele>
        <time>2021-07-06T09:01:05.000Z</time>
      </trkpt>
      <trkpt lat="44.43106" lon="6.04249">
        <ele>663.40002441406</ele>
        <time>2021-07-06T09:01:09.000Z</time>
      </trkpt>
      <trkpt lat="44.43099" lon="6.04261">
        <ele>663.79998779297</ele>
        <time>2021-07-06T09:01:12.000Z</time>
      </trkpt>
      <trkpt lat="44.43097" lon="6.04271">
        <ele>664.59997558594</ele>
        <time>2021-07-06T09:01:14.000Z</time>
      </trkpt>
      <trkpt lat="44.43096" lon="6.04283">
        <ele>665</ele>
        <time>2021-07-06T09:01:16.000Z</time>
      </trkpt>
      <trkpt lat="44.43097" lon="6.04289">
        <ele>665.40002441406</ele>
        <time>2021-07-06T09:01:17.000Z</time>
      </trkpt>
      <trkpt lat="44.43097" lon="6.04294">
        <ele>665.59997558594</ele>
        <time>2021-07-06T09:01:18.000Z</time>
      </trkpt>
      <trkpt lat="44.43095" lon="6.04337">
        <ele>666.79998779297</ele>
        <time>2021-07-06T09:01:26.000Z</time>
      </trkpt>
      <trkpt lat="44.43095" lon="6.0436">
        <ele>667.79998779297</ele>
        <time>2021-07-06T09:01:30.000Z</time>
      </trkpt>
      <trkpt lat="44.43097" lon="6.04376">
        <ele>668.40002441406</ele>
        <time>2021-07-06T09:01:33.000Z</time>
      </trkpt>
      <trkpt lat="44.431" lon="6.04386">
        <ele>669</ele>
        <time>2021-07-06T09:01:35.000Z</time>
      </trkpt>
      <trkpt lat="44.43109" lon="6.04406">
        <ele>670</ele>
        <time>2021-07-06T09:01:39.000Z</time>
      </trkpt>
      <trkpt lat="44.43117" lon="6.04423">
        <ele>671</ele>
        <time>2021-07-06T09:01:42.000Z</time>
      </trkpt>
      <trkpt lat="44.43127" lon="6.04442">
        <ele>671.59997558594</ele>
        <time>2021-07-06T09:01:45.000Z</time>
      </trkpt>
      <trkpt lat="44.4315" lon="6.04478">
        <ele>671.59997558594</ele>
        <time>2021-07-06T09:01:50.000Z</time>
      </trkpt>
      <trkpt lat="44.43166" lon="6.04505">
        <ele>671.59997558594</ele>
        <time>2021-07-06T09:01:53.000Z</time>
      </trkpt>
      <trkpt lat="44.43169" lon="6.04517">
        <ele>671.59997558594</ele>
        <time>2021-07-06T09:01:54.000Z</time>
      </trkpt>
      <trkpt lat="44.4317" lon="6.04557">
        <ele>670.79998779297</ele>
        <time>2021-07-06T09:01:57.000Z</time>
      </trkpt>
      <trkpt lat="44.43168" lon="6.04582">
        <ele>669.79998779297</ele>
        <time>2021-07-06T09:01:59.000Z</time>
      </trkpt>
      <trkpt lat="44.43161" lon="6.04598">
        <ele>668.59997558594</ele>
        <time>2021-07-06T09:02:01.000Z</time>
      </trkpt>
      <trkpt lat="44.43152" lon="6.04597">
        <ele>667.59997558594</ele>
        <time>2021-07-06T09:02:03.000Z</time>
      </trkpt>
      <trkpt lat="44.43144" lon="6.04594">
        <ele>666.40002441406</ele>
        <time>2021-07-06T09:02:05.000Z</time>
      </trkpt>
      <trkpt lat="44.4314" lon="6.04593">
        <ele>665.79998779297</ele>
        <time>2021-07-06T09:02:06.000Z</time>
      </trkpt>
      <trkpt lat="44.43131" lon="6.04593">
        <ele>665.40002441406</ele>
        <time>2021-07-06T09:02:08.000Z</time>
      </trkpt>
      <trkpt lat="44.43122" lon="6.04595">
        <ele>665.20001220703</ele>
        <time>2021-07-06T09:02:10.000Z</time>
      </trkpt>
      <trkpt lat="44.43115" lon="6.04602">
        <ele>665.20001220703</ele>
        <time>2021-07-06T09:02:12.000Z</time>
      </trkpt>
      <trkpt lat="44.43115" lon="6.04615">
        <ele>665.20001220703</ele>
        <time>2021-07-06T09:02:14.000Z</time>
      </trkpt>
      <trkpt lat="44.43117" lon="6.04628">
        <ele>665.40002441406</ele>
        <time>2021-07-06T09:02:16.000Z</time>
      </trkpt>
      <trkpt lat="44.43124" lon="6.04653">
        <ele>665.59997558594</ele>
        <time>2021-07-06T09:02:20.000Z</time>
      </trkpt>
      <trkpt lat="44.43141" lon="6.04706">
        <ele>666</ele>
        <time>2021-07-06T09:02:29.000Z</time>
      </trkpt>
      <trkpt lat="44.43146" lon="6.04724">
        <ele>666.40002441406</ele>
        <time>2021-07-06T09:02:32.000Z</time>
      </trkpt>
      <trkpt lat="44.43149" lon="6.04741">
        <ele>666.79998779297</ele>
        <time>2021-07-06T09:02:35.000Z</time>
      </trkpt>
      <trkpt lat="44.43149" lon="6.04766">
        <ele>667</ele>
        <time>2021-07-06T09:02:40.000Z</time>
      </trkpt>
      <trkpt lat="44.43149" lon="6.04777">
        <ele>667</ele>
        <time>2021-07-06T09:02:42.000Z</time>
      </trkpt>
      <trkpt lat="44.43149" lon="6.04795">
        <ele>667.20001220703</ele>
        <time>2021-07-06T09:02:45.000Z</time>
      </trkpt>
      <trkpt lat="44.43149" lon="6.04801">
        <ele>667.40002441406</ele>
        <time>2021-07-06T09:02:46.000Z</time>
      </trkpt>
      <trkpt lat="44.43152" lon="6.04856">
        <ele>668</ele>
        <time>2021-07-06T09:02:55.000Z</time>
      </trkpt>
      <trkpt lat="44.43153" lon="6.04868">
        <ele>668.40002441406</ele>
        <time>2021-07-06T09:02:57.000Z</time>
      </trkpt>
      <trkpt lat="44.43153" lon="6.04884">
        <ele>669</ele>
        <time>2021-07-06T09:03:01.000Z</time>
      </trkpt>
      <trkpt lat="44.43153" lon="6.04892">
        <ele>669.59997558594</ele>
        <time>2021-07-06T09:03:05.000Z</time>
      </trkpt>
      <trkpt lat="44.43153" lon="6.04895">
        <ele>670</ele>
        <time>2021-07-06T09:03:08.000Z</time>
      </trkpt>
      <trkpt lat="44.43154" lon="6.04898">
        <ele>670.59997558594</ele>
        <time>2021-07-06T09:03:13.000Z</time>
      </trkpt>
      <trkpt lat="44.43154" lon="6.04898">
        <ele>670.59997558594</ele>
        <time>2021-07-06T09:03:15.000Z</time>
      </trkpt>
      <trkpt lat="44.43153" lon="6.04908">
        <ele>671</ele>
        <time>2021-07-06T09:03:20.000Z</time>
      </trkpt>
      <trkpt lat="44.43149" lon="6.04924">
        <ele>671.20001220703</ele>
        <time>2021-07-06T09:03:25.000Z</time>
      </trkpt>
      <trkpt lat="44.43142" lon="6.0495">
        <ele>671.59997558594</ele>
        <time>2021-07-06T09:03:31.000Z</time>
      </trkpt>
      <trkpt lat="44.43133" lon="6.04978">
        <ele>672.79998779297</ele>
        <time>2021-07-06T09:03:37.000Z</time>
      </trkpt>
      <trkpt lat="44.43131" lon="6.04982">
        <ele>673.20001220703</ele>
        <time>2021-07-06T09:03:38.000Z</time>
      </trkpt>
      <trkpt lat="44.43128" lon="6.04997">
        <ele>674</ele>
        <time>2021-07-06T09:03:41.000Z</time>
      </trkpt>
      <trkpt lat="44.43125" lon="6.05011">
        <ele>674.79998779297</ele>
        <time>2021-07-06T09:03:44.000Z</time>
      </trkpt>
      <trkpt lat="44.43124" lon="6.05016">
        <ele>675</ele>
        <time>2021-07-06T09:03:45.000Z</time>
      </trkpt>
      <trkpt lat="44.43122" lon="6.0504">
        <ele>676</ele>
        <time>2021-07-06T09:03:50.000Z</time>
      </trkpt>
      <trkpt lat="44.43122" lon="6.05046">
        <ele>676.20001220703</ele>
        <time>2021-07-06T09:03:51.000Z</time>
      </trkpt>
      <trkpt lat="44.43127" lon="6.05064">
        <ele>677.20001220703</ele>
        <time>2021-07-06T09:03:55.000Z</time>
      </trkpt>
      <trkpt lat="44.43129" lon="6.05072">
        <ele>677.59997558594</ele>
        <time>2021-07-06T09:03:57.000Z</time>
      </trkpt>
      <trkpt lat="44.43131" lon="6.0508">
        <ele>678.20001220703</ele>
        <time>2021-07-06T09:03:59.000Z</time>
      </trkpt>
      <trkpt lat="44.43134" lon="6.05095">
        <ele>679.59997558594</ele>
        <time>2021-07-06T09:04:03.000Z</time>
      </trkpt>
      <trkpt lat="44.43135" lon="6.05103">
        <ele>680.20001220703</ele>
        <time>2021-07-06T09:04:05.000Z</time>
      </trkpt>
      <trkpt lat="44.43134" lon="6.05111">
        <ele>680.79998779297</ele>
        <time>2021-07-06T09:04:07.000Z</time>
      </trkpt>
      <trkpt lat="44.43134" lon="6.05127">
        <ele>681.79998779297</ele>
        <time>2021-07-06T09:04:11.000Z</time>
      </trkpt>
      <trkpt lat="44.43133" lon="6.05139">
        <ele>682.79998779297</ele>
        <time>2021-07-06T09:04:14.000Z</time>
      </trkpt>
      <trkpt lat="44.43133" lon="6.05143">
        <ele>683</ele>
        <time>2021-07-06T09:04:15.000Z</time>
      </trkpt>
      <trkpt lat="44.43132" lon="6.05163">
        <ele>684</ele>
        <time>2021-07-06T09:04:20.000Z</time>
      </trkpt>
      <trkpt lat="44.43132" lon="6.05171">
        <ele>684.40002441406</ele>
        <time>2021-07-06T09:04:22.000Z</time>
      </trkpt>
      <trkpt lat="44.43133" lon="6.05178">
        <ele>685</ele>
        <time>2021-07-06T09:04:24.000Z</time>
      </trkpt>
      <trkpt lat="44.43135" lon="6.05196">
        <ele>686.20001220703</ele>
        <time>2021-07-06T09:04:29.000Z</time>
      </trkpt>
      <trkpt lat="44.43136" lon="6.05203">
        <ele>686.59997558594</ele>
        <time>2021-07-06T09:04:31.000Z</time>
      </trkpt>
      <trkpt lat="44.43136" lon="6.05212">
        <ele>687.20001220703</ele>
        <time>2021-07-06T09:04:34.000Z</time>
      </trkpt>
      <trkpt lat="44.43135" lon="6.05219">
        <ele>687.59997558594</ele>
        <time>2021-07-06T09:04:37.000Z</time>
      </trkpt>
      <trkpt lat="44.43135" lon="6.05228">
        <ele>688.20001220703</ele>
        <time>2021-07-06T09:04:40.000Z</time>
      </trkpt>
      <trkpt lat="44.43137" lon="6.0524">
        <ele>689.40002441406</ele>
        <time>2021-07-06T09:04:44.000Z</time>
      </trkpt>
      <trkpt lat="44.43138" lon="6.05244">
        <ele>689.79998779297</ele>
        <time>2021-07-06T09:04:45.000Z</time>
      </trkpt>
      <trkpt lat="44.43143" lon="6.05257">
        <ele>690.59997558594</ele>
        <time>2021-07-06T09:04:49.000Z</time>
      </trkpt>
      <trkpt lat="44.43146" lon="6.05262">
        <ele>691</ele>
        <time>2021-07-06T09:04:51.000Z</time>
      </trkpt>
      <trkpt lat="44.43151" lon="6.05277">
        <ele>692</ele>
        <time>2021-07-06T09:04:55.000Z</time>
      </trkpt>
      <trkpt lat="44.43155" lon="6.05289">
        <ele>692.79998779297</ele>
        <time>2021-07-06T09:04:58.000Z</time>
      </trkpt>
      <trkpt lat="44.43156" lon="6.05293">
        <ele>693.20001220703</ele>
        <time>2021-07-06T09:04:59.000Z</time>
      </trkpt>
      <trkpt lat="44.43158" lon="6.05305">
        <ele>694.20001220703</ele>
        <time>2021-07-06T09:05:02.000Z</time>
      </trkpt>
      <trkpt lat="44.43161" lon="6.05321">
        <ele>695.40002441406</ele>
        <time>2021-07-06T09:05:06.000Z</time>
      </trkpt>
      <trkpt lat="44.43161" lon="6.05325">
        <ele>695.79998779297</ele>
        <time>2021-07-06T09:05:07.000Z</time>
      </trkpt>
      <trkpt lat="44.43161" lon="6.05337">
        <ele>696.59997558594</ele>
        <time>2021-07-06T09:05:10.000Z</time>
      </trkpt>
      <trkpt lat="44.43159" lon="6.05352">
        <ele>697.79998779297</ele>
        <time>2021-07-06T09:05:14.000Z</time>
      </trkpt>
      <trkpt lat="44.43158" lon="6.05359">
        <ele>698.40002441406</ele>
        <time>2021-07-06T09:05:16.000Z</time>
      </trkpt>
      <trkpt lat="44.43157" lon="6.05366">
        <ele>698.79998779297</ele>
        <time>2021-07-06T09:05:18.000Z</time>
      </trkpt>
      <trkpt lat="44.43155" lon="6.05381">
        <ele>699.79998779297</ele>
        <time>2021-07-06T09:05:22.000Z</time>
      </trkpt>
      <trkpt lat="44.43154" lon="6.05388">
        <ele>700.59997558594</ele>
        <time>2021-07-06T09:05:24.000Z</time>
      </trkpt>
      <trkpt lat="44.43154" lon="6.05392">
        <ele>701</ele>
        <time>2021-07-06T09:05:25.000Z</time>
      </trkpt>
      <trkpt lat="44.43152" lon="6.0541">
        <ele>702</ele>
        <time>2021-07-06T09:05:30.000Z</time>
      </trkpt>
      <trkpt lat="44.4315" lon="6.05424">
        <ele>702.79998779297</ele>
        <time>2021-07-06T09:05:34.000Z</time>
      </trkpt>
      <trkpt lat="44.4315" lon="6.05427">
        <ele>703.20001220703</ele>
        <time>2021-07-06T09:05:35.000Z</time>
      </trkpt>
      <trkpt lat="44.43147" lon="6.05444">
        <ele>704.40002441406</ele>
        <time>2021-07-06T09:05:40.000Z</time>
      </trkpt>
      <trkpt lat="44.43145" lon="6.05458">
        <ele>705.20001220703</ele>
        <time>2021-07-06T09:05:44.000Z</time>
      </trkpt>
      <trkpt lat="44.43145" lon="6.05461">
        <ele>705.40002441406</ele>
        <time>2021-07-06T09:05:45.000Z</time>
      </trkpt>
      <trkpt lat="44.43142" lon="6.05478">
        <ele>706.79998779297</ele>
        <time>2021-07-06T09:05:50.000Z</time>
      </trkpt>
      <trkpt lat="44.43139" lon="6.05489">
        <ele>707.79998779297</ele>
        <time>2021-07-06T09:05:53.000Z</time>
      </trkpt>
      <trkpt lat="44.43139" lon="6.05492">
        <ele>708</ele>
        <time>2021-07-06T09:05:54.000Z</time>
      </trkpt>
      <trkpt lat="44.43135" lon="6.05505">
        <ele>709</ele>
        <time>2021-07-06T09:05:58.000Z</time>
      </trkpt>
      <trkpt lat="44.43131" lon="6.05515">
        <ele>709.59997558594</ele>
        <time>2021-07-06T09:06:01.000Z</time>
      </trkpt>
      <trkpt lat="44.4313" lon="6.05518">
        <ele>709.79998779297</ele>
        <time>2021-07-06T09:06:02.000Z</time>
      </trkpt>
      <trkpt lat="44.43123" lon="6.05534">
        <ele>711</ele>
        <time>2021-07-06T09:06:07.000Z</time>
      </trkpt>
      <trkpt lat="44.4312" lon="6.05547">
        <ele>712</ele>
        <time>2021-07-06T09:06:11.000Z</time>
      </trkpt>
      <trkpt lat="44.43119" lon="6.05551">
        <ele>712.40002441406</ele>
        <time>2021-07-06T09:06:12.000Z</time>
      </trkpt>
      <trkpt lat="44.43114" lon="6.05567">
        <ele>713.40002441406</ele>
        <time>2021-07-06T09:06:17.000Z</time>
      </trkpt>
      <trkpt lat="44.43113" lon="6.05573">
        <ele>714.20001220703</ele>
        <time>2021-07-06T09:06:19.000Z</time>
      </trkpt>
      <trkpt lat="44.43113" lon="6.05576">
        <ele>714.40002441406</ele>
        <time>2021-07-06T09:06:20.000Z</time>
      </trkpt>
      <trkpt lat="44.43115" lon="6.05587">
        <ele>715.59997558594</ele>
        <time>2021-07-06T09:06:24.000Z</time>
      </trkpt>
      <trkpt lat="44.43116" lon="6.0559">
        <ele>715.79998779297</ele>
        <time>2021-07-06T09:06:25.000Z</time>
      </trkpt>
      <trkpt lat="44.4312" lon="6.05598">
        <ele>716.59997558594</ele>
        <time>2021-07-06T09:06:28.000Z</time>
      </trkpt>
      <trkpt lat="44.43123" lon="6.05612">
        <ele>717.79998779297</ele>
        <time>2021-07-06T09:06:32.000Z</time>
      </trkpt>
      <trkpt lat="44.43125" lon="6.05626">
        <ele>719.20001220703</ele>
        <time>2021-07-06T09:06:36.000Z</time>
      </trkpt>
      <trkpt lat="44.43127" lon="6.05633">
        <ele>720.20001220703</ele>
        <time>2021-07-06T09:06:38.000Z</time>
      </trkpt>
      <trkpt lat="44.43128" lon="6.05636">
        <ele>720.59997558594</ele>
        <time>2021-07-06T09:06:39.000Z</time>
      </trkpt>
      <trkpt lat="44.43129" lon="6.05646">
        <ele>722</ele>
        <time>2021-07-06T09:06:42.000Z</time>
      </trkpt>
      <trkpt lat="44.43132" lon="6.05659">
        <ele>723.59997558594</ele>
        <time>2021-07-06T09:06:46.000Z</time>
      </trkpt>
      <trkpt lat="44.43133" lon="6.05671">
        <ele>724.79998779297</ele>
        <time>2021-07-06T09:06:50.000Z</time>
      </trkpt>
      <trkpt lat="44.43134" lon="6.05682">
        <ele>725.79998779297</ele>
        <time>2021-07-06T09:06:53.000Z</time>
      </trkpt>
      <trkpt lat="44.43134" lon="6.05685">
        <ele>726</ele>
        <time>2021-07-06T09:06:54.000Z</time>
      </trkpt>
      <trkpt lat="44.43135" lon="6.05699">
        <ele>727.20001220703</ele>
        <time>2021-07-06T09:06:58.000Z</time>
      </trkpt>
      <trkpt lat="44.43136" lon="6.05709">
        <ele>728</ele>
        <time>2021-07-06T09:07:01.000Z</time>
      </trkpt>
      <trkpt lat="44.43137" lon="6.05712">
        <ele>728.40002441406</ele>
        <time>2021-07-06T09:07:02.000Z</time>
      </trkpt>
      <trkpt lat="44.43138" lon="6.05722">
        <ele>729.40002441406</ele>
        <time>2021-07-06T09:07:05.000Z</time>
      </trkpt>
      <trkpt lat="44.4314" lon="6.05736">
        <ele>730.59997558594</ele>
        <time>2021-07-06T09:07:09.000Z</time>
      </trkpt>
      <trkpt lat="44.43141" lon="6.05743">
        <ele>731.20001220703</ele>
        <time>2021-07-06T09:07:11.000Z</time>
      </trkpt>
      <trkpt lat="44.43143" lon="6.0575">
        <ele>732</ele>
        <time>2021-07-06T09:07:13.000Z</time>
      </trkpt>
      <trkpt lat="44.43144" lon="6.05764">
        <ele>733</ele>
        <time>2021-07-06T09:07:17.000Z</time>
      </trkpt>
      <trkpt lat="44.43145" lon="6.05772">
        <ele>733.59997558594</ele>
        <time>2021-07-06T09:07:19.000Z</time>
      </trkpt>
      <trkpt lat="44.43146" lon="6.05779">
        <ele>734</ele>
        <time>2021-07-06T09:07:21.000Z</time>
      </trkpt>
      <trkpt lat="44.43147" lon="6.05793">
        <ele>735.20001220703</ele>
        <time>2021-07-06T09:07:25.000Z</time>
      </trkpt>
      <trkpt lat="44.43147" lon="6.05796">
        <ele>735.59997558594</ele>
        <time>2021-07-06T09:07:26.000Z</time>
      </trkpt>
      <trkpt lat="44.43148" lon="6.05806">
        <ele>736.40002441406</ele>
        <time>2021-07-06T09:07:29.000Z</time>
      </trkpt>
      <trkpt lat="44.43149" lon="6.05818">
        <ele>737.40002441406</ele>
        <time>2021-07-06T09:07:33.000Z</time>
      </trkpt>
      <trkpt lat="44.43149" lon="6.05821">
        <ele>737.59997558594</ele>
        <time>2021-07-06T09:07:34.000Z</time>
      </trkpt>
      <trkpt lat="44.43153" lon="6.05833">
        <ele>738.59997558594</ele>
        <time>2021-07-06T09:07:38.000Z</time>
      </trkpt>
      <trkpt lat="44.43154" lon="6.05836">
        <ele>738.79998779297</ele>
        <time>2021-07-06T09:07:39.000Z</time>
      </trkpt>
      <trkpt lat="44.43158" lon="6.05841">
        <ele>739.79998779297</ele>
        <time>2021-07-06T09:07:41.000Z</time>
      </trkpt>
      <trkpt lat="44.43165" lon="6.05846">
        <ele>741</ele>
        <time>2021-07-06T09:07:44.000Z</time>
      </trkpt>
      <trkpt lat="44.43173" lon="6.05849">
        <ele>742</ele>
        <time>2021-07-06T09:07:47.000Z</time>
      </trkpt>
      <trkpt lat="44.43181" lon="6.0585">
        <ele>742.59997558594</ele>
        <time>2021-07-06T09:07:50.000Z</time>
      </trkpt>
      <trkpt lat="44.43186" lon="6.0585">
        <ele>743</ele>
        <time>2021-07-06T09:07:52.000Z</time>
      </trkpt>
      <trkpt lat="44.43197" lon="6.05842">
        <ele>744.20001220703</ele>
        <time>2021-07-06T09:07:57.000Z</time>
      </trkpt>
      <trkpt lat="44.43207" lon="6.05831">
        <ele>745.40002441406</ele>
        <time>2021-07-06T09:08:02.000Z</time>
      </trkpt>
      <trkpt lat="44.43209" lon="6.05828">
        <ele>745.79998779297</ele>
        <time>2021-07-06T09:08:03.000Z</time>
      </trkpt>
      <trkpt lat="44.43215" lon="6.05821">
        <ele>746.40002441406</ele>
        <time>2021-07-06T09:08:06.000Z</time>
      </trkpt>
      <trkpt lat="44.43221" lon="6.05815">
        <ele>747.40002441406</ele>
        <time>2021-07-06T09:08:09.000Z</time>
      </trkpt>
      <trkpt lat="44.43225" lon="6.05811">
        <ele>748</ele>
        <time>2021-07-06T09:08:11.000Z</time>
      </trkpt>
      <trkpt lat="44.43229" lon="6.05807">
        <ele>748.59997558594</ele>
        <time>2021-07-06T09:08:13.000Z</time>
      </trkpt>
      <trkpt lat="44.43238" lon="6.058">
        <ele>749.79998779297</ele>
        <time>2021-07-06T09:08:17.000Z</time>
      </trkpt>
      <trkpt lat="44.43245" lon="6.05794">
        <ele>750.59997558594</ele>
        <time>2021-07-06T09:08:20.000Z</time>
      </trkpt>
      <trkpt lat="44.43249" lon="6.0579">
        <ele>751</ele>
        <time>2021-07-06T09:08:22.000Z</time>
      </trkpt>
      <trkpt lat="44.4326" lon="6.0578">
        <ele>752</ele>
        <time>2021-07-06T09:08:27.000Z</time>
      </trkpt>
      <trkpt lat="44.43267" lon="6.05772">
        <ele>752.79998779297</ele>
        <time>2021-07-06T09:08:31.000Z</time>
      </trkpt>
      <trkpt lat="44.43269" lon="6.05771">
        <ele>753.20001220703</ele>
        <time>2021-07-06T09:08:32.000Z</time>
      </trkpt>
      <trkpt lat="44.43276" lon="6.05763">
        <ele>754.59997558594</ele>
        <time>2021-07-06T09:08:36.000Z</time>
      </trkpt>
      <trkpt lat="44.43282" lon="6.0576">
        <ele>755.20001220703</ele>
        <time>2021-07-06T09:08:39.000Z</time>
      </trkpt>
      <trkpt lat="44.43285" lon="6.05757">
        <ele>755.79998779297</ele>
        <time>2021-07-06T09:08:41.000Z</time>
      </trkpt>
      <trkpt lat="44.43293" lon="6.05753">
        <ele>757</ele>
        <time>2021-07-06T09:08:45.000Z</time>
      </trkpt>
      <trkpt lat="44.433" lon="6.05748">
        <ele>758</ele>
        <time>2021-07-06T09:08:49.000Z</time>
      </trkpt>
      <trkpt lat="44.43309" lon="6.05742">
        <ele>759.20001220703</ele>
        <time>2021-07-06T09:08:54.000Z</time>
      </trkpt>
      <trkpt lat="44.43316" lon="6.05739">
        <ele>760.40002441406</ele>
        <time>2021-07-06T09:08:58.000Z</time>
      </trkpt>
      <trkpt lat="44.43318" lon="6.05738">
        <ele>760.59997558594</ele>
        <time>2021-07-06T09:08:59.000Z</time>
      </trkpt>
      <trkpt lat="44.43321" lon="6.05738">
        <ele>761.40002441406</ele>
        <time>2021-07-06T09:09:01.000Z</time>
      </trkpt>
      <trkpt lat="44.43326" lon="6.05738">
        <ele>762.40002441406</ele>
        <time>2021-07-06T09:09:04.000Z</time>
      </trkpt>
      <trkpt lat="44.43334" lon="6.05739">
        <ele>763.20001220703</ele>
        <time>2021-07-06T09:09:08.000Z</time>
      </trkpt>
      <trkpt lat="44.43337" lon="6.05739">
        <ele>763.40002441406</ele>
        <time>2021-07-06T09:09:09.000Z</time>
      </trkpt>
      <trkpt lat="44.43344" lon="6.05741">
        <ele>764.59997558594</ele>
        <time>2021-07-06T09:09:13.000Z</time>
      </trkpt>
      <trkpt lat="44.43352" lon="6.05742">
        <ele>765.40002441406</ele>
        <time>2021-07-06T09:09:17.000Z</time>
      </trkpt>
      <trkpt lat="44.4336" lon="6.05738">
        <ele>766.59997558594</ele>
        <time>2021-07-06T09:09:21.000Z</time>
      </trkpt>
      <trkpt lat="44.43367" lon="6.05733">
        <ele>767.59997558594</ele>
        <time>2021-07-06T09:09:25.000Z</time>
      </trkpt>
      <trkpt lat="44.43369" lon="6.05732">
        <ele>767.79998779297</ele>
        <time>2021-07-06T09:09:26.000Z</time>
      </trkpt>
      <trkpt lat="44.43378" lon="6.05729">
        <ele>769.40002441406</ele>
        <time>2021-07-06T09:09:31.000Z</time>
      </trkpt>
      <trkpt lat="44.4338" lon="6.05728">
        <ele>769.59997558594</ele>
        <time>2021-07-06T09:09:32.000Z</time>
      </trkpt>
      <trkpt lat="44.43385" lon="6.05725">
        <ele>770.40002441406</ele>
        <time>2021-07-06T09:09:35.000Z</time>
      </trkpt>
      <trkpt lat="44.43392" lon="6.05722">
        <ele>771.59997558594</ele>
        <time>2021-07-06T09:09:39.000Z</time>
      </trkpt>
      <trkpt lat="44.43399" lon="6.05719">
        <ele>772.59997558594</ele>
        <time>2021-07-06T09:09:43.000Z</time>
      </trkpt>
      <trkpt lat="44.43401" lon="6.05718">
        <ele>773</ele>
        <time>2021-07-06T09:09:44.000Z</time>
      </trkpt>
      <trkpt lat="44.43408" lon="6.05716">
        <ele>773.79998779297</ele>
        <time>2021-07-06T09:09:48.000Z</time>
      </trkpt>
      <trkpt lat="44.43411" lon="6.05715">
        <ele>774.20001220703</ele>
        <time>2021-07-06T09:09:50.000Z</time>
      </trkpt>
      <trkpt lat="44.43415" lon="6.05715">
        <ele>774.79998779297</ele>
        <time>2021-07-06T09:09:52.000Z</time>
      </trkpt>
      <trkpt lat="44.43425" lon="6.05715">
        <ele>776</ele>
        <time>2021-07-06T09:09:57.000Z</time>
      </trkpt>
      <trkpt lat="44.43433" lon="6.05713">
        <ele>777.20001220703</ele>
        <time>2021-07-06T09:10:01.000Z</time>
      </trkpt>
      <trkpt lat="44.43441" lon="6.05712">
        <ele>778.20001220703</ele>
        <time>2021-07-06T09:10:05.000Z</time>
      </trkpt>
      <trkpt lat="44.43443" lon="6.05712">
        <ele>778.40002441406</ele>
        <time>2021-07-06T09:10:06.000Z</time>
      </trkpt>
      <trkpt lat="44.43456" lon="6.05713">
        <ele>779.59997558594</ele>
        <time>2021-07-06T09:10:12.000Z</time>
      </trkpt>
      <trkpt lat="44.43458" lon="6.05713">
        <ele>779.79998779297</ele>
        <time>2021-07-06T09:10:13.000Z</time>
      </trkpt>
      <trkpt lat="44.43465" lon="6.05714">
        <ele>780.79998779297</ele>
        <time>2021-07-06T09:10:17.000Z</time>
      </trkpt>
      <trkpt lat="44.43471" lon="6.05714">
        <ele>781.79998779297</ele>
        <time>2021-07-06T09:10:21.000Z</time>
      </trkpt>
      <trkpt lat="44.43477" lon="6.05722">
        <ele>783</ele>
        <time>2021-07-06T09:10:26.000Z</time>
      </trkpt>
      <trkpt lat="44.43478" lon="6.05724">
        <ele>783.20001220703</ele>
        <time>2021-07-06T09:10:27.000Z</time>
      </trkpt>
      <trkpt lat="44.43484" lon="6.05737">
        <ele>784.20001220703</ele>
        <time>2021-07-06T09:10:32.000Z</time>
      </trkpt>
      <trkpt lat="44.43485" lon="6.05742">
        <ele>784.40002441406</ele>
        <time>2021-07-06T09:10:34.000Z</time>
      </trkpt>
      <trkpt lat="44.43485" lon="6.05753">
        <ele>785.20001220703</ele>
        <time>2021-07-06T09:10:38.000Z</time>
      </trkpt>
      <trkpt lat="44.43484" lon="6.05764">
        <ele>786</ele>
        <time>2021-07-06T09:10:42.000Z</time>
      </trkpt>
      <trkpt lat="44.43481" lon="6.0577">
        <ele>786.40002441406</ele>
        <time>2021-07-06T09:10:45.000Z</time>
      </trkpt>
      <trkpt lat="44.43476" lon="6.05775">
        <ele>787</ele>
        <time>2021-07-06T09:10:48.000Z</time>
      </trkpt>
      <trkpt lat="44.43472" lon="6.05778">
        <ele>787.59997558594</ele>
        <time>2021-07-06T09:10:50.000Z</time>
      </trkpt>
      <trkpt lat="44.43466" lon="6.05782">
        <ele>788.79998779297</ele>
        <time>2021-07-06T09:10:53.000Z</time>
      </trkpt>
      <trkpt lat="44.43458" lon="6.05786">
        <ele>789.79998779297</ele>
        <time>2021-07-06T09:10:57.000Z</time>
      </trkpt>
      <trkpt lat="44.43457" lon="6.05787">
        <ele>790</ele>
        <time>2021-07-06T09:10:58.000Z</time>
      </trkpt>
      <trkpt lat="44.43449" lon="6.05799">
        <ele>791</ele>
        <time>2021-07-06T09:11:04.000Z</time>
      </trkpt>
      <trkpt lat="44.43448" lon="6.05802">
        <ele>791.20001220703</ele>
        <time>2021-07-06T09:11:05.000Z</time>
      </trkpt>
      <trkpt lat="44.43453" lon="6.05813">
        <ele>792.20001220703</ele>
        <time>2021-07-06T09:11:10.000Z</time>
      </trkpt>
      <trkpt lat="44.43456" lon="6.05813">
        <ele>792.59997558594</ele>
        <time>2021-07-06T09:11:12.000Z</time>
      </trkpt>
      <trkpt lat="44.43461" lon="6.05812">
        <ele>793</ele>
        <time>2021-07-06T09:11:14.000Z</time>
      </trkpt>
      <trkpt lat="44.43466" lon="6.05812">
        <ele>793.40002441406</ele>
        <time>2021-07-06T09:11:16.000Z</time>
      </trkpt>
      <trkpt lat="44.4347" lon="6.05813">
        <ele>793.79998779297</ele>
        <time>2021-07-06T09:11:18.000Z</time>
      </trkpt>
      <trkpt lat="44.43476" lon="6.05816">
        <ele>794.20001220703</ele>
        <time>2021-07-06T09:11:21.000Z</time>
      </trkpt>
      <trkpt lat="44.4348" lon="6.05818">
        <ele>794.40002441406</ele>
        <time>2021-07-06T09:11:23.000Z</time>
      </trkpt>
      <trkpt lat="44.43497" lon="6.05825">
        <ele>795.40002441406</ele>
        <time>2021-07-06T09:11:30.000Z</time>
      </trkpt>
      <trkpt lat="44.43517" lon="6.0583">
        <ele>796.40002441406</ele>
        <time>2021-07-06T09:11:39.000Z</time>
      </trkpt>
      <trkpt lat="44.4352" lon="6.0583">
        <ele>796.59997558594</ele>
        <time>2021-07-06T09:11:40.000Z</time>
      </trkpt>
      <trkpt lat="44.43535" lon="6.05831">
        <ele>797.59997558594</ele>
        <time>2021-07-06T09:11:47.000Z</time>
      </trkpt>
      <trkpt lat="44.43545" lon="6.0583">
        <ele>798.59997558594</ele>
        <time>2021-07-06T09:11:52.000Z</time>
      </trkpt>
      <trkpt lat="44.43549" lon="6.05831">
        <ele>799</ele>
        <time>2021-07-06T09:11:54.000Z</time>
      </trkpt>
      <trkpt lat="44.43556" lon="6.05834">
        <ele>799.79998779297</ele>
        <time>2021-07-06T09:11:58.000Z</time>
      </trkpt>
      <trkpt lat="44.43558" lon="6.05838">
        <ele>800</ele>
        <time>2021-07-06T09:12:00.000Z</time>
      </trkpt>
      <trkpt lat="44.43552" lon="6.05845">
        <ele>800.79998779297</ele>
        <time>2021-07-06T09:12:04.000Z</time>
      </trkpt>
      <trkpt lat="44.43542" lon="6.05845">
        <ele>802</ele>
        <time>2021-07-06T09:12:09.000Z</time>
      </trkpt>
      <trkpt lat="44.4354" lon="6.05844">
        <ele>802.20001220703</ele>
        <time>2021-07-06T09:12:10.000Z</time>
      </trkpt>
      <trkpt lat="44.43534" lon="6.05844">
        <ele>803</ele>
        <time>2021-07-06T09:12:13.000Z</time>
      </trkpt>
      <trkpt lat="44.43523" lon="6.05845">
        <ele>804</ele>
        <time>2021-07-06T09:12:18.000Z</time>
      </trkpt>
      <trkpt lat="44.43512" lon="6.05847">
        <ele>805</ele>
        <time>2021-07-06T09:12:24.000Z</time>
      </trkpt>
      <trkpt lat="44.43508" lon="6.05848">
        <ele>805.59997558594</ele>
        <time>2021-07-06T09:12:26.000Z</time>
      </trkpt>
      <trkpt lat="44.43502" lon="6.0585">
        <ele>806</ele>
        <time>2021-07-06T09:12:29.000Z</time>
      </trkpt>
      <trkpt lat="44.43489" lon="6.05852">
        <ele>807.20001220703</ele>
        <time>2021-07-06T09:12:35.000Z</time>
      </trkpt>
      <trkpt lat="44.43478" lon="6.05856">
        <ele>808.40002441406</ele>
        <time>2021-07-06T09:12:41.000Z</time>
      </trkpt>
      <trkpt lat="44.43474" lon="6.05857">
        <ele>808.79998779297</ele>
        <time>2021-07-06T09:12:43.000Z</time>
      </trkpt>
      <trkpt lat="44.43468" lon="6.05859">
        <ele>809.59997558594</ele>
        <time>2021-07-06T09:12:46.000Z</time>
      </trkpt>
      <trkpt lat="44.43459" lon="6.05866">
        <ele>810.79998779297</ele>
        <time>2021-07-06T09:12:51.000Z</time>
      </trkpt>
      <trkpt lat="44.43456" lon="6.05868">
        <ele>811</ele>
        <time>2021-07-06T09:12:53.000Z</time>
      </trkpt>
      <trkpt lat="44.43449" lon="6.05875">
        <ele>811.79998779297</ele>
        <time>2021-07-06T09:12:57.000Z</time>
      </trkpt>
      <trkpt lat="44.43441" lon="6.05882">
        <ele>813</ele>
        <time>2021-07-06T09:13:02.000Z</time>
      </trkpt>
      <trkpt lat="44.4343" lon="6.05887">
        <ele>814</ele>
        <time>2021-07-06T09:13:08.000Z</time>
      </trkpt>
      <trkpt lat="44.43424" lon="6.0589">
        <ele>814.79998779297</ele>
        <time>2021-07-06T09:13:12.000Z</time>
      </trkpt>
      <trkpt lat="44.43422" lon="6.05891">
        <ele>815</ele>
        <time>2021-07-06T09:13:13.000Z</time>
      </trkpt>
      <trkpt lat="44.43414" lon="6.05894">
        <ele>816</ele>
        <time>2021-07-06T09:13:18.000Z</time>
      </trkpt>
      <trkpt lat="44.4341" lon="6.05894">
        <ele>816.59997558594</ele>
        <time>2021-07-06T09:13:20.000Z</time>
      </trkpt>
      <trkpt lat="44.43403" lon="6.05892">
        <ele>817</ele>
        <time>2021-07-06T09:13:23.000Z</time>
      </trkpt>
      <trkpt lat="44.43395" lon="6.05885">
        <ele>817.59997558594</ele>
        <time>2021-07-06T09:13:27.000Z</time>
      </trkpt>
      <trkpt lat="44.43391" lon="6.05884">
        <ele>818</ele>
        <time>2021-07-06T09:13:29.000Z</time>
      </trkpt>
      <trkpt lat="44.43386" lon="6.05886">
        <ele>818.20001220703</ele>
        <time>2021-07-06T09:13:31.000Z</time>
      </trkpt>
      <trkpt lat="44.43385" lon="6.05888">
        <ele>818.40002441406</ele>
        <time>2021-07-06T09:13:32.000Z</time>
      </trkpt>
      <trkpt lat="44.43385" lon="6.05899">
        <ele>819</ele>
        <time>2021-07-06T09:13:36.000Z</time>
      </trkpt>
      <trkpt lat="44.43388" lon="6.05904">
        <ele>819.20001220703</ele>
        <time>2021-07-06T09:13:38.000Z</time>
      </trkpt>
      <trkpt lat="44.43393" lon="6.05907">
        <ele>820</ele>
        <time>2021-07-06T09:13:41.000Z</time>
      </trkpt>
      <trkpt lat="44.43395" lon="6.05907">
        <ele>820.20001220703</ele>
        <time>2021-07-06T09:13:42.000Z</time>
      </trkpt>
      <trkpt lat="44.43412" lon="6.0591">
        <ele>821</ele>
        <time>2021-07-06T09:13:49.000Z</time>
      </trkpt>
      <trkpt lat="44.43418" lon="6.05911">
        <ele>821.40002441406</ele>
        <time>2021-07-06T09:13:52.000Z</time>
      </trkpt>
      <trkpt lat="44.43437" lon="6.05912">
        <ele>822</ele>
        <time>2021-07-06T09:14:00.000Z</time>
      </trkpt>
      <trkpt lat="44.43441" lon="6.05913">
        <ele>822.40002441406</ele>
        <time>2021-07-06T09:14:02.000Z</time>
      </trkpt>
      <trkpt lat="44.43456" lon="6.05912">
        <ele>823.40002441406</ele>
        <time>2021-07-06T09:14:09.000Z</time>
      </trkpt>
      <trkpt lat="44.43458" lon="6.05911">
        <ele>823.59997558594</ele>
        <time>2021-07-06T09:14:10.000Z</time>
      </trkpt>
      <trkpt lat="44.43468" lon="6.05911">
        <ele>824.20001220703</ele>
        <time>2021-07-06T09:14:15.000Z</time>
      </trkpt>
      <trkpt lat="44.43477" lon="6.05909">
        <ele>825</ele>
        <time>2021-07-06T09:14:19.000Z</time>
      </trkpt>
      <trkpt lat="44.43481" lon="6.05908">
        <ele>825.40002441406</ele>
        <time>2021-07-06T09:14:21.000Z</time>
      </trkpt>
      <trkpt lat="44.43495" lon="6.05907">
        <ele>826.40002441406</ele>
        <time>2021-07-06T09:14:28.000Z</time>
      </trkpt>
      <trkpt lat="44.43497" lon="6.05908">
        <ele>826.59997558594</ele>
        <time>2021-07-06T09:14:29.000Z</time>
      </trkpt>
      <trkpt lat="44.43505" lon="6.05911">
        <ele>827.40002441406</ele>
        <time>2021-07-06T09:14:33.000Z</time>
      </trkpt>
      <trkpt lat="44.43511" lon="6.05914">
        <ele>828.40002441406</ele>
        <time>2021-07-06T09:14:36.000Z</time>
      </trkpt>
      <trkpt lat="44.43517" lon="6.05917">
        <ele>829.20001220703</ele>
        <time>2021-07-06T09:14:39.000Z</time>
      </trkpt>
      <trkpt lat="44.4352" lon="6.0592">
        <ele>829.59997558594</ele>
        <time>2021-07-06T09:14:41.000Z</time>
      </trkpt>
      <trkpt lat="44.43527" lon="6.05929">
        <ele>830.79998779297</ele>
        <time>2021-07-06T09:14:46.000Z</time>
      </trkpt>
      <trkpt lat="44.43529" lon="6.05931">
        <ele>830.79998779297</ele>
        <time>2021-07-06T09:14:47.000Z</time>
      </trkpt>
      <trkpt lat="44.43533" lon="6.05942">
        <ele>832</ele>
        <time>2021-07-06T09:14:52.000Z</time>
      </trkpt>
      <trkpt lat="44.43534" lon="6.0595">
        <ele>832.59997558594</ele>
        <time>2021-07-06T09:14:55.000Z</time>
      </trkpt>
      <trkpt lat="44.43533" lon="6.05958">
        <ele>833</ele>
        <time>2021-07-06T09:14:58.000Z</time>
      </trkpt>
      <trkpt lat="44.43528" lon="6.05967">
        <ele>834</ele>
        <time>2021-07-06T09:15:02.000Z</time>
      </trkpt>
      <trkpt lat="44.43527" lon="6.05969">
        <ele>834.20001220703</ele>
        <time>2021-07-06T09:15:03.000Z</time>
      </trkpt>
      <trkpt lat="44.43518" lon="6.05977">
        <ele>835.40002441406</ele>
        <time>2021-07-06T09:15:08.000Z</time>
      </trkpt>
      <trkpt lat="44.4351" lon="6.05982">
        <ele>836.40002441406</ele>
        <time>2021-07-06T09:15:13.000Z</time>
      </trkpt>
      <trkpt lat="44.43503" lon="6.05984">
        <ele>837.20001220703</ele>
        <time>2021-07-06T09:15:17.000Z</time>
      </trkpt>
      <trkpt lat="44.43501" lon="6.05985">
        <ele>837.40002441406</ele>
        <time>2021-07-06T09:15:18.000Z</time>
      </trkpt>
      <trkpt lat="44.43493" lon="6.05986">
        <ele>838.59997558594</ele>
        <time>2021-07-06T09:15:22.000Z</time>
      </trkpt>
      <trkpt lat="44.43487" lon="6.05988">
        <ele>839.20001220703</ele>
        <time>2021-07-06T09:15:25.000Z</time>
      </trkpt>
      <trkpt lat="44.43481" lon="6.0599">
        <ele>839.79998779297</ele>
        <time>2021-07-06T09:15:28.000Z</time>
      </trkpt>
      <trkpt lat="44.43471" lon="6.05993">
        <ele>840.59997558594</ele>
        <time>2021-07-06T09:15:34.000Z</time>
      </trkpt>
      <trkpt lat="44.43469" lon="6.05993">
        <ele>840.79998779297</ele>
        <time>2021-07-06T09:15:35.000Z</time>
      </trkpt>
      <trkpt lat="44.43455" lon="6.05997">
        <ele>841.79998779297</ele>
        <time>2021-07-06T09:15:41.000Z</time>
      </trkpt>
      <trkpt lat="44.43453" lon="6.05997">
        <ele>842</ele>
        <time>2021-07-06T09:15:42.000Z</time>
      </trkpt>
      <trkpt lat="44.4344" lon="6.06002">
        <ele>843</ele>
        <time>2021-07-06T09:15:48.000Z</time>
      </trkpt>
      <trkpt lat="44.43434" lon="6.06007">
        <ele>843.59997558594</ele>
        <time>2021-07-06T09:15:51.000Z</time>
      </trkpt>
      <trkpt lat="44.4343" lon="6.0601">
        <ele>844</ele>
        <time>2021-07-06T09:15:53.000Z</time>
      </trkpt>
      <trkpt lat="44.43418" lon="6.06015">
        <ele>845.20001220703</ele>
        <time>2021-07-06T09:15:59.000Z</time>
      </trkpt>
      <trkpt lat="44.43415" lon="6.06017">
        <ele>845.59997558594</ele>
        <time>2021-07-06T09:16:01.000Z</time>
      </trkpt>
      <trkpt lat="44.43407" lon="6.0602">
        <ele>846.40002441406</ele>
        <time>2021-07-06T09:16:05.000Z</time>
      </trkpt>
      <trkpt lat="44.43398" lon="6.06022">
        <ele>847.40002441406</ele>
        <time>2021-07-06T09:16:10.000Z</time>
      </trkpt>
      <trkpt lat="44.43396" lon="6.06023">
        <ele>847.59997558594</ele>
        <time>2021-07-06T09:16:11.000Z</time>
      </trkpt>
      <trkpt lat="44.43388" lon="6.06026">
        <ele>848.40002441406</ele>
        <time>2021-07-06T09:16:15.000Z</time>
      </trkpt>
      <trkpt lat="44.43382" lon="6.06029">
        <ele>849.40002441406</ele>
        <time>2021-07-06T09:16:18.000Z</time>
      </trkpt>
      <trkpt lat="44.43378" lon="6.06031">
        <ele>849.79998779297</ele>
        <time>2021-07-06T09:16:20.000Z</time>
      </trkpt>
      <trkpt lat="44.43372" lon="6.06034">
        <ele>850.79998779297</ele>
        <time>2021-07-06T09:16:23.000Z</time>
      </trkpt>
      <trkpt lat="44.43362" lon="6.06041">
        <ele>852</ele>
        <time>2021-07-06T09:16:29.000Z</time>
      </trkpt>
      <trkpt lat="44.4336" lon="6.06042">
        <ele>852.20001220703</ele>
        <time>2021-07-06T09:16:30.000Z</time>
      </trkpt>
      <trkpt lat="44.43354" lon="6.06047">
        <ele>853</ele>
        <time>2021-07-06T09:16:34.000Z</time>
      </trkpt>
      <trkpt lat="44.43346" lon="6.06051">
        <ele>854</ele>
        <time>2021-07-06T09:16:39.000Z</time>
      </trkpt>
      <trkpt lat="44.43344" lon="6.06052">
        <ele>854.20001220703</ele>
        <time>2021-07-06T09:16:40.000Z</time>
      </trkpt>
      <trkpt lat="44.43336" lon="6.06054">
        <ele>855.40002441406</ele>
        <time>2021-07-06T09:16:45.000Z</time>
      </trkpt>
      <trkpt lat="44.4333" lon="6.06054">
        <ele>856.40002441406</ele>
        <time>2021-07-06T09:16:48.000Z</time>
      </trkpt>
      <trkpt lat="44.43328" lon="6.06055">
        <ele>856.59997558594</ele>
        <time>2021-07-06T09:16:49.000Z</time>
      </trkpt>
      <trkpt lat="44.43321" lon="6.06057">
        <ele>857.79998779297</ele>
        <time>2021-07-06T09:16:53.000Z</time>
      </trkpt>
      <trkpt lat="44.43314" lon="6.06061">
        <ele>858.59997558594</ele>
        <time>2021-07-06T09:16:57.000Z</time>
      </trkpt>
      <trkpt lat="44.43311" lon="6.06062">
        <ele>859</ele>
        <time>2021-07-06T09:16:59.000Z</time>
      </trkpt>
      <trkpt lat="44.43301" lon="6.06067">
        <ele>860</ele>
        <time>2021-07-06T09:17:04.000Z</time>
      </trkpt>
      <trkpt lat="44.433" lon="6.06069">
        <ele>860.20001220703</ele>
        <time>2021-07-06T09:17:05.000Z</time>
      </trkpt>
      <trkpt lat="44.43299" lon="6.06075">
        <ele>860.40002441406</ele>
        <time>2021-07-06T09:17:07.000Z</time>
      </trkpt>
      <trkpt lat="44.433" lon="6.0608">
        <ele>861</ele>
        <time>2021-07-06T09:17:09.000Z</time>
      </trkpt>
      <trkpt lat="44.43306" lon="6.06087">
        <ele>862.20001220703</ele>
        <time>2021-07-06T09:17:13.000Z</time>
      </trkpt>
      <trkpt lat="44.43308" lon="6.06087">
        <ele>862.20001220703</ele>
        <time>2021-07-06T09:17:14.000Z</time>
      </trkpt>
      <trkpt lat="44.43314" lon="6.06086">
        <ele>862.79998779297</ele>
        <time>2021-07-06T09:17:17.000Z</time>
      </trkpt>
      <trkpt lat="44.43316" lon="6.06086">
        <ele>863.20001220703</ele>
        <time>2021-07-06T09:17:18.000Z</time>
      </trkpt>
      <trkpt lat="44.43323" lon="6.06085">
        <ele>864.20001220703</ele>
        <time>2021-07-06T09:17:22.000Z</time>
      </trkpt>
      <trkpt lat="44.43325" lon="6.06085">
        <ele>864.40002441406</ele>
        <time>2021-07-06T09:17:23.000Z</time>
      </trkpt>
      <trkpt lat="44.43336" lon="6.06087">
        <ele>865.40002441406</ele>
        <time>2021-07-06T09:17:29.000Z</time>
      </trkpt>
      <trkpt lat="44.4334" lon="6.06088">
        <ele>865.79998779297</ele>
        <time>2021-07-06T09:17:31.000Z</time>
      </trkpt>
      <trkpt lat="44.43345" lon="6.0609">
        <ele>866.59997558594</ele>
        <time>2021-07-06T09:17:34.000Z</time>
      </trkpt>
      <trkpt lat="44.43354" lon="6.06093">
        <ele>867.59997558594</ele>
        <time>2021-07-06T09:17:39.000Z</time>
      </trkpt>
      <trkpt lat="44.43356" lon="6.06094">
        <ele>867.79998779297</ele>
        <time>2021-07-06T09:17:40.000Z</time>
      </trkpt>
      <trkpt lat="44.43362" lon="6.06099">
        <ele>868.59997558594</ele>
        <time>2021-07-06T09:17:44.000Z</time>
      </trkpt>
      <trkpt lat="44.43364" lon="6.06103">
        <ele>869.40002441406</ele>
        <time>2021-07-06T09:17:46.000Z</time>
      </trkpt>
      <trkpt lat="44.43365" lon="6.06107">
        <ele>869.79998779297</ele>
        <time>2021-07-06T09:17:48.000Z</time>
      </trkpt>
      <trkpt lat="44.43364" lon="6.06123">
        <ele>871</ele>
        <time>2021-07-06T09:17:54.000Z</time>
      </trkpt>
      <trkpt lat="44.43362" lon="6.06135">
        <ele>872</ele>
        <time>2021-07-06T09:17:59.000Z</time>
      </trkpt>
      <trkpt lat="44.43361" lon="6.06141">
        <ele>872.40002441406</ele>
        <time>2021-07-06T09:18:01.000Z</time>
      </trkpt>
      <trkpt lat="44.43361" lon="6.06149">
        <ele>873.20001220703</ele>
        <time>2021-07-06T09:18:04.000Z</time>
      </trkpt>
      <trkpt lat="44.4336" lon="6.06159">
        <ele>874.40002441406</ele>
        <time>2021-07-06T09:18:08.000Z</time>
      </trkpt>
      <trkpt lat="44.43358" lon="6.06171">
        <ele>875.59997558594</ele>
        <time>2021-07-06T09:18:13.000Z</time>
      </trkpt>
      <trkpt lat="44.4336" lon="6.06179">
        <ele>876.20001220703</ele>
        <time>2021-07-06T09:18:16.000Z</time>
      </trkpt>
      <trkpt lat="44.4336" lon="6.06184">
        <ele>876.40002441406</ele>
        <time>2021-07-06T09:18:18.000Z</time>
      </trkpt>
      <trkpt lat="44.4336" lon="6.06202">
        <ele>877.59997558594</ele>
        <time>2021-07-06T09:18:24.000Z</time>
      </trkpt>
      <trkpt lat="44.43359" lon="6.06217">
        <ele>878.79998779297</ele>
        <time>2021-07-06T09:18:29.000Z</time>
      </trkpt>
      <trkpt lat="44.43358" lon="6.06222">
        <ele>879.20001220703</ele>
        <time>2021-07-06T09:18:31.000Z</time>
      </trkpt>
      <trkpt lat="44.43354" lon="6.0623">
        <ele>880</ele>
        <time>2021-07-06T09:18:34.000Z</time>
      </trkpt>
      <trkpt lat="44.43348" lon="6.06243">
        <ele>881.20001220703</ele>
        <time>2021-07-06T09:18:39.000Z</time>
      </trkpt>
      <trkpt lat="44.43345" lon="6.06249">
        <ele>882</ele>
        <time>2021-07-06T09:18:41.000Z</time>
      </trkpt>
      <trkpt lat="44.43343" lon="6.06251">
        <ele>882.40002441406</ele>
        <time>2021-07-06T09:18:42.000Z</time>
      </trkpt>
      <trkpt lat="44.43335" lon="6.06266">
        <ele>883.40002441406</ele>
        <time>2021-07-06T09:18:48.000Z</time>
      </trkpt>
      <trkpt lat="44.43334" lon="6.06269">
        <ele>883.59997558594</ele>
        <time>2021-07-06T09:18:49.000Z</time>
      </trkpt>
      <trkpt lat="44.4333" lon="6.06279">
        <ele>884.59997558594</ele>
        <time>2021-07-06T09:18:53.000Z</time>
      </trkpt>
      <trkpt lat="44.43327" lon="6.0629">
        <ele>885.59997558594</ele>
        <time>2021-07-06T09:18:57.000Z</time>
      </trkpt>
      <trkpt lat="44.43326" lon="6.06298">
        <ele>886.20001220703</ele>
        <time>2021-07-06T09:19:00.000Z</time>
      </trkpt>
      <trkpt lat="44.43325" lon="6.06306">
        <ele>886.79998779297</ele>
        <time>2021-07-06T09:19:03.000Z</time>
      </trkpt>
      <trkpt lat="44.43324" lon="6.06317">
        <ele>887.59997558594</ele>
        <time>2021-07-06T09:19:07.000Z</time>
      </trkpt>
      <trkpt lat="44.43324" lon="6.0632">
        <ele>888</ele>
        <time>2021-07-06T09:19:08.000Z</time>
      </trkpt>
      <trkpt lat="44.43325" lon="6.0634">
        <ele>888.79998779297</ele>
        <time>2021-07-06T09:19:15.000Z</time>
      </trkpt>
      <trkpt lat="44.43325" lon="6.06342">
        <ele>889</ele>
        <time>2021-07-06T09:19:16.000Z</time>
      </trkpt>
      <trkpt lat="44.43326" lon="6.06357">
        <ele>890</ele>
        <time>2021-07-06T09:19:22.000Z</time>
      </trkpt>
      <trkpt lat="44.43325" lon="6.06369">
        <ele>891</ele>
        <time>2021-07-06T09:19:27.000Z</time>
      </trkpt>
      <trkpt lat="44.43324" lon="6.06374">
        <ele>891.40002441406</ele>
        <time>2021-07-06T09:19:29.000Z</time>
      </trkpt>
      <trkpt lat="44.43323" lon="6.06384">
        <ele>892.20001220703</ele>
        <time>2021-07-06T09:19:32.000Z</time>
      </trkpt>
      <trkpt lat="44.43324" lon="6.06396">
        <ele>893.20001220703</ele>
        <time>2021-07-06T09:19:37.000Z</time>
      </trkpt>
      <trkpt lat="44.43325" lon="6.06398">
        <ele>893.20001220703</ele>
        <time>2021-07-06T09:19:38.000Z</time>
      </trkpt>
      <trkpt lat="44.43328" lon="6.06411">
        <ele>894.40002441406</ele>
        <time>2021-07-06T09:19:43.000Z</time>
      </trkpt>
      <trkpt lat="44.43329" lon="6.06414">
        <ele>894.79998779297</ele>
        <time>2021-07-06T09:19:44.000Z</time>
      </trkpt>
      <trkpt lat="44.43328" lon="6.06426">
        <ele>895.59997558594</ele>
        <time>2021-07-06T09:19:48.000Z</time>
      </trkpt>
      <trkpt lat="44.43328" lon="6.06429">
        <ele>895.79998779297</ele>
        <time>2021-07-06T09:19:49.000Z</time>
      </trkpt>
      <trkpt lat="44.43326" lon="6.06435">
        <ele>896</ele>
        <time>2021-07-06T09:19:51.000Z</time>
      </trkpt>
      <trkpt lat="44.43323" lon="6.06436">
        <ele>896.59997558594</ele>
        <time>2021-07-06T09:19:53.000Z</time>
      </trkpt>
      <trkpt lat="44.43322" lon="6.06436">
        <ele>896.79998779297</ele>
        <time>2021-07-06T09:19:54.000Z</time>
      </trkpt>
      <trkpt lat="44.43319" lon="6.06432">
        <ele>897.20001220703</ele>
        <time>2021-07-06T09:19:56.000Z</time>
      </trkpt>
      <trkpt lat="44.43317" lon="6.06428">
        <ele>897.79998779297</ele>
        <time>2021-07-06T09:19:58.000Z</time>
      </trkpt>
      <trkpt lat="44.43316" lon="6.0642">
        <ele>898.79998779297</ele>
        <time>2021-07-06T09:20:02.000Z</time>
      </trkpt>
      <trkpt lat="44.43313" lon="6.06412">
        <ele>899.79998779297</ele>
        <time>2021-07-06T09:20:05.000Z</time>
      </trkpt>
      <trkpt lat="44.43312" lon="6.06407">
        <ele>900</ele>
        <time>2021-07-06T09:20:07.000Z</time>
      </trkpt>
      <trkpt lat="44.43311" lon="6.064">
        <ele>900.59997558594</ele>
        <time>2021-07-06T09:20:11.000Z</time>
      </trkpt>
      <trkpt lat="44.43311" lon="6.06392">
        <ele>901</ele>
        <time>2021-07-06T09:20:14.000Z</time>
      </trkpt>
      <trkpt lat="44.43308" lon="6.06379">
        <ele>902</ele>
        <time>2021-07-06T09:20:19.000Z</time>
      </trkpt>
      <trkpt lat="44.43307" lon="6.06373">
        <ele>902.40002441406</ele>
        <time>2021-07-06T09:20:21.000Z</time>
      </trkpt>
      <trkpt lat="44.43305" lon="6.06361">
        <ele>903.20001220703</ele>
        <time>2021-07-06T09:20:25.000Z</time>
      </trkpt>
      <trkpt lat="44.43303" lon="6.06351">
        <ele>904</ele>
        <time>2021-07-06T09:20:29.000Z</time>
      </trkpt>
      <trkpt lat="44.43303" lon="6.06348">
        <ele>904.20001220703</ele>
        <time>2021-07-06T09:20:30.000Z</time>
      </trkpt>
      <trkpt lat="44.43301" lon="6.06338">
        <ele>905.20001220703</ele>
        <time>2021-07-06T09:20:34.000Z</time>
      </trkpt>
      <trkpt lat="44.43299" lon="6.06327">
        <ele>906</ele>
        <time>2021-07-06T09:20:38.000Z</time>
      </trkpt>
      <trkpt lat="44.43299" lon="6.06324">
        <ele>906.20001220703</ele>
        <time>2021-07-06T09:20:39.000Z</time>
      </trkpt>
      <trkpt lat="44.43298" lon="6.06309">
        <ele>907.40002441406</ele>
        <time>2021-07-06T09:20:44.000Z</time>
      </trkpt>
      <trkpt lat="44.43299" lon="6.06295">
        <ele>908.40002441406</ele>
        <time>2021-07-06T09:20:49.000Z</time>
      </trkpt>
      <trkpt lat="44.43301" lon="6.06286">
        <ele>909.40002441406</ele>
        <time>2021-07-06T09:20:53.000Z</time>
      </trkpt>
      <trkpt lat="44.43301" lon="6.06283">
        <ele>909.59997558594</ele>
        <time>2021-07-06T09:20:54.000Z</time>
      </trkpt>
      <trkpt lat="44.43303" lon="6.06265">
        <ele>910.79998779297</ele>
        <time>2021-07-06T09:21:00.000Z</time>
      </trkpt>
      <trkpt lat="44.43305" lon="6.06249">
        <ele>911.79998779297</ele>
        <time>2021-07-06T09:21:05.000Z</time>
      </trkpt>
      <trkpt lat="44.43305" lon="6.06237">
        <ele>912.59997558594</ele>
        <time>2021-07-06T09:21:09.000Z</time>
      </trkpt>
      <trkpt lat="44.43303" lon="6.0623">
        <ele>913</ele>
        <time>2021-07-06T09:21:11.000Z</time>
      </trkpt>
      <trkpt lat="44.43296" lon="6.06222">
        <ele>913.40002441406</ele>
        <time>2021-07-06T09:21:14.000Z</time>
      </trkpt>
      <trkpt lat="44.43286" lon="6.06219">
        <ele>913.79998779297</ele>
        <time>2021-07-06T09:21:19.000Z</time>
      </trkpt>
      <trkpt lat="44.43283" lon="6.06223">
        <ele>914</ele>
        <time>2021-07-06T09:21:21.000Z</time>
      </trkpt>
      <trkpt lat="44.43282" lon="6.06225">
        <ele>914.20001220703</ele>
        <time>2021-07-06T09:21:22.000Z</time>
      </trkpt>
      <trkpt lat="44.4328" lon="6.06231">
        <ele>914.40002441406</ele>
        <time>2021-07-06T09:21:24.000Z</time>
      </trkpt>
      <trkpt lat="44.43279" lon="6.06241">
        <ele>915</ele>
        <time>2021-07-06T09:21:28.000Z</time>
      </trkpt>
      <trkpt lat="44.4328" lon="6.06249">
        <ele>915.59997558594</ele>
        <time>2021-07-06T09:21:31.000Z</time>
      </trkpt>
      <trkpt lat="44.4328" lon="6.06255">
        <ele>916.40002441406</ele>
        <time>2021-07-06T09:21:33.000Z</time>
      </trkpt>
      <trkpt lat="44.43279" lon="6.06268">
        <ele>917.40002441406</ele>
        <time>2021-07-06T09:21:38.000Z</time>
      </trkpt>
      <trkpt lat="44.43278" lon="6.06274">
        <ele>917.79998779297</ele>
        <time>2021-07-06T09:21:40.000Z</time>
      </trkpt>
      <trkpt lat="44.43276" lon="6.06282">
        <ele>918.40002441406</ele>
        <time>2021-07-06T09:21:43.000Z</time>
      </trkpt>
      <trkpt lat="44.43272" lon="6.06292">
        <ele>919.40002441406</ele>
        <time>2021-07-06T09:21:47.000Z</time>
      </trkpt>
      <trkpt lat="44.43272" lon="6.06294">
        <ele>919.59997558594</ele>
        <time>2021-07-06T09:21:48.000Z</time>
      </trkpt>
      <trkpt lat="44.43269" lon="6.06307">
        <ele>920.79998779297</ele>
        <time>2021-07-06T09:21:53.000Z</time>
      </trkpt>
      <trkpt lat="44.43267" lon="6.06315">
        <ele>921.59997558594</ele>
        <time>2021-07-06T09:21:56.000Z</time>
      </trkpt>
      <trkpt lat="44.43266" lon="6.0632">
        <ele>922</ele>
        <time>2021-07-06T09:21:58.000Z</time>
      </trkpt>
      <trkpt lat="44.43266" lon="6.06333">
        <ele>923.20001220703</ele>
        <time>2021-07-06T09:22:03.000Z</time>
      </trkpt>
      <trkpt lat="44.43267" lon="6.06352">
        <ele>924.20001220703</ele>
        <time>2021-07-06T09:22:09.000Z</time>
      </trkpt>
      <trkpt lat="44.43267" lon="6.06359">
        <ele>924.20001220703</ele>
        <time>2021-07-06T09:22:11.000Z</time>
      </trkpt>
      <trkpt lat="44.43267" lon="6.06367">
        <ele>925</ele>
        <time>2021-07-06T09:22:14.000Z</time>
      </trkpt>
      <trkpt lat="44.43266" lon="6.06384">
        <ele>926</ele>
        <time>2021-07-06T09:22:20.000Z</time>
      </trkpt>
      <trkpt lat="44.43266" lon="6.06396">
        <ele>927.20001220703</ele>
        <time>2021-07-06T09:22:24.000Z</time>
      </trkpt>
      <trkpt lat="44.43266" lon="6.06407">
        <ele>928.20001220703</ele>
        <time>2021-07-06T09:22:28.000Z</time>
      </trkpt>
      <trkpt lat="44.43266" lon="6.06412">
        <ele>928.59997558594</ele>
        <time>2021-07-06T09:22:30.000Z</time>
      </trkpt>
      <trkpt lat="44.43266" lon="6.0642">
        <ele>929.20001220703</ele>
        <time>2021-07-06T09:22:33.000Z</time>
      </trkpt>
      <trkpt lat="44.43266" lon="6.0643">
        <ele>930.40002441406</ele>
        <time>2021-07-06T09:22:37.000Z</time>
      </trkpt>
      <trkpt lat="44.43266" lon="6.06435">
        <ele>930.79998779297</ele>
        <time>2021-07-06T09:22:39.000Z</time>
      </trkpt>
      <trkpt lat="44.43265" lon="6.06442">
        <ele>931.59997558594</ele>
        <time>2021-07-06T09:22:42.000Z</time>
      </trkpt>
      <trkpt lat="44.43264" lon="6.06457">
        <ele>932.59997558594</ele>
        <time>2021-07-06T09:22:47.000Z</time>
      </trkpt>
      <trkpt lat="44.43264" lon="6.0646">
        <ele>932.79998779297</ele>
        <time>2021-07-06T09:22:48.000Z</time>
      </trkpt>
      <trkpt lat="44.43263" lon="6.06472">
        <ele>933.79998779297</ele>
        <time>2021-07-06T09:22:53.000Z</time>
      </trkpt>
      <trkpt lat="44.43263" lon="6.06478">
        <ele>934.20001220703</ele>
        <time>2021-07-06T09:22:55.000Z</time>
      </trkpt>
      <trkpt lat="44.43262" lon="6.06492">
        <ele>934.79998779297</ele>
        <time>2021-07-06T09:22:59.000Z</time>
      </trkpt>
      <trkpt lat="44.43262" lon="6.06501">
        <ele>935.59997558594</ele>
        <time>2021-07-06T09:23:02.000Z</time>
      </trkpt>
      <trkpt lat="44.43261" lon="6.06507">
        <ele>935.79998779297</ele>
        <time>2021-07-06T09:23:04.000Z</time>
      </trkpt>
      <trkpt lat="44.4326" lon="6.0652">
        <ele>937</ele>
        <time>2021-07-06T09:23:09.000Z</time>
      </trkpt>
      <trkpt lat="44.43261" lon="6.06526">
        <ele>937.40002441406</ele>
        <time>2021-07-06T09:23:11.000Z</time>
      </trkpt>
      <trkpt lat="44.43261" lon="6.06537">
        <ele>938.20001220703</ele>
        <time>2021-07-06T09:23:15.000Z</time>
      </trkpt>
      <trkpt lat="44.4326" lon="6.06548">
        <ele>939.20001220703</ele>
        <time>2021-07-06T09:23:19.000Z</time>
      </trkpt>
      <trkpt lat="44.4326" lon="6.06553">
        <ele>939.59997558594</ele>
        <time>2021-07-06T09:23:21.000Z</time>
      </trkpt>
      <trkpt lat="44.43259" lon="6.06561">
        <ele>940.20001220703</ele>
        <time>2021-07-06T09:23:24.000Z</time>
      </trkpt>
      <trkpt lat="44.43258" lon="6.06575">
        <ele>941.40002441406</ele>
        <time>2021-07-06T09:23:29.000Z</time>
      </trkpt>
      <trkpt lat="44.43258" lon="6.06583">
        <ele>942</ele>
        <time>2021-07-06T09:23:32.000Z</time>
      </trkpt>
      <trkpt lat="44.43258" lon="6.06588">
        <ele>942.40002441406</ele>
        <time>2021-07-06T09:23:34.000Z</time>
      </trkpt>
      <trkpt lat="44.43263" lon="6.06598">
        <ele>943.40002441406</ele>
        <time>2021-07-06T09:23:38.000Z</time>
      </trkpt>
      <trkpt lat="44.43265" lon="6.06601">
        <ele>943.59997558594</ele>
        <time>2021-07-06T09:23:39.000Z</time>
      </trkpt>
      <trkpt lat="44.43275" lon="6.06613">
        <ele>944.79998779297</ele>
        <time>2021-07-06T09:23:44.000Z</time>
      </trkpt>
      <trkpt lat="44.43277" lon="6.06618">
        <ele>945.20001220703</ele>
        <time>2021-07-06T09:23:46.000Z</time>
      </trkpt>
      <trkpt lat="44.4328" lon="6.06627">
        <ele>945.59997558594</ele>
        <time>2021-07-06T09:23:49.000Z</time>
      </trkpt>
      <trkpt lat="44.4328" lon="6.06642">
        <ele>946.59997558594</ele>
        <time>2021-07-06T09:23:54.000Z</time>
      </trkpt>
      <trkpt lat="44.43275" lon="6.06656">
        <ele>947.79998779297</ele>
        <time>2021-07-06T09:24:00.000Z</time>
      </trkpt>
      <trkpt lat="44.43273" lon="6.06656">
        <ele>947.79998779297</ele>
        <time>2021-07-06T09:24:01.000Z</time>
      </trkpt>
      <trkpt lat="44.43269" lon="6.0665">
        <ele>948.20001220703</ele>
        <time>2021-07-06T09:24:05.000Z</time>
      </trkpt>
      <trkpt lat="44.43268" lon="6.06645">
        <ele>948.59997558594</ele>
        <time>2021-07-06T09:24:07.000Z</time>
      </trkpt>
      <trkpt lat="44.43266" lon="6.06632">
        <ele>949.59997558594</ele>
        <time>2021-07-06T09:24:12.000Z</time>
      </trkpt>
      <trkpt lat="44.43265" lon="6.06629">
        <ele>950</ele>
        <time>2021-07-06T09:24:13.000Z</time>
      </trkpt>
      <trkpt lat="44.43264" lon="6.06622">
        <ele>950.59997558594</ele>
        <time>2021-07-06T09:24:16.000Z</time>
      </trkpt>
      <trkpt lat="44.43262" lon="6.0661">
        <ele>951.79998779297</ele>
        <time>2021-07-06T09:24:21.000Z</time>
      </trkpt>
      <trkpt lat="44.43261" lon="6.06595">
        <ele>952.79998779297</ele>
        <time>2021-07-06T09:24:27.000Z</time>
      </trkpt>
      <trkpt lat="44.4326" lon="6.06591">
        <ele>952.79998779297</ele>
        <time>2021-07-06T09:24:29.000Z</time>
      </trkpt>
      <trkpt lat="44.43255" lon="6.06571">
        <ele>953.59997558594</ele>
        <time>2021-07-06T09:24:37.000Z</time>
      </trkpt>
      <trkpt lat="44.43249" lon="6.06559">
        <ele>954.79998779297</ele>
        <time>2021-07-06T09:24:43.000Z</time>
      </trkpt>
      <trkpt lat="44.43248" lon="6.06557">
        <ele>955</ele>
        <time>2021-07-06T09:24:44.000Z</time>
      </trkpt>
      <trkpt lat="44.43246" lon="6.06549">
        <ele>955.79998779297</ele>
        <time>2021-07-06T09:24:48.000Z</time>
      </trkpt>
      <trkpt lat="44.43244" lon="6.06541">
        <ele>956.59997558594</ele>
        <time>2021-07-06T09:24:52.000Z</time>
      </trkpt>
      <trkpt lat="44.43242" lon="6.06537">
        <ele>956.79998779297</ele>
        <time>2021-07-06T09:24:54.000Z</time>
      </trkpt>
      <trkpt lat="44.4324" lon="6.06527">
        <ele>957.40002441406</ele>
        <time>2021-07-06T09:24:58.000Z</time>
      </trkpt>
      <trkpt lat="44.43238" lon="6.06523">
        <ele>957.79998779297</ele>
        <time>2021-07-06T09:25:00.000Z</time>
      </trkpt>
      <trkpt lat="44.43234" lon="6.06512">
        <ele>958.79998779297</ele>
        <time>2021-07-06T09:25:05.000Z</time>
      </trkpt>
      <trkpt lat="44.43233" lon="6.065">
        <ele>960</ele>
        <time>2021-07-06T09:25:10.000Z</time>
      </trkpt>
      <trkpt lat="44.43233" lon="6.06497">
        <ele>960.20001220703</ele>
        <time>2021-07-06T09:25:11.000Z</time>
      </trkpt>
      <trkpt lat="44.43234" lon="6.06485">
        <ele>961</ele>
        <time>2021-07-06T09:25:15.000Z</time>
      </trkpt>
      <trkpt lat="44.43233" lon="6.06475">
        <ele>961.59997558594</ele>
        <time>2021-07-06T09:25:18.000Z</time>
      </trkpt>
      <trkpt lat="44.43232" lon="6.06469">
        <ele>962.20001220703</ele>
        <time>2021-07-06T09:25:20.000Z</time>
      </trkpt>
      <trkpt lat="44.43227" lon="6.06453">
        <ele>963.20001220703</ele>
        <time>2021-07-06T09:25:25.000Z</time>
      </trkpt>
      <trkpt lat="44.43221" lon="6.06433">
        <ele>964.40002441406</ele>
        <time>2021-07-06T09:25:31.000Z</time>
      </trkpt>
      <trkpt lat="44.4322" lon="6.0643">
        <ele>964.40002441406</ele>
        <time>2021-07-06T09:25:32.000Z</time>
      </trkpt>
      <trkpt lat="44.43211" lon="6.06417">
        <ele>965.40002441406</ele>
        <time>2021-07-06T09:25:37.000Z</time>
      </trkpt>
      <trkpt lat="44.43209" lon="6.06417">
        <ele>965.59997558594</ele>
        <time>2021-07-06T09:25:38.000Z</time>
      </trkpt>
      <trkpt lat="44.43199" lon="6.06422">
        <ele>966.40002441406</ele>
        <time>2021-07-06T09:25:43.000Z</time>
      </trkpt>
      <trkpt lat="44.43198" lon="6.06425">
        <ele>966.59997558594</ele>
        <time>2021-07-06T09:25:44.000Z</time>
      </trkpt>
      <trkpt lat="44.43199" lon="6.0643">
        <ele>967</ele>
        <time>2021-07-06T09:25:46.000Z</time>
      </trkpt>
      <trkpt lat="44.432" lon="6.06435">
        <ele>967.40002441406</ele>
        <time>2021-07-06T09:25:48.000Z</time>
      </trkpt>
      <trkpt lat="44.43201" lon="6.06437">
        <ele>967.59997558594</ele>
        <time>2021-07-06T09:25:49.000Z</time>
      </trkpt>
      <trkpt lat="44.43205" lon="6.06451">
        <ele>968.79998779297</ele>
        <time>2021-07-06T09:25:54.000Z</time>
      </trkpt>
      <trkpt lat="44.43207" lon="6.06459">
        <ele>969.40002441406</ele>
        <time>2021-07-06T09:25:57.000Z</time>
      </trkpt>
      <trkpt lat="44.43207" lon="6.06468">
        <ele>970</ele>
        <time>2021-07-06T09:26:00.000Z</time>
      </trkpt>
      <trkpt lat="44.43205" lon="6.06485">
        <ele>971.20001220703</ele>
        <time>2021-07-06T09:26:06.000Z</time>
      </trkpt>
      <trkpt lat="44.43204" lon="6.06506">
        <ele>972.20001220703</ele>
        <time>2021-07-06T09:26:13.000Z</time>
      </trkpt>
      <trkpt lat="44.43204" lon="6.06509">
        <ele>972.59997558594</ele>
        <time>2021-07-06T09:26:14.000Z</time>
      </trkpt>
      <trkpt lat="44.43205" lon="6.06521">
        <ele>973.59997558594</ele>
        <time>2021-07-06T09:26:18.000Z</time>
      </trkpt>
      <trkpt lat="44.43206" lon="6.06534">
        <ele>974.59997558594</ele>
        <time>2021-07-06T09:26:23.000Z</time>
      </trkpt>
      <trkpt lat="44.43208" lon="6.06551">
        <ele>975.59997558594</ele>
        <time>2021-07-06T09:26:29.000Z</time>
      </trkpt>
      <trkpt lat="44.43208" lon="6.06556">
        <ele>976</ele>
        <time>2021-07-06T09:26:31.000Z</time>
      </trkpt>
      <trkpt lat="44.43209" lon="6.06568">
        <ele>976.79998779297</ele>
        <time>2021-07-06T09:26:35.000Z</time>
      </trkpt>
      <trkpt lat="44.4321" lon="6.06579">
        <ele>977.40002441406</ele>
        <time>2021-07-06T09:26:38.000Z</time>
      </trkpt>
      <trkpt lat="44.4321" lon="6.06589">
        <ele>977.79998779297</ele>
        <time>2021-07-06T09:26:41.000Z</time>
      </trkpt>
      <trkpt lat="44.43208" lon="6.06604">
        <ele>978.59997558594</ele>
        <time>2021-07-06T09:26:46.000Z</time>
      </trkpt>
      <trkpt lat="44.43207" lon="6.0661">
        <ele>979</ele>
        <time>2021-07-06T09:26:48.000Z</time>
      </trkpt>
      <trkpt lat="44.43205" lon="6.06626">
        <ele>980</ele>
        <time>2021-07-06T09:26:54.000Z</time>
      </trkpt>
      <trkpt lat="44.43201" lon="6.06639">
        <ele>980.79998779297</ele>
        <time>2021-07-06T09:26:59.000Z</time>
      </trkpt>
      <trkpt lat="44.432" lon="6.06644">
        <ele>981.40002441406</ele>
        <time>2021-07-06T09:27:01.000Z</time>
      </trkpt>
      <trkpt lat="44.432" lon="6.0665">
        <ele>982</ele>
        <time>2021-07-06T09:27:03.000Z</time>
      </trkpt>
      <trkpt lat="44.43198" lon="6.06663">
        <ele>983</ele>
        <time>2021-07-06T09:27:08.000Z</time>
      </trkpt>
      <trkpt lat="44.43198" lon="6.06672">
        <ele>983.79998779297</ele>
        <time>2021-07-06T09:27:11.000Z</time>
      </trkpt>
      <trkpt lat="44.43197" lon="6.06677">
        <ele>984.20001220703</ele>
        <time>2021-07-06T09:27:13.000Z</time>
      </trkpt>
      <trkpt lat="44.43197" lon="6.06689">
        <ele>985.20001220703</ele>
        <time>2021-07-06T09:27:17.000Z</time>
      </trkpt>
      <trkpt lat="44.43197" lon="6.06691">
        <ele>985.40002441406</ele>
        <time>2021-07-06T09:27:18.000Z</time>
      </trkpt>
      <trkpt lat="44.43197" lon="6.067">
        <ele>986.20001220703</ele>
        <time>2021-07-06T09:27:21.000Z</time>
      </trkpt>
      <trkpt lat="44.43198" lon="6.06714">
        <ele>987.20001220703</ele>
        <time>2021-07-06T09:27:26.000Z</time>
      </trkpt>
      <trkpt lat="44.43198" lon="6.06717">
        <ele>987.59997558594</ele>
        <time>2021-07-06T09:27:27.000Z</time>
      </trkpt>
      <trkpt lat="44.43199" lon="6.06726">
        <ele>988.40002441406</ele>
        <time>2021-07-06T09:27:30.000Z</time>
      </trkpt>
      <trkpt lat="44.432" lon="6.06738">
        <ele>989.59997558594</ele>
        <time>2021-07-06T09:27:34.000Z</time>
      </trkpt>
      <trkpt lat="44.432" lon="6.06743">
        <ele>990</ele>
        <time>2021-07-06T09:27:36.000Z</time>
      </trkpt>
      <trkpt lat="44.43199" lon="6.06751">
        <ele>990.79998779297</ele>
        <time>2021-07-06T09:27:39.000Z</time>
      </trkpt>
      <trkpt lat="44.432" lon="6.06764">
        <ele>991.79998779297</ele>
        <time>2021-07-06T09:27:44.000Z</time>
      </trkpt>
      <trkpt lat="44.432" lon="6.06767">
        <ele>992</ele>
        <time>2021-07-06T09:27:45.000Z</time>
      </trkpt>
      <trkpt lat="44.43202" lon="6.06781">
        <ele>992.79998779297</ele>
        <time>2021-07-06T09:27:50.000Z</time>
      </trkpt>
      <trkpt lat="44.43203" lon="6.0679">
        <ele>993.40002441406</ele>
        <time>2021-07-06T09:27:53.000Z</time>
      </trkpt>
      <trkpt lat="44.43203" lon="6.06795">
        <ele>994</ele>
        <time>2021-07-06T09:27:55.000Z</time>
      </trkpt>
      <trkpt lat="44.43204" lon="6.06804">
        <ele>995.20001220703</ele>
        <time>2021-07-06T09:27:58.000Z</time>
      </trkpt>
      <trkpt lat="44.43204" lon="6.06813">
        <ele>995.79998779297</ele>
        <time>2021-07-06T09:28:01.000Z</time>
      </trkpt>
      <trkpt lat="44.43203" lon="6.06819">
        <ele>996.40002441406</ele>
        <time>2021-07-06T09:28:03.000Z</time>
      </trkpt>
      <trkpt lat="44.43203" lon="6.06822">
        <ele>996.59997558594</ele>
        <time>2021-07-06T09:28:04.000Z</time>
      </trkpt>
      <trkpt lat="44.43202" lon="6.06833">
        <ele>997.59997558594</ele>
        <time>2021-07-06T09:28:08.000Z</time>
      </trkpt>
      <trkpt lat="44.43201" lon="6.06838">
        <ele>998</ele>
        <time>2021-07-06T09:28:10.000Z</time>
      </trkpt>
      <trkpt lat="44.432" lon="6.06846">
        <ele>998.79998779297</ele>
        <time>2021-07-06T09:28:13.000Z</time>
      </trkpt>
      <trkpt lat="44.43198" lon="6.06859">
        <ele>999.59997558594</ele>
        <time>2021-07-06T09:28:18.000Z</time>
      </trkpt>
      <trkpt lat="44.43197" lon="6.06874">
        <ele>1000.799987793</ele>
        <time>2021-07-06T09:28:23.000Z</time>
      </trkpt>
      <trkpt lat="44.43197" lon="6.06879">
        <ele>1001.4000244141</ele>
        <time>2021-07-06T09:28:25.000Z</time>
      </trkpt>
      <trkpt lat="44.43196" lon="6.06884">
        <ele>1001.799987793</ele>
        <time>2021-07-06T09:28:27.000Z</time>
      </trkpt>
      <trkpt lat="44.43195" lon="6.069">
        <ele>1003</ele>
        <time>2021-07-06T09:28:33.000Z</time>
      </trkpt>
      <trkpt lat="44.43195" lon="6.06913">
        <ele>1004</ele>
        <time>2021-07-06T09:28:38.000Z</time>
      </trkpt>
      <trkpt lat="44.43194" lon="6.06919">
        <ele>1004.5999755859</ele>
        <time>2021-07-06T09:28:41.000Z</time>
      </trkpt>
      <trkpt lat="44.43193" lon="6.06926">
        <ele>1004.799987793</ele>
        <time>2021-07-06T09:28:44.000Z</time>
      </trkpt>
      <trkpt lat="44.43191" lon="6.06937">
        <ele>1005.5999755859</ele>
        <time>2021-07-06T09:28:48.000Z</time>
      </trkpt>
      <trkpt lat="44.43191" lon="6.06943">
        <ele>1006</ele>
        <time>2021-07-06T09:28:50.000Z</time>
      </trkpt>
      <trkpt lat="44.43191" lon="6.06956">
        <ele>1007.200012207</ele>
        <time>2021-07-06T09:28:54.000Z</time>
      </trkpt>
      <trkpt lat="44.43191" lon="6.06964">
        <ele>1007.799987793</ele>
        <time>2021-07-06T09:28:57.000Z</time>
      </trkpt>
      <trkpt lat="44.4319" lon="6.06969">
        <ele>1008.200012207</ele>
        <time>2021-07-06T09:28:59.000Z</time>
      </trkpt>
      <trkpt lat="44.43189" lon="6.06983">
        <ele>1009.200012207</ele>
        <time>2021-07-06T09:29:04.000Z</time>
      </trkpt>
      <trkpt lat="44.43188" lon="6.06988">
        <ele>1009.5999755859</ele>
        <time>2021-07-06T09:29:06.000Z</time>
      </trkpt>
      <trkpt lat="44.43186" lon="6.06997">
        <ele>1010.4000244141</ele>
        <time>2021-07-06T09:29:09.000Z</time>
      </trkpt>
      <trkpt lat="44.43183" lon="6.0701">
        <ele>1011.4000244141</ele>
        <time>2021-07-06T09:29:14.000Z</time>
      </trkpt>
      <trkpt lat="44.43175" lon="6.07011">
        <ele>1012.4000244141</ele>
        <time>2021-07-06T09:29:19.000Z</time>
      </trkpt>
      <trkpt lat="44.43173" lon="6.0701">
        <ele>1012.799987793</ele>
        <time>2021-07-06T09:29:20.000Z</time>
      </trkpt>
      <trkpt lat="44.43169" lon="6.07">
        <ele>1014</ele>
        <time>2021-07-06T09:29:25.000Z</time>
      </trkpt>
      <trkpt lat="44.43166" lon="6.06987">
        <ele>1015.200012207</ele>
        <time>2021-07-06T09:29:30.000Z</time>
      </trkpt>
      <trkpt lat="44.43164" lon="6.06979">
        <ele>1016</ele>
        <time>2021-07-06T09:29:34.000Z</time>
      </trkpt>
      <trkpt lat="44.43163" lon="6.06977">
        <ele>1016.200012207</ele>
        <time>2021-07-06T09:29:35.000Z</time>
      </trkpt>
      <trkpt lat="44.43161" lon="6.06964">
        <ele>1017.200012207</ele>
        <time>2021-07-06T09:29:41.000Z</time>
      </trkpt>
      <trkpt lat="44.43158" lon="6.0695">
        <ele>1018.200012207</ele>
        <time>2021-07-06T09:29:47.000Z</time>
      </trkpt>
      <trkpt lat="44.43158" lon="6.06946">
        <ele>1018.799987793</ele>
        <time>2021-07-06T09:29:49.000Z</time>
      </trkpt>
      <trkpt lat="44.43157" lon="6.06942">
        <ele>1019.200012207</ele>
        <time>2021-07-06T09:29:51.000Z</time>
      </trkpt>
      <trkpt lat="44.43153" lon="6.06927">
        <ele>1020.4000244141</ele>
        <time>2021-07-06T09:29:57.000Z</time>
      </trkpt>
      <trkpt lat="44.43152" lon="6.06914">
        <ele>1021.4000244141</ele>
        <time>2021-07-06T09:30:02.000Z</time>
      </trkpt>
      <trkpt lat="44.43152" lon="6.06908">
        <ele>1021.5999755859</ele>
        <time>2021-07-06T09:30:04.000Z</time>
      </trkpt>
      <trkpt lat="44.43153" lon="6.06893">
        <ele>1022.4000244141</ele>
        <time>2021-07-06T09:30:09.000Z</time>
      </trkpt>
      <trkpt lat="44.43154" lon="6.0689">
        <ele>1022.5999755859</ele>
        <time>2021-07-06T09:30:10.000Z</time>
      </trkpt>
      <trkpt lat="44.43156" lon="6.06876">
        <ele>1023.4000244141</ele>
        <time>2021-07-06T09:30:15.000Z</time>
      </trkpt>
      <trkpt lat="44.43156" lon="6.06869">
        <ele>1024</ele>
        <time>2021-07-06T09:30:18.000Z</time>
      </trkpt>
      <trkpt lat="44.43157" lon="6.06863">
        <ele>1024.4000244141</ele>
        <time>2021-07-06T09:30:20.000Z</time>
      </trkpt>
      <trkpt lat="44.43156" lon="6.06845">
        <ele>1025.8000488281</ele>
        <time>2021-07-06T09:30:26.000Z</time>
      </trkpt>
      <trkpt lat="44.43155" lon="6.06842">
        <ele>1025.8000488281</ele>
        <time>2021-07-06T09:30:27.000Z</time>
      </trkpt>
      <trkpt lat="44.43154" lon="6.06836">
        <ele>1026.1999511719</ele>
        <time>2021-07-06T09:30:29.000Z</time>
      </trkpt>
      <trkpt lat="44.43153" lon="6.06828">
        <ele>1026.8000488281</ele>
        <time>2021-07-06T09:30:32.000Z</time>
      </trkpt>
      <trkpt lat="44.43148" lon="6.06817">
        <ele>1027.8000488281</ele>
        <time>2021-07-06T09:30:36.000Z</time>
      </trkpt>
      <trkpt lat="44.43147" lon="6.06814">
        <ele>1028.1999511719</ele>
        <time>2021-07-06T09:30:37.000Z</time>
      </trkpt>
      <trkpt lat="44.43144" lon="6.06806">
        <ele>1028.8000488281</ele>
        <time>2021-07-06T09:30:40.000Z</time>
      </trkpt>
      <trkpt lat="44.43141" lon="6.06794">
        <ele>1029.8000488281</ele>
        <time>2021-07-06T09:30:45.000Z</time>
      </trkpt>
      <trkpt lat="44.4314" lon="6.06791">
        <ele>1029.8000488281</ele>
        <time>2021-07-06T09:30:46.000Z</time>
      </trkpt>
      <trkpt lat="44.43137" lon="6.0678">
        <ele>1031</ele>
        <time>2021-07-06T09:30:51.000Z</time>
      </trkpt>
      <trkpt lat="44.43136" lon="6.06778">
        <ele>1031.1999511719</ele>
        <time>2021-07-06T09:30:52.000Z</time>
      </trkpt>
      <trkpt lat="44.43134" lon="6.06768">
        <ele>1032</ele>
        <time>2021-07-06T09:30:56.000Z</time>
      </trkpt>
      <trkpt lat="44.43131" lon="6.06758">
        <ele>1032.8000488281</ele>
        <time>2021-07-06T09:31:00.000Z</time>
      </trkpt>
      <trkpt lat="44.4313" lon="6.06755">
        <ele>1033</ele>
        <time>2021-07-06T09:31:01.000Z</time>
      </trkpt>
      <trkpt lat="44.43126" lon="6.06738">
        <ele>1034</ele>
        <time>2021-07-06T09:31:07.000Z</time>
      </trkpt>
      <trkpt lat="44.43124" lon="6.06735">
        <ele>1034.1999511719</ele>
        <time>2021-07-06T09:31:08.000Z</time>
      </trkpt>
      <trkpt lat="44.43119" lon="6.06731">
        <ele>1035.1999511719</ele>
        <time>2021-07-06T09:31:11.000Z</time>
      </trkpt>
      <trkpt lat="44.43117" lon="6.06731">
        <ele>1035.4000244141</ele>
        <time>2021-07-06T09:31:12.000Z</time>
      </trkpt>
      <trkpt lat="44.43115" lon="6.06732">
        <ele>1035.8000488281</ele>
        <time>2021-07-06T09:31:13.000Z</time>
      </trkpt>
      <trkpt lat="44.43111" lon="6.06738">
        <ele>1036.5999755859</ele>
        <time>2021-07-06T09:31:16.000Z</time>
      </trkpt>
      <trkpt lat="44.43111" lon="6.06743">
        <ele>1037</ele>
        <time>2021-07-06T09:31:18.000Z</time>
      </trkpt>
      <trkpt lat="44.43111" lon="6.06746">
        <ele>1037.1999511719</ele>
        <time>2021-07-06T09:31:19.000Z</time>
      </trkpt>
      <trkpt lat="44.43112" lon="6.06751">
        <ele>1037.5999755859</ele>
        <time>2021-07-06T09:31:21.000Z</time>
      </trkpt>
      <trkpt lat="44.43114" lon="6.06762">
        <ele>1038.5999755859</ele>
        <time>2021-07-06T09:31:25.000Z</time>
      </trkpt>
      <trkpt lat="44.43115" lon="6.06765">
        <ele>1038.5999755859</ele>
        <time>2021-07-06T09:31:26.000Z</time>
      </trkpt>
      <trkpt lat="44.43115" lon="6.06782">
        <ele>1039.5999755859</ele>
        <time>2021-07-06T09:31:33.000Z</time>
      </trkpt>
      <trkpt lat="44.43115" lon="6.06785">
        <ele>1040</ele>
        <time>2021-07-06T09:31:34.000Z</time>
      </trkpt>
      <trkpt lat="44.43115" lon="6.06796">
        <ele>1041</ele>
        <time>2021-07-06T09:31:39.000Z</time>
      </trkpt>
      <trkpt lat="44.43115" lon="6.06804">
        <ele>1041.5999755859</ele>
        <time>2021-07-06T09:31:42.000Z</time>
      </trkpt>
      <trkpt lat="44.43115" lon="6.06809">
        <ele>1042.1999511719</ele>
        <time>2021-07-06T09:31:44.000Z</time>
      </trkpt>
      <trkpt lat="44.43116" lon="6.06821">
        <ele>1043.1999511719</ele>
        <time>2021-07-06T09:31:49.000Z</time>
      </trkpt>
      <trkpt lat="44.43117" lon="6.06835">
        <ele>1044.4000244141</ele>
        <time>2021-07-06T09:31:54.000Z</time>
      </trkpt>
      <trkpt lat="44.43115" lon="6.06847">
        <ele>1045.1999511719</ele>
        <time>2021-07-06T09:31:58.000Z</time>
      </trkpt>
      <trkpt lat="44.43113" lon="6.06852">
        <ele>1045.4000244141</ele>
        <time>2021-07-06T09:32:00.000Z</time>
      </trkpt>
      <trkpt lat="44.43108" lon="6.06868">
        <ele>1046.4000244141</ele>
        <time>2021-07-06T09:32:06.000Z</time>
      </trkpt>
      <trkpt lat="44.43107" lon="6.0687">
        <ele>1046.8000488281</ele>
        <time>2021-07-06T09:32:07.000Z</time>
      </trkpt>
      <trkpt lat="44.43104" lon="6.06879">
        <ele>1047.5999755859</ele>
        <time>2021-07-06T09:32:11.000Z</time>
      </trkpt>
      <trkpt lat="44.43102" lon="6.06886">
        <ele>1048.1999511719</ele>
        <time>2021-07-06T09:32:14.000Z</time>
      </trkpt>
      <trkpt lat="44.43101" lon="6.0689">
        <ele>1048.5999755859</ele>
        <time>2021-07-06T09:32:16.000Z</time>
      </trkpt>
      <trkpt lat="44.43099" lon="6.06902">
        <ele>1049.5999755859</ele>
        <time>2021-07-06T09:32:21.000Z</time>
      </trkpt>
      <trkpt lat="44.43099" lon="6.06905">
        <ele>1049.8000488281</ele>
        <time>2021-07-06T09:32:22.000Z</time>
      </trkpt>
      <trkpt lat="44.43099" lon="6.06913">
        <ele>1050.5999755859</ele>
        <time>2021-07-06T09:32:25.000Z</time>
      </trkpt>
      <trkpt lat="44.43098" lon="6.06924">
        <ele>1051.8000488281</ele>
        <time>2021-07-06T09:32:29.000Z</time>
      </trkpt>
      <trkpt lat="44.43097" lon="6.06932">
        <ele>1052.5999755859</ele>
        <time>2021-07-06T09:32:32.000Z</time>
      </trkpt>
      <trkpt lat="44.43096" lon="6.06937">
        <ele>1053</ele>
        <time>2021-07-06T09:32:34.000Z</time>
      </trkpt>
      <trkpt lat="44.43095" lon="6.06947">
        <ele>1054</ele>
        <time>2021-07-06T09:32:38.000Z</time>
      </trkpt>
      <trkpt lat="44.43094" lon="6.06949">
        <ele>1054.1999511719</ele>
        <time>2021-07-06T09:32:39.000Z</time>
      </trkpt>
      <trkpt lat="44.43093" lon="6.06959">
        <ele>1055</ele>
        <time>2021-07-06T09:32:43.000Z</time>
      </trkpt>
      <trkpt lat="44.43088" lon="6.06968">
        <ele>1055.4000244141</ele>
        <time>2021-07-06T09:32:46.000Z</time>
      </trkpt>
      <trkpt lat="44.43086" lon="6.06976">
        <ele>1056</ele>
        <time>2021-07-06T09:32:49.000Z</time>
      </trkpt>
      <trkpt lat="44.4308" lon="6.06992">
        <ele>1057.1999511719</ele>
        <time>2021-07-06T09:32:55.000Z</time>
      </trkpt>
      <trkpt lat="44.43074" lon="6.07006">
        <ele>1058.1999511719</ele>
        <time>2021-07-06T09:33:00.000Z</time>
      </trkpt>
      <trkpt lat="44.43071" lon="6.07014">
        <ele>1058.8000488281</ele>
        <time>2021-07-06T09:33:03.000Z</time>
      </trkpt>
      <trkpt lat="44.43069" lon="6.07018">
        <ele>1059.4000244141</ele>
        <time>2021-07-06T09:33:05.000Z</time>
      </trkpt>
      <trkpt lat="44.43064" lon="6.07032">
        <ele>1060.4000244141</ele>
        <time>2021-07-06T09:33:10.000Z</time>
      </trkpt>
      <trkpt lat="44.43063" lon="6.07035">
        <ele>1060.4000244141</ele>
        <time>2021-07-06T09:33:11.000Z</time>
      </trkpt>
      <trkpt lat="44.43055" lon="6.0705">
        <ele>1061.5999755859</ele>
        <time>2021-07-06T09:33:17.000Z</time>
      </trkpt>
      <trkpt lat="44.43052" lon="6.07058">
        <ele>1062</ele>
        <time>2021-07-06T09:33:20.000Z</time>
      </trkpt>
      <trkpt lat="44.43049" lon="6.07066">
        <ele>1062.8000488281</ele>
        <time>2021-07-06T09:33:23.000Z</time>
      </trkpt>
      <trkpt lat="44.43044" lon="6.07075">
        <ele>1063.8000488281</ele>
        <time>2021-07-06T09:33:27.000Z</time>
      </trkpt>
      <trkpt lat="44.4304" lon="6.07085">
        <ele>1065</ele>
        <time>2021-07-06T09:33:31.000Z</time>
      </trkpt>
      <trkpt lat="44.43036" lon="6.07093">
        <ele>1065.8000488281</ele>
        <time>2021-07-06T09:33:35.000Z</time>
      </trkpt>
      <trkpt lat="44.43035" lon="6.07096">
        <ele>1066</ele>
        <time>2021-07-06T09:33:36.000Z</time>
      </trkpt>
      <trkpt lat="44.43029" lon="6.07104">
        <ele>1067</ele>
        <time>2021-07-06T09:33:41.000Z</time>
      </trkpt>
      <trkpt lat="44.43027" lon="6.07106">
        <ele>1067.1999511719</ele>
        <time>2021-07-06T09:33:42.000Z</time>
      </trkpt>
      <trkpt lat="44.43022" lon="6.0711">
        <ele>1068.1999511719</ele>
        <time>2021-07-06T09:33:45.000Z</time>
      </trkpt>
      <trkpt lat="44.43016" lon="6.07119">
        <ele>1069.1999511719</ele>
        <time>2021-07-06T09:33:50.000Z</time>
      </trkpt>
      <trkpt lat="44.43007" lon="6.0713">
        <ele>1070.4000244141</ele>
        <time>2021-07-06T09:33:56.000Z</time>
      </trkpt>
      <trkpt lat="44.43004" lon="6.07136">
        <ele>1071.4000244141</ele>
        <time>2021-07-06T09:33:59.000Z</time>
      </trkpt>
      <trkpt lat="44.42997" lon="6.07146">
        <ele>1072.5999755859</ele>
        <time>2021-07-06T09:34:04.000Z</time>
      </trkpt>
      <trkpt lat="44.42987" lon="6.07159">
        <ele>1073.8000488281</ele>
        <time>2021-07-06T09:34:10.000Z</time>
      </trkpt>
      <trkpt lat="44.42985" lon="6.07161">
        <ele>1074</ele>
        <time>2021-07-06T09:34:11.000Z</time>
      </trkpt>
      <trkpt lat="44.42979" lon="6.0717">
        <ele>1075</ele>
        <time>2021-07-06T09:34:15.000Z</time>
      </trkpt>
      <trkpt lat="44.42974" lon="6.0718">
        <ele>1075.1999511719</ele>
        <time>2021-07-06T09:34:19.000Z</time>
      </trkpt>
      <trkpt lat="44.42968" lon="6.07187">
        <ele>1075.8000488281</ele>
        <time>2021-07-06T09:34:23.000Z</time>
      </trkpt>
      <trkpt lat="44.4296" lon="6.07192">
        <ele>1077</ele>
        <time>2021-07-06T09:34:27.000Z</time>
      </trkpt>
      <trkpt lat="44.42952" lon="6.07199">
        <ele>1078.1999511719</ele>
        <time>2021-07-06T09:34:31.000Z</time>
      </trkpt>
      <trkpt lat="44.42945" lon="6.07206">
        <ele>1079</ele>
        <time>2021-07-06T09:34:35.000Z</time>
      </trkpt>
      <trkpt lat="44.42942" lon="6.07209">
        <ele>1079.1999511719</ele>
        <time>2021-07-06T09:34:37.000Z</time>
      </trkpt>
      <trkpt lat="44.42932" lon="6.07217">
        <ele>1080.1999511719</ele>
        <time>2021-07-06T09:34:42.000Z</time>
      </trkpt>
      <trkpt lat="44.4293" lon="6.07219">
        <ele>1080.4000244141</ele>
        <time>2021-07-06T09:34:43.000Z</time>
      </trkpt>
      <trkpt lat="44.42923" lon="6.07225">
        <ele>1081.1999511719</ele>
        <time>2021-07-06T09:34:47.000Z</time>
      </trkpt>
      <trkpt lat="44.42918" lon="6.07231">
        <ele>1081.4000244141</ele>
        <time>2021-07-06T09:34:50.000Z</time>
      </trkpt>
      <trkpt lat="44.42909" lon="6.07253">
        <ele>1082</ele>
        <time>2021-07-06T09:34:58.000Z</time>
      </trkpt>
      <trkpt lat="44.42906" lon="6.07268">
        <ele>1082.4000244141</ele>
        <time>2021-07-06T09:35:03.000Z</time>
      </trkpt>
      <trkpt lat="44.42905" lon="6.07279">
        <ele>1083</ele>
        <time>2021-07-06T09:35:07.000Z</time>
      </trkpt>
      <trkpt lat="44.42904" lon="6.07286">
        <ele>1083.4000244141</ele>
        <time>2021-07-06T09:35:09.000Z</time>
      </trkpt>
      <trkpt lat="44.42904" lon="6.073">
        <ele>1084.4000244141</ele>
        <time>2021-07-06T09:35:14.000Z</time>
      </trkpt>
      <trkpt lat="44.42904" lon="6.07303">
        <ele>1084.4000244141</ele>
        <time>2021-07-06T09:35:15.000Z</time>
      </trkpt>
      <trkpt lat="44.42903" lon="6.07317">
        <ele>1085.4000244141</ele>
        <time>2021-07-06T09:35:20.000Z</time>
      </trkpt>
      <trkpt lat="44.42903" lon="6.07325">
        <ele>1086.4000244141</ele>
        <time>2021-07-06T09:35:23.000Z</time>
      </trkpt>
      <trkpt lat="44.42902" lon="6.07328">
        <ele>1086.5999755859</ele>
        <time>2021-07-06T09:35:24.000Z</time>
      </trkpt>
      <trkpt lat="44.429" lon="6.07339">
        <ele>1087.5999755859</ele>
        <time>2021-07-06T09:35:28.000Z</time>
      </trkpt>
      <trkpt lat="44.429" lon="6.07341">
        <ele>1088.4000244141</ele>
        <time>2021-07-06T09:35:30.000Z</time>
      </trkpt>
      <trkpt lat="44.42899" lon="6.07341">
        <ele>1088.8000488281</ele>
        <time>2021-07-06T09:35:32.000Z</time>
      </trkpt>
      <trkpt lat="44.42899" lon="6.07341">
        <ele>1089.8000488281</ele>
        <time>2021-07-06T09:35:37.000Z</time>
      </trkpt>
      <trkpt lat="44.42899" lon="6.07341">
        <ele>1090</ele>
        <time>2021-07-06T09:35:41.000Z</time>
      </trkpt>
      <trkpt lat="44.42899" lon="6.07341">
        <ele>1090.1999511719</ele>
        <time>2021-07-06T09:35:57.000Z</time>
      </trkpt>
      <trkpt lat="44.42899" lon="6.07341">
        <ele>1090.1999511719</ele>
        <time>2021-07-06T09:36:18.000Z</time>
      </trkpt>
      <trkpt lat="44.42899" lon="6.07341">
        <ele>1090</ele>
        <time>2021-07-06T09:36:40.000Z</time>
      </trkpt>
      <trkpt lat="44.42897" lon="6.07344">
        <ele>1090</ele>
        <time>2021-07-06T09:36:47.000Z</time>
      </trkpt>
      <trkpt lat="44.42894" lon="6.07349">
        <ele>1090</ele>
        <time>2021-07-06T09:36:50.000Z</time>
      </trkpt>
      <trkpt lat="44.42892" lon="6.07354">
        <ele>1090</ele>
        <time>2021-07-06T09:36:53.000Z</time>
      </trkpt>
      <trkpt lat="44.4289" lon="6.07359">
        <ele>1090.1999511719</ele>
        <time>2021-07-06T09:36:56.000Z</time>
      </trkpt>
      <trkpt lat="44.4289" lon="6.0736">
        <ele>1090.4000244141</ele>
        <time>2021-07-06T09:36:57.000Z</time>
      </trkpt>
      <trkpt lat="44.42888" lon="6.07369">
        <ele>1091.4000244141</ele>
        <time>2021-07-06T09:37:02.000Z</time>
      </trkpt>
      <trkpt lat="44.42888" lon="6.07375">
        <ele>1092.4000244141</ele>
        <time>2021-07-06T09:37:06.000Z</time>
      </trkpt>
      <trkpt lat="44.42887" lon="6.07384">
        <ele>1093.4000244141</ele>
        <time>2021-07-06T09:37:10.000Z</time>
      </trkpt>
      <trkpt lat="44.42887" lon="6.07391">
        <ele>1094.1999511719</ele>
        <time>2021-07-06T09:37:13.000Z</time>
      </trkpt>
      <trkpt lat="44.42887" lon="6.07393">
        <ele>1094.5999755859</ele>
        <time>2021-07-06T09:37:14.000Z</time>
      </trkpt>
      <trkpt lat="44.42887" lon="6.07404">
        <ele>1095.8000488281</ele>
        <time>2021-07-06T09:37:19.000Z</time>
      </trkpt>
      <trkpt lat="44.42887" lon="6.07409">
        <ele>1096.1999511719</ele>
        <time>2021-07-06T09:37:21.000Z</time>
      </trkpt>
      <trkpt lat="44.42887" lon="6.07415">
        <ele>1097</ele>
        <time>2021-07-06T09:37:24.000Z</time>
      </trkpt>
      <trkpt lat="44.42887" lon="6.07423">
        <ele>1098</ele>
        <time>2021-07-06T09:37:28.000Z</time>
      </trkpt>
      <trkpt lat="44.42886" lon="6.07432">
        <ele>1099.1999511719</ele>
        <time>2021-07-06T09:37:32.000Z</time>
      </trkpt>
      <trkpt lat="44.42886" lon="6.07439">
        <ele>1100</ele>
        <time>2021-07-06T09:37:35.000Z</time>
      </trkpt>
      <trkpt lat="44.42886" lon="6.07441">
        <ele>1100.1999511719</ele>
        <time>2021-07-06T09:37:36.000Z</time>
      </trkpt>
      <trkpt lat="44.42885" lon="6.07451">
        <ele>1101.4000244141</ele>
        <time>2021-07-06T09:37:40.000Z</time>
      </trkpt>
      <trkpt lat="44.42883" lon="6.0746">
        <ele>1102.5999755859</ele>
        <time>2021-07-06T09:37:44.000Z</time>
      </trkpt>
      <trkpt lat="44.42881" lon="6.07472">
        <ele>1103.8000488281</ele>
        <time>2021-07-06T09:37:51.000Z</time>
      </trkpt>
      <trkpt lat="44.4288" lon="6.07474">
        <ele>1104</ele>
        <time>2021-07-06T09:37:52.000Z</time>
      </trkpt>
      <trkpt lat="44.42877" lon="6.07482">
        <ele>1104.5999755859</ele>
        <time>2021-07-06T09:37:56.000Z</time>
      </trkpt>
      <trkpt lat="44.42875" lon="6.0749">
        <ele>1105.4000244141</ele>
        <time>2021-07-06T09:38:00.000Z</time>
      </trkpt>
      <trkpt lat="44.42874" lon="6.07492">
        <ele>1105.5999755859</ele>
        <time>2021-07-06T09:38:01.000Z</time>
      </trkpt>
      <trkpt lat="44.42873" lon="6.07503">
        <ele>1107</ele>
        <time>2021-07-06T09:38:06.000Z</time>
      </trkpt>
      <trkpt lat="44.42872" lon="6.07508">
        <ele>1107.5999755859</ele>
        <time>2021-07-06T09:38:08.000Z</time>
      </trkpt>
      <trkpt lat="44.42871" lon="6.0751">
        <ele>1108.1999511719</ele>
        <time>2021-07-06T09:38:09.000Z</time>
      </trkpt>
      <trkpt lat="44.42869" lon="6.07518">
        <ele>1109.1999511719</ele>
        <time>2021-07-06T09:38:12.000Z</time>
      </trkpt>
      <trkpt lat="44.42867" lon="6.07524">
        <ele>1110</ele>
        <time>2021-07-06T09:38:15.000Z</time>
      </trkpt>
      <trkpt lat="44.42866" lon="6.0753">
        <ele>1111.1999511719</ele>
        <time>2021-07-06T09:38:18.000Z</time>
      </trkpt>
      <trkpt lat="44.42864" lon="6.07542">
        <ele>1112.1999511719</ele>
        <time>2021-07-06T09:38:23.000Z</time>
      </trkpt>
      <trkpt lat="44.42863" lon="6.07558">
        <ele>1113.1999511719</ele>
        <time>2021-07-06T09:38:30.000Z</time>
      </trkpt>
      <trkpt lat="44.42862" lon="6.07572">
        <ele>1114.1999511719</ele>
        <time>2021-07-06T09:38:37.000Z</time>
      </trkpt>
      <trkpt lat="44.42861" lon="6.07573">
        <ele>1114.5999755859</ele>
        <time>2021-07-06T09:38:38.000Z</time>
      </trkpt>
      <trkpt lat="44.42859" lon="6.07585">
        <ele>1115.5999755859</ele>
        <time>2021-07-06T09:38:44.000Z</time>
      </trkpt>
      <trkpt lat="44.42858" lon="6.0759">
        <ele>1116</ele>
        <time>2021-07-06T09:38:46.000Z</time>
      </trkpt>
      <trkpt lat="44.42857" lon="6.07597">
        <ele>1116.5999755859</ele>
        <time>2021-07-06T09:38:49.000Z</time>
      </trkpt>
      <trkpt lat="44.42855" lon="6.07603">
        <ele>1117.4000244141</ele>
        <time>2021-07-06T09:38:52.000Z</time>
      </trkpt>
      <trkpt lat="44.42853" lon="6.07607">
        <ele>1118</ele>
        <time>2021-07-06T09:38:54.000Z</time>
      </trkpt>
      <trkpt lat="44.42848" lon="6.07618">
        <ele>1118.8000488281</ele>
        <time>2021-07-06T09:38:59.000Z</time>
      </trkpt>
      <trkpt lat="44.42844" lon="6.0763">
        <ele>1120</ele>
        <time>2021-07-06T09:39:05.000Z</time>
      </trkpt>
      <trkpt lat="44.42843" lon="6.07634">
        <ele>1120.4000244141</ele>
        <time>2021-07-06T09:39:07.000Z</time>
      </trkpt>
      <trkpt lat="44.42841" lon="6.0764">
        <ele>1121</ele>
        <time>2021-07-06T09:39:10.000Z</time>
      </trkpt>
      <trkpt lat="44.42838" lon="6.07649">
        <ele>1122</ele>
        <time>2021-07-06T09:39:14.000Z</time>
      </trkpt>
      <trkpt lat="44.42836" lon="6.07654">
        <ele>1122.1999511719</ele>
        <time>2021-07-06T09:39:16.000Z</time>
      </trkpt>
      <trkpt lat="44.42831" lon="6.07665">
        <ele>1122.8000488281</ele>
        <time>2021-07-06T09:39:20.000Z</time>
      </trkpt>
      <trkpt lat="44.42827" lon="6.0769">
        <ele>1123.1999511719</ele>
        <time>2021-07-06T09:39:27.000Z</time>
      </trkpt>
      <trkpt lat="44.42827" lon="6.07693">
        <ele>1123.1999511719</ele>
        <time>2021-07-06T09:39:28.000Z</time>
      </trkpt>
      <trkpt lat="44.42825" lon="6.07713">
        <ele>1124.1999511719</ele>
        <time>2021-07-06T09:39:34.000Z</time>
      </trkpt>
      <trkpt lat="44.42824" lon="6.0773">
        <ele>1125</ele>
        <time>2021-07-06T09:39:40.000Z</time>
      </trkpt>
      <trkpt lat="44.42823" lon="6.07734">
        <ele>1125.1999511719</ele>
        <time>2021-07-06T09:39:42.000Z</time>
      </trkpt>
      <trkpt lat="44.42821" lon="6.07745">
        <ele>1126.1999511719</ele>
        <time>2021-07-06T09:39:47.000Z</time>
      </trkpt>
      <trkpt lat="44.4282" lon="6.07747">
        <ele>1126.4000244141</ele>
        <time>2021-07-06T09:39:48.000Z</time>
      </trkpt>
      <trkpt lat="44.4282" lon="6.07755">
        <ele>1127.1999511719</ele>
        <time>2021-07-06T09:39:52.000Z</time>
      </trkpt>
      <trkpt lat="44.4282" lon="6.07763">
        <ele>1128</ele>
        <time>2021-07-06T09:39:55.000Z</time>
      </trkpt>
      <trkpt lat="44.4282" lon="6.07766">
        <ele>1128.4000244141</ele>
        <time>2021-07-06T09:39:56.000Z</time>
      </trkpt>
      <trkpt lat="44.42818" lon="6.07776">
        <ele>1129.5999755859</ele>
        <time>2021-07-06T09:40:00.000Z</time>
      </trkpt>
      <trkpt lat="44.42818" lon="6.07779">
        <ele>1130</ele>
        <time>2021-07-06T09:40:01.000Z</time>
      </trkpt>
      <trkpt lat="44.42816" lon="6.07785">
        <ele>1130.8000488281</ele>
        <time>2021-07-06T09:40:03.000Z</time>
      </trkpt>
      <trkpt lat="44.42813" lon="6.07799">
        <ele>1132</ele>
        <time>2021-07-06T09:40:08.000Z</time>
      </trkpt>
      <trkpt lat="44.42812" lon="6.07812">
        <ele>1133</ele>
        <time>2021-07-06T09:40:12.000Z</time>
      </trkpt>
      <trkpt lat="44.42812" lon="6.07824">
        <ele>1133.8000488281</ele>
        <time>2021-07-06T09:40:16.000Z</time>
      </trkpt>
      <trkpt lat="44.42812" lon="6.07827">
        <ele>1134</ele>
        <time>2021-07-06T09:40:17.000Z</time>
      </trkpt>
      <trkpt lat="44.42814" lon="6.07848">
        <ele>1134.8000488281</ele>
        <time>2021-07-06T09:40:23.000Z</time>
      </trkpt>
      <trkpt lat="44.42814" lon="6.07853">
        <ele>1135</ele>
        <time>2021-07-06T09:40:24.000Z</time>
      </trkpt>
      <trkpt lat="44.42814" lon="6.07879">
        <ele>1135.5999755859</ele>
        <time>2021-07-06T09:40:29.000Z</time>
      </trkpt>
      <trkpt lat="44.42807" lon="6.07893">
        <ele>1135.5999755859</ele>
        <time>2021-07-06T09:40:33.000Z</time>
      </trkpt>
      <trkpt lat="44.42795" lon="6.07905">
        <ele>1135.5999755859</ele>
        <time>2021-07-06T09:40:40.000Z</time>
      </trkpt>
      <trkpt lat="44.4279" lon="6.07912">
        <ele>1135.8000488281</ele>
        <time>2021-07-06T09:40:44.000Z</time>
      </trkpt>
      <trkpt lat="44.42785" lon="6.07922">
        <ele>1136.1999511719</ele>
        <time>2021-07-06T09:40:48.000Z</time>
      </trkpt>
      <trkpt lat="44.42781" lon="6.07929">
        <ele>1136.8000488281</ele>
        <time>2021-07-06T09:40:50.000Z</time>
      </trkpt>
      <trkpt lat="44.42775" lon="6.07938">
        <ele>1137.5999755859</ele>
        <time>2021-07-06T09:40:53.000Z</time>
      </trkpt>
      <trkpt lat="44.42773" lon="6.0794">
        <ele>1138</ele>
        <time>2021-07-06T09:40:54.000Z</time>
      </trkpt>
      <trkpt lat="44.42767" lon="6.07946">
        <ele>1139</ele>
        <time>2021-07-06T09:40:58.000Z</time>
      </trkpt>
      <trkpt lat="44.42764" lon="6.07948">
        <ele>1139.1999511719</ele>
        <time>2021-07-06T09:40:59.000Z</time>
      </trkpt>
      <trkpt lat="44.42746" lon="6.07964">
        <ele>1139.1999511719</ele>
        <time>2021-07-06T09:41:04.000Z</time>
      </trkpt>
      <trkpt lat="44.42729" lon="6.0798">
        <ele>1138.8000488281</ele>
        <time>2021-07-06T09:41:09.000Z</time>
      </trkpt>
      <trkpt lat="44.4272" lon="6.07989">
        <ele>1138.4000244141</ele>
        <time>2021-07-06T09:41:12.000Z</time>
      </trkpt>
      <trkpt lat="44.42712" lon="6.07997">
        <ele>1138.1999511719</ele>
        <time>2021-07-06T09:41:16.000Z</time>
      </trkpt>
      <trkpt lat="44.42696" lon="6.08016">
        <ele>1138.4000244141</ele>
        <time>2021-07-06T09:41:25.000Z</time>
      </trkpt>
      <trkpt lat="44.4269" lon="6.08033">
        <ele>1139</ele>
        <time>2021-07-06T09:41:31.000Z</time>
      </trkpt>
      <trkpt lat="44.42691" lon="6.08048">
        <ele>1139.5999755859</ele>
        <time>2021-07-06T09:41:36.000Z</time>
      </trkpt>
      <trkpt lat="44.42691" lon="6.0805">
        <ele>1139.8000488281</ele>
        <time>2021-07-06T09:41:37.000Z</time>
      </trkpt>
      <trkpt lat="44.42699" lon="6.08068">
        <ele>1140.5999755859</ele>
        <time>2021-07-06T09:41:44.000Z</time>
      </trkpt>
      <trkpt lat="44.42703" lon="6.08084">
        <ele>1141.8000488281</ele>
        <time>2021-07-06T09:41:50.000Z</time>
      </trkpt>
      <trkpt lat="44.42702" lon="6.08094">
        <ele>1142.8000488281</ele>
        <time>2021-07-06T09:41:54.000Z</time>
      </trkpt>
      <trkpt lat="44.42703" lon="6.08101">
        <ele>1143.4000244141</ele>
        <time>2021-07-06T09:41:57.000Z</time>
      </trkpt>
      <trkpt lat="44.42703" lon="6.08103">
        <ele>1143.8000488281</ele>
        <time>2021-07-06T09:41:58.000Z</time>
      </trkpt>
      <trkpt lat="44.42705" lon="6.08113">
        <ele>1145</ele>
        <time>2021-07-06T09:42:02.000Z</time>
      </trkpt>
      <trkpt lat="44.42706" lon="6.08121">
        <ele>1145.5999755859</ele>
        <time>2021-07-06T09:42:05.000Z</time>
      </trkpt>
      <trkpt lat="44.42707" lon="6.0813">
        <ele>1146.1999511719</ele>
        <time>2021-07-06T09:42:08.000Z</time>
      </trkpt>
      <trkpt lat="44.42708" lon="6.08141">
        <ele>1147</ele>
        <time>2021-07-06T09:42:12.000Z</time>
      </trkpt>
      <trkpt lat="44.42708" lon="6.08143">
        <ele>1147.1999511719</ele>
        <time>2021-07-06T09:42:13.000Z</time>
      </trkpt>
      <trkpt lat="44.42709" lon="6.08158">
        <ele>1148.1999511719</ele>
        <time>2021-07-06T09:42:19.000Z</time>
      </trkpt>
      <trkpt lat="44.42709" lon="6.08161">
        <ele>1148.4000244141</ele>
        <time>2021-07-06T09:42:20.000Z</time>
      </trkpt>
      <trkpt lat="44.4271" lon="6.08163">
        <ele>1149</ele>
        <time>2021-07-06T09:42:21.000Z</time>
      </trkpt>
      <trkpt lat="44.4271" lon="6.08165">
        <ele>1149.1999511719</ele>
        <time>2021-07-06T09:42:22.000Z</time>
      </trkpt>
      <trkpt lat="44.4271" lon="6.08176">
        <ele>1150.1999511719</ele>
        <time>2021-07-06T09:42:27.000Z</time>
      </trkpt>
      <trkpt lat="44.42711" lon="6.08181">
        <ele>1150.4000244141</ele>
        <time>2021-07-06T09:42:29.000Z</time>
      </trkpt>
      <trkpt lat="44.42711" lon="6.0819">
        <ele>1151.1999511719</ele>
        <time>2021-07-06T09:42:33.000Z</time>
      </trkpt>
      <trkpt lat="44.4271" lon="6.082">
        <ele>1151.8000488281</ele>
        <time>2021-07-06T09:42:37.000Z</time>
      </trkpt>
      <trkpt lat="44.4271" lon="6.08205">
        <ele>1152.1999511719</ele>
        <time>2021-07-06T09:42:39.000Z</time>
      </trkpt>
      <trkpt lat="44.42711" lon="6.08218">
        <ele>1153.1999511719</ele>
        <time>2021-07-06T09:42:44.000Z</time>
      </trkpt>
      <trkpt lat="44.42712" lon="6.08223">
        <ele>1153.8000488281</ele>
        <time>2021-07-06T09:42:46.000Z</time>
      </trkpt>
      <trkpt lat="44.42714" lon="6.0823">
        <ele>1154.5999755859</ele>
        <time>2021-07-06T09:42:49.000Z</time>
      </trkpt>
      <trkpt lat="44.42718" lon="6.08238">
        <ele>1155</ele>
        <time>2021-07-06T09:42:53.000Z</time>
      </trkpt>
      <trkpt lat="44.4272" lon="6.08245">
        <ele>1155.4000244141</ele>
        <time>2021-07-06T09:42:56.000Z</time>
      </trkpt>
      <trkpt lat="44.42724" lon="6.08257">
        <ele>1156.4000244141</ele>
        <time>2021-07-06T09:43:01.000Z</time>
      </trkpt>
      <trkpt lat="44.42725" lon="6.0826">
        <ele>1156.5999755859</ele>
        <time>2021-07-06T09:43:02.000Z</time>
      </trkpt>
      <trkpt lat="44.42726" lon="6.08276">
        <ele>1157.4000244141</ele>
        <time>2021-07-06T09:43:08.000Z</time>
      </trkpt>
      <trkpt lat="44.42723" lon="6.08291">
        <ele>1158.5999755859</ele>
        <time>2021-07-06T09:43:14.000Z</time>
      </trkpt>
      <trkpt lat="44.42722" lon="6.08297">
        <ele>1159.1999511719</ele>
        <time>2021-07-06T09:43:16.000Z</time>
      </trkpt>
      <trkpt lat="44.42721" lon="6.08302">
        <ele>1159.5999755859</ele>
        <time>2021-07-06T09:43:18.000Z</time>
      </trkpt>
      <trkpt lat="44.42718" lon="6.08321">
        <ele>1160.5999755859</ele>
        <time>2021-07-06T09:43:25.000Z</time>
      </trkpt>
      <trkpt lat="44.42716" lon="6.08335">
        <ele>1161.4000244141</ele>
        <time>2021-07-06T09:43:30.000Z</time>
      </trkpt>
      <trkpt lat="44.42716" lon="6.0834">
        <ele>1161.5999755859</ele>
        <time>2021-07-06T09:43:32.000Z</time>
      </trkpt>
      <trkpt lat="44.42715" lon="6.08346">
        <ele>1161.8000488281</ele>
        <time>2021-07-06T09:43:34.000Z</time>
      </trkpt>
      <trkpt lat="44.42713" lon="6.08358">
        <ele>1162.5999755859</ele>
        <time>2021-07-06T09:43:39.000Z</time>
      </trkpt>
      <trkpt lat="44.42709" lon="6.08365">
        <ele>1163</ele>
        <time>2021-07-06T09:43:42.000Z</time>
      </trkpt>
      <trkpt lat="44.42704" lon="6.08368">
        <ele>1163.5999755859</ele>
        <time>2021-07-06T09:43:45.000Z</time>
      </trkpt>
      <trkpt lat="44.42701" lon="6.08369">
        <ele>1163.8000488281</ele>
        <time>2021-07-06T09:43:47.000Z</time>
      </trkpt>
      <trkpt lat="44.42693" lon="6.08375">
        <ele>1164.5999755859</ele>
        <time>2021-07-06T09:43:52.000Z</time>
      </trkpt>
      <trkpt lat="44.42691" lon="6.08379">
        <ele>1165</ele>
        <time>2021-07-06T09:43:54.000Z</time>
      </trkpt>
      <trkpt lat="44.42688" lon="6.0839">
        <ele>1165.5999755859</ele>
        <time>2021-07-06T09:43:59.000Z</time>
      </trkpt>
      <trkpt lat="44.42686" lon="6.08397">
        <ele>1166.1999511719</ele>
        <time>2021-07-06T09:44:02.000Z</time>
      </trkpt>
      <trkpt lat="44.42684" lon="6.08404">
        <ele>1166.8000488281</ele>
        <time>2021-07-06T09:44:05.000Z</time>
      </trkpt>
      <trkpt lat="44.42677" lon="6.08417">
        <ele>1167.8000488281</ele>
        <time>2021-07-06T09:44:11.000Z</time>
      </trkpt>
      <trkpt lat="44.42673" lon="6.08426">
        <ele>1168.8000488281</ele>
        <time>2021-07-06T09:44:15.000Z</time>
      </trkpt>
      <trkpt lat="44.42669" lon="6.08435">
        <ele>1169.5999755859</ele>
        <time>2021-07-06T09:44:19.000Z</time>
      </trkpt>
      <trkpt lat="44.42668" lon="6.08439">
        <ele>1170</ele>
        <time>2021-07-06T09:44:21.000Z</time>
      </trkpt>
      <trkpt lat="44.42666" lon="6.08451">
        <ele>1171</ele>
        <time>2021-07-06T09:44:26.000Z</time>
      </trkpt>
      <trkpt lat="44.42666" lon="6.08456">
        <ele>1171.4000244141</ele>
        <time>2021-07-06T09:44:28.000Z</time>
      </trkpt>
      <trkpt lat="44.42667" lon="6.08463">
        <ele>1172</ele>
        <time>2021-07-06T09:44:31.000Z</time>
      </trkpt>
      <trkpt lat="44.42671" lon="6.0847">
        <ele>1172.5999755859</ele>
        <time>2021-07-06T09:44:34.000Z</time>
      </trkpt>
      <trkpt lat="44.42674" lon="6.08473">
        <ele>1173</ele>
        <time>2021-07-06T09:44:36.000Z</time>
      </trkpt>
      <trkpt lat="44.42683" lon="6.08483">
        <ele>1174</ele>
        <time>2021-07-06T09:44:42.000Z</time>
      </trkpt>
      <trkpt lat="44.42683" lon="6.08498">
        <ele>1175</ele>
        <time>2021-07-06T09:44:48.000Z</time>
      </trkpt>
      <trkpt lat="44.42683" lon="6.085">
        <ele>1175.4000244141</ele>
        <time>2021-07-06T09:44:49.000Z</time>
      </trkpt>
      <trkpt lat="44.42682" lon="6.08512">
        <ele>1176.4000244141</ele>
        <time>2021-07-06T09:44:54.000Z</time>
      </trkpt>
      <trkpt lat="44.42681" lon="6.0852">
        <ele>1176.8000488281</ele>
        <time>2021-07-06T09:44:57.000Z</time>
      </trkpt>
      <trkpt lat="44.42676" lon="6.08532">
        <ele>1177.4000244141</ele>
        <time>2021-07-06T09:45:02.000Z</time>
      </trkpt>
      <trkpt lat="44.42675" lon="6.08534">
        <ele>1177.5999755859</ele>
        <time>2021-07-06T09:45:03.000Z</time>
      </trkpt>
      <trkpt lat="44.4267" lon="6.08542">
        <ele>1178.1999511719</ele>
        <time>2021-07-06T09:45:07.000Z</time>
      </trkpt>
      <trkpt lat="44.42668" lon="6.08548">
        <ele>1178.8000488281</ele>
        <time>2021-07-06T09:45:10.000Z</time>
      </trkpt>
      <trkpt lat="44.42667" lon="6.08553">
        <ele>1179.4000244141</ele>
        <time>2021-07-06T09:45:12.000Z</time>
      </trkpt>
      <trkpt lat="44.42665" lon="6.08563">
        <ele>1180.1999511719</ele>
        <time>2021-07-06T09:45:16.000Z</time>
      </trkpt>
      <trkpt lat="44.42665" lon="6.08565">
        <ele>1180.4000244141</ele>
        <time>2021-07-06T09:45:17.000Z</time>
      </trkpt>
      <trkpt lat="44.42669" lon="6.08575">
        <ele>1181.4000244141</ele>
        <time>2021-07-06T09:45:21.000Z</time>
      </trkpt>
      <trkpt lat="44.42671" lon="6.08576">
        <ele>1181.5999755859</ele>
        <time>2021-07-06T09:45:22.000Z</time>
      </trkpt>
      <trkpt lat="44.42678" lon="6.08576">
        <ele>1182.1999511719</ele>
        <time>2021-07-06T09:45:26.000Z</time>
      </trkpt>
      <trkpt lat="44.42681" lon="6.08573">
        <ele>1182.4000244141</ele>
        <time>2021-07-06T09:45:28.000Z</time>
      </trkpt>
      <trkpt lat="44.42691" lon="6.08564">
        <ele>1183.4000244141</ele>
        <time>2021-07-06T09:45:34.000Z</time>
      </trkpt>
      <trkpt lat="44.42693" lon="6.08562">
        <ele>1183.4000244141</ele>
        <time>2021-07-06T09:45:35.000Z</time>
      </trkpt>
      <trkpt lat="44.427" lon="6.08559">
        <ele>1184</ele>
        <time>2021-07-06T09:45:39.000Z</time>
      </trkpt>
      <trkpt lat="44.42702" lon="6.0856">
        <ele>1184.4000244141</ele>
        <time>2021-07-06T09:45:40.000Z</time>
      </trkpt>
      <trkpt lat="44.42702" lon="6.08563">
        <ele>1184.4000244141</ele>
        <time>2021-07-06T09:45:41.000Z</time>
      </trkpt>
      <trkpt lat="44.42701" lon="6.08571">
        <ele>1185</ele>
        <time>2021-07-06T09:45:44.000Z</time>
      </trkpt>
      <trkpt lat="44.42692" lon="6.0858">
        <ele>1185.4000244141</ele>
        <time>2021-07-06T09:45:49.000Z</time>
      </trkpt>
      <trkpt lat="44.4269" lon="6.0858">
        <ele>1185.5999755859</ele>
        <time>2021-07-06T09:45:50.000Z</time>
      </trkpt>
      <trkpt lat="44.4268" lon="6.08585">
        <ele>1186.1999511719</ele>
        <time>2021-07-06T09:45:55.000Z</time>
      </trkpt>
      <trkpt lat="44.42672" lon="6.08591">
        <ele>1186.4000244141</ele>
        <time>2021-07-06T09:46:00.000Z</time>
      </trkpt>
      <trkpt lat="44.42668" lon="6.08594">
        <ele>1186.8000488281</ele>
        <time>2021-07-06T09:46:02.000Z</time>
      </trkpt>
      <trkpt lat="44.42658" lon="6.08598">
        <ele>1187.4000244141</ele>
        <time>2021-07-06T09:46:08.000Z</time>
      </trkpt>
      <trkpt lat="44.42655" lon="6.08596">
        <ele>1187.8000488281</ele>
        <time>2021-07-06T09:46:10.000Z</time>
      </trkpt>
      <trkpt lat="44.4265" lon="6.08588">
        <ele>1188.1999511719</ele>
        <time>2021-07-06T09:46:14.000Z</time>
      </trkpt>
      <trkpt lat="44.42649" lon="6.08586">
        <ele>1188.4000244141</ele>
        <time>2021-07-06T09:46:15.000Z</time>
      </trkpt>
      <trkpt lat="44.42647" lon="6.08571">
        <ele>1189.5999755859</ele>
        <time>2021-07-06T09:46:21.000Z</time>
      </trkpt>
      <trkpt lat="44.42647" lon="6.0857">
        <ele>1189.8000488281</ele>
        <time>2021-07-06T09:46:22.000Z</time>
      </trkpt>
      <trkpt lat="44.42643" lon="6.08562">
        <ele>1190.5999755859</ele>
        <time>2021-07-06T09:46:26.000Z</time>
      </trkpt>
      <trkpt lat="44.42638" lon="6.08558">
        <ele>1191.1999511719</ele>
        <time>2021-07-06T09:46:29.000Z</time>
      </trkpt>
      <trkpt lat="44.42635" lon="6.08555">
        <ele>1191.5999755859</ele>
        <time>2021-07-06T09:46:31.000Z</time>
      </trkpt>
      <trkpt lat="44.42627" lon="6.08547">
        <ele>1192.8000488281</ele>
        <time>2021-07-06T09:46:36.000Z</time>
      </trkpt>
      <trkpt lat="44.42624" lon="6.08543">
        <ele>1193.1999511719</ele>
        <time>2021-07-06T09:46:38.000Z</time>
      </trkpt>
      <trkpt lat="44.42619" lon="6.0854">
        <ele>1193.8000488281</ele>
        <time>2021-07-06T09:46:41.000Z</time>
      </trkpt>
      <trkpt lat="44.42614" lon="6.08537">
        <ele>1194.1999511719</ele>
        <time>2021-07-06T09:46:44.000Z</time>
      </trkpt>
      <trkpt lat="44.4261" lon="6.08535">
        <ele>1194.8000488281</ele>
        <time>2021-07-06T09:46:46.000Z</time>
      </trkpt>
      <trkpt lat="44.42602" lon="6.08529">
        <ele>1195.8000488281</ele>
        <time>2021-07-06T09:46:51.000Z</time>
      </trkpt>
      <trkpt lat="44.42596" lon="6.08517">
        <ele>1197.1999511719</ele>
        <time>2021-07-06T09:46:57.000Z</time>
      </trkpt>
      <trkpt lat="44.42591" lon="6.08507">
        <ele>1197.8000488281</ele>
        <time>2021-07-06T09:47:02.000Z</time>
      </trkpt>
      <trkpt lat="44.42588" lon="6.08503">
        <ele>1198.1999511719</ele>
        <time>2021-07-06T09:47:04.000Z</time>
      </trkpt>
      <trkpt lat="44.42579" lon="6.08492">
        <ele>1199</ele>
        <time>2021-07-06T09:47:09.000Z</time>
      </trkpt>
      <trkpt lat="44.42576" lon="6.08487">
        <ele>1199.4000244141</ele>
        <time>2021-07-06T09:47:11.000Z</time>
      </trkpt>
      <trkpt lat="44.42569" lon="6.0848">
        <ele>1199.8000488281</ele>
        <time>2021-07-06T09:47:15.000Z</time>
      </trkpt>
      <trkpt lat="44.42567" lon="6.08481">
        <ele>1200</ele>
        <time>2021-07-06T09:47:16.000Z</time>
      </trkpt>
      <trkpt lat="44.42563" lon="6.08483">
        <ele>1200.1999511719</ele>
        <time>2021-07-06T09:47:18.000Z</time>
      </trkpt>
      <trkpt lat="44.42561" lon="6.08488">
        <ele>1200.5999755859</ele>
        <time>2021-07-06T09:47:21.000Z</time>
      </trkpt>
      <trkpt lat="44.42564" lon="6.08497">
        <ele>1201.4000244141</ele>
        <time>2021-07-06T09:47:25.000Z</time>
      </trkpt>
      <trkpt lat="44.42566" lon="6.08499">
        <ele>1201.8000488281</ele>
        <time>2021-07-06T09:47:26.000Z</time>
      </trkpt>
      <trkpt lat="44.42571" lon="6.08503">
        <ele>1202.1999511719</ele>
        <time>2021-07-06T09:47:29.000Z</time>
      </trkpt>
      <trkpt lat="44.42576" lon="6.08508">
        <ele>1202.5999755859</ele>
        <time>2021-07-06T09:47:32.000Z</time>
      </trkpt>
      <trkpt lat="44.42578" lon="6.0851">
        <ele>1202.8000488281</ele>
        <time>2021-07-06T09:47:33.000Z</time>
      </trkpt>
      <trkpt lat="44.42579" lon="6.08526">
        <ele>1203.1999511719</ele>
        <time>2021-07-06T09:47:39.000Z</time>
      </trkpt>
      <trkpt lat="44.42579" lon="6.08529">
        <ele>1203.4000244141</ele>
        <time>2021-07-06T09:47:40.000Z</time>
      </trkpt>
      <trkpt lat="44.42581" lon="6.08544">
        <ele>1204.4000244141</ele>
        <time>2021-07-06T09:47:46.000Z</time>
      </trkpt>
      <trkpt lat="44.42581" lon="6.08546">
        <ele>1204.5999755859</ele>
        <time>2021-07-06T09:47:47.000Z</time>
      </trkpt>
      <trkpt lat="44.42588" lon="6.0856">
        <ele>1205.5999755859</ele>
        <time>2021-07-06T09:47:53.000Z</time>
      </trkpt>
      <trkpt lat="44.4259" lon="6.08565">
        <ele>1206.1999511719</ele>
        <time>2021-07-06T09:47:55.000Z</time>
      </trkpt>
      <trkpt lat="44.42593" lon="6.08572">
        <ele>1206.8000488281</ele>
        <time>2021-07-06T09:47:58.000Z</time>
      </trkpt>
      <trkpt lat="44.42597" lon="6.08585">
        <ele>1207.8000488281</ele>
        <time>2021-07-06T09:48:03.000Z</time>
      </trkpt>
      <trkpt lat="44.42599" lon="6.08601">
        <ele>1208.8000488281</ele>
        <time>2021-07-06T09:48:09.000Z</time>
      </trkpt>
      <trkpt lat="44.426" lon="6.0861">
        <ele>1209.1999511719</ele>
        <time>2021-07-06T09:48:12.000Z</time>
      </trkpt>
      <trkpt lat="44.426" lon="6.08621">
        <ele>1209.8000488281</ele>
        <time>2021-07-06T09:48:16.000Z</time>
      </trkpt>
      <trkpt lat="44.42599" lon="6.08626">
        <ele>1210.1999511719</ele>
        <time>2021-07-06T09:48:19.000Z</time>
      </trkpt>
      <trkpt lat="44.42599" lon="6.08626">
        <ele>1210.5999755859</ele>
        <time>2021-07-06T09:48:22.000Z</time>
      </trkpt>
      <trkpt lat="44.42598" lon="6.08627">
        <ele>1211.8000488281</ele>
        <time>2021-07-06T09:48:27.000Z</time>
      </trkpt>
      <trkpt lat="44.42598" lon="6.08628">
        <ele>1212</ele>
        <time>2021-07-06T09:48:29.000Z</time>
      </trkpt>
      <trkpt lat="44.42596" lon="6.08628">
        <ele>1212.1999511719</ele>
        <time>2021-07-06T09:48:42.000Z</time>
      </trkpt>
      <trkpt lat="44.42597" lon="6.08628">
        <ele>1212</ele>
        <time>2021-07-06T09:48:52.000Z</time>
      </trkpt>
      <trkpt lat="44.42597" lon="6.08628">
        <ele>1212</ele>
        <time>2021-07-06T09:49:01.000Z</time>
      </trkpt>
      <trkpt lat="44.42596" lon="6.08628">
        <ele>1212</ele>
        <time>2021-07-06T09:49:24.000Z</time>
      </trkpt>
      <trkpt lat="44.42596" lon="6.08629">
        <ele>1212</ele>
        <time>2021-07-06T09:49:41.000Z</time>
      </trkpt>
      <trkpt lat="44.42596" lon="6.08629">
        <ele>1212.1999511719</ele>
        <time>2021-07-06T09:49:46.000Z</time>
      </trkpt>
      <trkpt lat="44.42598" lon="6.08629">
        <ele>1212.4000244141</ele>
        <time>2021-07-06T09:50:00.000Z</time>
      </trkpt>
      <trkpt lat="44.42598" lon="6.08629">
        <ele>1212.4000244141</ele>
        <time>2021-07-06T09:50:16.000Z</time>
      </trkpt>
      <trkpt lat="44.42599" lon="6.0863">
        <ele>1212.4000244141</ele>
        <time>2021-07-06T09:50:28.000Z</time>
      </trkpt>
      <trkpt lat="44.42599" lon="6.08631">
        <ele>1212.4000244141</ele>
        <time>2021-07-06T09:50:29.000Z</time>
      </trkpt>
      <trkpt lat="44.426" lon="6.0865">
        <ele>1212.5999755859</ele>
        <time>2021-07-06T09:50:38.000Z</time>
      </trkpt>
      <trkpt lat="44.42601" lon="6.0866">
        <ele>1213.1999511719</ele>
        <time>2021-07-06T09:50:43.000Z</time>
      </trkpt>
      <trkpt lat="44.42601" lon="6.08667">
        <ele>1213.5999755859</ele>
        <time>2021-07-06T09:50:46.000Z</time>
      </trkpt>
      <trkpt lat="44.42601" lon="6.08676">
        <ele>1214.1999511719</ele>
        <time>2021-07-06T09:50:50.000Z</time>
      </trkpt>
      <trkpt lat="44.42601" lon="6.08678">
        <ele>1214.5999755859</ele>
        <time>2021-07-06T09:50:52.000Z</time>
      </trkpt>
      <trkpt lat="44.42602" lon="6.08679">
        <ele>1215.4000244141</ele>
        <time>2021-07-06T09:50:57.000Z</time>
      </trkpt>
      <trkpt lat="44.42603" lon="6.08677">
        <ele>1215.5999755859</ele>
        <time>2021-07-06T09:51:01.000Z</time>
      </trkpt>
      <trkpt lat="44.42604" lon="6.08675">
        <ele>1215.5999755859</ele>
        <time>2021-07-06T09:51:02.000Z</time>
      </trkpt>
      <trkpt lat="44.42603" lon="6.0866">
        <ele>1215.5999755859</ele>
        <time>2021-07-06T09:51:06.000Z</time>
      </trkpt>
      <trkpt lat="44.42603" lon="6.08654">
        <ele>1215.5999755859</ele>
        <time>2021-07-06T09:51:07.000Z</time>
      </trkpt>
      <trkpt lat="44.42601" lon="6.08635">
        <ele>1215.5999755859</ele>
        <time>2021-07-06T09:51:10.000Z</time>
      </trkpt>
      <trkpt lat="44.42594" lon="6.08616">
        <ele>1215.1999511719</ele>
        <time>2021-07-06T09:51:13.000Z</time>
      </trkpt>
      <trkpt lat="44.42592" lon="6.0861">
        <ele>1215</ele>
        <time>2021-07-06T09:51:14.000Z</time>
      </trkpt>
      <trkpt lat="44.42589" lon="6.08597">
        <ele>1214</ele>
        <time>2021-07-06T09:51:17.000Z</time>
      </trkpt>
      <trkpt lat="44.42588" lon="6.08594">
        <ele>1213.5999755859</ele>
        <time>2021-07-06T09:51:18.000Z</time>
      </trkpt>
      <trkpt lat="44.42578" lon="6.08581">
        <ele>1213.4000244141</ele>
        <time>2021-07-06T09:51:25.000Z</time>
      </trkpt>
      <trkpt lat="44.4257" lon="6.08572">
        <ele>1213.8000488281</ele>
        <time>2021-07-06T09:51:31.000Z</time>
      </trkpt>
      <trkpt lat="44.4257" lon="6.08573">
        <ele>1214.8000488281</ele>
        <time>2021-07-06T09:51:41.000Z</time>
      </trkpt>
      <trkpt lat="44.4257" lon="6.08573">
        <ele>1214.8000488281</ele>
        <time>2021-07-06T09:51:44.000Z</time>
      </trkpt>
      <trkpt lat="44.4257" lon="6.08573">
        <ele>1215</ele>
        <time>2021-07-06T09:52:05.000Z</time>
      </trkpt>
      <trkpt lat="44.42566" lon="6.08569">
        <ele>1215.1999511719</ele>
        <time>2021-07-06T09:52:17.000Z</time>
      </trkpt>
      <trkpt lat="44.42564" lon="6.08569">
        <ele>1215.4000244141</ele>
        <time>2021-07-06T09:52:21.000Z</time>
      </trkpt>
      <trkpt lat="44.4256" lon="6.08569">
        <ele>1215.5999755859</ele>
        <time>2021-07-06T09:52:27.000Z</time>
      </trkpt>
      <trkpt lat="44.42558" lon="6.08567">
        <ele>1215.4000244141</ele>
        <time>2021-07-06T09:52:29.000Z</time>
      </trkpt>
      <trkpt lat="44.42551" lon="6.08556">
        <ele>1215.5999755859</ele>
        <time>2021-07-06T09:52:35.000Z</time>
      </trkpt>
      <trkpt lat="44.42549" lon="6.08548">
        <ele>1216.1999511719</ele>
        <time>2021-07-06T09:52:41.000Z</time>
      </trkpt>
      <trkpt lat="44.42548" lon="6.08547">
        <ele>1216.1999511719</ele>
        <time>2021-07-06T09:52:42.000Z</time>
      </trkpt>
      <trkpt lat="44.42544" lon="6.08537">
        <ele>1217</ele>
        <time>2021-07-06T09:52:50.000Z</time>
      </trkpt>
      <trkpt lat="44.42542" lon="6.08536">
        <ele>1217</ele>
        <time>2021-07-06T09:52:51.000Z</time>
      </trkpt>
      <trkpt lat="44.42539" lon="6.08532">
        <ele>1217.1999511719</ele>
        <time>2021-07-06T09:52:55.000Z</time>
      </trkpt>
      <trkpt lat="44.42538" lon="6.08531">
        <ele>1217.1999511719</ele>
        <time>2021-07-06T09:52:56.000Z</time>
      </trkpt>
      <trkpt lat="44.42537" lon="6.08531">
        <ele>1217</ele>
        <time>2021-07-06T09:52:57.000Z</time>
      </trkpt>
      <trkpt lat="44.4253" lon="6.0853">
        <ele>1217.4000244141</ele>
        <time>2021-07-06T09:53:02.000Z</time>
      </trkpt>
      <trkpt lat="44.42524" lon="6.08527">
        <ele>1217.8000488281</ele>
        <time>2021-07-06T09:53:08.000Z</time>
      </trkpt>
      <trkpt lat="44.42516" lon="6.08522">
        <ele>1218</ele>
        <time>2021-07-06T09:53:14.000Z</time>
      </trkpt>
      <trkpt lat="44.42516" lon="6.08517">
        <ele>1218</ele>
        <time>2021-07-06T09:53:17.000Z</time>
      </trkpt>
      <trkpt lat="44.42518" lon="6.08512">
        <ele>1218.1999511719</ele>
        <time>2021-07-06T09:53:20.000Z</time>
      </trkpt>
      <trkpt lat="44.42519" lon="6.0851">
        <ele>1218.1999511719</ele>
        <time>2021-07-06T09:53:21.000Z</time>
      </trkpt>
      <trkpt lat="44.4252" lon="6.08495">
        <ele>1219</ele>
        <time>2021-07-06T09:53:27.000Z</time>
      </trkpt>
      <trkpt lat="44.42526" lon="6.08472">
        <ele>1219.8000488281</ele>
        <time>2021-07-06T09:53:36.000Z</time>
      </trkpt>
      <trkpt lat="44.42527" lon="6.08467">
        <ele>1220.1999511719</ele>
        <time>2021-07-06T09:53:39.000Z</time>
      </trkpt>
      <trkpt lat="44.42526" lon="6.08456">
        <ele>1220.4000244141</ele>
        <time>2021-07-06T09:53:44.000Z</time>
      </trkpt>
      <trkpt lat="44.42518" lon="6.08432">
        <ele>1220.5999755859</ele>
        <time>2021-07-06T09:53:54.000Z</time>
      </trkpt>
      <trkpt lat="44.42515" lon="6.08427">
        <ele>1220.8000488281</ele>
        <time>2021-07-06T09:53:56.000Z</time>
      </trkpt>
      <trkpt lat="44.42508" lon="6.08422">
        <ele>1221.1999511719</ele>
        <time>2021-07-06T09:54:00.000Z</time>
      </trkpt>
      <trkpt lat="44.42493" lon="6.08422">
        <ele>1221.5999755859</ele>
        <time>2021-07-06T09:54:07.000Z</time>
      </trkpt>
      <trkpt lat="44.42474" lon="6.08426">
        <ele>1221.5999755859</ele>
        <time>2021-07-06T09:54:15.000Z</time>
      </trkpt>
      <trkpt lat="44.42469" lon="6.08427">
        <ele>1221.5999755859</ele>
        <time>2021-07-06T09:54:17.000Z</time>
      </trkpt>
      <trkpt lat="44.42458" lon="6.08432">
        <ele>1221.5999755859</ele>
        <time>2021-07-06T09:54:21.000Z</time>
      </trkpt>
      <trkpt lat="44.42455" lon="6.08434">
        <ele>1221.5999755859</ele>
        <time>2021-07-06T09:54:25.000Z</time>
      </trkpt>
      <trkpt lat="44.42454" lon="6.08433">
        <ele>1220.5999755859</ele>
        <time>2021-07-06T09:54:45.000Z</time>
      </trkpt>
      <trkpt lat="44.42454" lon="6.08433">
        <ele>1220.5999755859</ele>
        <time>2021-07-06T09:55:09.000Z</time>
      </trkpt>
      <trkpt lat="44.42451" lon="6.08434">
        <ele>1220.8000488281</ele>
        <time>2021-07-06T09:55:42.000Z</time>
      </trkpt>
      <trkpt lat="44.42443" lon="6.08439">
        <ele>1220.5999755859</ele>
        <time>2021-07-06T09:55:47.000Z</time>
      </trkpt>
      <trkpt lat="44.42429" lon="6.08447">
        <ele>1220.4000244141</ele>
        <time>2021-07-06T09:55:52.000Z</time>
      </trkpt>
      <trkpt lat="44.42421" lon="6.0845">
        <ele>1220.1999511719</ele>
        <time>2021-07-06T09:55:56.000Z</time>
      </trkpt>
      <trkpt lat="44.42421" lon="6.0845">
        <ele>1220</ele>
        <time>2021-07-06T09:56:03.000Z</time>
      </trkpt>
      <trkpt lat="44.42425" lon="6.08449">
        <ele>1220</ele>
        <time>2021-07-06T09:56:06.000Z</time>
      </trkpt>
      <trkpt lat="44.42431" lon="6.08447">
        <ele>1220</ele>
        <time>2021-07-06T09:56:09.000Z</time>
      </trkpt>
      <trkpt lat="44.42446" lon="6.08437">
        <ele>1219.8000488281</ele>
        <time>2021-07-06T09:56:16.000Z</time>
      </trkpt>
      <trkpt lat="44.42459" lon="6.08433">
        <ele>1220.4000244141</ele>
        <time>2021-07-06T09:56:22.000Z</time>
      </trkpt>
      <trkpt lat="44.42475" lon="6.08426">
        <ele>1221.1999511719</ele>
        <time>2021-07-06T09:56:29.000Z</time>
      </trkpt>
      <trkpt lat="44.42486" lon="6.08424">
        <ele>1221.4000244141</ele>
        <time>2021-07-06T09:56:33.000Z</time>
      </trkpt>
      <trkpt lat="44.42489" lon="6.08423">
        <ele>1221.5999755859</ele>
        <time>2021-07-06T09:56:34.000Z</time>
      </trkpt>
      <trkpt lat="44.42499" lon="6.0842">
        <ele>1221.5999755859</ele>
        <time>2021-07-06T09:56:38.000Z</time>
      </trkpt>
      <trkpt lat="44.42501" lon="6.08421">
        <ele>1221.5999755859</ele>
        <time>2021-07-06T09:56:39.000Z</time>
      </trkpt>
      <trkpt lat="44.42511" lon="6.08427">
        <ele>1221.5999755859</ele>
        <time>2021-07-06T09:56:43.000Z</time>
      </trkpt>
      <trkpt lat="44.42513" lon="6.0843">
        <ele>1221.5999755859</ele>
        <time>2021-07-06T09:56:44.000Z</time>
      </trkpt>
      <trkpt lat="44.42518" lon="6.0844">
        <ele>1221.5999755859</ele>
        <time>2021-07-06T09:56:49.000Z</time>
      </trkpt>
      <trkpt lat="44.4252" lon="6.08448">
        <ele>1221.5999755859</ele>
        <time>2021-07-06T09:56:53.000Z</time>
      </trkpt>
      <trkpt lat="44.4252" lon="6.08454">
        <ele>1221.5999755859</ele>
        <time>2021-07-06T09:56:55.000Z</time>
      </trkpt>
      <trkpt lat="44.4252" lon="6.08469">
        <ele>1221.4000244141</ele>
        <time>2021-07-06T09:57:01.000Z</time>
      </trkpt>
      <trkpt lat="44.42514" lon="6.08489">
        <ele>1221</ele>
        <time>2021-07-06T09:57:06.000Z</time>
      </trkpt>
      <trkpt lat="44.42512" lon="6.08511">
        <ele>1220.8000488281</ele>
        <time>2021-07-06T09:57:11.000Z</time>
      </trkpt>
      <trkpt lat="44.42517" lon="6.08524">
        <ele>1220.4000244141</ele>
        <time>2021-07-06T09:57:16.000Z</time>
      </trkpt>
      <trkpt lat="44.42518" lon="6.08524">
        <ele>1220.1999511719</ele>
        <time>2021-07-06T09:57:17.000Z</time>
      </trkpt>
      <trkpt lat="44.42519" lon="6.08525">
        <ele>1220</ele>
        <time>2021-07-06T09:57:19.000Z</time>
      </trkpt>
      <trkpt lat="44.4252" lon="6.08527">
        <ele>1219.8000488281</ele>
        <time>2021-07-06T09:57:20.000Z</time>
      </trkpt>
      <trkpt lat="44.42522" lon="6.08528">
        <ele>1219.5999755859</ele>
        <time>2021-07-06T09:57:22.000Z</time>
      </trkpt>
      <trkpt lat="44.42523" lon="6.08529">
        <ele>1219.4000244141</ele>
        <time>2021-07-06T09:57:23.000Z</time>
      </trkpt>
      <trkpt lat="44.42528" lon="6.0853">
        <ele>1219.1999511719</ele>
        <time>2021-07-06T09:57:25.000Z</time>
      </trkpt>
      <trkpt lat="44.42533" lon="6.08531">
        <ele>1219</ele>
        <time>2021-07-06T09:57:27.000Z</time>
      </trkpt>
      <trkpt lat="44.4254" lon="6.08541">
        <ele>1218.8000488281</ele>
        <time>2021-07-06T09:57:32.000Z</time>
      </trkpt>
      <trkpt lat="44.42546" lon="6.08555">
        <ele>1218.4000244141</ele>
        <time>2021-07-06T09:57:38.000Z</time>
      </trkpt>
      <trkpt lat="44.42553" lon="6.08565">
        <ele>1217.8000488281</ele>
        <time>2021-07-06T09:57:42.000Z</time>
      </trkpt>
      <trkpt lat="44.42556" lon="6.08566">
        <ele>1217.8000488281</ele>
        <time>2021-07-06T09:57:43.000Z</time>
      </trkpt>
      <trkpt lat="44.42564" lon="6.08569">
        <ele>1217.5999755859</ele>
        <time>2021-07-06T09:57:47.000Z</time>
      </trkpt>
      <trkpt lat="44.42565" lon="6.0857">
        <ele>1217.4000244141</ele>
        <time>2021-07-06T09:57:48.000Z</time>
      </trkpt>
      <trkpt lat="44.42577" lon="6.08585">
        <ele>1216.8000488281</ele>
        <time>2021-07-06T09:57:52.000Z</time>
      </trkpt>
      <trkpt lat="44.4258" lon="6.0859">
        <ele>1216.5999755859</ele>
        <time>2021-07-06T09:57:53.000Z</time>
      </trkpt>
      <trkpt lat="44.42587" lon="6.08609">
        <ele>1215.5999755859</ele>
        <time>2021-07-06T09:57:56.000Z</time>
      </trkpt>
      <trkpt lat="44.42589" lon="6.08617">
        <ele>1215.5999755859</ele>
        <time>2021-07-06T09:57:57.000Z</time>
      </trkpt>
      <trkpt lat="44.42596" lon="6.08634">
        <ele>1214.8000488281</ele>
        <time>2021-07-06T09:58:00.000Z</time>
      </trkpt>
      <trkpt lat="44.42597" lon="6.08643">
        <ele>1214.1999511719</ele>
        <time>2021-07-06T09:58:02.000Z</time>
      </trkpt>
      <trkpt lat="44.42597" lon="6.08649">
        <ele>1214</ele>
        <time>2021-07-06T09:58:04.000Z</time>
      </trkpt>
      <trkpt lat="44.42599" lon="6.08674">
        <ele>1214</ele>
        <time>2021-07-06T09:58:12.000Z</time>
      </trkpt>
      <trkpt lat="44.42598" lon="6.08693">
        <ele>1214.8000488281</ele>
        <time>2021-07-06T09:58:18.000Z</time>
      </trkpt>
      <trkpt lat="44.42599" lon="6.087">
        <ele>1215.4000244141</ele>
        <time>2021-07-06T09:58:20.000Z</time>
      </trkpt>
      <trkpt lat="44.42606" lon="6.08715">
        <ele>1216.4000244141</ele>
        <time>2021-07-06T09:58:25.000Z</time>
      </trkpt>
      <trkpt lat="44.42614" lon="6.08731">
        <ele>1217.5999755859</ele>
        <time>2021-07-06T09:58:31.000Z</time>
      </trkpt>
      <trkpt lat="44.42615" lon="6.08737">
        <ele>1218.1999511719</ele>
        <time>2021-07-06T09:58:33.000Z</time>
      </trkpt>
      <trkpt lat="44.42615" lon="6.08742">
        <ele>1218.4000244141</ele>
        <time>2021-07-06T09:58:35.000Z</time>
      </trkpt>
      <trkpt lat="44.42615" lon="6.08749">
        <ele>1219</ele>
        <time>2021-07-06T09:58:38.000Z</time>
      </trkpt>
      <trkpt lat="44.42616" lon="6.08754">
        <ele>1219.5999755859</ele>
        <time>2021-07-06T09:58:40.000Z</time>
      </trkpt>
      <trkpt lat="44.42616" lon="6.08764">
        <ele>1220.5999755859</ele>
        <time>2021-07-06T09:58:44.000Z</time>
      </trkpt>
      <trkpt lat="44.42616" lon="6.08768">
        <ele>1220.8000488281</ele>
        <time>2021-07-06T09:58:45.000Z</time>
      </trkpt>
      <trkpt lat="44.4262" lon="6.08788">
        <ele>1221.5999755859</ele>
        <time>2021-07-06T09:58:51.000Z</time>
      </trkpt>
      <trkpt lat="44.42622" lon="6.08795">
        <ele>1222.5999755859</ele>
        <time>2021-07-06T09:58:53.000Z</time>
      </trkpt>
      <trkpt lat="44.42622" lon="6.08799">
        <ele>1222.8000488281</ele>
        <time>2021-07-06T09:58:54.000Z</time>
      </trkpt>
      <trkpt lat="44.42626" lon="6.08814">
        <ele>1224</ele>
        <time>2021-07-06T09:58:59.000Z</time>
      </trkpt>
      <trkpt lat="44.42626" lon="6.08817">
        <ele>1224.1999511719</ele>
        <time>2021-07-06T09:59:00.000Z</time>
      </trkpt>
      <trkpt lat="44.42633" lon="6.08835">
        <ele>1225</ele>
        <time>2021-07-06T09:59:06.000Z</time>
      </trkpt>
      <trkpt lat="44.42635" lon="6.08852">
        <ele>1226.1999511719</ele>
        <time>2021-07-06T09:59:12.000Z</time>
      </trkpt>
      <trkpt lat="44.42627" lon="6.08864">
        <ele>1227</ele>
        <time>2021-07-06T09:59:17.000Z</time>
      </trkpt>
      <trkpt lat="44.42626" lon="6.08866">
        <ele>1227.1999511719</ele>
        <time>2021-07-06T09:59:18.000Z</time>
      </trkpt>
      <trkpt lat="44.42623" lon="6.08874">
        <ele>1228.1999511719</ele>
        <time>2021-07-06T09:59:21.000Z</time>
      </trkpt>
      <trkpt lat="44.42624" lon="6.0888">
        <ele>1228.5999755859</ele>
        <time>2021-07-06T09:59:23.000Z</time>
      </trkpt>
      <trkpt lat="44.42629" lon="6.08892">
        <ele>1229.4000244141</ele>
        <time>2021-07-06T09:59:27.000Z</time>
      </trkpt>
      <trkpt lat="44.4263" lon="6.08895">
        <ele>1229.5999755859</ele>
        <time>2021-07-06T09:59:28.000Z</time>
      </trkpt>
      <trkpt lat="44.42641" lon="6.08904">
        <ele>1230.1999511719</ele>
        <time>2021-07-06T09:59:33.000Z</time>
      </trkpt>
      <trkpt lat="44.42644" lon="6.08904">
        <ele>1230.4000244141</ele>
        <time>2021-07-06T09:59:34.000Z</time>
      </trkpt>
      <trkpt lat="44.42658" lon="6.08899">
        <ele>1231.4000244141</ele>
        <time>2021-07-06T09:59:40.000Z</time>
      </trkpt>
      <trkpt lat="44.42675" lon="6.08886">
        <ele>1232.4000244141</ele>
        <time>2021-07-06T09:59:48.000Z</time>
      </trkpt>
      <trkpt lat="44.42677" lon="6.08887">
        <ele>1232.5999755859</ele>
        <time>2021-07-06T09:59:49.000Z</time>
      </trkpt>
      <trkpt lat="44.42679" lon="6.08895">
        <ele>1232.8000488281</ele>
        <time>2021-07-06T09:59:52.000Z</time>
      </trkpt>
      <trkpt lat="44.42675" lon="6.08903">
        <ele>1233.1999511719</ele>
        <time>2021-07-06T09:59:55.000Z</time>
      </trkpt>
      <trkpt lat="44.42673" lon="6.08904">
        <ele>1233.1999511719</ele>
        <time>2021-07-06T09:59:56.000Z</time>
      </trkpt>
      <trkpt lat="44.42671" lon="6.08905">
        <ele>1233.4000244141</ele>
        <time>2021-07-06T09:59:57.000Z</time>
      </trkpt>
      <trkpt lat="44.42658" lon="6.08915">
        <ele>1234.1999511719</ele>
        <time>2021-07-06T10:00:04.000Z</time>
      </trkpt>
      <trkpt lat="44.42651" lon="6.08928">
        <ele>1235.4000244141</ele>
        <time>2021-07-06T10:00:09.000Z</time>
      </trkpt>
      <trkpt lat="44.42649" lon="6.0893">
        <ele>1235.8000488281</ele>
        <time>2021-07-06T10:00:10.000Z</time>
      </trkpt>
      <trkpt lat="44.4264" lon="6.08932">
        <ele>1236.4000244141</ele>
        <time>2021-07-06T10:00:14.000Z</time>
      </trkpt>
      <trkpt lat="44.42638" lon="6.08931">
        <ele>1236.5999755859</ele>
        <time>2021-07-06T10:00:15.000Z</time>
      </trkpt>
      <trkpt lat="44.42625" lon="6.08924">
        <ele>1237.4000244141</ele>
        <time>2021-07-06T10:00:21.000Z</time>
      </trkpt>
      <trkpt lat="44.42614" lon="6.08919">
        <ele>1238.4000244141</ele>
        <time>2021-07-06T10:00:26.000Z</time>
      </trkpt>
      <trkpt lat="44.4261" lon="6.08914">
        <ele>1238.5999755859</ele>
        <time>2021-07-06T10:00:28.000Z</time>
      </trkpt>
      <trkpt lat="44.42603" lon="6.08901">
        <ele>1239.5999755859</ele>
        <time>2021-07-06T10:00:33.000Z</time>
      </trkpt>
      <trkpt lat="44.426" lon="6.08893">
        <ele>1240</ele>
        <time>2021-07-06T10:00:36.000Z</time>
      </trkpt>
      <trkpt lat="44.42596" lon="6.08884">
        <ele>1240.5999755859</ele>
        <time>2021-07-06T10:00:39.000Z</time>
      </trkpt>
      <trkpt lat="44.42591" lon="6.08876">
        <ele>1241.4000244141</ele>
        <time>2021-07-06T10:00:42.000Z</time>
      </trkpt>
      <trkpt lat="44.42591" lon="6.08873">
        <ele>1241.5999755859</ele>
        <time>2021-07-06T10:00:43.000Z</time>
      </trkpt>
      <trkpt lat="44.42588" lon="6.08859">
        <ele>1242.4000244141</ele>
        <time>2021-07-06T10:00:48.000Z</time>
      </trkpt>
      <trkpt lat="44.42588" lon="6.08857">
        <ele>1242.5999755859</ele>
        <time>2021-07-06T10:00:49.000Z</time>
      </trkpt>
      <trkpt lat="44.42582" lon="6.08844">
        <ele>1243.8000488281</ele>
        <time>2021-07-06T10:00:54.000Z</time>
      </trkpt>
      <trkpt lat="44.4258" lon="6.08842">
        <ele>1244</ele>
        <time>2021-07-06T10:00:55.000Z</time>
      </trkpt>
      <trkpt lat="44.42574" lon="6.08829">
        <ele>1244.8000488281</ele>
        <time>2021-07-06T10:00:59.000Z</time>
      </trkpt>
      <trkpt lat="44.42569" lon="6.0882">
        <ele>1245.1999511719</ele>
        <time>2021-07-06T10:01:02.000Z</time>
      </trkpt>
      <trkpt lat="44.42559" lon="6.08804">
        <ele>1245.8000488281</ele>
        <time>2021-07-06T10:01:08.000Z</time>
      </trkpt>
      <trkpt lat="44.42558" lon="6.08802">
        <ele>1246</ele>
        <time>2021-07-06T10:01:09.000Z</time>
      </trkpt>
      <trkpt lat="44.42554" lon="6.0879">
        <ele>1246.8000488281</ele>
        <time>2021-07-06T10:01:13.000Z</time>
      </trkpt>
      <trkpt lat="44.42552" lon="6.08785">
        <ele>1247</ele>
        <time>2021-07-06T10:01:15.000Z</time>
      </trkpt>
      <trkpt lat="44.42546" lon="6.08771">
        <ele>1247.5999755859</ele>
        <time>2021-07-06T10:01:20.000Z</time>
      </trkpt>
      <trkpt lat="44.42544" lon="6.08765">
        <ele>1248</ele>
        <time>2021-07-06T10:01:22.000Z</time>
      </trkpt>
      <trkpt lat="44.42534" lon="6.08746">
        <ele>1248.5999755859</ele>
        <time>2021-07-06T10:01:28.000Z</time>
      </trkpt>
      <trkpt lat="44.42533" lon="6.08743">
        <ele>1248.8000488281</ele>
        <time>2021-07-06T10:01:29.000Z</time>
      </trkpt>
      <trkpt lat="44.42522" lon="6.08728">
        <ele>1249.8000488281</ele>
        <time>2021-07-06T10:01:35.000Z</time>
      </trkpt>
      <trkpt lat="44.42518" lon="6.08723">
        <ele>1250.4000244141</ele>
        <time>2021-07-06T10:01:37.000Z</time>
      </trkpt>
      <trkpt lat="44.42516" lon="6.08721">
        <ele>1250.8000488281</ele>
        <time>2021-07-06T10:01:38.000Z</time>
      </trkpt>
      <trkpt lat="44.42508" lon="6.08714">
        <ele>1251.8000488281</ele>
        <time>2021-07-06T10:01:42.000Z</time>
      </trkpt>
      <trkpt lat="44.42503" lon="6.08709">
        <ele>1252.4000244141</ele>
        <time>2021-07-06T10:01:45.000Z</time>
      </trkpt>
      <trkpt lat="44.42499" lon="6.08705">
        <ele>1253</ele>
        <time>2021-07-06T10:01:47.000Z</time>
      </trkpt>
      <trkpt lat="44.42489" lon="6.08696">
        <ele>1254</ele>
        <time>2021-07-06T10:01:52.000Z</time>
      </trkpt>
      <trkpt lat="44.42481" lon="6.08691">
        <ele>1255.1999511719</ele>
        <time>2021-07-06T10:01:57.000Z</time>
      </trkpt>
      <trkpt lat="44.42477" lon="6.0869">
        <ele>1255.5999755859</ele>
        <time>2021-07-06T10:01:59.000Z</time>
      </trkpt>
      <trkpt lat="44.42468" lon="6.08683">
        <ele>1256.4000244141</ele>
        <time>2021-07-06T10:02:03.000Z</time>
      </trkpt>
      <trkpt lat="44.42464" lon="6.08678">
        <ele>1256.8000488281</ele>
        <time>2021-07-06T10:02:05.000Z</time>
      </trkpt>
      <trkpt lat="44.42458" lon="6.08672">
        <ele>1257.1999511719</ele>
        <time>2021-07-06T10:02:08.000Z</time>
      </trkpt>
      <trkpt lat="44.42451" lon="6.08664">
        <ele>1257.8000488281</ele>
        <time>2021-07-06T10:02:12.000Z</time>
      </trkpt>
      <trkpt lat="44.42446" lon="6.08658">
        <ele>1258.1999511719</ele>
        <time>2021-07-06T10:02:15.000Z</time>
      </trkpt>
      <trkpt lat="44.42436" lon="6.08649">
        <ele>1259.1999511719</ele>
        <time>2021-07-06T10:02:21.000Z</time>
      </trkpt>
      <trkpt lat="44.42434" lon="6.08647">
        <ele>1259.5999755859</ele>
        <time>2021-07-06T10:02:22.000Z</time>
      </trkpt>
      <trkpt lat="44.42426" lon="6.08643">
        <ele>1260.4000244141</ele>
        <time>2021-07-06T10:02:26.000Z</time>
      </trkpt>
      <trkpt lat="44.42416" lon="6.08636">
        <ele>1261.4000244141</ele>
        <time>2021-07-06T10:02:31.000Z</time>
      </trkpt>
      <trkpt lat="44.4241" lon="6.08622">
        <ele>1262.5999755859</ele>
        <time>2021-07-06T10:02:36.000Z</time>
      </trkpt>
      <trkpt lat="44.42406" lon="6.08596">
        <ele>1263.5999755859</ele>
        <time>2021-07-06T10:02:44.000Z</time>
      </trkpt>
      <trkpt lat="44.424" lon="6.08583">
        <ele>1264.5999755859</ele>
        <time>2021-07-06T10:02:49.000Z</time>
      </trkpt>
      <trkpt lat="44.42397" lon="6.08578">
        <ele>1264.8000488281</ele>
        <time>2021-07-06T10:02:51.000Z</time>
      </trkpt>
      <trkpt lat="44.42388" lon="6.08567">
        <ele>1265.5999755859</ele>
        <time>2021-07-06T10:02:56.000Z</time>
      </trkpt>
      <trkpt lat="44.42382" lon="6.08562">
        <ele>1266</ele>
        <time>2021-07-06T10:02:59.000Z</time>
      </trkpt>
      <trkpt lat="44.42376" lon="6.08559">
        <ele>1266.8000488281</ele>
        <time>2021-07-06T10:03:02.000Z</time>
      </trkpt>
      <trkpt lat="44.42364" lon="6.08557">
        <ele>1267.5999755859</ele>
        <time>2021-07-06T10:03:07.000Z</time>
      </trkpt>
      <trkpt lat="44.42359" lon="6.08557">
        <ele>1267.5999755859</ele>
        <time>2021-07-06T10:03:09.000Z</time>
      </trkpt>
      <trkpt lat="44.42345" lon="6.08563">
        <ele>1268.8000488281</ele>
        <time>2021-07-06T10:03:15.000Z</time>
      </trkpt>
      <trkpt lat="44.42336" lon="6.08572">
        <ele>1269.8000488281</ele>
        <time>2021-07-06T10:03:20.000Z</time>
      </trkpt>
      <trkpt lat="44.42332" lon="6.08575">
        <ele>1270.4000244141</ele>
        <time>2021-07-06T10:03:22.000Z</time>
      </trkpt>
      <trkpt lat="44.42328" lon="6.08578">
        <ele>1271</ele>
        <time>2021-07-06T10:03:24.000Z</time>
      </trkpt>
      <trkpt lat="44.42318" lon="6.08578">
        <ele>1271.8000488281</ele>
        <time>2021-07-06T10:03:28.000Z</time>
      </trkpt>
      <trkpt lat="44.42316" lon="6.08577">
        <ele>1272.1999511719</ele>
        <time>2021-07-06T10:03:29.000Z</time>
      </trkpt>
      <trkpt lat="44.42303" lon="6.08568">
        <ele>1273.1999511719</ele>
        <time>2021-07-06T10:03:35.000Z</time>
      </trkpt>
      <trkpt lat="44.42291" lon="6.08555">
        <ele>1274</ele>
        <time>2021-07-06T10:03:41.000Z</time>
      </trkpt>
      <trkpt lat="44.42289" lon="6.08553">
        <ele>1274.1999511719</ele>
        <time>2021-07-06T10:03:42.000Z</time>
      </trkpt>
      <trkpt lat="44.42279" lon="6.08541">
        <ele>1275.1999511719</ele>
        <time>2021-07-06T10:03:48.000Z</time>
      </trkpt>
      <trkpt lat="44.42277" lon="6.08538">
        <ele>1275.4000244141</ele>
        <time>2021-07-06T10:03:49.000Z</time>
      </trkpt>
      <trkpt lat="44.42271" lon="6.08528">
        <ele>1276.1999511719</ele>
        <time>2021-07-06T10:03:53.000Z</time>
      </trkpt>
      <trkpt lat="44.42266" lon="6.08518">
        <ele>1277.4000244141</ele>
        <time>2021-07-06T10:03:57.000Z</time>
      </trkpt>
      <trkpt lat="44.42265" lon="6.08515">
        <ele>1277.4000244141</ele>
        <time>2021-07-06T10:03:58.000Z</time>
      </trkpt>
      <trkpt lat="44.42257" lon="6.08501">
        <ele>1278.4000244141</ele>
        <time>2021-07-06T10:04:04.000Z</time>
      </trkpt>
      <trkpt lat="44.42253" lon="6.08499">
        <ele>1278.8000488281</ele>
        <time>2021-07-06T10:04:06.000Z</time>
      </trkpt>
      <trkpt lat="44.42245" lon="6.08498">
        <ele>1279.4000244141</ele>
        <time>2021-07-06T10:04:09.000Z</time>
      </trkpt>
      <trkpt lat="44.42237" lon="6.08499">
        <ele>1280.1999511719</ele>
        <time>2021-07-06T10:04:13.000Z</time>
      </trkpt>
      <trkpt lat="44.4223" lon="6.085">
        <ele>1280.5999755859</ele>
        <time>2021-07-06T10:04:16.000Z</time>
      </trkpt>
      <trkpt lat="44.42218" lon="6.085">
        <ele>1281.4000244141</ele>
        <time>2021-07-06T10:04:21.000Z</time>
      </trkpt>
      <trkpt lat="44.42214" lon="6.08498">
        <ele>1281.8000488281</ele>
        <time>2021-07-06T10:04:23.000Z</time>
      </trkpt>
      <trkpt lat="44.42207" lon="6.08494">
        <ele>1283</ele>
        <time>2021-07-06T10:04:26.000Z</time>
      </trkpt>
      <trkpt lat="44.422" lon="6.0849">
        <ele>1283.5999755859</ele>
        <time>2021-07-06T10:04:29.000Z</time>
      </trkpt>
      <trkpt lat="44.42193" lon="6.08489">
        <ele>1284.1999511719</ele>
        <time>2021-07-06T10:04:32.000Z</time>
      </trkpt>
      <trkpt lat="44.42186" lon="6.08489">
        <ele>1285</ele>
        <time>2021-07-06T10:04:35.000Z</time>
      </trkpt>
      <trkpt lat="44.42183" lon="6.08489">
        <ele>1285.1999511719</ele>
        <time>2021-07-06T10:04:36.000Z</time>
      </trkpt>
      <trkpt lat="44.42172" lon="6.08485">
        <ele>1285.8000488281</ele>
        <time>2021-07-06T10:04:41.000Z</time>
      </trkpt>
      <trkpt lat="44.42169" lon="6.0848">
        <ele>1286</ele>
        <time>2021-07-06T10:04:43.000Z</time>
      </trkpt>
      <trkpt lat="44.42168" lon="6.08467">
        <ele>1286.8000488281</ele>
        <time>2021-07-06T10:04:47.000Z</time>
      </trkpt>
      <trkpt lat="44.4217" lon="6.08461">
        <ele>1287.1999511719</ele>
        <time>2021-07-06T10:04:49.000Z</time>
      </trkpt>
      <trkpt lat="44.42171" lon="6.08448">
        <ele>1288.1999511719</ele>
        <time>2021-07-06T10:04:53.000Z</time>
      </trkpt>
      <trkpt lat="44.42171" lon="6.08444">
        <ele>1288.5999755859</ele>
        <time>2021-07-06T10:04:54.000Z</time>
      </trkpt>
      <trkpt lat="44.42169" lon="6.08435">
        <ele>1289.4000244141</ele>
        <time>2021-07-06T10:04:57.000Z</time>
      </trkpt>
      <trkpt lat="44.42164" lon="6.08423">
        <ele>1290.5999755859</ele>
        <time>2021-07-06T10:05:01.000Z</time>
      </trkpt>
      <trkpt lat="44.42155" lon="6.08413">
        <ele>1291.4000244141</ele>
        <time>2021-07-06T10:05:06.000Z</time>
      </trkpt>
      <trkpt lat="44.42152" lon="6.08407">
        <ele>1291.5999755859</ele>
        <time>2021-07-06T10:05:08.000Z</time>
      </trkpt>
      <trkpt lat="44.42147" lon="6.08396">
        <ele>1292</ele>
        <time>2021-07-06T10:05:12.000Z</time>
      </trkpt>
      <trkpt lat="44.42144" lon="6.08387">
        <ele>1292.5999755859</ele>
        <time>2021-07-06T10:05:15.000Z</time>
      </trkpt>
      <trkpt lat="44.42141" lon="6.0838">
        <ele>1292.8000488281</ele>
        <time>2021-07-06T10:05:17.000Z</time>
      </trkpt>
      <trkpt lat="44.42131" lon="6.08358">
        <ele>1293</ele>
        <time>2021-07-06T10:05:24.000Z</time>
      </trkpt>
      <trkpt lat="44.42117" lon="6.08333">
        <ele>1293</ele>
        <time>2021-07-06T10:05:31.000Z</time>
      </trkpt>
      <trkpt lat="44.42106" lon="6.08311">
        <ele>1292.4000244141</ele>
        <time>2021-07-06T10:05:37.000Z</time>
      </trkpt>
      <trkpt lat="44.42105" lon="6.08309">
        <ele>1292.1999511719</ele>
        <time>2021-07-06T10:05:41.000Z</time>
      </trkpt>
      <trkpt lat="44.42104" lon="6.08309">
        <ele>1292</ele>
        <time>2021-07-06T10:05:57.000Z</time>
      </trkpt>
      <trkpt lat="44.42103" lon="6.08305">
        <ele>1291.8000488281</ele>
        <time>2021-07-06T10:06:10.000Z</time>
      </trkpt>
      <trkpt lat="44.42097" lon="6.08293">
        <ele>1291.8000488281</ele>
        <time>2021-07-06T10:06:20.000Z</time>
      </trkpt>
      <trkpt lat="44.42087" lon="6.08287">
        <ele>1292</ele>
        <time>2021-07-06T10:06:28.000Z</time>
      </trkpt>
      <trkpt lat="44.42085" lon="6.08284">
        <ele>1293.1999511719</ele>
        <time>2021-07-06T10:06:35.000Z</time>
      </trkpt>
      <trkpt lat="44.42085" lon="6.08283">
        <ele>1293.8000488281</ele>
        <time>2021-07-06T10:06:36.000Z</time>
      </trkpt>
      <trkpt lat="44.42085" lon="6.08281">
        <ele>1294.8000488281</ele>
        <time>2021-07-06T10:06:38.000Z</time>
      </trkpt>
      <trkpt lat="44.42083" lon="6.08277">
        <ele>1295.8000488281</ele>
        <time>2021-07-06T10:06:41.000Z</time>
      </trkpt>
      <trkpt lat="44.42083" lon="6.08276">
        <ele>1296</ele>
        <time>2021-07-06T10:06:42.000Z</time>
      </trkpt>
      <trkpt lat="44.42072" lon="6.08272">
        <ele>1296.8000488281</ele>
        <time>2021-07-06T10:06:49.000Z</time>
      </trkpt>
      <trkpt lat="44.42071" lon="6.08271">
        <ele>1297</ele>
        <time>2021-07-06T10:06:50.000Z</time>
      </trkpt>
      <trkpt lat="44.42065" lon="6.08266">
        <ele>1298</ele>
        <time>2021-07-06T10:06:55.000Z</time>
      </trkpt>
      <trkpt lat="44.42064" lon="6.08265">
        <ele>1298.1999511719</ele>
        <time>2021-07-06T10:06:56.000Z</time>
      </trkpt>
      <trkpt lat="44.42063" lon="6.08264">
        <ele>1298.1999511719</ele>
        <time>2021-07-06T10:06:57.000Z</time>
      </trkpt>
      <trkpt lat="44.42061" lon="6.08259">
        <ele>1298.8000488281</ele>
        <time>2021-07-06T10:07:00.000Z</time>
      </trkpt>
      <trkpt lat="44.42061" lon="6.08257">
        <ele>1299.1999511719</ele>
        <time>2021-07-06T10:07:01.000Z</time>
      </trkpt>
      <trkpt lat="44.4206" lon="6.08252">
        <ele>1299.8000488281</ele>
        <time>2021-07-06T10:07:04.000Z</time>
      </trkpt>
      <trkpt lat="44.4206" lon="6.08249">
        <ele>1300.1999511719</ele>
        <time>2021-07-06T10:07:06.000Z</time>
      </trkpt>
      <trkpt lat="44.42062" lon="6.08242">
        <ele>1300.8000488281</ele>
        <time>2021-07-06T10:07:11.000Z</time>
      </trkpt>
      <trkpt lat="44.42062" lon="6.08239">
        <ele>1301</ele>
        <time>2021-07-06T10:07:12.000Z</time>
      </trkpt>
      <trkpt lat="44.42061" lon="6.08237">
        <ele>1301</ele>
        <time>2021-07-06T10:07:13.000Z</time>
      </trkpt>
      <trkpt lat="44.42057" lon="6.08219">
        <ele>1302</ele>
        <time>2021-07-06T10:07:20.000Z</time>
      </trkpt>
      <trkpt lat="44.42056" lon="6.08217">
        <ele>1302</ele>
        <time>2021-07-06T10:07:21.000Z</time>
      </trkpt>
      <trkpt lat="44.42056" lon="6.08214">
        <ele>1302.1999511719</ele>
        <time>2021-07-06T10:07:22.000Z</time>
      </trkpt>
      <trkpt lat="44.42053" lon="6.08201">
        <ele>1303</ele>
        <time>2021-07-06T10:07:28.000Z</time>
      </trkpt>
      <trkpt lat="44.42052" lon="6.08199">
        <ele>1303</ele>
        <time>2021-07-06T10:07:29.000Z</time>
      </trkpt>
      <trkpt lat="44.4205" lon="6.08191">
        <ele>1304</ele>
        <time>2021-07-06T10:07:34.000Z</time>
      </trkpt>
      <trkpt lat="44.4205" lon="6.08189">
        <ele>1304.1999511719</ele>
        <time>2021-07-06T10:07:35.000Z</time>
      </trkpt>
      <trkpt lat="44.4205" lon="6.08184">
        <ele>1305.4000244141</ele>
        <time>2021-07-06T10:07:38.000Z</time>
      </trkpt>
      <trkpt lat="44.42051" lon="6.0818">
        <ele>1306.1999511719</ele>
        <time>2021-07-06T10:07:40.000Z</time>
      </trkpt>
      <trkpt lat="44.42051" lon="6.08178">
        <ele>1306.1999511719</ele>
        <time>2021-07-06T10:07:41.000Z</time>
      </trkpt>
      <trkpt lat="44.42052" lon="6.08176">
        <ele>1306.5999755859</ele>
        <time>2021-07-06T10:07:42.000Z</time>
      </trkpt>
      <trkpt lat="44.42053" lon="6.0817">
        <ele>1307.4000244141</ele>
        <time>2021-07-06T10:07:45.000Z</time>
      </trkpt>
      <trkpt lat="44.42052" lon="6.08167">
        <ele>1307.8000488281</ele>
        <time>2021-07-06T10:07:46.000Z</time>
      </trkpt>
      <trkpt lat="44.42051" lon="6.08166">
        <ele>1308</ele>
        <time>2021-07-06T10:07:47.000Z</time>
      </trkpt>
      <trkpt lat="44.42047" lon="6.08161">
        <ele>1309</ele>
        <time>2021-07-06T10:07:50.000Z</time>
      </trkpt>
      <trkpt lat="44.42046" lon="6.08154">
        <ele>1309.5999755859</ele>
        <time>2021-07-06T10:07:53.000Z</time>
      </trkpt>
      <trkpt lat="44.42049" lon="6.08149">
        <ele>1310</ele>
        <time>2021-07-06T10:07:56.000Z</time>
      </trkpt>
      <trkpt lat="44.4205" lon="6.08142">
        <ele>1311</ele>
        <time>2021-07-06T10:07:59.000Z</time>
      </trkpt>
      <trkpt lat="44.4205" lon="6.0814">
        <ele>1311.4000244141</ele>
        <time>2021-07-06T10:08:00.000Z</time>
      </trkpt>
      <trkpt lat="44.42051" lon="6.08136">
        <ele>1312</ele>
        <time>2021-07-06T10:08:02.000Z</time>
      </trkpt>
      <trkpt lat="44.42052" lon="6.08131">
        <ele>1312.4000244141</ele>
        <time>2021-07-06T10:08:04.000Z</time>
      </trkpt>
      <trkpt lat="44.42052" lon="6.08127">
        <ele>1313</ele>
        <time>2021-07-06T10:08:06.000Z</time>
      </trkpt>
      <trkpt lat="44.42053" lon="6.08123">
        <ele>1313.8000488281</ele>
        <time>2021-07-06T10:08:08.000Z</time>
      </trkpt>
      <trkpt lat="44.42056" lon="6.08116">
        <ele>1315</ele>
        <time>2021-07-06T10:08:11.000Z</time>
      </trkpt>
      <trkpt lat="44.42058" lon="6.08113">
        <ele>1315.4000244141</ele>
        <time>2021-07-06T10:08:13.000Z</time>
      </trkpt>
      <trkpt lat="44.42059" lon="6.08109">
        <ele>1316</ele>
        <time>2021-07-06T10:08:15.000Z</time>
      </trkpt>
      <trkpt lat="44.4206" lon="6.08104">
        <ele>1317.4000244141</ele>
        <time>2021-07-06T10:08:18.000Z</time>
      </trkpt>
      <trkpt lat="44.42062" lon="6.08101">
        <ele>1317.5999755859</ele>
        <time>2021-07-06T10:08:20.000Z</time>
      </trkpt>
      <trkpt lat="44.42064" lon="6.0809">
        <ele>1318</ele>
        <time>2021-07-06T10:08:25.000Z</time>
      </trkpt>
      <trkpt lat="44.42066" lon="6.08085">
        <ele>1318.4000244141</ele>
        <time>2021-07-06T10:08:27.000Z</time>
      </trkpt>
      <trkpt lat="44.42066" lon="6.08083">
        <ele>1318.4000244141</ele>
        <time>2021-07-06T10:08:28.000Z</time>
      </trkpt>
      <trkpt lat="44.42067" lon="6.08076">
        <ele>1319</ele>
        <time>2021-07-06T10:08:31.000Z</time>
      </trkpt>
      <trkpt lat="44.42067" lon="6.08074">
        <ele>1319.4000244141</ele>
        <time>2021-07-06T10:08:32.000Z</time>
      </trkpt>
      <trkpt lat="44.42066" lon="6.08072">
        <ele>1319.8000488281</ele>
        <time>2021-07-06T10:08:33.000Z</time>
      </trkpt>
      <trkpt lat="44.42068" lon="6.08065">
        <ele>1320.8000488281</ele>
        <time>2021-07-06T10:08:37.000Z</time>
      </trkpt>
      <trkpt lat="44.42068" lon="6.08063">
        <ele>1321.1999511719</ele>
        <time>2021-07-06T10:08:38.000Z</time>
      </trkpt>
      <trkpt lat="44.42068" lon="6.08059">
        <ele>1321.8000488281</ele>
        <time>2021-07-06T10:08:40.000Z</time>
      </trkpt>
      <trkpt lat="44.42067" lon="6.08053">
        <ele>1323</ele>
        <time>2021-07-06T10:08:43.000Z</time>
      </trkpt>
      <trkpt lat="44.42066" lon="6.08047">
        <ele>1324.1999511719</ele>
        <time>2021-07-06T10:08:47.000Z</time>
      </trkpt>
      <trkpt lat="44.42065" lon="6.08044">
        <ele>1324.4000244141</ele>
        <time>2021-07-06T10:08:48.000Z</time>
      </trkpt>
      <trkpt lat="44.42064" lon="6.08041">
        <ele>1324.8000488281</ele>
        <time>2021-07-06T10:08:50.000Z</time>
      </trkpt>
      <trkpt lat="44.42064" lon="6.08038">
        <ele>1325.1999511719</ele>
        <time>2021-07-06T10:08:52.000Z</time>
      </trkpt>
      <trkpt lat="44.42064" lon="6.08036">
        <ele>1325.5999755859</ele>
        <time>2021-07-06T10:08:53.000Z</time>
      </trkpt>
      <trkpt lat="44.42065" lon="6.08033">
        <ele>1326.1999511719</ele>
        <time>2021-07-06T10:08:55.000Z</time>
      </trkpt>
      <trkpt lat="44.42064" lon="6.0803">
        <ele>1327.4000244141</ele>
        <time>2021-07-06T10:08:58.000Z</time>
      </trkpt>
      <trkpt lat="44.42064" lon="6.08028">
        <ele>1328.5999755859</ele>
        <time>2021-07-06T10:09:00.000Z</time>
      </trkpt>
      <trkpt lat="44.42064" lon="6.08027">
        <ele>1329.5999755859</ele>
        <time>2021-07-06T10:09:02.000Z</time>
      </trkpt>
      <trkpt lat="44.42065" lon="6.08024">
        <ele>1330.8000488281</ele>
        <time>2021-07-06T10:09:05.000Z</time>
      </trkpt>
      <trkpt lat="44.42063" lon="6.08021">
        <ele>1331.4000244141</ele>
        <time>2021-07-06T10:09:10.000Z</time>
      </trkpt>
      <trkpt lat="44.42063" lon="6.08018">
        <ele>1332</ele>
        <time>2021-07-06T10:09:13.000Z</time>
      </trkpt>
      <trkpt lat="44.42061" lon="6.08014">
        <ele>1332.1999511719</ele>
        <time>2021-07-06T10:09:15.000Z</time>
      </trkpt>
      <trkpt lat="44.42059" lon="6.08008">
        <ele>1332.4000244141</ele>
        <time>2021-07-06T10:09:17.000Z</time>
      </trkpt>
      <trkpt lat="44.42058" lon="6.08002">
        <ele>1332.4000244141</ele>
        <time>2021-07-06T10:09:19.000Z</time>
      </trkpt>
      <trkpt lat="44.42057" lon="6.07995">
        <ele>1332.4000244141</ele>
        <time>2021-07-06T10:09:22.000Z</time>
      </trkpt>
      <trkpt lat="44.42054" lon="6.07991">
        <ele>1332.4000244141</ele>
        <time>2021-07-06T10:09:25.000Z</time>
      </trkpt>
      <trkpt lat="44.42051" lon="6.07986">
        <ele>1332.4000244141</ele>
        <time>2021-07-06T10:09:28.000Z</time>
      </trkpt>
      <trkpt lat="44.4205" lon="6.07978">
        <ele>1332.4000244141</ele>
        <time>2021-07-06T10:09:32.000Z</time>
      </trkpt>
      <trkpt lat="44.42051" lon="6.07977">
        <ele>1332.5999755859</ele>
        <time>2021-07-06T10:09:33.000Z</time>
      </trkpt>
      <trkpt lat="44.42051" lon="6.07974">
        <ele>1333.1999511719</ele>
        <time>2021-07-06T10:09:36.000Z</time>
      </trkpt>
      <trkpt lat="44.42049" lon="6.0797">
        <ele>1334.5999755859</ele>
        <time>2021-07-06T10:09:39.000Z</time>
      </trkpt>
      <trkpt lat="44.42049" lon="6.07968">
        <ele>1335.5999755859</ele>
        <time>2021-07-06T10:09:41.000Z</time>
      </trkpt>
      <trkpt lat="44.42049" lon="6.07967">
        <ele>1336.1999511719</ele>
        <time>2021-07-06T10:09:42.000Z</time>
      </trkpt>
      <trkpt lat="44.42049" lon="6.07964">
        <ele>1336.8000488281</ele>
        <time>2021-07-06T10:09:45.000Z</time>
      </trkpt>
      <trkpt lat="44.42048" lon="6.07958">
        <ele>1337.8000488281</ele>
        <time>2021-07-06T10:09:53.000Z</time>
      </trkpt>
      <trkpt lat="44.42047" lon="6.07958">
        <ele>1338</ele>
        <time>2021-07-06T10:09:54.000Z</time>
      </trkpt>
      <trkpt lat="44.42048" lon="6.07958">
        <ele>1339</ele>
        <time>2021-07-06T10:09:56.000Z</time>
      </trkpt>
      <trkpt lat="44.42045" lon="6.07956">
        <ele>1339.5999755859</ele>
        <time>2021-07-06T10:10:03.000Z</time>
      </trkpt>
      <trkpt lat="44.42044" lon="6.07955">
        <ele>1339.5999755859</ele>
        <time>2021-07-06T10:10:04.000Z</time>
      </trkpt>
      <trkpt lat="44.4204" lon="6.07953">
        <ele>1339.5999755859</ele>
        <time>2021-07-06T10:10:07.000Z</time>
      </trkpt>
      <trkpt lat="44.42034" lon="6.07949">
        <ele>1340</ele>
        <time>2021-07-06T10:10:12.000Z</time>
      </trkpt>
      <trkpt lat="44.42033" lon="6.07948">
        <ele>1340.1999511719</ele>
        <time>2021-07-06T10:10:13.000Z</time>
      </trkpt>
      <trkpt lat="44.42029" lon="6.07947">
        <ele>1341</ele>
        <time>2021-07-06T10:10:16.000Z</time>
      </trkpt>
      <trkpt lat="44.42022" lon="6.07942">
        <ele>1342</ele>
        <time>2021-07-06T10:10:21.000Z</time>
      </trkpt>
      <trkpt lat="44.42021" lon="6.07941">
        <ele>1342.1999511719</ele>
        <time>2021-07-06T10:10:22.000Z</time>
      </trkpt>
      <trkpt lat="44.42014" lon="6.07938">
        <ele>1343.5999755859</ele>
        <time>2021-07-06T10:10:27.000Z</time>
      </trkpt>
      <trkpt lat="44.42013" lon="6.07937">
        <ele>1344</ele>
        <time>2021-07-06T10:10:28.000Z</time>
      </trkpt>
      <trkpt lat="44.42011" lon="6.07935">
        <ele>1345</ele>
        <time>2021-07-06T10:10:30.000Z</time>
      </trkpt>
      <trkpt lat="44.42009" lon="6.07932">
        <ele>1346</ele>
        <time>2021-07-06T10:10:32.000Z</time>
      </trkpt>
      <trkpt lat="44.42007" lon="6.07929">
        <ele>1347</ele>
        <time>2021-07-06T10:10:34.000Z</time>
      </trkpt>
      <trkpt lat="44.42005" lon="6.07928">
        <ele>1347.4000244141</ele>
        <time>2021-07-06T10:10:35.000Z</time>
      </trkpt>
      <trkpt lat="44.42" lon="6.07926">
        <ele>1348.5999755859</ele>
        <time>2021-07-06T10:10:38.000Z</time>
      </trkpt>
      <trkpt lat="44.41999" lon="6.07926">
        <ele>1348.8000488281</ele>
        <time>2021-07-06T10:10:39.000Z</time>
      </trkpt>
      <trkpt lat="44.41995" lon="6.07923">
        <ele>1350</ele>
        <time>2021-07-06T10:10:43.000Z</time>
      </trkpt>
      <trkpt lat="44.41992" lon="6.07919">
        <ele>1351</ele>
        <time>2021-07-06T10:10:45.000Z</time>
      </trkpt>
      <trkpt lat="44.41991" lon="6.07917">
        <ele>1351.4000244141</ele>
        <time>2021-07-06T10:10:46.000Z</time>
      </trkpt>
      <trkpt lat="44.41984" lon="6.07907">
        <ele>1352.5999755859</ele>
        <time>2021-07-06T10:10:50.000Z</time>
      </trkpt>
      <trkpt lat="44.41978" lon="6.07897">
        <ele>1353</ele>
        <time>2021-07-06T10:10:56.000Z</time>
      </trkpt>
      <trkpt lat="44.41972" lon="6.07892">
        <ele>1353.5999755859</ele>
        <time>2021-07-06T10:11:02.000Z</time>
      </trkpt>
      <trkpt lat="44.41971" lon="6.07891">
        <ele>1354.8000488281</ele>
        <time>2021-07-06T10:11:09.000Z</time>
      </trkpt>
      <trkpt lat="44.4197" lon="6.07891">
        <ele>1355</ele>
        <time>2021-07-06T10:11:17.000Z</time>
      </trkpt>
      <trkpt lat="44.41966" lon="6.07889">
        <ele>1355</ele>
        <time>2021-07-06T10:11:32.000Z</time>
      </trkpt>
      <trkpt lat="44.41955" lon="6.0788">
        <ele>1355</ele>
        <time>2021-07-06T10:11:39.000Z</time>
      </trkpt>
      <trkpt lat="44.4195" lon="6.07873">
        <ele>1356</ele>
        <time>2021-07-06T10:11:43.000Z</time>
      </trkpt>
      <trkpt lat="44.4195" lon="6.07872">
        <ele>1356.8000488281</ele>
        <time>2021-07-06T10:11:45.000Z</time>
      </trkpt>
      <trkpt lat="44.4195" lon="6.07872">
        <ele>1357.4000244141</ele>
        <time>2021-07-06T10:11:46.000Z</time>
      </trkpt>
      <trkpt lat="44.4195" lon="6.07872">
        <ele>1358.5999755859</ele>
        <time>2021-07-06T10:11:50.000Z</time>
      </trkpt>
      <trkpt lat="44.41947" lon="6.07864">
        <ele>1359.4000244141</ele>
        <time>2021-07-06T10:11:56.000Z</time>
      </trkpt>
      <trkpt lat="44.4194" lon="6.07846">
        <ele>1359.4000244141</ele>
        <time>2021-07-06T10:12:00.000Z</time>
      </trkpt>
      <trkpt lat="44.41938" lon="6.07841">
        <ele>1359.4000244141</ele>
        <time>2021-07-06T10:12:01.000Z</time>
      </trkpt>
      <trkpt lat="44.4193" lon="6.07829">
        <ele>1359.4000244141</ele>
        <time>2021-07-06T10:12:03.000Z</time>
      </trkpt>
      <trkpt lat="44.41925" lon="6.07823">
        <ele>1359.4000244141</ele>
        <time>2021-07-06T10:12:04.000Z</time>
      </trkpt>
      <trkpt lat="44.41904" lon="6.07806">
        <ele>1359.4000244141</ele>
        <time>2021-07-06T10:12:07.000Z</time>
      </trkpt>
      <trkpt lat="44.41899" lon="6.07801">
        <ele>1359.1999511719</ele>
        <time>2021-07-06T10:12:08.000Z</time>
      </trkpt>
      <trkpt lat="44.41895" lon="6.07795">
        <ele>1359</ele>
        <time>2021-07-06T10:12:10.000Z</time>
      </trkpt>
      <trkpt lat="44.41888" lon="6.07786">
        <ele>1357.5999755859</ele>
        <time>2021-07-06T10:12:15.000Z</time>
      </trkpt>
      <trkpt lat="44.41885" lon="6.07783">
        <ele>1357.5999755859</ele>
        <time>2021-07-06T10:12:17.000Z</time>
      </trkpt>
      <trkpt lat="44.41875" lon="6.07768">
        <ele>1359.1999511719</ele>
        <time>2021-07-06T10:12:24.000Z</time>
      </trkpt>
      <trkpt lat="44.41872" lon="6.07762">
        <ele>1360.8000488281</ele>
        <time>2021-07-06T10:12:26.000Z</time>
      </trkpt>
      <trkpt lat="44.41866" lon="6.07752">
        <ele>1361.8000488281</ele>
        <time>2021-07-06T10:12:29.000Z</time>
      </trkpt>
      <trkpt lat="44.41863" lon="6.0775">
        <ele>1362</ele>
        <time>2021-07-06T10:12:30.000Z</time>
      </trkpt>
      <trkpt lat="44.41855" lon="6.07742">
        <ele>1362.5999755859</ele>
        <time>2021-07-06T10:12:35.000Z</time>
      </trkpt>
      <trkpt lat="44.41852" lon="6.07735">
        <ele>1363</ele>
        <time>2021-07-06T10:12:39.000Z</time>
      </trkpt>
      <trkpt lat="44.41848" lon="6.0773">
        <ele>1363.8000488281</ele>
        <time>2021-07-06T10:12:43.000Z</time>
      </trkpt>
      <trkpt lat="44.41847" lon="6.07729">
        <ele>1364</ele>
        <time>2021-07-06T10:12:44.000Z</time>
      </trkpt>
      <trkpt lat="44.41843" lon="6.07723">
        <ele>1365.4000244141</ele>
        <time>2021-07-06T10:12:48.000Z</time>
      </trkpt>
      <trkpt lat="44.41841" lon="6.07717">
        <ele>1365.8000488281</ele>
        <time>2021-07-06T10:12:51.000Z</time>
      </trkpt>
      <trkpt lat="44.4184" lon="6.07715">
        <ele>1366.1999511719</ele>
        <time>2021-07-06T10:12:52.000Z</time>
      </trkpt>
      <trkpt lat="44.41834" lon="6.0771">
        <ele>1367.5999755859</ele>
        <time>2021-07-06T10:12:56.000Z</time>
      </trkpt>
      <trkpt lat="44.41833" lon="6.07709">
        <ele>1367.8000488281</ele>
        <time>2021-07-06T10:12:57.000Z</time>
      </trkpt>
      <trkpt lat="44.41832" lon="6.07707">
        <ele>1368.5999755859</ele>
        <time>2021-07-06T10:12:59.000Z</time>
      </trkpt>
      <trkpt lat="44.41831" lon="6.07705">
        <ele>1370</ele>
        <time>2021-07-06T10:13:02.000Z</time>
      </trkpt>
      <trkpt lat="44.41831" lon="6.07705">
        <ele>1371.1999511719</ele>
        <time>2021-07-06T10:13:05.000Z</time>
      </trkpt>
      <trkpt lat="44.41831" lon="6.07704">
        <ele>1372.1999511719</ele>
        <time>2021-07-06T10:13:07.000Z</time>
      </trkpt>
      <trkpt lat="44.41831" lon="6.07703">
        <ele>1373.4000244141</ele>
        <time>2021-07-06T10:13:09.000Z</time>
      </trkpt>
      <trkpt lat="44.41828" lon="6.077">
        <ele>1374.1999511719</ele>
        <time>2021-07-06T10:13:14.000Z</time>
      </trkpt>
      <trkpt lat="44.41826" lon="6.07698">
        <ele>1374.4000244141</ele>
        <time>2021-07-06T10:13:17.000Z</time>
      </trkpt>
      <trkpt lat="44.41823" lon="6.07696">
        <ele>1375.5999755859</ele>
        <time>2021-07-06T10:13:25.000Z</time>
      </trkpt>
      <trkpt lat="44.4182" lon="6.07692">
        <ele>1376.5999755859</ele>
        <time>2021-07-06T10:13:32.000Z</time>
      </trkpt>
      <trkpt lat="44.41812" lon="6.07681">
        <ele>1377</ele>
        <time>2021-07-06T10:13:40.000Z</time>
      </trkpt>
      <trkpt lat="44.41808" lon="6.07679">
        <ele>1377.8000488281</ele>
        <time>2021-07-06T10:13:42.000Z</time>
      </trkpt>
      <trkpt lat="44.41807" lon="6.07678">
        <ele>1378.1999511719</ele>
        <time>2021-07-06T10:13:43.000Z</time>
      </trkpt>
      <trkpt lat="44.41801" lon="6.07675">
        <ele>1379.1999511719</ele>
        <time>2021-07-06T10:13:46.000Z</time>
      </trkpt>
      <trkpt lat="44.41795" lon="6.07673">
        <ele>1380.4000244141</ele>
        <time>2021-07-06T10:13:49.000Z</time>
      </trkpt>
      <trkpt lat="44.41786" lon="6.07665">
        <ele>1380.8000488281</ele>
        <time>2021-07-06T10:13:53.000Z</time>
      </trkpt>
      <trkpt lat="44.41774" lon="6.07653">
        <ele>1381</ele>
        <time>2021-07-06T10:13:58.000Z</time>
      </trkpt>
      <trkpt lat="44.41772" lon="6.07644">
        <ele>1379.4000244141</ele>
        <time>2021-07-06T10:14:03.000Z</time>
      </trkpt>
      <trkpt lat="44.41771" lon="6.07638">
        <ele>1378.1999511719</ele>
        <time>2021-07-06T10:14:05.000Z</time>
      </trkpt>
      <trkpt lat="44.41767" lon="6.07632">
        <ele>1377.1999511719</ele>
        <time>2021-07-06T10:14:08.000Z</time>
      </trkpt>
      <trkpt lat="44.41766" lon="6.07629">
        <ele>1376.8000488281</ele>
        <time>2021-07-06T10:14:09.000Z</time>
      </trkpt>
      <trkpt lat="44.41765" lon="6.07627">
        <ele>1376</ele>
        <time>2021-07-06T10:14:10.000Z</time>
      </trkpt>
      <trkpt lat="44.41762" lon="6.07621">
        <ele>1374.4000244141</ele>
        <time>2021-07-06T10:14:12.000Z</time>
      </trkpt>
      <trkpt lat="44.41761" lon="6.07619">
        <ele>1373.5999755859</ele>
        <time>2021-07-06T10:14:13.000Z</time>
      </trkpt>
      <trkpt lat="44.41759" lon="6.07617">
        <ele>1372.8000488281</ele>
        <time>2021-07-06T10:14:14.000Z</time>
      </trkpt>
      <trkpt lat="44.41757" lon="6.07615">
        <ele>1372</ele>
        <time>2021-07-06T10:14:15.000Z</time>
      </trkpt>
      <trkpt lat="44.41755" lon="6.07613">
        <ele>1371.1999511719</ele>
        <time>2021-07-06T10:14:16.000Z</time>
      </trkpt>
      <trkpt lat="44.41751" lon="6.0761">
        <ele>1369.5999755859</ele>
        <time>2021-07-06T10:14:18.000Z</time>
      </trkpt>
      <trkpt lat="44.41748" lon="6.0761">
        <ele>1368.5999755859</ele>
        <time>2021-07-06T10:14:19.000Z</time>
      </trkpt>
      <trkpt lat="44.4174" lon="6.07604">
        <ele>1366.5999755859</ele>
        <time>2021-07-06T10:14:21.000Z</time>
      </trkpt>
      <trkpt lat="44.41735" lon="6.076">
        <ele>1365.5999755859</ele>
        <time>2021-07-06T10:14:22.000Z</time>
      </trkpt>
      <trkpt lat="44.41731" lon="6.07595">
        <ele>1364.5999755859</ele>
        <time>2021-07-06T10:14:23.000Z</time>
      </trkpt>
      <trkpt lat="44.41728" lon="6.0759">
        <ele>1363.5999755859</ele>
        <time>2021-07-06T10:14:24.000Z</time>
      </trkpt>
      <trkpt lat="44.41727" lon="6.07585">
        <ele>1362.4000244141</ele>
        <time>2021-07-06T10:14:25.000Z</time>
      </trkpt>
      <trkpt lat="44.41725" lon="6.07579">
        <ele>1361.4000244141</ele>
        <time>2021-07-06T10:14:26.000Z</time>
      </trkpt>
      <trkpt lat="44.41719" lon="6.07571">
        <ele>1359.5999755859</ele>
        <time>2021-07-06T10:14:28.000Z</time>
      </trkpt>
      <trkpt lat="44.41716" lon="6.07568">
        <ele>1359</ele>
        <time>2021-07-06T10:14:29.000Z</time>
      </trkpt>
      <trkpt lat="44.41713" lon="6.07565">
        <ele>1358</ele>
        <time>2021-07-06T10:14:30.000Z</time>
      </trkpt>
      <trkpt lat="44.4171" lon="6.07561">
        <ele>1356</ele>
        <time>2021-07-06T10:14:31.000Z</time>
      </trkpt>
      <trkpt lat="44.41708" lon="6.07557">
        <ele>1354.4000244141</ele>
        <time>2021-07-06T10:14:32.000Z</time>
      </trkpt>
      <trkpt lat="44.41705" lon="6.07553">
        <ele>1352.4000244141</ele>
        <time>2021-07-06T10:14:33.000Z</time>
      </trkpt>
      <trkpt lat="44.41702" lon="6.07547">
        <ele>1351.4000244141</ele>
        <time>2021-07-06T10:14:34.000Z</time>
      </trkpt>
      <trkpt lat="44.41699" lon="6.07541">
        <ele>1350.5999755859</ele>
        <time>2021-07-06T10:14:35.000Z</time>
      </trkpt>
      <trkpt lat="44.41693" lon="6.07528">
        <ele>1349.1999511719</ele>
        <time>2021-07-06T10:14:37.000Z</time>
      </trkpt>
      <trkpt lat="44.41687" lon="6.07516">
        <ele>1347.5999755859</ele>
        <time>2021-07-06T10:14:39.000Z</time>
      </trkpt>
      <trkpt lat="44.41678" lon="6.07506">
        <ele>1346.1999511719</ele>
        <time>2021-07-06T10:14:41.000Z</time>
      </trkpt>
      <trkpt lat="44.41671" lon="6.07497">
        <ele>1345.1999511719</ele>
        <time>2021-07-06T10:14:43.000Z</time>
      </trkpt>
      <trkpt lat="44.41669" lon="6.07492">
        <ele>1344.5999755859</ele>
        <time>2021-07-06T10:14:44.000Z</time>
      </trkpt>
      <trkpt lat="44.41668" lon="6.07486">
        <ele>1343.5999755859</ele>
        <time>2021-07-06T10:14:45.000Z</time>
      </trkpt>
      <trkpt lat="44.41667" lon="6.0748">
        <ele>1342.8000488281</ele>
        <time>2021-07-06T10:14:46.000Z</time>
      </trkpt>
      <trkpt lat="44.41668" lon="6.07474">
        <ele>1342.1999511719</ele>
        <time>2021-07-06T10:14:47.000Z</time>
      </trkpt>
      <trkpt lat="44.41672" lon="6.07461">
        <ele>1340.8000488281</ele>
        <time>2021-07-06T10:14:49.000Z</time>
      </trkpt>
      <trkpt lat="44.41675" lon="6.07452">
        <ele>1339.5999755859</ele>
        <time>2021-07-06T10:14:51.000Z</time>
      </trkpt>
      <trkpt lat="44.41677" lon="6.07444">
        <ele>1338.1999511719</ele>
        <time>2021-07-06T10:14:53.000Z</time>
      </trkpt>
      <trkpt lat="44.41679" lon="6.07435">
        <ele>1336.5999755859</ele>
        <time>2021-07-06T10:14:55.000Z</time>
      </trkpt>
      <trkpt lat="44.41682" lon="6.07424">
        <ele>1334.8000488281</ele>
        <time>2021-07-06T10:14:57.000Z</time>
      </trkpt>
      <trkpt lat="44.41685" lon="6.07418">
        <ele>1334</ele>
        <time>2021-07-06T10:14:58.000Z</time>
      </trkpt>
      <trkpt lat="44.41688" lon="6.07413">
        <ele>1333.1999511719</ele>
        <time>2021-07-06T10:14:59.000Z</time>
      </trkpt>
      <trkpt lat="44.41694" lon="6.07399">
        <ele>1331</ele>
        <time>2021-07-06T10:15:01.000Z</time>
      </trkpt>
      <trkpt lat="44.41702" lon="6.07385">
        <ele>1329.4000244141</ele>
        <time>2021-07-06T10:15:03.000Z</time>
      </trkpt>
      <trkpt lat="44.41705" lon="6.07367">
        <ele>1327.5999755859</ele>
        <time>2021-07-06T10:15:05.000Z</time>
      </trkpt>
      <trkpt lat="44.41704" lon="6.07361">
        <ele>1326.5999755859</ele>
        <time>2021-07-06T10:15:06.000Z</time>
      </trkpt>
      <trkpt lat="44.41703" lon="6.07359">
        <ele>1325.5999755859</ele>
        <time>2021-07-06T10:15:07.000Z</time>
      </trkpt>
      <trkpt lat="44.41703" lon="6.07358">
        <ele>1324.4000244141</ele>
        <time>2021-07-06T10:15:08.000Z</time>
      </trkpt>
      <trkpt lat="44.41704" lon="6.07357">
        <ele>1323.4000244141</ele>
        <time>2021-07-06T10:15:09.000Z</time>
      </trkpt>
      <trkpt lat="44.41704" lon="6.07356">
        <ele>1322.4000244141</ele>
        <time>2021-07-06T10:15:11.000Z</time>
      </trkpt>
      <trkpt lat="44.41703" lon="6.07354">
        <ele>1321.1999511719</ele>
        <time>2021-07-06T10:15:15.000Z</time>
      </trkpt>
      <trkpt lat="44.41703" lon="6.07349">
        <ele>1321.1999511719</ele>
        <time>2021-07-06T10:15:19.000Z</time>
      </trkpt>
      <trkpt lat="44.41701" lon="6.07333">
        <ele>1322.4000244141</ele>
        <time>2021-07-06T10:15:28.000Z</time>
      </trkpt>
      <trkpt lat="44.41701" lon="6.07331">
        <ele>1323.4000244141</ele>
        <time>2021-07-06T10:15:29.000Z</time>
      </trkpt>
      <trkpt lat="44.417" lon="6.07328">
        <ele>1323.8000488281</ele>
        <time>2021-07-06T10:15:30.000Z</time>
      </trkpt>
      <trkpt lat="44.41695" lon="6.07316">
        <ele>1324</ele>
        <time>2021-07-06T10:15:34.000Z</time>
      </trkpt>
      <trkpt lat="44.41692" lon="6.07309">
        <ele>1324</ele>
        <time>2021-07-06T10:15:38.000Z</time>
      </trkpt>
      <trkpt lat="44.41692" lon="6.07304">
        <ele>1323.1999511719</ele>
        <time>2021-07-06T10:15:40.000Z</time>
      </trkpt>
      <trkpt lat="44.41692" lon="6.07299">
        <ele>1322.1999511719</ele>
        <time>2021-07-06T10:15:42.000Z</time>
      </trkpt>
      <trkpt lat="44.4169" lon="6.07289">
        <ele>1320.8000488281</ele>
        <time>2021-07-06T10:15:45.000Z</time>
      </trkpt>
      <trkpt lat="44.4169" lon="6.07283">
        <ele>1319.1999511719</ele>
        <time>2021-07-06T10:15:47.000Z</time>
      </trkpt>
      <trkpt lat="44.4169" lon="6.0728">
        <ele>1317.5999755859</ele>
        <time>2021-07-06T10:15:49.000Z</time>
      </trkpt>
      <trkpt lat="44.41689" lon="6.07279">
        <ele>1316.5999755859</ele>
        <time>2021-07-06T10:15:50.000Z</time>
      </trkpt>
      <trkpt lat="44.41689" lon="6.07278">
        <ele>1315.8000488281</ele>
        <time>2021-07-06T10:15:51.000Z</time>
      </trkpt>
      <trkpt lat="44.41688" lon="6.07277">
        <ele>1314.1999511719</ele>
        <time>2021-07-06T10:15:53.000Z</time>
      </trkpt>
      <trkpt lat="44.41687" lon="6.07275">
        <ele>1313</ele>
        <time>2021-07-06T10:15:55.000Z</time>
      </trkpt>
      <trkpt lat="44.41685" lon="6.07272">
        <ele>1312</ele>
        <time>2021-07-06T10:16:02.000Z</time>
      </trkpt>
      <trkpt lat="44.41686" lon="6.07271">
        <ele>1312</ele>
        <time>2021-07-06T10:16:03.000Z</time>
      </trkpt>
      <trkpt lat="44.41687" lon="6.07264">
        <ele>1311.8000488281</ele>
        <time>2021-07-06T10:16:08.000Z</time>
      </trkpt>
      <trkpt lat="44.41687" lon="6.07254">
        <ele>1311.8000488281</ele>
        <time>2021-07-06T10:16:12.000Z</time>
      </trkpt>
      <trkpt lat="44.41682" lon="6.0723">
        <ele>1312.5999755859</ele>
        <time>2021-07-06T10:16:23.000Z</time>
      </trkpt>
      <trkpt lat="44.41681" lon="6.07228">
        <ele>1313.4000244141</ele>
        <time>2021-07-06T10:16:24.000Z</time>
      </trkpt>
      <trkpt lat="44.41682" lon="6.07225">
        <ele>1314</ele>
        <time>2021-07-06T10:16:25.000Z</time>
      </trkpt>
      <trkpt lat="44.41681" lon="6.07223">
        <ele>1314.5999755859</ele>
        <time>2021-07-06T10:16:26.000Z</time>
      </trkpt>
      <trkpt lat="44.4168" lon="6.07216">
        <ele>1315.5999755859</ele>
        <time>2021-07-06T10:16:29.000Z</time>
      </trkpt>
      <trkpt lat="44.41679" lon="6.07213">
        <ele>1315.8000488281</ele>
        <time>2021-07-06T10:16:30.000Z</time>
      </trkpt>
      <trkpt lat="44.41672" lon="6.07199">
        <ele>1316.5999755859</ele>
        <time>2021-07-06T10:16:37.000Z</time>
      </trkpt>
      <trkpt lat="44.41672" lon="6.07199">
        <ele>1316.8000488281</ele>
        <time>2021-07-06T10:16:38.000Z</time>
      </trkpt>
      <trkpt lat="44.41672" lon="6.07197">
        <ele>1317.8000488281</ele>
        <time>2021-07-06T10:16:43.000Z</time>
      </trkpt>
      <trkpt lat="44.41671" lon="6.07196">
        <ele>1318.1999511719</ele>
        <time>2021-07-06T10:16:45.000Z</time>
      </trkpt>
      <trkpt lat="44.41669" lon="6.0719">
        <ele>1318.5999755859</ele>
        <time>2021-07-06T10:16:49.000Z</time>
      </trkpt>
      <trkpt lat="44.41664" lon="6.0718">
        <ele>1318.5999755859</ele>
        <time>2021-07-06T10:16:53.000Z</time>
      </trkpt>
      <trkpt lat="44.41657" lon="6.07162">
        <ele>1317.8000488281</ele>
        <time>2021-07-06T10:16:59.000Z</time>
      </trkpt>
      <trkpt lat="44.41654" lon="6.0716">
        <ele>1317.4000244141</ele>
        <time>2021-07-06T10:17:00.000Z</time>
      </trkpt>
      <trkpt lat="44.41652" lon="6.07158">
        <ele>1316.8000488281</ele>
        <time>2021-07-06T10:17:01.000Z</time>
      </trkpt>
      <trkpt lat="44.41646" lon="6.07154">
        <ele>1316</ele>
        <time>2021-07-06T10:17:03.000Z</time>
      </trkpt>
      <trkpt lat="44.41642" lon="6.07151">
        <ele>1315.8000488281</ele>
        <time>2021-07-06T10:17:04.000Z</time>
      </trkpt>
      <trkpt lat="44.41634" lon="6.07145">
        <ele>1314.5999755859</ele>
        <time>2021-07-06T10:17:06.000Z</time>
      </trkpt>
      <trkpt lat="44.41626" lon="6.07139">
        <ele>1313.1999511719</ele>
        <time>2021-07-06T10:17:08.000Z</time>
      </trkpt>
      <trkpt lat="44.41619" lon="6.07136">
        <ele>1312</ele>
        <time>2021-07-06T10:17:10.000Z</time>
      </trkpt>
      <trkpt lat="44.41614" lon="6.07134">
        <ele>1311.1999511719</ele>
        <time>2021-07-06T10:17:12.000Z</time>
      </trkpt>
      <trkpt lat="44.41611" lon="6.07132">
        <ele>1310.5999755859</ele>
        <time>2021-07-06T10:17:13.000Z</time>
      </trkpt>
      <trkpt lat="44.41602" lon="6.07125">
        <ele>1309.4000244141</ele>
        <time>2021-07-06T10:17:16.000Z</time>
      </trkpt>
      <trkpt lat="44.41595" lon="6.07121">
        <ele>1307.4000244141</ele>
        <time>2021-07-06T10:17:18.000Z</time>
      </trkpt>
      <trkpt lat="44.4159" lon="6.07117">
        <ele>1306.1999511719</ele>
        <time>2021-07-06T10:17:20.000Z</time>
      </trkpt>
      <trkpt lat="44.41591" lon="6.07108">
        <ele>1304.4000244141</ele>
        <time>2021-07-06T10:17:22.000Z</time>
      </trkpt>
      <trkpt lat="44.41589" lon="6.07099">
        <ele>1303.4000244141</ele>
        <time>2021-07-06T10:17:23.000Z</time>
      </trkpt>
      <trkpt lat="44.4159" lon="6.07089">
        <ele>1302.4000244141</ele>
        <time>2021-07-06T10:17:24.000Z</time>
      </trkpt>
      <trkpt lat="44.4159" lon="6.07078">
        <ele>1301.4000244141</ele>
        <time>2021-07-06T10:17:25.000Z</time>
      </trkpt>
      <trkpt lat="44.4159" lon="6.07067">
        <ele>1301</ele>
        <time>2021-07-06T10:17:26.000Z</time>
      </trkpt>
      <trkpt lat="44.4159" lon="6.07056">
        <ele>1300.5999755859</ele>
        <time>2021-07-06T10:17:27.000Z</time>
      </trkpt>
      <trkpt lat="44.41589" lon="6.07028">
        <ele>1299.8000488281</ele>
        <time>2021-07-06T10:17:30.000Z</time>
      </trkpt>
      <trkpt lat="44.41584" lon="6.07013">
        <ele>1298</ele>
        <time>2021-07-06T10:17:32.000Z</time>
      </trkpt>
      <trkpt lat="44.41582" lon="6.07008">
        <ele>1297.4000244141</ele>
        <time>2021-07-06T10:17:33.000Z</time>
      </trkpt>
      <trkpt lat="44.4158" lon="6.07003">
        <ele>1296.4000244141</ele>
        <time>2021-07-06T10:17:34.000Z</time>
      </trkpt>
      <trkpt lat="44.41579" lon="6.06999">
        <ele>1295.4000244141</ele>
        <time>2021-07-06T10:17:35.000Z</time>
      </trkpt>
      <trkpt lat="44.41578" lon="6.06988">
        <ele>1293.5999755859</ele>
        <time>2021-07-06T10:17:37.000Z</time>
      </trkpt>
      <trkpt lat="44.41577" lon="6.06979">
        <ele>1292</ele>
        <time>2021-07-06T10:17:39.000Z</time>
      </trkpt>
      <trkpt lat="44.41575" lon="6.06971">
        <ele>1290.8000488281</ele>
        <time>2021-07-06T10:17:41.000Z</time>
      </trkpt>
      <trkpt lat="44.41572" lon="6.06962">
        <ele>1289.4000244141</ele>
        <time>2021-07-06T10:17:43.000Z</time>
      </trkpt>
      <trkpt lat="44.41569" lon="6.06958">
        <ele>1288.5999755859</ele>
        <time>2021-07-06T10:17:44.000Z</time>
      </trkpt>
      <trkpt lat="44.41566" lon="6.06954">
        <ele>1288</ele>
        <time>2021-07-06T10:17:45.000Z</time>
      </trkpt>
      <trkpt lat="44.41558" lon="6.06936">
        <ele>1287.1999511719</ele>
        <time>2021-07-06T10:17:48.000Z</time>
      </trkpt>
      <trkpt lat="44.41555" lon="6.06931">
        <ele>1286.5999755859</ele>
        <time>2021-07-06T10:17:49.000Z</time>
      </trkpt>
      <trkpt lat="44.41553" lon="6.06926">
        <ele>1286.1999511719</ele>
        <time>2021-07-06T10:17:50.000Z</time>
      </trkpt>
      <trkpt lat="44.41553" lon="6.06915">
        <ele>1285.1999511719</ele>
        <time>2021-07-06T10:17:52.000Z</time>
      </trkpt>
      <trkpt lat="44.41552" lon="6.06901">
        <ele>1284.1999511719</ele>
        <time>2021-07-06T10:17:54.000Z</time>
      </trkpt>
      <trkpt lat="44.41554" lon="6.06891">
        <ele>1282.8000488281</ele>
        <time>2021-07-06T10:17:56.000Z</time>
      </trkpt>
      <trkpt lat="44.41557" lon="6.06884">
        <ele>1281.1999511719</ele>
        <time>2021-07-06T10:17:58.000Z</time>
      </trkpt>
      <trkpt lat="44.4156" lon="6.06876">
        <ele>1280.1999511719</ele>
        <time>2021-07-06T10:18:00.000Z</time>
      </trkpt>
      <trkpt lat="44.41562" lon="6.06864">
        <ele>1278.5999755859</ele>
        <time>2021-07-06T10:18:03.000Z</time>
      </trkpt>
      <trkpt lat="44.41563" lon="6.06859">
        <ele>1277.4000244141</ele>
        <time>2021-07-06T10:18:05.000Z</time>
      </trkpt>
      <trkpt lat="44.41567" lon="6.06853">
        <ele>1276.4000244141</ele>
        <time>2021-07-06T10:18:07.000Z</time>
      </trkpt>
      <trkpt lat="44.41571" lon="6.06845">
        <ele>1275</ele>
        <time>2021-07-06T10:18:09.000Z</time>
      </trkpt>
      <trkpt lat="44.41576" lon="6.06835">
        <ele>1273.8000488281</ele>
        <time>2021-07-06T10:18:11.000Z</time>
      </trkpt>
      <trkpt lat="44.41575" lon="6.06825">
        <ele>1272</ele>
        <time>2021-07-06T10:18:13.000Z</time>
      </trkpt>
      <trkpt lat="44.41574" lon="6.06821">
        <ele>1270.1999511719</ele>
        <time>2021-07-06T10:18:14.000Z</time>
      </trkpt>
      <trkpt lat="44.41573" lon="6.0682">
        <ele>1269</ele>
        <time>2021-07-06T10:18:15.000Z</time>
      </trkpt>
      <trkpt lat="44.4157" lon="6.06817">
        <ele>1267.8000488281</ele>
        <time>2021-07-06T10:18:16.000Z</time>
      </trkpt>
      <trkpt lat="44.41566" lon="6.06815">
        <ele>1266.5999755859</ele>
        <time>2021-07-06T10:18:17.000Z</time>
      </trkpt>
      <trkpt lat="44.41564" lon="6.06813">
        <ele>1265.5999755859</ele>
        <time>2021-07-06T10:18:18.000Z</time>
      </trkpt>
      <trkpt lat="44.41561" lon="6.06812">
        <ele>1264.4000244141</ele>
        <time>2021-07-06T10:18:19.000Z</time>
      </trkpt>
      <trkpt lat="44.41556" lon="6.06809">
        <ele>1262.5999755859</ele>
        <time>2021-07-06T10:18:21.000Z</time>
      </trkpt>
      <trkpt lat="44.41549" lon="6.06808">
        <ele>1261.5999755859</ele>
        <time>2021-07-06T10:18:24.000Z</time>
      </trkpt>
      <trkpt lat="44.41547" lon="6.06808">
        <ele>1261.5999755859</ele>
        <time>2021-07-06T10:18:25.000Z</time>
      </trkpt>
      <trkpt lat="44.41531" lon="6.06805">
        <ele>1261.5999755859</ele>
        <time>2021-07-06T10:18:30.000Z</time>
      </trkpt>
      <trkpt lat="44.41524" lon="6.06804">
        <ele>1261.5999755859</ele>
        <time>2021-07-06T10:18:32.000Z</time>
      </trkpt>
      <trkpt lat="44.4152" lon="6.06811">
        <ele>1261.5999755859</ele>
        <time>2021-07-06T10:18:34.000Z</time>
      </trkpt>
      <trkpt lat="44.41514" lon="6.06813">
        <ele>1261.5999755859</ele>
        <time>2021-07-06T10:18:36.000Z</time>
      </trkpt>
      <trkpt lat="44.41502" lon="6.06808">
        <ele>1261.5999755859</ele>
        <time>2021-07-06T10:18:40.000Z</time>
      </trkpt>
      <trkpt lat="44.41488" lon="6.06801">
        <ele>1260.8000488281</ele>
        <time>2021-07-06T10:18:44.000Z</time>
      </trkpt>
      <trkpt lat="44.41481" lon="6.06794">
        <ele>1260.5999755859</ele>
        <time>2021-07-06T10:18:46.000Z</time>
      </trkpt>
      <trkpt lat="44.41469" lon="6.06787">
        <ele>1260.5999755859</ele>
        <time>2021-07-06T10:18:49.000Z</time>
      </trkpt>
      <trkpt lat="44.41456" lon="6.06773">
        <ele>1260.4000244141</ele>
        <time>2021-07-06T10:18:52.000Z</time>
      </trkpt>
      <trkpt lat="44.41452" lon="6.06771">
        <ele>1260.1999511719</ele>
        <time>2021-07-06T10:18:53.000Z</time>
      </trkpt>
      <trkpt lat="44.41443" lon="6.06773">
        <ele>1259.1999511719</ele>
        <time>2021-07-06T10:18:55.000Z</time>
      </trkpt>
      <trkpt lat="44.41439" lon="6.06775">
        <ele>1258.5999755859</ele>
        <time>2021-07-06T10:18:56.000Z</time>
      </trkpt>
      <trkpt lat="44.41436" lon="6.06777">
        <ele>1258</ele>
        <time>2021-07-06T10:18:57.000Z</time>
      </trkpt>
      <trkpt lat="44.41427" lon="6.06782">
        <ele>1257</ele>
        <time>2021-07-06T10:19:00.000Z</time>
      </trkpt>
      <trkpt lat="44.4142" lon="6.06788">
        <ele>1256.1999511719</ele>
        <time>2021-07-06T10:19:02.000Z</time>
      </trkpt>
      <trkpt lat="44.41396" lon="6.06816">
        <ele>1256</ele>
        <time>2021-07-06T10:19:10.000Z</time>
      </trkpt>
      <trkpt lat="44.41393" lon="6.0682">
        <ele>1256.1999511719</ele>
        <time>2021-07-06T10:19:11.000Z</time>
      </trkpt>
      <trkpt lat="44.41391" lon="6.06838">
        <ele>1256.4000244141</ele>
        <time>2021-07-06T10:19:14.000Z</time>
      </trkpt>
      <trkpt lat="44.41398" lon="6.06848">
        <ele>1256.5999755859</ele>
        <time>2021-07-06T10:19:17.000Z</time>
      </trkpt>
      <trkpt lat="44.41402" lon="6.06849">
        <ele>1256.5999755859</ele>
        <time>2021-07-06T10:19:18.000Z</time>
      </trkpt>
      <trkpt lat="44.41411" lon="6.06853">
        <ele>1256.5999755859</ele>
        <time>2021-07-06T10:19:20.000Z</time>
      </trkpt>
      <trkpt lat="44.41418" lon="6.0686">
        <ele>1256.8000488281</ele>
        <time>2021-07-06T10:19:22.000Z</time>
      </trkpt>
      <trkpt lat="44.41422" lon="6.06877">
        <ele>1256.8000488281</ele>
        <time>2021-07-06T10:19:25.000Z</time>
      </trkpt>
      <trkpt lat="44.41419" lon="6.06894">
        <ele>1257.1999511719</ele>
        <time>2021-07-06T10:19:28.000Z</time>
      </trkpt>
      <trkpt lat="44.41416" lon="6.06904">
        <ele>1257.4000244141</ele>
        <time>2021-07-06T10:19:30.000Z</time>
      </trkpt>
      <trkpt lat="44.41422" lon="6.06921">
        <ele>1258.1999511719</ele>
        <time>2021-07-06T10:19:34.000Z</time>
      </trkpt>
      <trkpt lat="44.41437" lon="6.06927">
        <ele>1258.4000244141</ele>
        <time>2021-07-06T10:19:38.000Z</time>
      </trkpt>
      <trkpt lat="44.41447" lon="6.06933">
        <ele>1258.5999755859</ele>
        <time>2021-07-06T10:19:41.000Z</time>
      </trkpt>
      <trkpt lat="44.41457" lon="6.06941">
        <ele>1259</ele>
        <time>2021-07-06T10:19:44.000Z</time>
      </trkpt>
      <trkpt lat="44.41475" lon="6.06951">
        <ele>1259</ele>
        <time>2021-07-06T10:19:50.000Z</time>
      </trkpt>
      <trkpt lat="44.41478" lon="6.06952">
        <ele>1259</ele>
        <time>2021-07-06T10:19:51.000Z</time>
      </trkpt>
      <trkpt lat="44.41491" lon="6.06961">
        <ele>1260</ele>
        <time>2021-07-06T10:19:56.000Z</time>
      </trkpt>
      <trkpt lat="44.41499" lon="6.06968">
        <ele>1260.5999755859</ele>
        <time>2021-07-06T10:19:59.000Z</time>
      </trkpt>
      <trkpt lat="44.41506" lon="6.06976">
        <ele>1261.1999511719</ele>
        <time>2021-07-06T10:20:02.000Z</time>
      </trkpt>
      <trkpt lat="44.41509" lon="6.06985">
        <ele>1261.8000488281</ele>
        <time>2021-07-06T10:20:04.000Z</time>
      </trkpt>
      <trkpt lat="44.41509" lon="6.06997">
        <ele>1262.4000244141</ele>
        <time>2021-07-06T10:20:07.000Z</time>
      </trkpt>
      <trkpt lat="44.41507" lon="6.07">
        <ele>1262.5999755859</ele>
        <time>2021-07-06T10:20:08.000Z</time>
      </trkpt>
      <trkpt lat="44.41495" lon="6.07012">
        <ele>1263</ele>
        <time>2021-07-06T10:20:14.000Z</time>
      </trkpt>
      <trkpt lat="44.41473" lon="6.07025">
        <ele>1263.5999755859</ele>
        <time>2021-07-06T10:20:22.000Z</time>
      </trkpt>
      <trkpt lat="44.4146" lon="6.07038">
        <ele>1264</ele>
        <time>2021-07-06T10:20:28.000Z</time>
      </trkpt>
      <trkpt lat="44.41455" lon="6.07042">
        <ele>1264.5999755859</ele>
        <time>2021-07-06T10:20:30.000Z</time>
      </trkpt>
      <trkpt lat="44.41446" lon="6.0705">
        <ele>1265</ele>
        <time>2021-07-06T10:20:34.000Z</time>
      </trkpt>
      <trkpt lat="44.4144" lon="6.07062">
        <ele>1265.5999755859</ele>
        <time>2021-07-06T10:20:38.000Z</time>
      </trkpt>
      <trkpt lat="44.41438" lon="6.07073">
        <ele>1265.5999755859</ele>
        <time>2021-07-06T10:20:41.000Z</time>
      </trkpt>
      <trkpt lat="44.41442" lon="6.07094">
        <ele>1266.1999511719</ele>
        <time>2021-07-06T10:20:47.000Z</time>
      </trkpt>
      <trkpt lat="44.41447" lon="6.07103">
        <ele>1266.8000488281</ele>
        <time>2021-07-06T10:20:50.000Z</time>
      </trkpt>
      <trkpt lat="44.41457" lon="6.0712">
        <ele>1267.4000244141</ele>
        <time>2021-07-06T10:20:56.000Z</time>
      </trkpt>
      <trkpt lat="44.41473" lon="6.07131">
        <ele>1267.8000488281</ele>
        <time>2021-07-06T10:21:02.000Z</time>
      </trkpt>
      <trkpt lat="44.41475" lon="6.07134">
        <ele>1268</ele>
        <time>2021-07-06T10:21:03.000Z</time>
      </trkpt>
      <trkpt lat="44.41478" lon="6.07147">
        <ele>1268.4000244141</ele>
        <time>2021-07-06T10:21:07.000Z</time>
      </trkpt>
      <trkpt lat="44.41479" lon="6.07163">
        <ele>1268.5999755859</ele>
        <time>2021-07-06T10:21:13.000Z</time>
      </trkpt>
      <trkpt lat="44.41486" lon="6.07175">
        <ele>1268.5999755859</ele>
        <time>2021-07-06T10:21:18.000Z</time>
      </trkpt>
      <trkpt lat="44.41489" lon="6.07176">
        <ele>1268.8000488281</ele>
        <time>2021-07-06T10:21:19.000Z</time>
      </trkpt>
      <trkpt lat="44.41506" lon="6.07178">
        <ele>1269.8000488281</ele>
        <time>2021-07-06T10:21:25.000Z</time>
      </trkpt>
      <trkpt lat="44.41512" lon="6.07177">
        <ele>1270</ele>
        <time>2021-07-06T10:21:27.000Z</time>
      </trkpt>
      <trkpt lat="44.41527" lon="6.07172">
        <ele>1270.8000488281</ele>
        <time>2021-07-06T10:21:32.000Z</time>
      </trkpt>
      <trkpt lat="44.41536" lon="6.07171">
        <ele>1270.8000488281</ele>
        <time>2021-07-06T10:21:35.000Z</time>
      </trkpt>
      <trkpt lat="44.41547" lon="6.07174">
        <ele>1271.1999511719</ele>
        <time>2021-07-06T10:21:39.000Z</time>
      </trkpt>
      <trkpt lat="44.41568" lon="6.07186">
        <ele>1271.4000244141</ele>
        <time>2021-07-06T10:21:47.000Z</time>
      </trkpt>
      <trkpt lat="44.41574" lon="6.07199">
        <ele>1271.5999755859</ele>
        <time>2021-07-06T10:21:51.000Z</time>
      </trkpt>
      <trkpt lat="44.41574" lon="6.07203">
        <ele>1271.8000488281</ele>
        <time>2021-07-06T10:21:52.000Z</time>
      </trkpt>
      <trkpt lat="44.41575" lon="6.07222">
        <ele>1272.4000244141</ele>
        <time>2021-07-06T10:21:57.000Z</time>
      </trkpt>
      <trkpt lat="44.4158" lon="6.0724">
        <ele>1273</ele>
        <time>2021-07-06T10:22:02.000Z</time>
      </trkpt>
      <trkpt lat="44.41582" lon="6.07243">
        <ele>1273.1999511719</ele>
        <time>2021-07-06T10:22:03.000Z</time>
      </trkpt>
      <trkpt lat="44.41586" lon="6.07258">
        <ele>1274</ele>
        <time>2021-07-06T10:22:07.000Z</time>
      </trkpt>
      <trkpt lat="44.41585" lon="6.07262">
        <ele>1274.1999511719</ele>
        <time>2021-07-06T10:22:08.000Z</time>
      </trkpt>
      <trkpt lat="44.41576" lon="6.07279">
        <ele>1274.4000244141</ele>
        <time>2021-07-06T10:22:13.000Z</time>
      </trkpt>
      <trkpt lat="44.41562" lon="6.07279">
        <ele>1274.8000488281</ele>
        <time>2021-07-06T10:22:17.000Z</time>
      </trkpt>
      <trkpt lat="44.41558" lon="6.07279">
        <ele>1274.8000488281</ele>
        <time>2021-07-06T10:22:18.000Z</time>
      </trkpt>
      <trkpt lat="44.41525" lon="6.07279">
        <ele>1275.8000488281</ele>
        <time>2021-07-06T10:22:27.000Z</time>
      </trkpt>
      <trkpt lat="44.41514" lon="6.07292">
        <ele>1276.1999511719</ele>
        <time>2021-07-06T10:22:31.000Z</time>
      </trkpt>
      <trkpt lat="44.41512" lon="6.07312">
        <ele>1276.5999755859</ele>
        <time>2021-07-06T10:22:35.000Z</time>
      </trkpt>
      <trkpt lat="44.41509" lon="6.07344">
        <ele>1276.8000488281</ele>
        <time>2021-07-06T10:22:41.000Z</time>
      </trkpt>
      <trkpt lat="44.41508" lon="6.07349">
        <ele>1276.8000488281</ele>
        <time>2021-07-06T10:22:42.000Z</time>
      </trkpt>
      <trkpt lat="44.41498" lon="6.07376">
        <ele>1277.1999511719</ele>
        <time>2021-07-06T10:22:48.000Z</time>
      </trkpt>
      <trkpt lat="44.41488" lon="6.07393">
        <ele>1277.1999511719</ele>
        <time>2021-07-06T10:22:52.000Z</time>
      </trkpt>
      <trkpt lat="44.41484" lon="6.07394">
        <ele>1277.1999511719</ele>
        <time>2021-07-06T10:22:53.000Z</time>
      </trkpt>
      <trkpt lat="44.41462" lon="6.07393">
        <ele>1277.5999755859</ele>
        <time>2021-07-06T10:22:59.000Z</time>
      </trkpt>
      <trkpt lat="44.41459" lon="6.07392">
        <ele>1277.8000488281</ele>
        <time>2021-07-06T10:23:00.000Z</time>
      </trkpt>
      <trkpt lat="44.41435" lon="6.07393">
        <ele>1278.8000488281</ele>
        <time>2021-07-06T10:23:07.000Z</time>
      </trkpt>
      <trkpt lat="44.41418" lon="6.07399">
        <ele>1279.8000488281</ele>
        <time>2021-07-06T10:23:12.000Z</time>
      </trkpt>
      <trkpt lat="44.41409" lon="6.07405">
        <ele>1280.1999511719</ele>
        <time>2021-07-06T10:23:15.000Z</time>
      </trkpt>
      <trkpt lat="44.41398" lon="6.07409">
        <ele>1281</ele>
        <time>2021-07-06T10:23:18.000Z</time>
      </trkpt>
      <trkpt lat="44.41387" lon="6.07413">
        <ele>1281.5999755859</ele>
        <time>2021-07-06T10:23:21.000Z</time>
      </trkpt>
      <trkpt lat="44.4138" lon="6.07415">
        <ele>1282</ele>
        <time>2021-07-06T10:23:23.000Z</time>
      </trkpt>
      <trkpt lat="44.41363" lon="6.07427">
        <ele>1282.4000244141</ele>
        <time>2021-07-06T10:23:28.000Z</time>
      </trkpt>
      <trkpt lat="44.41354" lon="6.07446">
        <ele>1282.5999755859</ele>
        <time>2021-07-06T10:23:32.000Z</time>
      </trkpt>
      <trkpt lat="44.41353" lon="6.07457">
        <ele>1282.5999755859</ele>
        <time>2021-07-06T10:23:35.000Z</time>
      </trkpt>
      <trkpt lat="44.41354" lon="6.07459">
        <ele>1282.5999755859</ele>
        <time>2021-07-06T10:23:36.000Z</time>
      </trkpt>
      <trkpt lat="44.41355" lon="6.07459">
        <ele>1282.5999755859</ele>
        <time>2021-07-06T10:23:40.000Z</time>
      </trkpt>
      <trkpt lat="44.41355" lon="6.07459">
        <ele>1282.1999511719</ele>
        <time>2021-07-06T10:23:55.000Z</time>
      </trkpt>
      <trkpt lat="44.41355" lon="6.07459">
        <ele>1282.1999511719</ele>
        <time>2021-07-06T10:24:11.000Z</time>
      </trkpt>
      <trkpt lat="44.41355" lon="6.07459">
        <ele>1282.1999511719</ele>
        <time>2021-07-06T10:24:40.000Z</time>
      </trkpt>
      <trkpt lat="44.41357" lon="6.07467">
        <ele>1282</ele>
        <time>2021-07-06T10:24:44.000Z</time>
      </trkpt>
      <trkpt lat="44.41361" lon="6.07476">
        <ele>1282</ele>
        <time>2021-07-06T10:24:46.000Z</time>
      </trkpt>
      <trkpt lat="44.41367" lon="6.07485">
        <ele>1282</ele>
        <time>2021-07-06T10:24:48.000Z</time>
      </trkpt>
      <trkpt lat="44.41394" lon="6.07514">
        <ele>1282</ele>
        <time>2021-07-06T10:24:55.000Z</time>
      </trkpt>
      <trkpt lat="44.41419" lon="6.07532">
        <ele>1281.4000244141</ele>
        <time>2021-07-06T10:25:00.000Z</time>
      </trkpt>
      <trkpt lat="44.41425" lon="6.07534">
        <ele>1281.4000244141</ele>
        <time>2021-07-06T10:25:01.000Z</time>
      </trkpt>
      <trkpt lat="44.41452" lon="6.07545">
        <ele>1281</ele>
        <time>2021-07-06T10:25:05.000Z</time>
      </trkpt>
      <trkpt lat="44.4146" lon="6.07549">
        <ele>1281</ele>
        <time>2021-07-06T10:25:06.000Z</time>
      </trkpt>
      <trkpt lat="44.41476" lon="6.07557">
        <ele>1280.4000244141</ele>
        <time>2021-07-06T10:25:08.000Z</time>
      </trkpt>
      <trkpt lat="44.41509" lon="6.07569">
        <ele>1279</ele>
        <time>2021-07-06T10:25:12.000Z</time>
      </trkpt>
      <trkpt lat="44.41517" lon="6.07572">
        <ele>1277.5999755859</ele>
        <time>2021-07-06T10:25:13.000Z</time>
      </trkpt>
      <trkpt lat="44.41529" lon="6.07581">
        <ele>1276.8000488281</ele>
        <time>2021-07-06T10:25:15.000Z</time>
      </trkpt>
      <trkpt lat="44.41532" lon="6.07589">
        <ele>1276.4000244141</ele>
        <time>2021-07-06T10:25:16.000Z</time>
      </trkpt>
      <trkpt lat="44.41534" lon="6.07606">
        <ele>1275.8000488281</ele>
        <time>2021-07-06T10:25:18.000Z</time>
      </trkpt>
      <trkpt lat="44.41533" lon="6.07614">
        <ele>1275.4000244141</ele>
        <time>2021-07-06T10:25:19.000Z</time>
      </trkpt>
      <trkpt lat="44.41529" lon="6.07621">
        <ele>1275</ele>
        <time>2021-07-06T10:25:20.000Z</time>
      </trkpt>
      <trkpt lat="44.41519" lon="6.07627">
        <ele>1274</ele>
        <time>2021-07-06T10:25:22.000Z</time>
      </trkpt>
      <trkpt lat="44.41513" lon="6.07627">
        <ele>1273.4000244141</ele>
        <time>2021-07-06T10:25:23.000Z</time>
      </trkpt>
      <trkpt lat="44.41501" lon="6.07629">
        <ele>1272.5999755859</ele>
        <time>2021-07-06T10:25:25.000Z</time>
      </trkpt>
      <trkpt lat="44.41494" lon="6.07631">
        <ele>1272.1999511719</ele>
        <time>2021-07-06T10:25:26.000Z</time>
      </trkpt>
      <trkpt lat="44.41488" lon="6.07633">
        <ele>1272</ele>
        <time>2021-07-06T10:25:27.000Z</time>
      </trkpt>
      <trkpt lat="44.41474" lon="6.07638">
        <ele>1271.4000244141</ele>
        <time>2021-07-06T10:25:29.000Z</time>
      </trkpt>
      <trkpt lat="44.41445" lon="6.07648">
        <ele>1270.4000244141</ele>
        <time>2021-07-06T10:25:33.000Z</time>
      </trkpt>
      <trkpt lat="44.41405" lon="6.07667">
        <ele>1269</ele>
        <time>2021-07-06T10:25:38.000Z</time>
      </trkpt>
      <trkpt lat="44.41397" lon="6.07671">
        <ele>1268.8000488281</ele>
        <time>2021-07-06T10:25:39.000Z</time>
      </trkpt>
      <trkpt lat="44.41382" lon="6.07683">
        <ele>1268</ele>
        <time>2021-07-06T10:25:41.000Z</time>
      </trkpt>
      <trkpt lat="44.41368" lon="6.07696">
        <ele>1267</ele>
        <time>2021-07-06T10:25:43.000Z</time>
      </trkpt>
      <trkpt lat="44.41361" lon="6.07703">
        <ele>1266.8000488281</ele>
        <time>2021-07-06T10:25:44.000Z</time>
      </trkpt>
      <trkpt lat="44.41354" lon="6.07721">
        <ele>1265.8000488281</ele>
        <time>2021-07-06T10:25:46.000Z</time>
      </trkpt>
      <trkpt lat="44.41353" lon="6.07732">
        <ele>1265.1999511719</ele>
        <time>2021-07-06T10:25:47.000Z</time>
      </trkpt>
      <trkpt lat="44.41358" lon="6.07753">
        <ele>1264.5999755859</ele>
        <time>2021-07-06T10:25:49.000Z</time>
      </trkpt>
      <trkpt lat="44.41362" lon="6.07762">
        <ele>1264.1999511719</ele>
        <time>2021-07-06T10:25:50.000Z</time>
      </trkpt>
      <trkpt lat="44.41386" lon="6.07783">
        <ele>1263.4000244141</ele>
        <time>2021-07-06T10:25:53.000Z</time>
      </trkpt>
      <trkpt lat="44.41403" lon="6.07791">
        <ele>1262.5999755859</ele>
        <time>2021-07-06T10:25:55.000Z</time>
      </trkpt>
      <trkpt lat="44.4141" lon="6.07794">
        <ele>1262.4000244141</ele>
        <time>2021-07-06T10:25:56.000Z</time>
      </trkpt>
      <trkpt lat="44.41417" lon="6.07808">
        <ele>1261.4000244141</ele>
        <time>2021-07-06T10:25:58.000Z</time>
      </trkpt>
      <trkpt lat="44.41417" lon="6.07816">
        <ele>1261.1999511719</ele>
        <time>2021-07-06T10:25:59.000Z</time>
      </trkpt>
      <trkpt lat="44.41416" lon="6.07825">
        <ele>1260.5999755859</ele>
        <time>2021-07-06T10:26:00.000Z</time>
      </trkpt>
      <trkpt lat="44.41416" lon="6.07833">
        <ele>1260</ele>
        <time>2021-07-06T10:26:01.000Z</time>
      </trkpt>
      <trkpt lat="44.41417" lon="6.07851">
        <ele>1258.5999755859</ele>
        <time>2021-07-06T10:26:03.000Z</time>
      </trkpt>
      <trkpt lat="44.41421" lon="6.07868">
        <ele>1257.1999511719</ele>
        <time>2021-07-06T10:26:05.000Z</time>
      </trkpt>
      <trkpt lat="44.41424" lon="6.07877">
        <ele>1256.5999755859</ele>
        <time>2021-07-06T10:26:06.000Z</time>
      </trkpt>
      <trkpt lat="44.4143" lon="6.07894">
        <ele>1256</ele>
        <time>2021-07-06T10:26:08.000Z</time>
      </trkpt>
      <trkpt lat="44.41437" lon="6.0791">
        <ele>1255.1999511719</ele>
        <time>2021-07-06T10:26:10.000Z</time>
      </trkpt>
      <trkpt lat="44.41442" lon="6.07918">
        <ele>1255</ele>
        <time>2021-07-06T10:26:11.000Z</time>
      </trkpt>
      <trkpt lat="44.41464" lon="6.07943">
        <ele>1254.4000244141</ele>
        <time>2021-07-06T10:26:15.000Z</time>
      </trkpt>
      <trkpt lat="44.41471" lon="6.07946">
        <ele>1254</ele>
        <time>2021-07-06T10:26:16.000Z</time>
      </trkpt>
      <trkpt lat="44.41477" lon="6.07946">
        <ele>1253.8000488281</ele>
        <time>2021-07-06T10:26:17.000Z</time>
      </trkpt>
      <trkpt lat="44.41489" lon="6.07938">
        <ele>1253.1999511719</ele>
        <time>2021-07-06T10:26:19.000Z</time>
      </trkpt>
      <trkpt lat="44.415" lon="6.07925">
        <ele>1252.5999755859</ele>
        <time>2021-07-06T10:26:21.000Z</time>
      </trkpt>
      <trkpt lat="44.41504" lon="6.07918">
        <ele>1252</ele>
        <time>2021-07-06T10:26:22.000Z</time>
      </trkpt>
      <trkpt lat="44.41515" lon="6.07904">
        <ele>1251.5999755859</ele>
        <time>2021-07-06T10:26:24.000Z</time>
      </trkpt>
      <trkpt lat="44.41522" lon="6.07901">
        <ele>1251.4000244141</ele>
        <time>2021-07-06T10:26:25.000Z</time>
      </trkpt>
      <trkpt lat="44.41535" lon="6.07902">
        <ele>1250.8000488281</ele>
        <time>2021-07-06T10:26:27.000Z</time>
      </trkpt>
      <trkpt lat="44.41541" lon="6.07913">
        <ele>1250.1999511719</ele>
        <time>2021-07-06T10:26:29.000Z</time>
      </trkpt>
      <trkpt lat="44.41541" lon="6.07929">
        <ele>1249.5999755859</ele>
        <time>2021-07-06T10:26:31.000Z</time>
      </trkpt>
      <trkpt lat="44.41541" lon="6.07937">
        <ele>1249.4000244141</ele>
        <time>2021-07-06T10:26:32.000Z</time>
      </trkpt>
      <trkpt lat="44.4154" lon="6.07952">
        <ele>1249</ele>
        <time>2021-07-06T10:26:34.000Z</time>
      </trkpt>
      <trkpt lat="44.41539" lon="6.07968">
        <ele>1248</ele>
        <time>2021-07-06T10:26:36.000Z</time>
      </trkpt>
      <trkpt lat="44.41538" lon="6.07993">
        <ele>1247</ele>
        <time>2021-07-06T10:26:39.000Z</time>
      </trkpt>
      <trkpt lat="44.41537" lon="6.08019">
        <ele>1246.4000244141</ele>
        <time>2021-07-06T10:26:42.000Z</time>
      </trkpt>
      <trkpt lat="44.41539" lon="6.08035">
        <ele>1246</ele>
        <time>2021-07-06T10:26:44.000Z</time>
      </trkpt>
      <trkpt lat="44.41542" lon="6.08043">
        <ele>1245.8000488281</ele>
        <time>2021-07-06T10:26:45.000Z</time>
      </trkpt>
      <trkpt lat="44.41554" lon="6.08063">
        <ele>1244.5999755859</ele>
        <time>2021-07-06T10:26:48.000Z</time>
      </trkpt>
      <trkpt lat="44.41559" lon="6.08069">
        <ele>1244.1999511719</ele>
        <time>2021-07-06T10:26:49.000Z</time>
      </trkpt>
      <trkpt lat="44.41577" lon="6.08079">
        <ele>1243.5999755859</ele>
        <time>2021-07-06T10:26:52.000Z</time>
      </trkpt>
      <trkpt lat="44.41599" lon="6.08076">
        <ele>1243</ele>
        <time>2021-07-06T10:26:55.000Z</time>
      </trkpt>
      <trkpt lat="44.41606" lon="6.08073">
        <ele>1242.5999755859</ele>
        <time>2021-07-06T10:26:56.000Z</time>
      </trkpt>
      <trkpt lat="44.41626" lon="6.08061">
        <ele>1242</ele>
        <time>2021-07-06T10:26:59.000Z</time>
      </trkpt>
      <trkpt lat="44.41633" lon="6.08056">
        <ele>1241.8000488281</ele>
        <time>2021-07-06T10:27:00.000Z</time>
      </trkpt>
      <trkpt lat="44.4164" lon="6.08052">
        <ele>1241.5999755859</ele>
        <time>2021-07-06T10:27:01.000Z</time>
      </trkpt>
      <trkpt lat="44.41654" lon="6.08044">
        <ele>1241.1999511719</ele>
        <time>2021-07-06T10:27:03.000Z</time>
      </trkpt>
      <trkpt lat="44.41661" lon="6.08043">
        <ele>1240.8000488281</ele>
        <time>2021-07-06T10:27:04.000Z</time>
      </trkpt>
      <trkpt lat="44.41667" lon="6.08043">
        <ele>1240.1999511719</ele>
        <time>2021-07-06T10:27:05.000Z</time>
      </trkpt>
      <trkpt lat="44.41676" lon="6.0805">
        <ele>1239.8000488281</ele>
        <time>2021-07-06T10:27:07.000Z</time>
      </trkpt>
      <trkpt lat="44.41677" lon="6.08057">
        <ele>1239.5999755859</ele>
        <time>2021-07-06T10:27:08.000Z</time>
      </trkpt>
      <trkpt lat="44.4167" lon="6.08074">
        <ele>1239</ele>
        <time>2021-07-06T10:27:11.000Z</time>
      </trkpt>
      <trkpt lat="44.41667" lon="6.08079">
        <ele>1238.5999755859</ele>
        <time>2021-07-06T10:27:12.000Z</time>
      </trkpt>
      <trkpt lat="44.41659" lon="6.08096">
        <ele>1237.5999755859</ele>
        <time>2021-07-06T10:27:15.000Z</time>
      </trkpt>
      <trkpt lat="44.41656" lon="6.08102">
        <ele>1237.4000244141</ele>
        <time>2021-07-06T10:27:16.000Z</time>
      </trkpt>
      <trkpt lat="44.41649" lon="6.08115">
        <ele>1237.1999511719</ele>
        <time>2021-07-06T10:27:18.000Z</time>
      </trkpt>
      <trkpt lat="44.41636" lon="6.08135">
        <ele>1236.5999755859</ele>
        <time>2021-07-06T10:27:21.000Z</time>
      </trkpt>
      <trkpt lat="44.41631" lon="6.08142">
        <ele>1236.5999755859</ele>
        <time>2021-07-06T10:27:22.000Z</time>
      </trkpt>
      <trkpt lat="44.41618" lon="6.08164">
        <ele>1235.8000488281</ele>
        <time>2021-07-06T10:27:25.000Z</time>
      </trkpt>
      <trkpt lat="44.41613" lon="6.08181">
        <ele>1235.4000244141</ele>
        <time>2021-07-06T10:27:27.000Z</time>
      </trkpt>
      <trkpt lat="44.41619" lon="6.08206">
        <ele>1234.5999755859</ele>
        <time>2021-07-06T10:27:30.000Z</time>
      </trkpt>
      <trkpt lat="44.41627" lon="6.0822">
        <ele>1234</ele>
        <time>2021-07-06T10:27:32.000Z</time>
      </trkpt>
      <trkpt lat="44.41637" lon="6.08231">
        <ele>1233.5999755859</ele>
        <time>2021-07-06T10:27:34.000Z</time>
      </trkpt>
      <trkpt lat="44.41655" lon="6.08242">
        <ele>1232.8000488281</ele>
        <time>2021-07-06T10:27:37.000Z</time>
      </trkpt>
      <trkpt lat="44.41669" lon="6.08246">
        <ele>1232.1999511719</ele>
        <time>2021-07-06T10:27:39.000Z</time>
      </trkpt>
      <trkpt lat="44.41676" lon="6.08248">
        <ele>1232</ele>
        <time>2021-07-06T10:27:40.000Z</time>
      </trkpt>
      <trkpt lat="44.41691" lon="6.08252">
        <ele>1231.8000488281</ele>
        <time>2021-07-06T10:27:42.000Z</time>
      </trkpt>
      <trkpt lat="44.41705" lon="6.08258">
        <ele>1231.1999511719</ele>
        <time>2021-07-06T10:27:44.000Z</time>
      </trkpt>
      <trkpt lat="44.41711" lon="6.08262">
        <ele>1231</ele>
        <time>2021-07-06T10:27:45.000Z</time>
      </trkpt>
      <trkpt lat="44.41715" lon="6.08269">
        <ele>1230.8000488281</ele>
        <time>2021-07-06T10:27:46.000Z</time>
      </trkpt>
      <trkpt lat="44.41717" lon="6.08276">
        <ele>1230.5999755859</ele>
        <time>2021-07-06T10:27:47.000Z</time>
      </trkpt>
      <trkpt lat="44.41714" lon="6.0829">
        <ele>1229.8000488281</ele>
        <time>2021-07-06T10:27:49.000Z</time>
      </trkpt>
      <trkpt lat="44.4171" lon="6.08294">
        <ele>1229.5999755859</ele>
        <time>2021-07-06T10:27:50.000Z</time>
      </trkpt>
      <trkpt lat="44.41702" lon="6.08296">
        <ele>1229.1999511719</ele>
        <time>2021-07-06T10:27:52.000Z</time>
      </trkpt>
      <trkpt lat="44.41693" lon="6.08296">
        <ele>1228.8000488281</ele>
        <time>2021-07-06T10:27:55.000Z</time>
      </trkpt>
      <trkpt lat="44.41684" lon="6.08295">
        <ele>1228.8000488281</ele>
        <time>2021-07-06T10:27:58.000Z</time>
      </trkpt>
      <trkpt lat="44.41665" lon="6.08302">
        <ele>1229</ele>
        <time>2021-07-06T10:28:05.000Z</time>
      </trkpt>
      <trkpt lat="44.41646" lon="6.08309">
        <ele>1230.5999755859</ele>
        <time>2021-07-06T10:28:12.000Z</time>
      </trkpt>
      <trkpt lat="44.41644" lon="6.08309">
        <ele>1230.8000488281</ele>
        <time>2021-07-06T10:28:13.000Z</time>
      </trkpt>
      <trkpt lat="44.41627" lon="6.08304">
        <ele>1231.8000488281</ele>
        <time>2021-07-06T10:28:19.000Z</time>
      </trkpt>
      <trkpt lat="44.41622" lon="6.08302">
        <ele>1232.1999511719</ele>
        <time>2021-07-06T10:28:21.000Z</time>
      </trkpt>
      <trkpt lat="44.41615" lon="6.08299">
        <ele>1232.8000488281</ele>
        <time>2021-07-06T10:28:24.000Z</time>
      </trkpt>
      <trkpt lat="44.41605" lon="6.08295">
        <ele>1234</ele>
        <time>2021-07-06T10:28:28.000Z</time>
      </trkpt>
      <trkpt lat="44.41597" lon="6.08291">
        <ele>1234.5999755859</ele>
        <time>2021-07-06T10:28:31.000Z</time>
      </trkpt>
      <trkpt lat="44.41593" lon="6.08287">
        <ele>1235</ele>
        <time>2021-07-06T10:28:33.000Z</time>
      </trkpt>
      <trkpt lat="44.41583" lon="6.0828">
        <ele>1236</ele>
        <time>2021-07-06T10:28:37.000Z</time>
      </trkpt>
      <trkpt lat="44.41581" lon="6.08277">
        <ele>1236</ele>
        <time>2021-07-06T10:28:38.000Z</time>
      </trkpt>
      <trkpt lat="44.41569" lon="6.08264">
        <ele>1237</ele>
        <time>2021-07-06T10:28:44.000Z</time>
      </trkpt>
      <trkpt lat="44.41565" lon="6.0826">
        <ele>1237.1999511719</ele>
        <time>2021-07-06T10:28:46.000Z</time>
      </trkpt>
      <trkpt lat="44.41554" lon="6.08253">
        <ele>1238.1999511719</ele>
        <time>2021-07-06T10:28:51.000Z</time>
      </trkpt>
      <trkpt lat="44.41551" lon="6.08253">
        <ele>1238.4000244141</ele>
        <time>2021-07-06T10:28:52.000Z</time>
      </trkpt>
      <trkpt lat="44.41543" lon="6.08254">
        <ele>1239.1999511719</ele>
        <time>2021-07-06T10:28:55.000Z</time>
      </trkpt>
      <trkpt lat="44.41533" lon="6.08252">
        <ele>1240.1999511719</ele>
        <time>2021-07-06T10:28:59.000Z</time>
      </trkpt>
      <trkpt lat="44.41531" lon="6.08251">
        <ele>1240.4000244141</ele>
        <time>2021-07-06T10:29:00.000Z</time>
      </trkpt>
      <trkpt lat="44.41516" lon="6.08249">
        <ele>1241</ele>
        <time>2021-07-06T10:29:06.000Z</time>
      </trkpt>
      <trkpt lat="44.41509" lon="6.08254">
        <ele>1241.5999755859</ele>
        <time>2021-07-06T10:29:09.000Z</time>
      </trkpt>
      <trkpt lat="44.41504" lon="6.08262">
        <ele>1242.4000244141</ele>
        <time>2021-07-06T10:29:12.000Z</time>
      </trkpt>
      <trkpt lat="44.41502" lon="6.08265">
        <ele>1242.5999755859</ele>
        <time>2021-07-06T10:29:13.000Z</time>
      </trkpt>
      <trkpt lat="44.415" lon="6.08277">
        <ele>1242.8000488281</ele>
        <time>2021-07-06T10:29:17.000Z</time>
      </trkpt>
      <trkpt lat="44.41502" lon="6.08298">
        <ele>1243</ele>
        <time>2021-07-06T10:29:25.000Z</time>
      </trkpt>
      <trkpt lat="44.41503" lon="6.08304">
        <ele>1243.5999755859</ele>
        <time>2021-07-06T10:29:27.000Z</time>
      </trkpt>
      <trkpt lat="44.41505" lon="6.08318">
        <ele>1244.8000488281</ele>
        <time>2021-07-06T10:29:32.000Z</time>
      </trkpt>
      <trkpt lat="44.41504" lon="6.08321">
        <ele>1245.1999511719</ele>
        <time>2021-07-06T10:29:33.000Z</time>
      </trkpt>
      <trkpt lat="44.41501" lon="6.08327">
        <ele>1246</ele>
        <time>2021-07-06T10:29:35.000Z</time>
      </trkpt>
      <trkpt lat="44.41495" lon="6.0833">
        <ele>1246.8000488281</ele>
        <time>2021-07-06T10:29:38.000Z</time>
      </trkpt>
      <trkpt lat="44.41491" lon="6.0833">
        <ele>1247.1999511719</ele>
        <time>2021-07-06T10:29:40.000Z</time>
      </trkpt>
      <trkpt lat="44.41481" lon="6.08326">
        <ele>1247.5999755859</ele>
        <time>2021-07-06T10:29:45.000Z</time>
      </trkpt>
      <trkpt lat="44.41471" lon="6.08319">
        <ele>1248.1999511719</ele>
        <time>2021-07-06T10:29:51.000Z</time>
      </trkpt>
      <trkpt lat="44.41464" lon="6.08314">
        <ele>1249.1999511719</ele>
        <time>2021-07-06T10:29:55.000Z</time>
      </trkpt>
      <trkpt lat="44.41451" lon="6.08307">
        <ele>1250.1999511719</ele>
        <time>2021-07-06T10:30:02.000Z</time>
      </trkpt>
      <trkpt lat="44.41447" lon="6.08304">
        <ele>1250.5999755859</ele>
        <time>2021-07-06T10:30:04.000Z</time>
      </trkpt>
      <trkpt lat="44.41441" lon="6.083">
        <ele>1251.4000244141</ele>
        <time>2021-07-06T10:30:08.000Z</time>
      </trkpt>
      <trkpt lat="44.41437" lon="6.08298">
        <ele>1251.5999755859</ele>
        <time>2021-07-06T10:30:10.000Z</time>
      </trkpt>
      <trkpt lat="44.41427" lon="6.08294">
        <ele>1252.4000244141</ele>
        <time>2021-07-06T10:30:16.000Z</time>
      </trkpt>
      <trkpt lat="44.41423" lon="6.08295">
        <ele>1252.8000488281</ele>
        <time>2021-07-06T10:30:19.000Z</time>
      </trkpt>
      <trkpt lat="44.4142" lon="6.08295">
        <ele>1253.4000244141</ele>
        <time>2021-07-06T10:30:21.000Z</time>
      </trkpt>
      <trkpt lat="44.41413" lon="6.08302">
        <ele>1254.4000244141</ele>
        <time>2021-07-06T10:30:26.000Z</time>
      </trkpt>
      <trkpt lat="44.41404" lon="6.08309">
        <ele>1255.4000244141</ele>
        <time>2021-07-06T10:30:33.000Z</time>
      </trkpt>
      <trkpt lat="44.41402" lon="6.0831">
        <ele>1255.5999755859</ele>
        <time>2021-07-06T10:30:34.000Z</time>
      </trkpt>
      <trkpt lat="44.41395" lon="6.08309">
        <ele>1256.5999755859</ele>
        <time>2021-07-06T10:30:38.000Z</time>
      </trkpt>
      <trkpt lat="44.4139" lon="6.08306">
        <ele>1257.1999511719</ele>
        <time>2021-07-06T10:30:41.000Z</time>
      </trkpt>
      <trkpt lat="44.41386" lon="6.08301">
        <ele>1257.5999755859</ele>
        <time>2021-07-06T10:30:44.000Z</time>
      </trkpt>
      <trkpt lat="44.41385" lon="6.08299">
        <ele>1257.8000488281</ele>
        <time>2021-07-06T10:30:45.000Z</time>
      </trkpt>
      <trkpt lat="44.41381" lon="6.08292">
        <ele>1258.4000244141</ele>
        <time>2021-07-06T10:30:48.000Z</time>
      </trkpt>
      <trkpt lat="44.41381" lon="6.0829">
        <ele>1258.4000244141</ele>
        <time>2021-07-06T10:30:49.000Z</time>
      </trkpt>
      <trkpt lat="44.41375" lon="6.08277">
        <ele>1259.5999755859</ele>
        <time>2021-07-06T10:30:55.000Z</time>
      </trkpt>
      <trkpt lat="44.41366" lon="6.08264">
        <ele>1260.4000244141</ele>
        <time>2021-07-06T10:31:02.000Z</time>
      </trkpt>
      <trkpt lat="44.41361" lon="6.0826">
        <ele>1260.8000488281</ele>
        <time>2021-07-06T10:31:05.000Z</time>
      </trkpt>
      <trkpt lat="44.41351" lon="6.0825">
        <ele>1261.8000488281</ele>
        <time>2021-07-06T10:31:13.000Z</time>
      </trkpt>
      <trkpt lat="44.4135" lon="6.0825">
        <ele>1261.8000488281</ele>
        <time>2021-07-06T10:31:14.000Z</time>
      </trkpt>
      <trkpt lat="44.41339" lon="6.08242">
        <ele>1263</ele>
        <time>2021-07-06T10:31:22.000Z</time>
      </trkpt>
      <trkpt lat="44.41325" lon="6.08235">
        <ele>1263.8000488281</ele>
        <time>2021-07-06T10:31:30.000Z</time>
      </trkpt>
      <trkpt lat="44.41324" lon="6.08235">
        <ele>1263.8000488281</ele>
        <time>2021-07-06T10:31:31.000Z</time>
      </trkpt>
      <trkpt lat="44.4131" lon="6.08229">
        <ele>1265</ele>
        <time>2021-07-06T10:31:39.000Z</time>
      </trkpt>
      <trkpt lat="44.41301" lon="6.08226">
        <ele>1266.1999511719</ele>
        <time>2021-07-06T10:31:44.000Z</time>
      </trkpt>
      <trkpt lat="44.41294" lon="6.08224">
        <ele>1267</ele>
        <time>2021-07-06T10:31:49.000Z</time>
      </trkpt>
      <trkpt lat="44.41289" lon="6.08222">
        <ele>1267.1999511719</ele>
        <time>2021-07-06T10:31:52.000Z</time>
      </trkpt>
      <trkpt lat="44.41274" lon="6.08219">
        <ele>1268.1999511719</ele>
        <time>2021-07-06T10:32:00.000Z</time>
      </trkpt>
      <trkpt lat="44.41264" lon="6.08217">
        <ele>1269.1999511719</ele>
        <time>2021-07-06T10:32:06.000Z</time>
      </trkpt>
      <trkpt lat="44.4126" lon="6.08217">
        <ele>1269.5999755859</ele>
        <time>2021-07-06T10:32:08.000Z</time>
      </trkpt>
      <trkpt lat="44.41259" lon="6.08217">
        <ele>1269.8000488281</ele>
        <time>2021-07-06T10:32:09.000Z</time>
      </trkpt>
      <trkpt lat="44.41253" lon="6.08217">
        <ele>1270.4000244141</ele>
        <time>2021-07-06T10:32:12.000Z</time>
      </trkpt>
      <trkpt lat="44.41243" lon="6.08218">
        <ele>1271.4000244141</ele>
        <time>2021-07-06T10:32:18.000Z</time>
      </trkpt>
      <trkpt lat="44.41242" lon="6.08219">
        <ele>1271.5999755859</ele>
        <time>2021-07-06T10:32:19.000Z</time>
      </trkpt>
      <trkpt lat="44.41231" lon="6.08219">
        <ele>1272.5999755859</ele>
        <time>2021-07-06T10:32:25.000Z</time>
      </trkpt>
      <trkpt lat="44.41229" lon="6.08219">
        <ele>1272.8000488281</ele>
        <time>2021-07-06T10:32:26.000Z</time>
      </trkpt>
      <trkpt lat="44.41218" lon="6.08222">
        <ele>1273.5999755859</ele>
        <time>2021-07-06T10:32:33.000Z</time>
      </trkpt>
      <trkpt lat="44.41216" lon="6.08223">
        <ele>1273.8000488281</ele>
        <time>2021-07-06T10:32:34.000Z</time>
      </trkpt>
      <trkpt lat="44.41207" lon="6.08226">
        <ele>1275</ele>
        <time>2021-07-06T10:32:40.000Z</time>
      </trkpt>
      <trkpt lat="44.41203" lon="6.0823">
        <ele>1275.5999755859</ele>
        <time>2021-07-06T10:32:43.000Z</time>
      </trkpt>
      <trkpt lat="44.41198" lon="6.08234">
        <ele>1276.1999511719</ele>
        <time>2021-07-06T10:32:47.000Z</time>
      </trkpt>
      <trkpt lat="44.41195" lon="6.08236">
        <ele>1276.4000244141</ele>
        <time>2021-07-06T10:32:49.000Z</time>
      </trkpt>
      <trkpt lat="44.41189" lon="6.08242">
        <ele>1277</ele>
        <time>2021-07-06T10:32:54.000Z</time>
      </trkpt>
      <trkpt lat="44.41184" lon="6.08247">
        <ele>1277.4000244141</ele>
        <time>2021-07-06T10:32:57.000Z</time>
      </trkpt>
      <trkpt lat="44.41179" lon="6.08253">
        <ele>1278</ele>
        <time>2021-07-06T10:33:01.000Z</time>
      </trkpt>
      <trkpt lat="44.41174" lon="6.08256">
        <ele>1278.5999755859</ele>
        <time>2021-07-06T10:33:04.000Z</time>
      </trkpt>
      <trkpt lat="44.41169" lon="6.08258">
        <ele>1279.1999511719</ele>
        <time>2021-07-06T10:33:07.000Z</time>
      </trkpt>
      <trkpt lat="44.41162" lon="6.08266">
        <ele>1280.4000244141</ele>
        <time>2021-07-06T10:33:12.000Z</time>
      </trkpt>
      <trkpt lat="44.41161" lon="6.08267">
        <ele>1280.5999755859</ele>
        <time>2021-07-06T10:33:13.000Z</time>
      </trkpt>
      <trkpt lat="44.41155" lon="6.08278">
        <ele>1281.4000244141</ele>
        <time>2021-07-06T10:33:19.000Z</time>
      </trkpt>
      <trkpt lat="44.41153" lon="6.08282">
        <ele>1281.5999755859</ele>
        <time>2021-07-06T10:33:21.000Z</time>
      </trkpt>
      <trkpt lat="44.41149" lon="6.08293">
        <ele>1282.5999755859</ele>
        <time>2021-07-06T10:33:26.000Z</time>
      </trkpt>
      <trkpt lat="44.41146" lon="6.08299">
        <ele>1283</ele>
        <time>2021-07-06T10:33:29.000Z</time>
      </trkpt>
      <trkpt lat="44.4114" lon="6.08308">
        <ele>1283.4000244141</ele>
        <time>2021-07-06T10:33:34.000Z</time>
      </trkpt>
      <trkpt lat="44.41135" lon="6.0831">
        <ele>1283.8000488281</ele>
        <time>2021-07-06T10:33:37.000Z</time>
      </trkpt>
      <trkpt lat="44.41133" lon="6.08311">
        <ele>1283.8000488281</ele>
        <time>2021-07-06T10:33:38.000Z</time>
      </trkpt>
      <trkpt lat="44.41124" lon="6.08311">
        <ele>1284.5999755859</ele>
        <time>2021-07-06T10:33:43.000Z</time>
      </trkpt>
      <trkpt lat="44.41122" lon="6.0831">
        <ele>1284.8000488281</ele>
        <time>2021-07-06T10:33:44.000Z</time>
      </trkpt>
      <trkpt lat="44.41109" lon="6.08305">
        <ele>1285.5999755859</ele>
        <time>2021-07-06T10:33:52.000Z</time>
      </trkpt>
      <trkpt lat="44.41107" lon="6.08304">
        <ele>1285.8000488281</ele>
        <time>2021-07-06T10:33:53.000Z</time>
      </trkpt>
      <trkpt lat="44.41096" lon="6.08297">
        <ele>1286.8000488281</ele>
        <time>2021-07-06T10:34:00.000Z</time>
      </trkpt>
      <trkpt lat="44.41091" lon="6.08294">
        <ele>1287.4000244141</ele>
        <time>2021-07-06T10:34:03.000Z</time>
      </trkpt>
      <trkpt lat="44.4109" lon="6.08294">
        <ele>1287.5999755859</ele>
        <time>2021-07-06T10:34:04.000Z</time>
      </trkpt>
      <trkpt lat="44.41074" lon="6.08285">
        <ele>1288.5999755859</ele>
        <time>2021-07-06T10:34:14.000Z</time>
      </trkpt>
      <trkpt lat="44.41061" lon="6.08278">
        <ele>1289.8000488281</ele>
        <time>2021-07-06T10:34:22.000Z</time>
      </trkpt>
      <trkpt lat="44.4106" lon="6.08278">
        <ele>1290</ele>
        <time>2021-07-06T10:34:23.000Z</time>
      </trkpt>
      <trkpt lat="44.41052" lon="6.08274">
        <ele>1290.5999755859</ele>
        <time>2021-07-06T10:34:28.000Z</time>
      </trkpt>
      <trkpt lat="44.41049" lon="6.08273">
        <ele>1291</ele>
        <time>2021-07-06T10:34:30.000Z</time>
      </trkpt>
      <trkpt lat="44.41041" lon="6.0827">
        <ele>1291.5999755859</ele>
        <time>2021-07-06T10:34:35.000Z</time>
      </trkpt>
      <trkpt lat="44.41037" lon="6.08269">
        <ele>1292</ele>
        <time>2021-07-06T10:34:38.000Z</time>
      </trkpt>
      <trkpt lat="44.4103" lon="6.08266">
        <ele>1292.8000488281</ele>
        <time>2021-07-06T10:34:42.000Z</time>
      </trkpt>
      <trkpt lat="44.41022" lon="6.08264">
        <ele>1294</ele>
        <time>2021-07-06T10:34:47.000Z</time>
      </trkpt>
      <trkpt lat="44.41014" lon="6.08262">
        <ele>1295</ele>
        <time>2021-07-06T10:34:52.000Z</time>
      </trkpt>
      <trkpt lat="44.41011" lon="6.08262">
        <ele>1295.4000244141</ele>
        <time>2021-07-06T10:34:54.000Z</time>
      </trkpt>
      <trkpt lat="44.41007" lon="6.08262">
        <ele>1296.1999511719</ele>
        <time>2021-07-06T10:34:57.000Z</time>
      </trkpt>
      <trkpt lat="44.40998" lon="6.08261">
        <ele>1297.1999511719</ele>
        <time>2021-07-06T10:35:02.000Z</time>
      </trkpt>
      <trkpt lat="44.40986" lon="6.08259">
        <ele>1298</ele>
        <time>2021-07-06T10:35:09.000Z</time>
      </trkpt>
      <trkpt lat="44.40985" lon="6.08259">
        <ele>1298.1999511719</ele>
        <time>2021-07-06T10:35:10.000Z</time>
      </trkpt>
      <trkpt lat="44.40974" lon="6.08258">
        <ele>1299.1999511719</ele>
        <time>2021-07-06T10:35:17.000Z</time>
      </trkpt>
      <trkpt lat="44.40962" lon="6.08258">
        <ele>1300.4000244141</ele>
        <time>2021-07-06T10:35:25.000Z</time>
      </trkpt>
      <trkpt lat="44.40954" lon="6.0826">
        <ele>1301.1999511719</ele>
        <time>2021-07-06T10:35:31.000Z</time>
      </trkpt>
      <trkpt lat="44.40952" lon="6.0826">
        <ele>1301.4000244141</ele>
        <time>2021-07-06T10:35:32.000Z</time>
      </trkpt>
      <trkpt lat="44.4094" lon="6.08262">
        <ele>1302</ele>
        <time>2021-07-06T10:35:39.000Z</time>
      </trkpt>
      <trkpt lat="44.40936" lon="6.08262">
        <ele>1302.4000244141</ele>
        <time>2021-07-06T10:35:42.000Z</time>
      </trkpt>
      <trkpt lat="44.40928" lon="6.08262">
        <ele>1303</ele>
        <time>2021-07-06T10:35:47.000Z</time>
      </trkpt>
      <trkpt lat="44.40922" lon="6.08261">
        <ele>1303.4000244141</ele>
        <time>2021-07-06T10:35:50.000Z</time>
      </trkpt>
      <trkpt lat="44.40916" lon="6.08259">
        <ele>1304</ele>
        <time>2021-07-06T10:35:54.000Z</time>
      </trkpt>
      <trkpt lat="44.40912" lon="6.08259">
        <ele>1304.5999755859</ele>
        <time>2021-07-06T10:35:57.000Z</time>
      </trkpt>
      <trkpt lat="44.40906" lon="6.08258">
        <ele>1305.1999511719</ele>
        <time>2021-07-06T10:36:01.000Z</time>
      </trkpt>
      <trkpt lat="44.40899" lon="6.08257">
        <ele>1305.5999755859</ele>
        <time>2021-07-06T10:36:06.000Z</time>
      </trkpt>
      <trkpt lat="44.40894" lon="6.08257">
        <ele>1306</ele>
        <time>2021-07-06T10:36:09.000Z</time>
      </trkpt>
      <trkpt lat="44.40887" lon="6.08256">
        <ele>1306.8000488281</ele>
        <time>2021-07-06T10:36:13.000Z</time>
      </trkpt>
      <trkpt lat="44.4088" lon="6.08255">
        <ele>1307.4000244141</ele>
        <time>2021-07-06T10:36:18.000Z</time>
      </trkpt>
      <trkpt lat="44.40876" lon="6.08255">
        <ele>1307.5999755859</ele>
        <time>2021-07-06T10:36:21.000Z</time>
      </trkpt>
      <trkpt lat="44.40867" lon="6.08255">
        <ele>1308.5999755859</ele>
        <time>2021-07-06T10:36:27.000Z</time>
      </trkpt>
      <trkpt lat="44.40866" lon="6.08255">
        <ele>1308.8000488281</ele>
        <time>2021-07-06T10:36:28.000Z</time>
      </trkpt>
      <trkpt lat="44.40861" lon="6.08256">
        <ele>1309.5999755859</ele>
        <time>2021-07-06T10:36:32.000Z</time>
      </trkpt>
      <trkpt lat="44.40856" lon="6.08257">
        <ele>1310.1999511719</ele>
        <time>2021-07-06T10:36:35.000Z</time>
      </trkpt>
      <trkpt lat="44.40846" lon="6.08256">
        <ele>1310.8000488281</ele>
        <time>2021-07-06T10:36:41.000Z</time>
      </trkpt>
      <trkpt lat="44.40843" lon="6.08255">
        <ele>1311</ele>
        <time>2021-07-06T10:36:43.000Z</time>
      </trkpt>
      <trkpt lat="44.40834" lon="6.08252">
        <ele>1311.8000488281</ele>
        <time>2021-07-06T10:36:49.000Z</time>
      </trkpt>
      <trkpt lat="44.4083" lon="6.08251">
        <ele>1312.1999511719</ele>
        <time>2021-07-06T10:36:52.000Z</time>
      </trkpt>
      <trkpt lat="44.40821" lon="6.08249">
        <ele>1312.8000488281</ele>
        <time>2021-07-06T10:36:58.000Z</time>
      </trkpt>
      <trkpt lat="44.40818" lon="6.08249">
        <ele>1312.8000488281</ele>
        <time>2021-07-06T10:37:00.000Z</time>
      </trkpt>
      <trkpt lat="44.40809" lon="6.0825">
        <ele>1313.8000488281</ele>
        <time>2021-07-06T10:37:06.000Z</time>
      </trkpt>
      <trkpt lat="44.40804" lon="6.08253">
        <ele>1314.1999511719</ele>
        <time>2021-07-06T10:37:09.000Z</time>
      </trkpt>
      <trkpt lat="44.40797" lon="6.08259">
        <ele>1315</ele>
        <time>2021-07-06T10:37:15.000Z</time>
      </trkpt>
      <trkpt lat="44.40794" lon="6.08262">
        <ele>1315.1999511719</ele>
        <time>2021-07-06T10:37:17.000Z</time>
      </trkpt>
      <trkpt lat="44.40791" lon="6.08266">
        <ele>1316</ele>
        <time>2021-07-06T10:37:20.000Z</time>
      </trkpt>
      <trkpt lat="44.40787" lon="6.08272">
        <ele>1316.5999755859</ele>
        <time>2021-07-06T10:37:24.000Z</time>
      </trkpt>
      <trkpt lat="44.40784" lon="6.08276">
        <ele>1317.1999511719</ele>
        <time>2021-07-06T10:37:27.000Z</time>
      </trkpt>
      <trkpt lat="44.4078" lon="6.08284">
        <ele>1317.8000488281</ele>
        <time>2021-07-06T10:37:32.000Z</time>
      </trkpt>
      <trkpt lat="44.40777" lon="6.08289">
        <ele>1318.1999511719</ele>
        <time>2021-07-06T10:37:35.000Z</time>
      </trkpt>
      <trkpt lat="44.40774" lon="6.08295">
        <ele>1318.8000488281</ele>
        <time>2021-07-06T10:37:39.000Z</time>
      </trkpt>
      <trkpt lat="44.40773" lon="6.08295">
        <ele>1319.1999511719</ele>
        <time>2021-07-06T10:37:43.000Z</time>
      </trkpt>
      <trkpt lat="44.40773" lon="6.08296">
        <ele>1319.8000488281</ele>
        <time>2021-07-06T10:37:48.000Z</time>
      </trkpt>
      <trkpt lat="44.40772" lon="6.08297">
        <ele>1320.1999511719</ele>
        <time>2021-07-06T10:37:58.000Z</time>
      </trkpt>
      <trkpt lat="44.40772" lon="6.08297">
        <ele>1320.1999511719</ele>
        <time>2021-07-06T10:37:59.000Z</time>
      </trkpt>
      <trkpt lat="44.40773" lon="6.08297">
        <ele>1320.1999511719</ele>
        <time>2021-07-06T10:38:35.000Z</time>
      </trkpt>
      <trkpt lat="44.40773" lon="6.08297">
        <ele>1320</ele>
        <time>2021-07-06T10:39:14.000Z</time>
      </trkpt>
      <trkpt lat="44.40773" lon="6.08297">
        <ele>1320</ele>
        <time>2021-07-06T10:39:51.000Z</time>
      </trkpt>
      <trkpt lat="44.40773" lon="6.08297">
        <ele>1320.4000244141</ele>
        <time>2021-07-06T10:40:13.000Z</time>
      </trkpt>
      <trkpt lat="44.40773" lon="6.08297">
        <ele>1320.4000244141</ele>
        <time>2021-07-06T10:40:51.000Z</time>
      </trkpt>
      <trkpt lat="44.40772" lon="6.08297">
        <ele>1320.4000244141</ele>
        <time>2021-07-06T10:41:31.000Z</time>
      </trkpt>
      <trkpt lat="44.40771" lon="6.08296">
        <ele>1320.4000244141</ele>
        <time>2021-07-06T10:41:32.000Z</time>
      </trkpt>
      <trkpt lat="44.40762" lon="6.08293">
        <ele>1320.4000244141</ele>
        <time>2021-07-06T10:41:36.000Z</time>
      </trkpt>
      <trkpt lat="44.4075" lon="6.08295">
        <ele>1320.1999511719</ele>
        <time>2021-07-06T10:41:40.000Z</time>
      </trkpt>
      <trkpt lat="44.40739" lon="6.08287">
        <ele>1318.8000488281</ele>
        <time>2021-07-06T10:41:44.000Z</time>
      </trkpt>
      <trkpt lat="44.40732" lon="6.08284">
        <ele>1318.1999511719</ele>
        <time>2021-07-06T10:41:46.000Z</time>
      </trkpt>
      <trkpt lat="44.40723" lon="6.08281">
        <ele>1317.5999755859</ele>
        <time>2021-07-06T10:41:49.000Z</time>
      </trkpt>
      <trkpt lat="44.4072" lon="6.0828">
        <ele>1317.4000244141</ele>
        <time>2021-07-06T10:41:50.000Z</time>
      </trkpt>
      <trkpt lat="44.40716" lon="6.08279">
        <ele>1317</ele>
        <time>2021-07-06T10:41:51.000Z</time>
      </trkpt>
      <trkpt lat="44.40706" lon="6.08276">
        <ele>1315.8000488281</ele>
        <time>2021-07-06T10:41:54.000Z</time>
      </trkpt>
      <trkpt lat="44.40703" lon="6.08275">
        <ele>1315.4000244141</ele>
        <time>2021-07-06T10:41:55.000Z</time>
      </trkpt>
      <trkpt lat="44.407" lon="6.08274">
        <ele>1314.4000244141</ele>
        <time>2021-07-06T10:41:56.000Z</time>
      </trkpt>
      <trkpt lat="44.40691" lon="6.08274">
        <ele>1313.4000244141</ele>
        <time>2021-07-06T10:41:59.000Z</time>
      </trkpt>
      <trkpt lat="44.40684" lon="6.08272">
        <ele>1312.4000244141</ele>
        <time>2021-07-06T10:42:02.000Z</time>
      </trkpt>
      <trkpt lat="44.40679" lon="6.08269">
        <ele>1311.4000244141</ele>
        <time>2021-07-06T10:42:04.000Z</time>
      </trkpt>
      <trkpt lat="44.40676" lon="6.08267">
        <ele>1311.1999511719</ele>
        <time>2021-07-06T10:42:05.000Z</time>
      </trkpt>
      <trkpt lat="44.40669" lon="6.08267">
        <ele>1310.5999755859</ele>
        <time>2021-07-06T10:42:08.000Z</time>
      </trkpt>
      <trkpt lat="44.40661" lon="6.08267">
        <ele>1310</ele>
        <time>2021-07-06T10:42:12.000Z</time>
      </trkpt>
      <trkpt lat="44.4066" lon="6.08267">
        <ele>1309.8000488281</ele>
        <time>2021-07-06T10:42:14.000Z</time>
      </trkpt>
      <trkpt lat="44.40654" lon="6.08265">
        <ele>1309.1999511719</ele>
        <time>2021-07-06T10:42:23.000Z</time>
      </trkpt>
      <trkpt lat="44.40653" lon="6.08264">
        <ele>1309.1999511719</ele>
        <time>2021-07-06T10:42:25.000Z</time>
      </trkpt>
      <trkpt lat="44.40647" lon="6.08261">
        <ele>1309</ele>
        <time>2021-07-06T10:42:32.000Z</time>
      </trkpt>
      <trkpt lat="44.40645" lon="6.08259">
        <ele>1309</ele>
        <time>2021-07-06T10:42:33.000Z</time>
      </trkpt>
      <trkpt lat="44.40643" lon="6.08258">
        <ele>1309</ele>
        <time>2021-07-06T10:42:34.000Z</time>
      </trkpt>
      <trkpt lat="44.40642" lon="6.08256">
        <ele>1309</ele>
        <time>2021-07-06T10:42:35.000Z</time>
      </trkpt>
      <trkpt lat="44.40635" lon="6.08248">
        <ele>1308.5999755859</ele>
        <time>2021-07-06T10:42:38.000Z</time>
      </trkpt>
      <trkpt lat="44.40632" lon="6.08244">
        <ele>1308.5999755859</ele>
        <time>2021-07-06T10:42:39.000Z</time>
      </trkpt>
      <trkpt lat="44.40623" lon="6.08235">
        <ele>1307.8000488281</ele>
        <time>2021-07-06T10:42:42.000Z</time>
      </trkpt>
      <trkpt lat="44.40616" lon="6.08229">
        <ele>1307.1999511719</ele>
        <time>2021-07-06T10:42:44.000Z</time>
      </trkpt>
      <trkpt lat="44.40614" lon="6.08226">
        <ele>1306.5999755859</ele>
        <time>2021-07-06T10:42:45.000Z</time>
      </trkpt>
      <trkpt lat="44.4061" lon="6.08221">
        <ele>1304.8000488281</ele>
        <time>2021-07-06T10:42:47.000Z</time>
      </trkpt>
      <trkpt lat="44.40606" lon="6.08215">
        <ele>1302.8000488281</ele>
        <time>2021-07-06T10:42:49.000Z</time>
      </trkpt>
      <trkpt lat="44.40603" lon="6.08213">
        <ele>1301.8000488281</ele>
        <time>2021-07-06T10:42:50.000Z</time>
      </trkpt>
      <trkpt lat="44.40601" lon="6.0821">
        <ele>1300.4000244141</ele>
        <time>2021-07-06T10:42:51.000Z</time>
      </trkpt>
      <trkpt lat="44.40599" lon="6.08209">
        <ele>1299.5999755859</ele>
        <time>2021-07-06T10:42:52.000Z</time>
      </trkpt>
      <trkpt lat="44.40598" lon="6.08207">
        <ele>1299</ele>
        <time>2021-07-06T10:42:53.000Z</time>
      </trkpt>
      <trkpt lat="44.40597" lon="6.08206">
        <ele>1298.1999511719</ele>
        <time>2021-07-06T10:42:54.000Z</time>
      </trkpt>
      <trkpt lat="44.40595" lon="6.08205">
        <ele>1297.5999755859</ele>
        <time>2021-07-06T10:42:55.000Z</time>
      </trkpt>
      <trkpt lat="44.40592" lon="6.08202">
        <ele>1296</ele>
        <time>2021-07-06T10:42:57.000Z</time>
      </trkpt>
      <trkpt lat="44.4059" lon="6.082">
        <ele>1295.4000244141</ele>
        <time>2021-07-06T10:42:58.000Z</time>
      </trkpt>
      <trkpt lat="44.40587" lon="6.08197">
        <ele>1294.8000488281</ele>
        <time>2021-07-06T10:42:59.000Z</time>
      </trkpt>
      <trkpt lat="44.40581" lon="6.08192">
        <ele>1293.5999755859</ele>
        <time>2021-07-06T10:43:02.000Z</time>
      </trkpt>
      <trkpt lat="44.40574" lon="6.08187">
        <ele>1292.4000244141</ele>
        <time>2021-07-06T10:43:06.000Z</time>
      </trkpt>
      <trkpt lat="44.40571" lon="6.08185">
        <ele>1292</ele>
        <time>2021-07-06T10:43:08.000Z</time>
      </trkpt>
      <trkpt lat="44.40567" lon="6.08183">
        <ele>1291.1999511719</ele>
        <time>2021-07-06T10:43:10.000Z</time>
      </trkpt>
      <trkpt lat="44.40558" lon="6.08177">
        <ele>1290.1999511719</ele>
        <time>2021-07-06T10:43:13.000Z</time>
      </trkpt>
      <trkpt lat="44.40549" lon="6.08173">
        <ele>1289</ele>
        <time>2021-07-06T10:43:17.000Z</time>
      </trkpt>
      <trkpt lat="44.40549" lon="6.08172">
        <ele>1287.8000488281</ele>
        <time>2021-07-06T10:43:19.000Z</time>
      </trkpt>
      <trkpt lat="44.40546" lon="6.0817">
        <ele>1287.4000244141</ele>
        <time>2021-07-06T10:43:23.000Z</time>
      </trkpt>
      <trkpt lat="44.40539" lon="6.08165">
        <ele>1287.8000488281</ele>
        <time>2021-07-06T10:43:34.000Z</time>
      </trkpt>
      <trkpt lat="44.40526" lon="6.08158">
        <ele>1288.1999511719</ele>
        <time>2021-07-06T10:43:42.000Z</time>
      </trkpt>
      <trkpt lat="44.40517" lon="6.08152">
        <ele>1288.5999755859</ele>
        <time>2021-07-06T10:43:49.000Z</time>
      </trkpt>
      <trkpt lat="44.40506" lon="6.08144">
        <ele>1288.5999755859</ele>
        <time>2021-07-06T10:43:54.000Z</time>
      </trkpt>
      <trkpt lat="44.40496" lon="6.08145">
        <ele>1288.1999511719</ele>
        <time>2021-07-06T10:43:58.000Z</time>
      </trkpt>
      <trkpt lat="44.40492" lon="6.08146">
        <ele>1288</ele>
        <time>2021-07-06T10:44:00.000Z</time>
      </trkpt>
      <trkpt lat="44.40481" lon="6.08148">
        <ele>1287.5999755859</ele>
        <time>2021-07-06T10:44:03.000Z</time>
      </trkpt>
      <trkpt lat="44.40467" lon="6.08154">
        <ele>1287.1999511719</ele>
        <time>2021-07-06T10:44:08.000Z</time>
      </trkpt>
      <trkpt lat="44.40462" lon="6.08156">
        <ele>1286.4000244141</ele>
        <time>2021-07-06T10:44:10.000Z</time>
      </trkpt>
      <trkpt lat="44.40456" lon="6.08158">
        <ele>1285</ele>
        <time>2021-07-06T10:44:12.000Z</time>
      </trkpt>
      <trkpt lat="44.40451" lon="6.08158">
        <ele>1282.5999755859</ele>
        <time>2021-07-06T10:44:14.000Z</time>
      </trkpt>
      <trkpt lat="44.40448" lon="6.08158">
        <ele>1282</ele>
        <time>2021-07-06T10:44:15.000Z</time>
      </trkpt>
      <trkpt lat="44.40446" lon="6.08159">
        <ele>1281.4000244141</ele>
        <time>2021-07-06T10:44:16.000Z</time>
      </trkpt>
      <trkpt lat="44.40443" lon="6.08159">
        <ele>1280.5999755859</ele>
        <time>2021-07-06T10:44:17.000Z</time>
      </trkpt>
      <trkpt lat="44.40441" lon="6.08158">
        <ele>1279.8000488281</ele>
        <time>2021-07-06T10:44:18.000Z</time>
      </trkpt>
      <trkpt lat="44.40438" lon="6.08157">
        <ele>1278.8000488281</ele>
        <time>2021-07-06T10:44:19.000Z</time>
      </trkpt>
      <trkpt lat="44.40435" lon="6.08157">
        <ele>1278</ele>
        <time>2021-07-06T10:44:20.000Z</time>
      </trkpt>
      <trkpt lat="44.40432" lon="6.08156">
        <ele>1277.1999511719</ele>
        <time>2021-07-06T10:44:21.000Z</time>
      </trkpt>
      <trkpt lat="44.40428" lon="6.08157">
        <ele>1276.4000244141</ele>
        <time>2021-07-06T10:44:22.000Z</time>
      </trkpt>
      <trkpt lat="44.40422" lon="6.08158">
        <ele>1274.5999755859</ele>
        <time>2021-07-06T10:44:24.000Z</time>
      </trkpt>
      <trkpt lat="44.40415" lon="6.08158">
        <ele>1273</ele>
        <time>2021-07-06T10:44:26.000Z</time>
      </trkpt>
      <trkpt lat="44.40408" lon="6.08158">
        <ele>1271.4000244141</ele>
        <time>2021-07-06T10:44:28.000Z</time>
      </trkpt>
      <trkpt lat="44.40404" lon="6.08159">
        <ele>1270.8000488281</ele>
        <time>2021-07-06T10:44:29.000Z</time>
      </trkpt>
      <trkpt lat="44.40401" lon="6.08158">
        <ele>1270</ele>
        <time>2021-07-06T10:44:30.000Z</time>
      </trkpt>
      <trkpt lat="44.40394" lon="6.08157">
        <ele>1268.8000488281</ele>
        <time>2021-07-06T10:44:32.000Z</time>
      </trkpt>
      <trkpt lat="44.4039" lon="6.08158">
        <ele>1268.1999511719</ele>
        <time>2021-07-06T10:44:33.000Z</time>
      </trkpt>
      <trkpt lat="44.40386" lon="6.08158">
        <ele>1267.4000244141</ele>
        <time>2021-07-06T10:44:34.000Z</time>
      </trkpt>
      <trkpt lat="44.40379" lon="6.08157">
        <ele>1265.5999755859</ele>
        <time>2021-07-06T10:44:36.000Z</time>
      </trkpt>
      <trkpt lat="44.40375" lon="6.08157">
        <ele>1264.8000488281</ele>
        <time>2021-07-06T10:44:37.000Z</time>
      </trkpt>
      <trkpt lat="44.40371" lon="6.08158">
        <ele>1264</ele>
        <time>2021-07-06T10:44:38.000Z</time>
      </trkpt>
      <trkpt lat="44.40366" lon="6.08159">
        <ele>1263.1999511719</ele>
        <time>2021-07-06T10:44:39.000Z</time>
      </trkpt>
      <trkpt lat="44.40362" lon="6.0816">
        <ele>1262.1999511719</ele>
        <time>2021-07-06T10:44:40.000Z</time>
      </trkpt>
      <trkpt lat="44.40352" lon="6.08163">
        <ele>1259.8000488281</ele>
        <time>2021-07-06T10:44:42.000Z</time>
      </trkpt>
      <trkpt lat="44.40343" lon="6.08167">
        <ele>1258.1999511719</ele>
        <time>2021-07-06T10:44:44.000Z</time>
      </trkpt>
      <trkpt lat="44.40335" lon="6.08167">
        <ele>1256.5999755859</ele>
        <time>2021-07-06T10:44:46.000Z</time>
      </trkpt>
      <trkpt lat="44.4033" lon="6.08165">
        <ele>1255.4000244141</ele>
        <time>2021-07-06T10:44:47.000Z</time>
      </trkpt>
      <trkpt lat="44.40325" lon="6.08164">
        <ele>1254.4000244141</ele>
        <time>2021-07-06T10:44:48.000Z</time>
      </trkpt>
      <trkpt lat="44.4032" lon="6.08163">
        <ele>1253.1999511719</ele>
        <time>2021-07-06T10:44:49.000Z</time>
      </trkpt>
      <trkpt lat="44.40315" lon="6.08163">
        <ele>1252.1999511719</ele>
        <time>2021-07-06T10:44:50.000Z</time>
      </trkpt>
      <trkpt lat="44.40311" lon="6.08164">
        <ele>1251.1999511719</ele>
        <time>2021-07-06T10:44:51.000Z</time>
      </trkpt>
      <trkpt lat="44.40308" lon="6.08163">
        <ele>1250.4000244141</ele>
        <time>2021-07-06T10:44:52.000Z</time>
      </trkpt>
      <trkpt lat="44.40303" lon="6.0816">
        <ele>1248.4000244141</ele>
        <time>2021-07-06T10:44:54.000Z</time>
      </trkpt>
      <trkpt lat="44.40298" lon="6.08162">
        <ele>1246.4000244141</ele>
        <time>2021-07-06T10:44:56.000Z</time>
      </trkpt>
      <trkpt lat="44.40295" lon="6.08164">
        <ele>1245.4000244141</ele>
        <time>2021-07-06T10:44:57.000Z</time>
      </trkpt>
      <trkpt lat="44.40292" lon="6.08166">
        <ele>1244.4000244141</ele>
        <time>2021-07-06T10:44:58.000Z</time>
      </trkpt>
      <trkpt lat="44.4029" lon="6.08167">
        <ele>1243.5999755859</ele>
        <time>2021-07-06T10:44:59.000Z</time>
      </trkpt>
      <trkpt lat="44.40284" lon="6.08167">
        <ele>1242.1999511719</ele>
        <time>2021-07-06T10:45:01.000Z</time>
      </trkpt>
      <trkpt lat="44.40277" lon="6.08165">
        <ele>1241.4000244141</ele>
        <time>2021-07-06T10:45:03.000Z</time>
      </trkpt>
      <trkpt lat="44.40273" lon="6.08164">
        <ele>1241</ele>
        <time>2021-07-06T10:45:04.000Z</time>
      </trkpt>
      <trkpt lat="44.40262" lon="6.08162">
        <ele>1240.4000244141</ele>
        <time>2021-07-06T10:45:07.000Z</time>
      </trkpt>
      <trkpt lat="44.40258" lon="6.08164">
        <ele>1240</ele>
        <time>2021-07-06T10:45:09.000Z</time>
      </trkpt>
      <trkpt lat="44.40249" lon="6.08161">
        <ele>1239</ele>
        <time>2021-07-06T10:45:12.000Z</time>
      </trkpt>
      <trkpt lat="44.40246" lon="6.0816">
        <ele>1239</ele>
        <time>2021-07-06T10:45:13.000Z</time>
      </trkpt>
      <trkpt lat="44.40234" lon="6.08162">
        <ele>1238.5999755859</ele>
        <time>2021-07-06T10:45:16.000Z</time>
      </trkpt>
      <trkpt lat="44.40219" lon="6.08165">
        <ele>1238</ele>
        <time>2021-07-06T10:45:20.000Z</time>
      </trkpt>
      <trkpt lat="44.40217" lon="6.08163">
        <ele>1237.8000488281</ele>
        <time>2021-07-06T10:45:21.000Z</time>
      </trkpt>
      <trkpt lat="44.40207" lon="6.08154">
        <ele>1237</ele>
        <time>2021-07-06T10:45:25.000Z</time>
      </trkpt>
      <trkpt lat="44.40194" lon="6.08145">
        <ele>1236.4000244141</ele>
        <time>2021-07-06T10:45:31.000Z</time>
      </trkpt>
      <trkpt lat="44.40184" lon="6.08138">
        <ele>1236.8000488281</ele>
        <time>2021-07-06T10:45:37.000Z</time>
      </trkpt>
      <trkpt lat="44.40175" lon="6.08135">
        <ele>1238</ele>
        <time>2021-07-06T10:45:42.000Z</time>
      </trkpt>
      <trkpt lat="44.40173" lon="6.08134">
        <ele>1238.5999755859</ele>
        <time>2021-07-06T10:45:44.000Z</time>
      </trkpt>
      <trkpt lat="44.4017" lon="6.08132">
        <ele>1239.1999511719</ele>
        <time>2021-07-06T10:45:46.000Z</time>
      </trkpt>
      <trkpt lat="44.40165" lon="6.0813">
        <ele>1240.4000244141</ele>
        <time>2021-07-06T10:45:49.000Z</time>
      </trkpt>
      <trkpt lat="44.40162" lon="6.08129">
        <ele>1241</ele>
        <time>2021-07-06T10:45:51.000Z</time>
      </trkpt>
      <trkpt lat="44.4016" lon="6.08128">
        <ele>1241.4000244141</ele>
        <time>2021-07-06T10:45:52.000Z</time>
      </trkpt>
      <trkpt lat="44.40157" lon="6.08128">
        <ele>1242.1999511719</ele>
        <time>2021-07-06T10:45:54.000Z</time>
      </trkpt>
      <trkpt lat="44.40155" lon="6.08128">
        <ele>1242.8000488281</ele>
        <time>2021-07-06T10:45:55.000Z</time>
      </trkpt>
      <trkpt lat="44.4015" lon="6.08127">
        <ele>1244</ele>
        <time>2021-07-06T10:45:58.000Z</time>
      </trkpt>
      <trkpt lat="44.40146" lon="6.08126">
        <ele>1245</ele>
        <time>2021-07-06T10:46:01.000Z</time>
      </trkpt>
      <trkpt lat="44.40141" lon="6.08125">
        <ele>1246.4000244141</ele>
        <time>2021-07-06T10:46:04.000Z</time>
      </trkpt>
      <trkpt lat="44.40139" lon="6.08124">
        <ele>1246.8000488281</ele>
        <time>2021-07-06T10:46:05.000Z</time>
      </trkpt>
      <trkpt lat="44.40138" lon="6.08123">
        <ele>1247.4000244141</ele>
        <time>2021-07-06T10:46:06.000Z</time>
      </trkpt>
      <trkpt lat="44.40134" lon="6.08122">
        <ele>1248.4000244141</ele>
        <time>2021-07-06T10:46:09.000Z</time>
      </trkpt>
      <trkpt lat="44.40131" lon="6.08122">
        <ele>1249.5999755859</ele>
        <time>2021-07-06T10:46:12.000Z</time>
      </trkpt>
      <trkpt lat="44.40129" lon="6.08122">
        <ele>1250</ele>
        <time>2021-07-06T10:46:13.000Z</time>
      </trkpt>
      <trkpt lat="44.40128" lon="6.08122">
        <ele>1250.4000244141</ele>
        <time>2021-07-06T10:46:14.000Z</time>
      </trkpt>
      <trkpt lat="44.40127" lon="6.08121">
        <ele>1251</ele>
        <time>2021-07-06T10:46:15.000Z</time>
      </trkpt>
      <trkpt lat="44.40125" lon="6.08117">
        <ele>1252</ele>
        <time>2021-07-06T10:46:18.000Z</time>
      </trkpt>
      <trkpt lat="44.40122" lon="6.08112">
        <ele>1253.1999511719</ele>
        <time>2021-07-06T10:46:21.000Z</time>
      </trkpt>
      <trkpt lat="44.40119" lon="6.08108">
        <ele>1254</ele>
        <time>2021-07-06T10:46:24.000Z</time>
      </trkpt>
      <trkpt lat="44.40118" lon="6.08107">
        <ele>1254.4000244141</ele>
        <time>2021-07-06T10:46:25.000Z</time>
      </trkpt>
      <trkpt lat="44.40111" lon="6.08102">
        <ele>1255.5999755859</ele>
        <time>2021-07-06T10:46:29.000Z</time>
      </trkpt>
      <trkpt lat="44.40108" lon="6.08096">
        <ele>1256.5999755859</ele>
        <time>2021-07-06T10:46:32.000Z</time>
      </trkpt>
      <trkpt lat="44.40106" lon="6.08086">
        <ele>1257.5999755859</ele>
        <time>2021-07-06T10:46:35.000Z</time>
      </trkpt>
      <trkpt lat="44.40103" lon="6.08083">
        <ele>1257.8000488281</ele>
        <time>2021-07-06T10:46:36.000Z</time>
      </trkpt>
      <trkpt lat="44.40099" lon="6.08067">
        <ele>1258.1999511719</ele>
        <time>2021-07-06T10:46:40.000Z</time>
      </trkpt>
      <trkpt lat="44.4009" lon="6.08056">
        <ele>1258.1999511719</ele>
        <time>2021-07-06T10:46:43.000Z</time>
      </trkpt>
      <trkpt lat="44.40083" lon="6.08036">
        <ele>1258.1999511719</ele>
        <time>2021-07-06T10:46:47.000Z</time>
      </trkpt>
      <trkpt lat="44.40072" lon="6.08018">
        <ele>1257</ele>
        <time>2021-07-06T10:46:52.000Z</time>
      </trkpt>
      <trkpt lat="44.40063" lon="6.08006">
        <ele>1256.8000488281</ele>
        <time>2021-07-06T10:46:57.000Z</time>
      </trkpt>
      <trkpt lat="44.40061" lon="6.08005">
        <ele>1256.8000488281</ele>
        <time>2021-07-06T10:46:58.000Z</time>
      </trkpt>
      <trkpt lat="44.40052" lon="6.07998">
        <ele>1257</ele>
        <time>2021-07-06T10:47:03.000Z</time>
      </trkpt>
      <trkpt lat="44.40048" lon="6.07993">
        <ele>1257.5999755859</ele>
        <time>2021-07-06T10:47:06.000Z</time>
      </trkpt>
      <trkpt lat="44.40045" lon="6.07989">
        <ele>1258</ele>
        <time>2021-07-06T10:47:08.000Z</time>
      </trkpt>
      <trkpt lat="44.40041" lon="6.07984">
        <ele>1258.8000488281</ele>
        <time>2021-07-06T10:47:11.000Z</time>
      </trkpt>
      <trkpt lat="44.40038" lon="6.07982">
        <ele>1259.4000244141</ele>
        <time>2021-07-06T10:47:13.000Z</time>
      </trkpt>
      <trkpt lat="44.40035" lon="6.0798">
        <ele>1260.1999511719</ele>
        <time>2021-07-06T10:47:15.000Z</time>
      </trkpt>
      <trkpt lat="44.40029" lon="6.07979">
        <ele>1261.5999755859</ele>
        <time>2021-07-06T10:47:18.000Z</time>
      </trkpt>
      <trkpt lat="44.40027" lon="6.07978">
        <ele>1261.8000488281</ele>
        <time>2021-07-06T10:47:19.000Z</time>
      </trkpt>
      <trkpt lat="44.40023" lon="6.07974">
        <ele>1262.5999755859</ele>
        <time>2021-07-06T10:47:22.000Z</time>
      </trkpt>
      <trkpt lat="44.4002" lon="6.07969">
        <ele>1264</ele>
        <time>2021-07-06T10:47:26.000Z</time>
      </trkpt>
      <trkpt lat="44.40018" lon="6.07969">
        <ele>1264.1999511719</ele>
        <time>2021-07-06T10:47:27.000Z</time>
      </trkpt>
      <trkpt lat="44.40015" lon="6.07968">
        <ele>1265</ele>
        <time>2021-07-06T10:47:29.000Z</time>
      </trkpt>
      <trkpt lat="44.40013" lon="6.07967">
        <ele>1266.1999511719</ele>
        <time>2021-07-06T10:47:31.000Z</time>
      </trkpt>
      <trkpt lat="44.40011" lon="6.07966">
        <ele>1266.5999755859</ele>
        <time>2021-07-06T10:47:32.000Z</time>
      </trkpt>
      <trkpt lat="44.40008" lon="6.07965">
        <ele>1267.5999755859</ele>
        <time>2021-07-06T10:47:34.000Z</time>
      </trkpt>
      <trkpt lat="44.40007" lon="6.07964">
        <ele>1268.1999511719</ele>
        <time>2021-07-06T10:47:35.000Z</time>
      </trkpt>
      <trkpt lat="44.40004" lon="6.07961">
        <ele>1268.8000488281</ele>
        <time>2021-07-06T10:47:37.000Z</time>
      </trkpt>
      <trkpt lat="44.40004" lon="6.0796">
        <ele>1269</ele>
        <time>2021-07-06T10:47:38.000Z</time>
      </trkpt>
      <trkpt lat="44.39998" lon="6.07949">
        <ele>1270</ele>
        <time>2021-07-06T10:47:44.000Z</time>
      </trkpt>
      <trkpt lat="44.39997" lon="6.07943">
        <ele>1271.1999511719</ele>
        <time>2021-07-06T10:47:47.000Z</time>
      </trkpt>
      <trkpt lat="44.39996" lon="6.07936">
        <ele>1272</ele>
        <time>2021-07-06T10:47:50.000Z</time>
      </trkpt>
      <trkpt lat="44.39993" lon="6.07932">
        <ele>1272.4000244141</ele>
        <time>2021-07-06T10:47:52.000Z</time>
      </trkpt>
      <trkpt lat="44.39989" lon="6.07929">
        <ele>1272.8000488281</ele>
        <time>2021-07-06T10:47:54.000Z</time>
      </trkpt>
      <trkpt lat="44.39987" lon="6.07927">
        <ele>1273</ele>
        <time>2021-07-06T10:47:55.000Z</time>
      </trkpt>
      <trkpt lat="44.39983" lon="6.0792">
        <ele>1273.5999755859</ele>
        <time>2021-07-06T10:47:58.000Z</time>
      </trkpt>
      <trkpt lat="44.39982" lon="6.07915">
        <ele>1274</ele>
        <time>2021-07-06T10:48:00.000Z</time>
      </trkpt>
      <trkpt lat="44.39982" lon="6.07913">
        <ele>1274</ele>
        <time>2021-07-06T10:48:01.000Z</time>
      </trkpt>
      <trkpt lat="44.39985" lon="6.07902">
        <ele>1274.1999511719</ele>
        <time>2021-07-06T10:48:05.000Z</time>
      </trkpt>
      <trkpt lat="44.39988" lon="6.07893">
        <ele>1274.1999511719</ele>
        <time>2021-07-06T10:48:08.000Z</time>
      </trkpt>
      <trkpt lat="44.39988" lon="6.07883">
        <ele>1274.1999511719</ele>
        <time>2021-07-06T10:48:10.000Z</time>
      </trkpt>
      <trkpt lat="44.39984" lon="6.07856">
        <ele>1274.1999511719</ele>
        <time>2021-07-06T10:48:15.000Z</time>
      </trkpt>
      <trkpt lat="44.3998" lon="6.07844">
        <ele>1274</ele>
        <time>2021-07-06T10:48:17.000Z</time>
      </trkpt>
      <trkpt lat="44.39978" lon="6.07832">
        <ele>1273.5999755859</ele>
        <time>2021-07-06T10:48:19.000Z</time>
      </trkpt>
      <trkpt lat="44.39979" lon="6.07824">
        <ele>1272.8000488281</ele>
        <time>2021-07-06T10:48:21.000Z</time>
      </trkpt>
      <trkpt lat="44.3998" lon="6.07822">
        <ele>1272.1999511719</ele>
        <time>2021-07-06T10:48:22.000Z</time>
      </trkpt>
      <trkpt lat="44.39983" lon="6.07817">
        <ele>1271</ele>
        <time>2021-07-06T10:48:24.000Z</time>
      </trkpt>
      <trkpt lat="44.39984" lon="6.07811">
        <ele>1269.1999511719</ele>
        <time>2021-07-06T10:48:26.000Z</time>
      </trkpt>
      <trkpt lat="44.39984" lon="6.07803">
        <ele>1268.1999511719</ele>
        <time>2021-07-06T10:48:28.000Z</time>
      </trkpt>
      <trkpt lat="44.39983" lon="6.07789">
        <ele>1267.5999755859</ele>
        <time>2021-07-06T10:48:32.000Z</time>
      </trkpt>
      <trkpt lat="44.3998" lon="6.07785">
        <ele>1267.5999755859</ele>
        <time>2021-07-06T10:48:34.000Z</time>
      </trkpt>
      <trkpt lat="44.39977" lon="6.07776">
        <ele>1267.4000244141</ele>
        <time>2021-07-06T10:48:37.000Z</time>
      </trkpt>
      <trkpt lat="44.39971" lon="6.07758">
        <ele>1267.4000244141</ele>
        <time>2021-07-06T10:48:43.000Z</time>
      </trkpt>
      <trkpt lat="44.39969" lon="6.0774">
        <ele>1267.8000488281</ele>
        <time>2021-07-06T10:48:49.000Z</time>
      </trkpt>
      <trkpt lat="44.39961" lon="6.0772">
        <ele>1268.8000488281</ele>
        <time>2021-07-06T10:48:55.000Z</time>
      </trkpt>
      <trkpt lat="44.39958" lon="6.07708">
        <ele>1269.1999511719</ele>
        <time>2021-07-06T10:48:59.000Z</time>
      </trkpt>
      <trkpt lat="44.39957" lon="6.07705">
        <ele>1269.4000244141</ele>
        <time>2021-07-06T10:49:00.000Z</time>
      </trkpt>
      <trkpt lat="44.39954" lon="6.07702">
        <ele>1269.4000244141</ele>
        <time>2021-07-06T10:49:01.000Z</time>
      </trkpt>
      <trkpt lat="44.39946" lon="6.07692">
        <ele>1269.8000488281</ele>
        <time>2021-07-06T10:49:04.000Z</time>
      </trkpt>
      <trkpt lat="44.39945" lon="6.07689">
        <ele>1269.8000488281</ele>
        <time>2021-07-06T10:49:05.000Z</time>
      </trkpt>
      <trkpt lat="44.39944" lon="6.07687">
        <ele>1270</ele>
        <time>2021-07-06T10:49:06.000Z</time>
      </trkpt>
      <trkpt lat="44.3994" lon="6.07681">
        <ele>1270.1999511719</ele>
        <time>2021-07-06T10:49:10.000Z</time>
      </trkpt>
      <trkpt lat="44.3994" lon="6.0768">
        <ele>1271.5999755859</ele>
        <time>2021-07-06T10:49:14.000Z</time>
      </trkpt>
      <trkpt lat="44.39943" lon="6.07679">
        <ele>1271.8000488281</ele>
        <time>2021-07-06T10:49:18.000Z</time>
      </trkpt>
      <trkpt lat="44.39943" lon="6.07676">
        <ele>1271.8000488281</ele>
        <time>2021-07-06T10:49:20.000Z</time>
      </trkpt>
      <trkpt lat="44.39938" lon="6.07668">
        <ele>1271.4000244141</ele>
        <time>2021-07-06T10:49:27.000Z</time>
      </trkpt>
      <trkpt lat="44.39933" lon="6.07658">
        <ele>1271</ele>
        <time>2021-07-06T10:49:31.000Z</time>
      </trkpt>
      <trkpt lat="44.39931" lon="6.07651">
        <ele>1270.8000488281</ele>
        <time>2021-07-06T10:49:33.000Z</time>
      </trkpt>
      <trkpt lat="44.39927" lon="6.0764">
        <ele>1270.8000488281</ele>
        <time>2021-07-06T10:49:36.000Z</time>
      </trkpt>
      <trkpt lat="44.39926" lon="6.07637">
        <ele>1270.8000488281</ele>
        <time>2021-07-06T10:49:37.000Z</time>
      </trkpt>
      <trkpt lat="44.39917" lon="6.07621">
        <ele>1271</ele>
        <time>2021-07-06T10:49:43.000Z</time>
      </trkpt>
      <trkpt lat="44.39912" lon="6.07613">
        <ele>1270.8000488281</ele>
        <time>2021-07-06T10:49:49.000Z</time>
      </trkpt>
      <trkpt lat="44.39911" lon="6.07611">
        <ele>1270.1999511719</ele>
        <time>2021-07-06T10:49:51.000Z</time>
      </trkpt>
      <trkpt lat="44.39907" lon="6.07602">
        <ele>1270</ele>
        <time>2021-07-06T10:50:03.000Z</time>
      </trkpt>
      <trkpt lat="44.39907" lon="6.07599">
        <ele>1270.1999511719</ele>
        <time>2021-07-06T10:50:15.000Z</time>
      </trkpt>
      <trkpt lat="44.39907" lon="6.07599">
        <ele>1270</ele>
        <time>2021-07-06T10:50:22.000Z</time>
      </trkpt>
      <trkpt lat="44.39903" lon="6.07597">
        <ele>1270.1999511719</ele>
        <time>2021-07-06T10:50:33.000Z</time>
      </trkpt>
      <trkpt lat="44.39898" lon="6.07593">
        <ele>1270.4000244141</ele>
        <time>2021-07-06T10:50:43.000Z</time>
      </trkpt>
      <trkpt lat="44.39889" lon="6.07584">
        <ele>1270.1999511719</ele>
        <time>2021-07-06T10:50:48.000Z</time>
      </trkpt>
      <trkpt lat="44.39873" lon="6.07576">
        <ele>1270.4000244141</ele>
        <time>2021-07-06T10:50:54.000Z</time>
      </trkpt>
      <trkpt lat="44.39859" lon="6.07558">
        <ele>1270.5999755859</ele>
        <time>2021-07-06T10:51:00.000Z</time>
      </trkpt>
      <trkpt lat="44.39852" lon="6.0754">
        <ele>1271</ele>
        <time>2021-07-06T10:51:04.000Z</time>
      </trkpt>
      <trkpt lat="44.39849" lon="6.07536">
        <ele>1271</ele>
        <time>2021-07-06T10:51:05.000Z</time>
      </trkpt>
      <trkpt lat="44.39842" lon="6.07516">
        <ele>1271</ele>
        <time>2021-07-06T10:51:09.000Z</time>
      </trkpt>
      <trkpt lat="44.3984" lon="6.07513">
        <ele>1271</ele>
        <time>2021-07-06T10:51:10.000Z</time>
      </trkpt>
      <trkpt lat="44.39834" lon="6.07505">
        <ele>1271</ele>
        <time>2021-07-06T10:51:12.000Z</time>
      </trkpt>
      <trkpt lat="44.39823" lon="6.07483">
        <ele>1270.5999755859</ele>
        <time>2021-07-06T10:51:17.000Z</time>
      </trkpt>
      <trkpt lat="44.39813" lon="6.0747">
        <ele>1270</ele>
        <time>2021-07-06T10:51:21.000Z</time>
      </trkpt>
      <trkpt lat="44.39811" lon="6.07469">
        <ele>1270</ele>
        <time>2021-07-06T10:51:22.000Z</time>
      </trkpt>
      <trkpt lat="44.39804" lon="6.07462">
        <ele>1269.5999755859</ele>
        <time>2021-07-06T10:51:26.000Z</time>
      </trkpt>
      <trkpt lat="44.39803" lon="6.0746">
        <ele>1269.5999755859</ele>
        <time>2021-07-06T10:51:27.000Z</time>
      </trkpt>
      <trkpt lat="44.39799" lon="6.07454">
        <ele>1269.5999755859</ele>
        <time>2021-07-06T10:51:32.000Z</time>
      </trkpt>
      <trkpt lat="44.39797" lon="6.07452">
        <ele>1269.8000488281</ele>
        <time>2021-07-06T10:51:46.000Z</time>
      </trkpt>
      <trkpt lat="44.39797" lon="6.07452">
        <ele>1270</ele>
        <time>2021-07-06T10:51:58.000Z</time>
      </trkpt>
      <trkpt lat="44.398" lon="6.07449">
        <ele>1270</ele>
        <time>2021-07-06T10:52:04.000Z</time>
      </trkpt>
      <trkpt lat="44.39801" lon="6.07447">
        <ele>1270</ele>
        <time>2021-07-06T10:52:05.000Z</time>
      </trkpt>
      <trkpt lat="44.39803" lon="6.07433">
        <ele>1270</ele>
        <time>2021-07-06T10:52:09.000Z</time>
      </trkpt>
      <trkpt lat="44.39801" lon="6.0742">
        <ele>1270</ele>
        <time>2021-07-06T10:52:12.000Z</time>
      </trkpt>
      <trkpt lat="44.39797" lon="6.07403">
        <ele>1269.8000488281</ele>
        <time>2021-07-06T10:52:16.000Z</time>
      </trkpt>
      <trkpt lat="44.39783" lon="6.07376">
        <ele>1269.1999511719</ele>
        <time>2021-07-06T10:52:22.000Z</time>
      </trkpt>
      <trkpt lat="44.39779" lon="6.07367">
        <ele>1268.8000488281</ele>
        <time>2021-07-06T10:52:26.000Z</time>
      </trkpt>
      <trkpt lat="44.39779" lon="6.07365">
        <ele>1268.8000488281</ele>
        <time>2021-07-06T10:52:27.000Z</time>
      </trkpt>
      <trkpt lat="44.39777" lon="6.07353">
        <ele>1268.4000244141</ele>
        <time>2021-07-06T10:52:30.000Z</time>
      </trkpt>
      <trkpt lat="44.39771" lon="6.07334">
        <ele>1267.8000488281</ele>
        <time>2021-07-06T10:52:34.000Z</time>
      </trkpt>
      <trkpt lat="44.39768" lon="6.07323">
        <ele>1267.1999511719</ele>
        <time>2021-07-06T10:52:36.000Z</time>
      </trkpt>
      <trkpt lat="44.39767" lon="6.07317">
        <ele>1266.1999511719</ele>
        <time>2021-07-06T10:52:37.000Z</time>
      </trkpt>
      <trkpt lat="44.39761" lon="6.07291">
        <ele>1265.1999511719</ele>
        <time>2021-07-06T10:52:41.000Z</time>
      </trkpt>
      <trkpt lat="44.39759" lon="6.07286">
        <ele>1265</ele>
        <time>2021-07-06T10:52:42.000Z</time>
      </trkpt>
      <trkpt lat="44.39753" lon="6.07259">
        <ele>1264</ele>
        <time>2021-07-06T10:52:46.000Z</time>
      </trkpt>
      <trkpt lat="44.39753" lon="6.07244">
        <ele>1263.4000244141</ele>
        <time>2021-07-06T10:52:48.000Z</time>
      </trkpt>
      <trkpt lat="44.39754" lon="6.07237">
        <ele>1262.8000488281</ele>
        <time>2021-07-06T10:52:49.000Z</time>
      </trkpt>
      <trkpt lat="44.39757" lon="6.07224">
        <ele>1261.5999755859</ele>
        <time>2021-07-06T10:52:51.000Z</time>
      </trkpt>
      <trkpt lat="44.39756" lon="6.07218">
        <ele>1261.1999511719</ele>
        <time>2021-07-06T10:52:52.000Z</time>
      </trkpt>
      <trkpt lat="44.39758" lon="6.07212">
        <ele>1260.5999755859</ele>
        <time>2021-07-06T10:52:53.000Z</time>
      </trkpt>
      <trkpt lat="44.39759" lon="6.07206">
        <ele>1260</ele>
        <time>2021-07-06T10:52:54.000Z</time>
      </trkpt>
      <trkpt lat="44.39768" lon="6.07176">
        <ele>1259</ele>
        <time>2021-07-06T10:52:59.000Z</time>
      </trkpt>
      <trkpt lat="44.3977" lon="6.07171">
        <ele>1259</ele>
        <time>2021-07-06T10:53:00.000Z</time>
      </trkpt>
      <trkpt lat="44.3978" lon="6.07139">
        <ele>1258.4000244141</ele>
        <time>2021-07-06T10:53:05.000Z</time>
      </trkpt>
      <trkpt lat="44.3978" lon="6.07134">
        <ele>1258.4000244141</ele>
        <time>2021-07-06T10:53:06.000Z</time>
      </trkpt>
      <trkpt lat="44.39777" lon="6.07116">
        <ele>1258.4000244141</ele>
        <time>2021-07-06T10:53:08.000Z</time>
      </trkpt>
      <trkpt lat="44.39782" lon="6.07106">
        <ele>1258</ele>
        <time>2021-07-06T10:53:11.000Z</time>
      </trkpt>
      <trkpt lat="44.39785" lon="6.071">
        <ele>1256.8000488281</ele>
        <time>2021-07-06T10:53:13.000Z</time>
      </trkpt>
      <trkpt lat="44.39787" lon="6.07096">
        <ele>1256</ele>
        <time>2021-07-06T10:53:14.000Z</time>
      </trkpt>
      <trkpt lat="44.39788" lon="6.07091">
        <ele>1255.1999511719</ele>
        <time>2021-07-06T10:53:15.000Z</time>
      </trkpt>
      <trkpt lat="44.39787" lon="6.07076">
        <ele>1254.1999511719</ele>
        <time>2021-07-06T10:53:17.000Z</time>
      </trkpt>
      <trkpt lat="44.39787" lon="6.07071">
        <ele>1253.8000488281</ele>
        <time>2021-07-06T10:53:18.000Z</time>
      </trkpt>
      <trkpt lat="44.39788" lon="6.07067">
        <ele>1253.1999511719</ele>
        <time>2021-07-06T10:53:19.000Z</time>
      </trkpt>
      <trkpt lat="44.3979" lon="6.07063">
        <ele>1252.4000244141</ele>
        <time>2021-07-06T10:53:20.000Z</time>
      </trkpt>
      <trkpt lat="44.39791" lon="6.07056">
        <ele>1251</ele>
        <time>2021-07-06T10:53:22.000Z</time>
      </trkpt>
      <trkpt lat="44.3979" lon="6.07052">
        <ele>1250.4000244141</ele>
        <time>2021-07-06T10:53:23.000Z</time>
      </trkpt>
      <trkpt lat="44.39789" lon="6.07048">
        <ele>1249.8000488281</ele>
        <time>2021-07-06T10:53:24.000Z</time>
      </trkpt>
      <trkpt lat="44.39791" lon="6.07042">
        <ele>1248.4000244141</ele>
        <time>2021-07-06T10:53:26.000Z</time>
      </trkpt>
      <trkpt lat="44.39793" lon="6.0704">
        <ele>1247.4000244141</ele>
        <time>2021-07-06T10:53:27.000Z</time>
      </trkpt>
      <trkpt lat="44.39794" lon="6.07036">
        <ele>1246.4000244141</ele>
        <time>2021-07-06T10:53:28.000Z</time>
      </trkpt>
      <trkpt lat="44.39796" lon="6.07033">
        <ele>1245.4000244141</ele>
        <time>2021-07-06T10:53:29.000Z</time>
      </trkpt>
      <trkpt lat="44.39799" lon="6.07026">
        <ele>1243.8000488281</ele>
        <time>2021-07-06T10:53:31.000Z</time>
      </trkpt>
      <trkpt lat="44.39799" lon="6.07022">
        <ele>1242.5999755859</ele>
        <time>2021-07-06T10:53:32.000Z</time>
      </trkpt>
      <trkpt lat="44.39799" lon="6.07013">
        <ele>1241</ele>
        <time>2021-07-06T10:53:34.000Z</time>
      </trkpt>
      <trkpt lat="44.398" lon="6.07009">
        <ele>1240.1999511719</ele>
        <time>2021-07-06T10:53:35.000Z</time>
      </trkpt>
      <trkpt lat="44.398" lon="6.07005">
        <ele>1239.4000244141</ele>
        <time>2021-07-06T10:53:36.000Z</time>
      </trkpt>
      <trkpt lat="44.398" lon="6.07">
        <ele>1238.8000488281</ele>
        <time>2021-07-06T10:53:37.000Z</time>
      </trkpt>
      <trkpt lat="44.398" lon="6.06996">
        <ele>1238</ele>
        <time>2021-07-06T10:53:38.000Z</time>
      </trkpt>
      <trkpt lat="44.39802" lon="6.06991">
        <ele>1237</ele>
        <time>2021-07-06T10:53:39.000Z</time>
      </trkpt>
      <trkpt lat="44.39805" lon="6.06986">
        <ele>1236.1999511719</ele>
        <time>2021-07-06T10:53:40.000Z</time>
      </trkpt>
      <trkpt lat="44.39811" lon="6.06972">
        <ele>1234.5999755859</ele>
        <time>2021-07-06T10:53:42.000Z</time>
      </trkpt>
      <trkpt lat="44.39813" lon="6.06964">
        <ele>1234</ele>
        <time>2021-07-06T10:53:43.000Z</time>
      </trkpt>
      <trkpt lat="44.39816" lon="6.06957">
        <ele>1233.1999511719</ele>
        <time>2021-07-06T10:53:44.000Z</time>
      </trkpt>
      <trkpt lat="44.39822" lon="6.06944">
        <ele>1231.4000244141</ele>
        <time>2021-07-06T10:53:46.000Z</time>
      </trkpt>
      <trkpt lat="44.39828" lon="6.06936">
        <ele>1229.4000244141</ele>
        <time>2021-07-06T10:53:48.000Z</time>
      </trkpt>
      <trkpt lat="44.39831" lon="6.06931">
        <ele>1228</ele>
        <time>2021-07-06T10:53:49.000Z</time>
      </trkpt>
      <trkpt lat="44.39833" lon="6.06926">
        <ele>1226.4000244141</ele>
        <time>2021-07-06T10:53:50.000Z</time>
      </trkpt>
      <trkpt lat="44.39834" lon="6.06922">
        <ele>1224.8000488281</ele>
        <time>2021-07-06T10:53:51.000Z</time>
      </trkpt>
      <trkpt lat="44.39833" lon="6.06915">
        <ele>1223.1999511719</ele>
        <time>2021-07-06T10:53:52.000Z</time>
      </trkpt>
      <trkpt lat="44.39832" lon="6.06907">
        <ele>1221.4000244141</ele>
        <time>2021-07-06T10:53:53.000Z</time>
      </trkpt>
      <trkpt lat="44.39832" lon="6.06904">
        <ele>1219.8000488281</ele>
        <time>2021-07-06T10:53:54.000Z</time>
      </trkpt>
      <trkpt lat="44.39833" lon="6.06899">
        <ele>1218.4000244141</ele>
        <time>2021-07-06T10:53:55.000Z</time>
      </trkpt>
      <trkpt lat="44.39834" lon="6.06895">
        <ele>1217</ele>
        <time>2021-07-06T10:53:56.000Z</time>
      </trkpt>
      <trkpt lat="44.39835" lon="6.06889">
        <ele>1215.5999755859</ele>
        <time>2021-07-06T10:53:57.000Z</time>
      </trkpt>
      <trkpt lat="44.39837" lon="6.06876">
        <ele>1213.8000488281</ele>
        <time>2021-07-06T10:53:59.000Z</time>
      </trkpt>
      <trkpt lat="44.39838" lon="6.06868">
        <ele>1212.1999511719</ele>
        <time>2021-07-06T10:54:00.000Z</time>
      </trkpt>
      <trkpt lat="44.3984" lon="6.06861">
        <ele>1211.5999755859</ele>
        <time>2021-07-06T10:54:01.000Z</time>
      </trkpt>
      <trkpt lat="44.39844" lon="6.06848">
        <ele>1211</ele>
        <time>2021-07-06T10:54:03.000Z</time>
      </trkpt>
      <trkpt lat="44.39846" lon="6.06843">
        <ele>1210.4000244141</ele>
        <time>2021-07-06T10:54:04.000Z</time>
      </trkpt>
      <trkpt lat="44.39846" lon="6.06837">
        <ele>1209.8000488281</ele>
        <time>2021-07-06T10:54:05.000Z</time>
      </trkpt>
      <trkpt lat="44.3985" lon="6.06836">
        <ele>1208.1999511719</ele>
        <time>2021-07-06T10:54:07.000Z</time>
      </trkpt>
      <trkpt lat="44.39854" lon="6.06834">
        <ele>1206.5999755859</ele>
        <time>2021-07-06T10:54:09.000Z</time>
      </trkpt>
      <trkpt lat="44.39858" lon="6.06833">
        <ele>1204.8000488281</ele>
        <time>2021-07-06T10:54:11.000Z</time>
      </trkpt>
      <trkpt lat="44.39861" lon="6.0683">
        <ele>1203</ele>
        <time>2021-07-06T10:54:13.000Z</time>
      </trkpt>
      <trkpt lat="44.39861" lon="6.06827">
        <ele>1201.8000488281</ele>
        <time>2021-07-06T10:54:15.000Z</time>
      </trkpt>
      <trkpt lat="44.39861" lon="6.06825">
        <ele>1201.1999511719</ele>
        <time>2021-07-06T10:54:16.000Z</time>
      </trkpt>
      <trkpt lat="44.39861" lon="6.06824">
        <ele>1200.4000244141</ele>
        <time>2021-07-06T10:54:17.000Z</time>
      </trkpt>
      <trkpt lat="44.39862" lon="6.06823">
        <ele>1198.8000488281</ele>
        <time>2021-07-06T10:54:19.000Z</time>
      </trkpt>
      <trkpt lat="44.39863" lon="6.06823">
        <ele>1197.5999755859</ele>
        <time>2021-07-06T10:54:20.000Z</time>
      </trkpt>
      <trkpt lat="44.39864" lon="6.06823">
        <ele>1196.4000244141</ele>
        <time>2021-07-06T10:54:21.000Z</time>
      </trkpt>
      <trkpt lat="44.39868" lon="6.06823">
        <ele>1194.5999755859</ele>
        <time>2021-07-06T10:54:23.000Z</time>
      </trkpt>
      <trkpt lat="44.3987" lon="6.06823">
        <ele>1194</ele>
        <time>2021-07-06T10:54:25.000Z</time>
      </trkpt>
      <trkpt lat="44.39877" lon="6.06827">
        <ele>1193.4000244141</ele>
        <time>2021-07-06T10:54:29.000Z</time>
      </trkpt>
      <trkpt lat="44.39881" lon="6.06828">
        <ele>1191.5999755859</ele>
        <time>2021-07-06T10:54:31.000Z</time>
      </trkpt>
      <trkpt lat="44.39883" lon="6.06829">
        <ele>1190.5999755859</ele>
        <time>2021-07-06T10:54:32.000Z</time>
      </trkpt>
      <trkpt lat="44.39884" lon="6.06829">
        <ele>1189.4000244141</ele>
        <time>2021-07-06T10:54:33.000Z</time>
      </trkpt>
      <trkpt lat="44.39886" lon="6.06829">
        <ele>1188.4000244141</ele>
        <time>2021-07-06T10:54:34.000Z</time>
      </trkpt>
      <trkpt lat="44.39889" lon="6.06829">
        <ele>1187.4000244141</ele>
        <time>2021-07-06T10:54:35.000Z</time>
      </trkpt>
      <trkpt lat="44.39891" lon="6.06827">
        <ele>1186.1999511719</ele>
        <time>2021-07-06T10:54:36.000Z</time>
      </trkpt>
      <trkpt lat="44.39894" lon="6.06824">
        <ele>1185</ele>
        <time>2021-07-06T10:54:37.000Z</time>
      </trkpt>
      <trkpt lat="44.39898" lon="6.0682">
        <ele>1183.8000488281</ele>
        <time>2021-07-06T10:54:38.000Z</time>
      </trkpt>
      <trkpt lat="44.39901" lon="6.06816">
        <ele>1182.8000488281</ele>
        <time>2021-07-06T10:54:39.000Z</time>
      </trkpt>
      <trkpt lat="44.39903" lon="6.06813">
        <ele>1181.5999755859</ele>
        <time>2021-07-06T10:54:40.000Z</time>
      </trkpt>
      <trkpt lat="44.39907" lon="6.0681">
        <ele>1180.4000244141</ele>
        <time>2021-07-06T10:54:41.000Z</time>
      </trkpt>
      <trkpt lat="44.39908" lon="6.06806">
        <ele>1179.5999755859</ele>
        <time>2021-07-06T10:54:42.000Z</time>
      </trkpt>
      <trkpt lat="44.39909" lon="6.06804">
        <ele>1178.1999511719</ele>
        <time>2021-07-06T10:54:43.000Z</time>
      </trkpt>
      <trkpt lat="44.39911" lon="6.06801">
        <ele>1177.4000244141</ele>
        <time>2021-07-06T10:54:44.000Z</time>
      </trkpt>
      <trkpt lat="44.39916" lon="6.06793">
        <ele>1175.5999755859</ele>
        <time>2021-07-06T10:54:46.000Z</time>
      </trkpt>
      <trkpt lat="44.39918" lon="6.06788">
        <ele>1173.1999511719</ele>
        <time>2021-07-06T10:54:48.000Z</time>
      </trkpt>
      <trkpt lat="44.3992" lon="6.06786">
        <ele>1172.1999511719</ele>
        <time>2021-07-06T10:54:49.000Z</time>
      </trkpt>
      <trkpt lat="44.39922" lon="6.06783">
        <ele>1171</ele>
        <time>2021-07-06T10:54:51.000Z</time>
      </trkpt>
      <trkpt lat="44.39924" lon="6.06782">
        <ele>1170.8000488281</ele>
        <time>2021-07-06T10:54:52.000Z</time>
      </trkpt>
      <trkpt lat="44.39929" lon="6.06785">
        <ele>1170.4000244141</ele>
        <time>2021-07-06T10:54:54.000Z</time>
      </trkpt>
      <trkpt lat="44.39931" lon="6.06787">
        <ele>1169.4000244141</ele>
        <time>2021-07-06T10:54:55.000Z</time>
      </trkpt>
      <trkpt lat="44.39936" lon="6.06787">
        <ele>1168.1999511719</ele>
        <time>2021-07-06T10:54:57.000Z</time>
      </trkpt>
      <trkpt lat="44.39939" lon="6.06784">
        <ele>1166.1999511719</ele>
        <time>2021-07-06T10:54:59.000Z</time>
      </trkpt>
      <trkpt lat="44.39941" lon="6.06779">
        <ele>1164.4000244141</ele>
        <time>2021-07-06T10:55:01.000Z</time>
      </trkpt>
      <trkpt lat="44.39942" lon="6.06773">
        <ele>1162.5999755859</ele>
        <time>2021-07-06T10:55:03.000Z</time>
      </trkpt>
      <trkpt lat="44.39944" lon="6.0677">
        <ele>1161.4000244141</ele>
        <time>2021-07-06T10:55:04.000Z</time>
      </trkpt>
      <trkpt lat="44.39945" lon="6.06766">
        <ele>1160.8000488281</ele>
        <time>2021-07-06T10:55:05.000Z</time>
      </trkpt>
      <trkpt lat="44.39946" lon="6.06761">
        <ele>1159.8000488281</ele>
        <time>2021-07-06T10:55:06.000Z</time>
      </trkpt>
      <trkpt lat="44.39946" lon="6.06751">
        <ele>1158.1999511719</ele>
        <time>2021-07-06T10:55:08.000Z</time>
      </trkpt>
      <trkpt lat="44.39946" lon="6.06747">
        <ele>1157.8000488281</ele>
        <time>2021-07-06T10:55:09.000Z</time>
      </trkpt>
      <trkpt lat="44.39945" lon="6.06743">
        <ele>1157.1999511719</ele>
        <time>2021-07-06T10:55:10.000Z</time>
      </trkpt>
      <trkpt lat="44.39946" lon="6.06737">
        <ele>1155.8000488281</ele>
        <time>2021-07-06T10:55:12.000Z</time>
      </trkpt>
      <trkpt lat="44.39946" lon="6.06733">
        <ele>1154.8000488281</ele>
        <time>2021-07-06T10:55:13.000Z</time>
      </trkpt>
      <trkpt lat="44.39946" lon="6.06731">
        <ele>1153.8000488281</ele>
        <time>2021-07-06T10:55:14.000Z</time>
      </trkpt>
      <trkpt lat="44.39946" lon="6.0673">
        <ele>1152.5999755859</ele>
        <time>2021-07-06T10:55:15.000Z</time>
      </trkpt>
      <trkpt lat="44.39947" lon="6.06726">
        <ele>1150.5999755859</ele>
        <time>2021-07-06T10:55:17.000Z</time>
      </trkpt>
      <trkpt lat="44.39947" lon="6.06723">
        <ele>1149.1999511719</ele>
        <time>2021-07-06T10:55:19.000Z</time>
      </trkpt>
      <trkpt lat="44.39949" lon="6.06721">
        <ele>1147.4000244141</ele>
        <time>2021-07-06T10:55:21.000Z</time>
      </trkpt>
      <trkpt lat="44.3995" lon="6.06716">
        <ele>1144.8000488281</ele>
        <time>2021-07-06T10:55:23.000Z</time>
      </trkpt>
      <trkpt lat="44.39949" lon="6.06714">
        <ele>1144</ele>
        <time>2021-07-06T10:55:24.000Z</time>
      </trkpt>
      <trkpt lat="44.39949" lon="6.06712">
        <ele>1143.1999511719</ele>
        <time>2021-07-06T10:55:25.000Z</time>
      </trkpt>
      <trkpt lat="44.3995" lon="6.0671">
        <ele>1141.8000488281</ele>
        <time>2021-07-06T10:55:27.000Z</time>
      </trkpt>
      <trkpt lat="44.39952" lon="6.06707">
        <ele>1140.1999511719</ele>
        <time>2021-07-06T10:55:29.000Z</time>
      </trkpt>
      <trkpt lat="44.39951" lon="6.067">
        <ele>1138.5999755859</ele>
        <time>2021-07-06T10:55:31.000Z</time>
      </trkpt>
      <trkpt lat="44.39951" lon="6.06693">
        <ele>1137.1999511719</ele>
        <time>2021-07-06T10:55:33.000Z</time>
      </trkpt>
      <trkpt lat="44.3995" lon="6.0669">
        <ele>1136.4000244141</ele>
        <time>2021-07-06T10:55:34.000Z</time>
      </trkpt>
      <trkpt lat="44.3995" lon="6.06687">
        <ele>1136</ele>
        <time>2021-07-06T10:55:35.000Z</time>
      </trkpt>
      <trkpt lat="44.39951" lon="6.06682">
        <ele>1134.4000244141</ele>
        <time>2021-07-06T10:55:37.000Z</time>
      </trkpt>
      <trkpt lat="44.39953" lon="6.0668">
        <ele>1132.5999755859</ele>
        <time>2021-07-06T10:55:39.000Z</time>
      </trkpt>
      <trkpt lat="44.39955" lon="6.06676">
        <ele>1130.5999755859</ele>
        <time>2021-07-06T10:55:41.000Z</time>
      </trkpt>
      <trkpt lat="44.39955" lon="6.06671">
        <ele>1129.4000244141</ele>
        <time>2021-07-06T10:55:42.000Z</time>
      </trkpt>
      <trkpt lat="44.39955" lon="6.06668">
        <ele>1128.1999511719</ele>
        <time>2021-07-06T10:55:43.000Z</time>
      </trkpt>
      <trkpt lat="44.39954" lon="6.06665">
        <ele>1127.1999511719</ele>
        <time>2021-07-06T10:55:44.000Z</time>
      </trkpt>
      <trkpt lat="44.39955" lon="6.06663">
        <ele>1126.1999511719</ele>
        <time>2021-07-06T10:55:45.000Z</time>
      </trkpt>
      <trkpt lat="44.39956" lon="6.0666">
        <ele>1124.4000244141</ele>
        <time>2021-07-06T10:55:47.000Z</time>
      </trkpt>
      <trkpt lat="44.39955" lon="6.06651">
        <ele>1122.8000488281</ele>
        <time>2021-07-06T10:55:49.000Z</time>
      </trkpt>
      <trkpt lat="44.39954" lon="6.06647">
        <ele>1121.5999755859</ele>
        <time>2021-07-06T10:55:50.000Z</time>
      </trkpt>
      <trkpt lat="44.39953" lon="6.06641">
        <ele>1120</ele>
        <time>2021-07-06T10:55:52.000Z</time>
      </trkpt>
      <trkpt lat="44.39954" lon="6.06639">
        <ele>1119.4000244141</ele>
        <time>2021-07-06T10:55:53.000Z</time>
      </trkpt>
      <trkpt lat="44.39955" lon="6.06637">
        <ele>1118.8000488281</ele>
        <time>2021-07-06T10:55:54.000Z</time>
      </trkpt>
      <trkpt lat="44.39956" lon="6.06636">
        <ele>1118.1999511719</ele>
        <time>2021-07-06T10:55:55.000Z</time>
      </trkpt>
      <trkpt lat="44.39958" lon="6.06635">
        <ele>1117.4000244141</ele>
        <time>2021-07-06T10:55:56.000Z</time>
      </trkpt>
      <trkpt lat="44.39959" lon="6.06627">
        <ele>1116.4000244141</ele>
        <time>2021-07-06T10:55:58.000Z</time>
      </trkpt>
      <trkpt lat="44.39959" lon="6.06623">
        <ele>1115.5999755859</ele>
        <time>2021-07-06T10:55:59.000Z</time>
      </trkpt>
      <trkpt lat="44.39958" lon="6.0662">
        <ele>1114.8000488281</ele>
        <time>2021-07-06T10:56:00.000Z</time>
      </trkpt>
      <trkpt lat="44.39959" lon="6.06616">
        <ele>1113</ele>
        <time>2021-07-06T10:56:02.000Z</time>
      </trkpt>
      <trkpt lat="44.39959" lon="6.06612">
        <ele>1112.1999511719</ele>
        <time>2021-07-06T10:56:03.000Z</time>
      </trkpt>
      <trkpt lat="44.39958" lon="6.06609">
        <ele>1111.1999511719</ele>
        <time>2021-07-06T10:56:04.000Z</time>
      </trkpt>
      <trkpt lat="44.39959" lon="6.06604">
        <ele>1109.8000488281</ele>
        <time>2021-07-06T10:56:06.000Z</time>
      </trkpt>
      <trkpt lat="44.3996" lon="6.06602">
        <ele>1109</ele>
        <time>2021-07-06T10:56:07.000Z</time>
      </trkpt>
      <trkpt lat="44.39961" lon="6.066">
        <ele>1108</ele>
        <time>2021-07-06T10:56:08.000Z</time>
      </trkpt>
      <trkpt lat="44.39964" lon="6.06596">
        <ele>1106.4000244141</ele>
        <time>2021-07-06T10:56:10.000Z</time>
      </trkpt>
      <trkpt lat="44.39967" lon="6.06591">
        <ele>1105</ele>
        <time>2021-07-06T10:56:12.000Z</time>
      </trkpt>
      <trkpt lat="44.39967" lon="6.06588">
        <ele>1104</ele>
        <time>2021-07-06T10:56:13.000Z</time>
      </trkpt>
      <trkpt lat="44.39968" lon="6.06584">
        <ele>1103.1999511719</ele>
        <time>2021-07-06T10:56:14.000Z</time>
      </trkpt>
      <trkpt lat="44.39968" lon="6.06577">
        <ele>1101.4000244141</ele>
        <time>2021-07-06T10:56:16.000Z</time>
      </trkpt>
      <trkpt lat="44.39969" lon="6.06572">
        <ele>1098.4000244141</ele>
        <time>2021-07-06T10:56:18.000Z</time>
      </trkpt>
      <trkpt lat="44.39969" lon="6.06568">
        <ele>1097.1999511719</ele>
        <time>2021-07-06T10:56:19.000Z</time>
      </trkpt>
      <trkpt lat="44.39968" lon="6.06564">
        <ele>1096.1999511719</ele>
        <time>2021-07-06T10:56:20.000Z</time>
      </trkpt>
      <trkpt lat="44.39965" lon="6.06558">
        <ele>1094.1999511719</ele>
        <time>2021-07-06T10:56:22.000Z</time>
      </trkpt>
      <trkpt lat="44.39964" lon="6.06554">
        <ele>1092.1999511719</ele>
        <time>2021-07-06T10:56:24.000Z</time>
      </trkpt>
      <trkpt lat="44.39965" lon="6.06552">
        <ele>1091.4000244141</ele>
        <time>2021-07-06T10:56:25.000Z</time>
      </trkpt>
      <trkpt lat="44.39966" lon="6.06551">
        <ele>1090.5999755859</ele>
        <time>2021-07-06T10:56:26.000Z</time>
      </trkpt>
      <trkpt lat="44.39966" lon="6.06548">
        <ele>1088.8000488281</ele>
        <time>2021-07-06T10:56:28.000Z</time>
      </trkpt>
      <trkpt lat="44.39965" lon="6.06543">
        <ele>1087</ele>
        <time>2021-07-06T10:56:30.000Z</time>
      </trkpt>
      <trkpt lat="44.39963" lon="6.0654">
        <ele>1086</ele>
        <time>2021-07-06T10:56:31.000Z</time>
      </trkpt>
      <trkpt lat="44.39963" lon="6.06538">
        <ele>1085.1999511719</ele>
        <time>2021-07-06T10:56:32.000Z</time>
      </trkpt>
      <trkpt lat="44.39964" lon="6.06535">
        <ele>1083.4000244141</ele>
        <time>2021-07-06T10:56:34.000Z</time>
      </trkpt>
      <trkpt lat="44.39964" lon="6.06532">
        <ele>1082.8000488281</ele>
        <time>2021-07-06T10:56:35.000Z</time>
      </trkpt>
      <trkpt lat="44.39963" lon="6.06529">
        <ele>1082.4000244141</ele>
        <time>2021-07-06T10:56:36.000Z</time>
      </trkpt>
      <trkpt lat="44.39961" lon="6.06526">
        <ele>1081.1999511719</ele>
        <time>2021-07-06T10:56:38.000Z</time>
      </trkpt>
      <trkpt lat="44.39961" lon="6.06525">
        <ele>1080.5999755859</ele>
        <time>2021-07-06T10:56:39.000Z</time>
      </trkpt>
      <trkpt lat="44.39961" lon="6.06524">
        <ele>1080</ele>
        <time>2021-07-06T10:56:40.000Z</time>
      </trkpt>
      <trkpt lat="44.39965" lon="6.06519">
        <ele>1078.8000488281</ele>
        <time>2021-07-06T10:56:42.000Z</time>
      </trkpt>
      <trkpt lat="44.39967" lon="6.06518">
        <ele>1078.1999511719</ele>
        <time>2021-07-06T10:56:43.000Z</time>
      </trkpt>
      <trkpt lat="44.39972" lon="6.06516">
        <ele>1077.1999511719</ele>
        <time>2021-07-06T10:56:45.000Z</time>
      </trkpt>
      <trkpt lat="44.39975" lon="6.06516">
        <ele>1075.5999755859</ele>
        <time>2021-07-06T10:56:46.000Z</time>
      </trkpt>
      <trkpt lat="44.39983" lon="6.06515">
        <ele>1073.8000488281</ele>
        <time>2021-07-06T10:56:49.000Z</time>
      </trkpt>
      <trkpt lat="44.39986" lon="6.06516">
        <ele>1072.5999755859</ele>
        <time>2021-07-06T10:56:50.000Z</time>
      </trkpt>
      <trkpt lat="44.39989" lon="6.06517">
        <ele>1071.4000244141</ele>
        <time>2021-07-06T10:56:51.000Z</time>
      </trkpt>
      <trkpt lat="44.39991" lon="6.06518">
        <ele>1070.4000244141</ele>
        <time>2021-07-06T10:56:52.000Z</time>
      </trkpt>
      <trkpt lat="44.39994" lon="6.06518">
        <ele>1068.1999511719</ele>
        <time>2021-07-06T10:56:54.000Z</time>
      </trkpt>
      <trkpt lat="44.39996" lon="6.06518">
        <ele>1067</ele>
        <time>2021-07-06T10:56:55.000Z</time>
      </trkpt>
      <trkpt lat="44.39997" lon="6.06517">
        <ele>1065.8000488281</ele>
        <time>2021-07-06T10:56:56.000Z</time>
      </trkpt>
      <trkpt lat="44.39997" lon="6.06516">
        <ele>1064.4000244141</ele>
        <time>2021-07-06T10:56:57.000Z</time>
      </trkpt>
      <trkpt lat="44.39998" lon="6.06514">
        <ele>1063.4000244141</ele>
        <time>2021-07-06T10:56:58.000Z</time>
      </trkpt>
      <trkpt lat="44.39998" lon="6.06512">
        <ele>1062.4000244141</ele>
        <time>2021-07-06T10:56:59.000Z</time>
      </trkpt>
      <trkpt lat="44.39999" lon="6.0651">
        <ele>1061.5999755859</ele>
        <time>2021-07-06T10:57:00.000Z</time>
      </trkpt>
      <trkpt lat="44.39999" lon="6.06506">
        <ele>1060</ele>
        <time>2021-07-06T10:57:02.000Z</time>
      </trkpt>
      <trkpt lat="44.4" lon="6.06504">
        <ele>1058.8000488281</ele>
        <time>2021-07-06T10:57:04.000Z</time>
      </trkpt>
      <trkpt lat="44.40001" lon="6.06503">
        <ele>1058.1999511719</ele>
        <time>2021-07-06T10:57:05.000Z</time>
      </trkpt>
      <trkpt lat="44.40002" lon="6.06503">
        <ele>1057.4000244141</ele>
        <time>2021-07-06T10:57:06.000Z</time>
      </trkpt>
      <trkpt lat="44.40004" lon="6.06503">
        <ele>1056</ele>
        <time>2021-07-06T10:57:08.000Z</time>
      </trkpt>
      <trkpt lat="44.40006" lon="6.06499">
        <ele>1054.5999755859</ele>
        <time>2021-07-06T10:57:10.000Z</time>
      </trkpt>
      <trkpt lat="44.40007" lon="6.06497">
        <ele>1054</ele>
        <time>2021-07-06T10:57:11.000Z</time>
      </trkpt>
      <trkpt lat="44.40008" lon="6.06493">
        <ele>1053.1999511719</ele>
        <time>2021-07-06T10:57:12.000Z</time>
      </trkpt>
      <trkpt lat="44.40008" lon="6.06492">
        <ele>1052</ele>
        <time>2021-07-06T10:57:13.000Z</time>
      </trkpt>
      <trkpt lat="44.40009" lon="6.0649">
        <ele>1050.4000244141</ele>
        <time>2021-07-06T10:57:15.000Z</time>
      </trkpt>
      <trkpt lat="44.4001" lon="6.06486">
        <ele>1048.8000488281</ele>
        <time>2021-07-06T10:57:17.000Z</time>
      </trkpt>
      <trkpt lat="44.4001" lon="6.06485">
        <ele>1048</ele>
        <time>2021-07-06T10:57:18.000Z</time>
      </trkpt>
      <trkpt lat="44.40011" lon="6.06484">
        <ele>1047.1999511719</ele>
        <time>2021-07-06T10:57:19.000Z</time>
      </trkpt>
      <trkpt lat="44.40012" lon="6.06482">
        <ele>1046.1999511719</ele>
        <time>2021-07-06T10:57:20.000Z</time>
      </trkpt>
      <trkpt lat="44.40011" lon="6.06479">
        <ele>1045.4000244141</ele>
        <time>2021-07-06T10:57:21.000Z</time>
      </trkpt>
      <trkpt lat="44.40011" lon="6.06476">
        <ele>1044.8000488281</ele>
        <time>2021-07-06T10:57:22.000Z</time>
      </trkpt>
      <trkpt lat="44.4001" lon="6.06474">
        <ele>1044.4000244141</ele>
        <time>2021-07-06T10:57:23.000Z</time>
      </trkpt>
      <trkpt lat="44.40012" lon="6.06471">
        <ele>1043.5999755859</ele>
        <time>2021-07-06T10:57:26.000Z</time>
      </trkpt>
      <trkpt lat="44.40013" lon="6.0647">
        <ele>1043.1999511719</ele>
        <time>2021-07-06T10:57:27.000Z</time>
      </trkpt>
      <trkpt lat="44.40014" lon="6.06469">
        <ele>1041.5999755859</ele>
        <time>2021-07-06T10:57:29.000Z</time>
      </trkpt>
      <trkpt lat="44.40015" lon="6.06468">
        <ele>1040.5999755859</ele>
        <time>2021-07-06T10:57:30.000Z</time>
      </trkpt>
      <trkpt lat="44.40017" lon="6.06467">
        <ele>1039</ele>
        <time>2021-07-06T10:57:32.000Z</time>
      </trkpt>
      <trkpt lat="44.40019" lon="6.06465">
        <ele>1037.8000488281</ele>
        <time>2021-07-06T10:57:34.000Z</time>
      </trkpt>
      <trkpt lat="44.4002" lon="6.06464">
        <ele>1037</ele>
        <time>2021-07-06T10:57:35.000Z</time>
      </trkpt>
      <trkpt lat="44.40021" lon="6.06462">
        <ele>1036.1999511719</ele>
        <time>2021-07-06T10:57:36.000Z</time>
      </trkpt>
      <trkpt lat="44.40022" lon="6.06457">
        <ele>1034.4000244141</ele>
        <time>2021-07-06T10:57:38.000Z</time>
      </trkpt>
      <trkpt lat="44.40022" lon="6.06452">
        <ele>1032.8000488281</ele>
        <time>2021-07-06T10:57:40.000Z</time>
      </trkpt>
      <trkpt lat="44.40022" lon="6.06448">
        <ele>1031.4000244141</ele>
        <time>2021-07-06T10:57:41.000Z</time>
      </trkpt>
      <trkpt lat="44.40021" lon="6.06443">
        <ele>1030.1999511719</ele>
        <time>2021-07-06T10:57:43.000Z</time>
      </trkpt>
      <trkpt lat="44.40021" lon="6.06442">
        <ele>1029.5999755859</ele>
        <time>2021-07-06T10:57:44.000Z</time>
      </trkpt>
      <trkpt lat="44.40021" lon="6.0644">
        <ele>1028.8000488281</ele>
        <time>2021-07-06T10:57:45.000Z</time>
      </trkpt>
      <trkpt lat="44.40021" lon="6.06438">
        <ele>1027</ele>
        <time>2021-07-06T10:57:47.000Z</time>
      </trkpt>
      <trkpt lat="44.40021" lon="6.06438">
        <ele>1026</ele>
        <time>2021-07-06T10:57:48.000Z</time>
      </trkpt>
      <trkpt lat="44.40022" lon="6.06437">
        <ele>1024.8000488281</ele>
        <time>2021-07-06T10:57:49.000Z</time>
      </trkpt>
      <trkpt lat="44.40023" lon="6.06436">
        <ele>1023.799987793</ele>
        <time>2021-07-06T10:57:50.000Z</time>
      </trkpt>
      <trkpt lat="44.40024" lon="6.06436">
        <ele>1022.799987793</ele>
        <time>2021-07-06T10:57:51.000Z</time>
      </trkpt>
      <trkpt lat="44.40026" lon="6.06436">
        <ele>1021.799987793</ele>
        <time>2021-07-06T10:57:52.000Z</time>
      </trkpt>
      <trkpt lat="44.40029" lon="6.06436">
        <ele>1020.4000244141</ele>
        <time>2021-07-06T10:57:54.000Z</time>
      </trkpt>
      <trkpt lat="44.40032" lon="6.06434">
        <ele>1019</ele>
        <time>2021-07-06T10:57:57.000Z</time>
      </trkpt>
      <trkpt lat="44.40033" lon="6.0643">
        <ele>1017.5999755859</ele>
        <time>2021-07-06T10:57:59.000Z</time>
      </trkpt>
      <trkpt lat="44.40034" lon="6.06428">
        <ele>1016.5999755859</ele>
        <time>2021-07-06T10:58:00.000Z</time>
      </trkpt>
      <trkpt lat="44.40034" lon="6.06423">
        <ele>1015.5999755859</ele>
        <time>2021-07-06T10:58:01.000Z</time>
      </trkpt>
      <trkpt lat="44.40034" lon="6.06419">
        <ele>1014.799987793</ele>
        <time>2021-07-06T10:58:02.000Z</time>
      </trkpt>
      <trkpt lat="44.40033" lon="6.06418">
        <ele>1014.4000244141</ele>
        <time>2021-07-06T10:58:03.000Z</time>
      </trkpt>
      <trkpt lat="44.40033" lon="6.06415">
        <ele>1013</ele>
        <time>2021-07-06T10:58:05.000Z</time>
      </trkpt>
      <trkpt lat="44.40033" lon="6.06414">
        <ele>1012.4000244141</ele>
        <time>2021-07-06T10:58:06.000Z</time>
      </trkpt>
      <trkpt lat="44.40033" lon="6.06413">
        <ele>1011.5999755859</ele>
        <time>2021-07-06T10:58:07.000Z</time>
      </trkpt>
      <trkpt lat="44.40034" lon="6.06412">
        <ele>1010.799987793</ele>
        <time>2021-07-06T10:58:08.000Z</time>
      </trkpt>
      <trkpt lat="44.40036" lon="6.06412">
        <ele>1008.799987793</ele>
        <time>2021-07-06T10:58:09.000Z</time>
      </trkpt>
      <trkpt lat="44.40037" lon="6.06411">
        <ele>1007.799987793</ele>
        <time>2021-07-06T10:58:10.000Z</time>
      </trkpt>
      <trkpt lat="44.40038" lon="6.06411">
        <ele>1006.799987793</ele>
        <time>2021-07-06T10:58:11.000Z</time>
      </trkpt>
      <trkpt lat="44.40039" lon="6.0641">
        <ele>1006.200012207</ele>
        <time>2021-07-06T10:58:12.000Z</time>
      </trkpt>
      <trkpt lat="44.40042" lon="6.06406">
        <ele>1004.799987793</ele>
        <time>2021-07-06T10:58:15.000Z</time>
      </trkpt>
      <trkpt lat="44.40043" lon="6.06405">
        <ele>1004.200012207</ele>
        <time>2021-07-06T10:58:16.000Z</time>
      </trkpt>
      <trkpt lat="44.40043" lon="6.06403">
        <ele>1003.5999755859</ele>
        <time>2021-07-06T10:58:17.000Z</time>
      </trkpt>
      <trkpt lat="44.40046" lon="6.06402">
        <ele>1002.200012207</ele>
        <time>2021-07-06T10:58:19.000Z</time>
      </trkpt>
      <trkpt lat="44.40048" lon="6.06401">
        <ele>1000.5999755859</ele>
        <time>2021-07-06T10:58:21.000Z</time>
      </trkpt>
      <trkpt lat="44.4005" lon="6.06401">
        <ele>1000</ele>
        <time>2021-07-06T10:58:22.000Z</time>
      </trkpt>
      <trkpt lat="44.40052" lon="6.064">
        <ele>999.20001220703</ele>
        <time>2021-07-06T10:58:23.000Z</time>
      </trkpt>
      <trkpt lat="44.40054" lon="6.064">
        <ele>997.79998779297</ele>
        <time>2021-07-06T10:58:25.000Z</time>
      </trkpt>
      <trkpt lat="44.40056" lon="6.06398">
        <ele>996.40002441406</ele>
        <time>2021-07-06T10:58:27.000Z</time>
      </trkpt>
      <trkpt lat="44.40056" lon="6.06397">
        <ele>995.59997558594</ele>
        <time>2021-07-06T10:58:28.000Z</time>
      </trkpt>
      <trkpt lat="44.40057" lon="6.06396">
        <ele>995.20001220703</ele>
        <time>2021-07-06T10:58:29.000Z</time>
      </trkpt>
      <trkpt lat="44.40057" lon="6.06395">
        <ele>993.79998779297</ele>
        <time>2021-07-06T10:58:31.000Z</time>
      </trkpt>
      <trkpt lat="44.40058" lon="6.06392">
        <ele>992.59997558594</ele>
        <time>2021-07-06T10:58:33.000Z</time>
      </trkpt>
      <trkpt lat="44.40059" lon="6.06391">
        <ele>991.40002441406</ele>
        <time>2021-07-06T10:58:35.000Z</time>
      </trkpt>
      <trkpt lat="44.40062" lon="6.06389">
        <ele>989.40002441406</ele>
        <time>2021-07-06T10:58:37.000Z</time>
      </trkpt>
      <trkpt lat="44.40064" lon="6.06382">
        <ele>988.59997558594</ele>
        <time>2021-07-06T10:58:39.000Z</time>
      </trkpt>
      <trkpt lat="44.40063" lon="6.06375">
        <ele>988.20001220703</ele>
        <time>2021-07-06T10:58:40.000Z</time>
      </trkpt>
      <trkpt lat="44.40062" lon="6.06371">
        <ele>987.79998779297</ele>
        <time>2021-07-06T10:58:41.000Z</time>
      </trkpt>
      <trkpt lat="44.40057" lon="6.06361">
        <ele>987</ele>
        <time>2021-07-06T10:58:43.000Z</time>
      </trkpt>
      <trkpt lat="44.40054" lon="6.06351">
        <ele>985.40002441406</ele>
        <time>2021-07-06T10:58:46.000Z</time>
      </trkpt>
      <trkpt lat="44.40055" lon="6.06349">
        <ele>984.20001220703</ele>
        <time>2021-07-06T10:58:47.000Z</time>
      </trkpt>
      <trkpt lat="44.40056" lon="6.06348">
        <ele>983</ele>
        <time>2021-07-06T10:58:48.000Z</time>
      </trkpt>
      <trkpt lat="44.40056" lon="6.06348">
        <ele>982</ele>
        <time>2021-07-06T10:58:49.000Z</time>
      </trkpt>
      <trkpt lat="44.40058" lon="6.06348">
        <ele>980.79998779297</ele>
        <time>2021-07-06T10:58:50.000Z</time>
      </trkpt>
      <trkpt lat="44.4006" lon="6.06348">
        <ele>979.40002441406</ele>
        <time>2021-07-06T10:58:51.000Z</time>
      </trkpt>
      <trkpt lat="44.40063" lon="6.06348">
        <ele>978.20001220703</ele>
        <time>2021-07-06T10:58:52.000Z</time>
      </trkpt>
      <trkpt lat="44.40064" lon="6.06347">
        <ele>977.20001220703</ele>
        <time>2021-07-06T10:58:53.000Z</time>
      </trkpt>
      <trkpt lat="44.40064" lon="6.06337">
        <ele>975.40002441406</ele>
        <time>2021-07-06T10:58:55.000Z</time>
      </trkpt>
      <trkpt lat="44.40061" lon="6.06329">
        <ele>974.40002441406</ele>
        <time>2021-07-06T10:58:57.000Z</time>
      </trkpt>
      <trkpt lat="44.40057" lon="6.06323">
        <ele>973.20001220703</ele>
        <time>2021-07-06T10:58:59.000Z</time>
      </trkpt>
      <trkpt lat="44.40054" lon="6.0632">
        <ele>972.79998779297</ele>
        <time>2021-07-06T10:59:00.000Z</time>
      </trkpt>
      <trkpt lat="44.4005" lon="6.06318">
        <ele>972.20001220703</ele>
        <time>2021-07-06T10:59:01.000Z</time>
      </trkpt>
      <trkpt lat="44.40042" lon="6.06316">
        <ele>970.59997558594</ele>
        <time>2021-07-06T10:59:03.000Z</time>
      </trkpt>
      <trkpt lat="44.40039" lon="6.06316">
        <ele>969</ele>
        <time>2021-07-06T10:59:04.000Z</time>
      </trkpt>
      <trkpt lat="44.40036" lon="6.06317">
        <ele>968.20001220703</ele>
        <time>2021-07-06T10:59:05.000Z</time>
      </trkpt>
      <trkpt lat="44.40034" lon="6.06317">
        <ele>967.20001220703</ele>
        <time>2021-07-06T10:59:06.000Z</time>
      </trkpt>
      <trkpt lat="44.40029" lon="6.06317">
        <ele>965.40002441406</ele>
        <time>2021-07-06T10:59:08.000Z</time>
      </trkpt>
      <trkpt lat="44.40026" lon="6.06316">
        <ele>964.20001220703</ele>
        <time>2021-07-06T10:59:09.000Z</time>
      </trkpt>
      <trkpt lat="44.40022" lon="6.06315">
        <ele>963.20001220703</ele>
        <time>2021-07-06T10:59:10.000Z</time>
      </trkpt>
      <trkpt lat="44.40013" lon="6.06313">
        <ele>961.59997558594</ele>
        <time>2021-07-06T10:59:12.000Z</time>
      </trkpt>
      <trkpt lat="44.40005" lon="6.06311">
        <ele>959.79998779297</ele>
        <time>2021-07-06T10:59:14.000Z</time>
      </trkpt>
      <trkpt lat="44.39999" lon="6.06309">
        <ele>958.20001220703</ele>
        <time>2021-07-06T10:59:16.000Z</time>
      </trkpt>
      <trkpt lat="44.39996" lon="6.06307">
        <ele>957.20001220703</ele>
        <time>2021-07-06T10:59:17.000Z</time>
      </trkpt>
      <trkpt lat="44.39993" lon="6.06306">
        <ele>956.20001220703</ele>
        <time>2021-07-06T10:59:18.000Z</time>
      </trkpt>
      <trkpt lat="44.39989" lon="6.06303">
        <ele>955</ele>
        <time>2021-07-06T10:59:19.000Z</time>
      </trkpt>
      <trkpt lat="44.39986" lon="6.06301">
        <ele>954</ele>
        <time>2021-07-06T10:59:20.000Z</time>
      </trkpt>
      <trkpt lat="44.3998" lon="6.06297">
        <ele>952.59997558594</ele>
        <time>2021-07-06T10:59:22.000Z</time>
      </trkpt>
      <trkpt lat="44.39967" lon="6.06292">
        <ele>951.59997558594</ele>
        <time>2021-07-06T10:59:25.000Z</time>
      </trkpt>
      <trkpt lat="44.39963" lon="6.06291">
        <ele>951.40002441406</ele>
        <time>2021-07-06T10:59:26.000Z</time>
      </trkpt>
      <trkpt lat="44.39944" lon="6.06293">
        <ele>951</ele>
        <time>2021-07-06T10:59:30.000Z</time>
      </trkpt>
      <trkpt lat="44.3992" lon="6.06295">
        <ele>950.20001220703</ele>
        <time>2021-07-06T10:59:35.000Z</time>
      </trkpt>
      <trkpt lat="44.39908" lon="6.06291">
        <ele>949.20001220703</ele>
        <time>2021-07-06T10:59:38.000Z</time>
      </trkpt>
      <trkpt lat="44.39899" lon="6.06288">
        <ele>948.20001220703</ele>
        <time>2021-07-06T10:59:40.000Z</time>
      </trkpt>
      <trkpt lat="44.39894" lon="6.06285">
        <ele>947.79998779297</ele>
        <time>2021-07-06T10:59:41.000Z</time>
      </trkpt>
      <trkpt lat="44.39871" lon="6.06276">
        <ele>946.79998779297</ele>
        <time>2021-07-06T10:59:46.000Z</time>
      </trkpt>
      <trkpt lat="44.39844" lon="6.06264">
        <ele>946.40002441406</ele>
        <time>2021-07-06T10:59:51.000Z</time>
      </trkpt>
      <trkpt lat="44.39838" lon="6.06261">
        <ele>946.20001220703</ele>
        <time>2021-07-06T10:59:52.000Z</time>
      </trkpt>
      <trkpt lat="44.39816" lon="6.0625">
        <ele>945.79998779297</ele>
        <time>2021-07-06T10:59:56.000Z</time>
      </trkpt>
      <trkpt lat="44.39811" lon="6.06247">
        <ele>945.59997558594</ele>
        <time>2021-07-06T10:59:57.000Z</time>
      </trkpt>
      <trkpt lat="44.39789" lon="6.06231">
        <ele>944.79998779297</ele>
        <time>2021-07-06T11:00:01.000Z</time>
      </trkpt>
      <trkpt lat="44.39784" lon="6.06228">
        <ele>944.59997558594</ele>
        <time>2021-07-06T11:00:02.000Z</time>
      </trkpt>
      <trkpt lat="44.39766" lon="6.06218">
        <ele>943.59997558594</ele>
        <time>2021-07-06T11:00:06.000Z</time>
      </trkpt>
      <trkpt lat="44.39762" lon="6.06216">
        <ele>943.59997558594</ele>
        <time>2021-07-06T11:00:07.000Z</time>
      </trkpt>
      <trkpt lat="44.39749" lon="6.06206">
        <ele>943.40002441406</ele>
        <time>2021-07-06T11:00:10.000Z</time>
      </trkpt>
      <trkpt lat="44.39739" lon="6.06198">
        <ele>943.20001220703</ele>
        <time>2021-07-06T11:00:12.000Z</time>
      </trkpt>
      <trkpt lat="44.39725" lon="6.06187">
        <ele>943</ele>
        <time>2021-07-06T11:00:14.000Z</time>
      </trkpt>
      <trkpt lat="44.39714" lon="6.06176">
        <ele>943</ele>
        <time>2021-07-06T11:00:16.000Z</time>
      </trkpt>
      <trkpt lat="44.39706" lon="6.06165">
        <ele>942.59997558594</ele>
        <time>2021-07-06T11:00:18.000Z</time>
      </trkpt>
      <trkpt lat="44.39704" lon="6.06163">
        <ele>942.20001220703</ele>
        <time>2021-07-06T11:00:19.000Z</time>
      </trkpt>
      <trkpt lat="44.39702" lon="6.06159">
        <ele>941.59997558594</ele>
        <time>2021-07-06T11:00:20.000Z</time>
      </trkpt>
      <trkpt lat="44.39702" lon="6.06156">
        <ele>941.20001220703</ele>
        <time>2021-07-06T11:00:21.000Z</time>
      </trkpt>
      <trkpt lat="44.39701" lon="6.06154">
        <ele>940.59997558594</ele>
        <time>2021-07-06T11:00:22.000Z</time>
      </trkpt>
      <trkpt lat="44.39697" lon="6.06147">
        <ele>940</ele>
        <time>2021-07-06T11:00:24.000Z</time>
      </trkpt>
      <trkpt lat="44.39693" lon="6.06141">
        <ele>939.20001220703</ele>
        <time>2021-07-06T11:00:26.000Z</time>
      </trkpt>
      <trkpt lat="44.3969" lon="6.06131">
        <ele>938</ele>
        <time>2021-07-06T11:00:29.000Z</time>
      </trkpt>
      <trkpt lat="44.39691" lon="6.06124">
        <ele>938</ele>
        <time>2021-07-06T11:00:31.000Z</time>
      </trkpt>
      <trkpt lat="44.39693" lon="6.06106">
        <ele>937.59997558594</ele>
        <time>2021-07-06T11:00:35.000Z</time>
      </trkpt>
      <trkpt lat="44.39691" lon="6.06098">
        <ele>937.40002441406</ele>
        <time>2021-07-06T11:00:37.000Z</time>
      </trkpt>
      <trkpt lat="44.39688" lon="6.06096">
        <ele>937.20001220703</ele>
        <time>2021-07-06T11:00:38.000Z</time>
      </trkpt>
      <trkpt lat="44.39682" lon="6.06089">
        <ele>936.79998779297</ele>
        <time>2021-07-06T11:00:40.000Z</time>
      </trkpt>
      <trkpt lat="44.39676" lon="6.0608">
        <ele>936.40002441406</ele>
        <time>2021-07-06T11:00:42.000Z</time>
      </trkpt>
      <trkpt lat="44.39673" lon="6.06076">
        <ele>936.20001220703</ele>
        <time>2021-07-06T11:00:43.000Z</time>
      </trkpt>
      <trkpt lat="44.39657" lon="6.06057">
        <ele>935.59997558594</ele>
        <time>2021-07-06T11:00:47.000Z</time>
      </trkpt>
      <trkpt lat="44.39653" lon="6.06053">
        <ele>935.59997558594</ele>
        <time>2021-07-06T11:00:48.000Z</time>
      </trkpt>
      <trkpt lat="44.39639" lon="6.0604">
        <ele>935.20001220703</ele>
        <time>2021-07-06T11:00:51.000Z</time>
      </trkpt>
      <trkpt lat="44.39634" lon="6.06035">
        <ele>935</ele>
        <time>2021-07-06T11:00:52.000Z</time>
      </trkpt>
      <trkpt lat="44.39624" lon="6.06024">
        <ele>934.40002441406</ele>
        <time>2021-07-06T11:00:54.000Z</time>
      </trkpt>
      <trkpt lat="44.39616" lon="6.06012">
        <ele>933.40002441406</ele>
        <time>2021-07-06T11:00:56.000Z</time>
      </trkpt>
      <trkpt lat="44.39612" lon="6.06007">
        <ele>933.20001220703</ele>
        <time>2021-07-06T11:00:57.000Z</time>
      </trkpt>
      <trkpt lat="44.39607" lon="6.06002">
        <ele>933</ele>
        <time>2021-07-06T11:00:58.000Z</time>
      </trkpt>
      <trkpt lat="44.39595" lon="6.05995">
        <ele>932.59997558594</ele>
        <time>2021-07-06T11:01:00.000Z</time>
      </trkpt>
      <trkpt lat="44.39584" lon="6.05994">
        <ele>932.20001220703</ele>
        <time>2021-07-06T11:01:02.000Z</time>
      </trkpt>
      <trkpt lat="44.39578" lon="6.05994">
        <ele>932</ele>
        <time>2021-07-06T11:01:03.000Z</time>
      </trkpt>
      <trkpt lat="44.39567" lon="6.05995">
        <ele>931.79998779297</ele>
        <time>2021-07-06T11:01:05.000Z</time>
      </trkpt>
      <trkpt lat="44.39551" lon="6.05987">
        <ele>931.40002441406</ele>
        <time>2021-07-06T11:01:08.000Z</time>
      </trkpt>
      <trkpt lat="44.39537" lon="6.05966">
        <ele>931.20001220703</ele>
        <time>2021-07-06T11:01:12.000Z</time>
      </trkpt>
      <trkpt lat="44.39536" lon="6.05961">
        <ele>931.20001220703</ele>
        <time>2021-07-06T11:01:13.000Z</time>
      </trkpt>
      <trkpt lat="44.39536" lon="6.0595">
        <ele>930.20001220703</ele>
        <time>2021-07-06T11:01:16.000Z</time>
      </trkpt>
      <trkpt lat="44.39534" lon="6.05936">
        <ele>928.79998779297</ele>
        <time>2021-07-06T11:01:20.000Z</time>
      </trkpt>
      <trkpt lat="44.39534" lon="6.05928">
        <ele>928</ele>
        <time>2021-07-06T11:01:22.000Z</time>
      </trkpt>
      <trkpt lat="44.39534" lon="6.05925">
        <ele>927.59997558594</ele>
        <time>2021-07-06T11:01:23.000Z</time>
      </trkpt>
      <trkpt lat="44.3953" lon="6.05905">
        <ele>927</ele>
        <time>2021-07-06T11:01:27.000Z</time>
      </trkpt>
      <trkpt lat="44.39523" lon="6.05895">
        <ele>926.59997558594</ele>
        <time>2021-07-06T11:01:30.000Z</time>
      </trkpt>
      <trkpt lat="44.39522" lon="6.05887">
        <ele>926.40002441406</ele>
        <time>2021-07-06T11:01:32.000Z</time>
      </trkpt>
      <trkpt lat="44.39514" lon="6.05872">
        <ele>925.40002441406</ele>
        <time>2021-07-06T11:01:35.000Z</time>
      </trkpt>
      <trkpt lat="44.3951" lon="6.05867">
        <ele>925.20001220703</ele>
        <time>2021-07-06T11:01:36.000Z</time>
      </trkpt>
      <trkpt lat="44.39482" lon="6.05841">
        <ele>924.79998779297</ele>
        <time>2021-07-06T11:01:41.000Z</time>
      </trkpt>
      <trkpt lat="44.39463" lon="6.05822">
        <ele>924.59997558594</ele>
        <time>2021-07-06T11:01:44.000Z</time>
      </trkpt>
      <trkpt lat="44.39456" lon="6.05817">
        <ele>924.40002441406</ele>
        <time>2021-07-06T11:01:45.000Z</time>
      </trkpt>
      <trkpt lat="44.39449" lon="6.05813">
        <ele>924</ele>
        <time>2021-07-06T11:01:46.000Z</time>
      </trkpt>
      <trkpt lat="44.39435" lon="6.05812">
        <ele>923.59997558594</ele>
        <time>2021-07-06T11:01:48.000Z</time>
      </trkpt>
      <trkpt lat="44.39423" lon="6.05808">
        <ele>923.20001220703</ele>
        <time>2021-07-06T11:01:50.000Z</time>
      </trkpt>
      <trkpt lat="44.39417" lon="6.05805">
        <ele>922.79998779297</ele>
        <time>2021-07-06T11:01:51.000Z</time>
      </trkpt>
      <trkpt lat="44.39412" lon="6.05801">
        <ele>922</ele>
        <time>2021-07-06T11:01:52.000Z</time>
      </trkpt>
      <trkpt lat="44.39406" lon="6.05796">
        <ele>921.59997558594</ele>
        <time>2021-07-06T11:01:53.000Z</time>
      </trkpt>
      <trkpt lat="44.39401" lon="6.05792">
        <ele>921.20001220703</ele>
        <time>2021-07-06T11:01:54.000Z</time>
      </trkpt>
      <trkpt lat="44.39395" lon="6.05788">
        <ele>921</ele>
        <time>2021-07-06T11:01:55.000Z</time>
      </trkpt>
      <trkpt lat="44.39384" lon="6.05785">
        <ele>920.59997558594</ele>
        <time>2021-07-06T11:01:57.000Z</time>
      </trkpt>
      <trkpt lat="44.39377" lon="6.05782">
        <ele>920.59997558594</ele>
        <time>2021-07-06T11:01:58.000Z</time>
      </trkpt>
      <trkpt lat="44.3937" lon="6.0578">
        <ele>920.40002441406</ele>
        <time>2021-07-06T11:01:59.000Z</time>
      </trkpt>
      <trkpt lat="44.39356" lon="6.05775">
        <ele>920.40002441406</ele>
        <time>2021-07-06T11:02:01.000Z</time>
      </trkpt>
      <trkpt lat="44.39328" lon="6.05767">
        <ele>919.40002441406</ele>
        <time>2021-07-06T11:02:05.000Z</time>
      </trkpt>
      <trkpt lat="44.39315" lon="6.05762">
        <ele>919</ele>
        <time>2021-07-06T11:02:07.000Z</time>
      </trkpt>
      <trkpt lat="44.39294" lon="6.05754">
        <ele>918.40002441406</ele>
        <time>2021-07-06T11:02:10.000Z</time>
      </trkpt>
      <trkpt lat="44.3928" lon="6.0575">
        <ele>918</ele>
        <time>2021-07-06T11:02:12.000Z</time>
      </trkpt>
      <trkpt lat="44.39259" lon="6.05742">
        <ele>917.20001220703</ele>
        <time>2021-07-06T11:02:15.000Z</time>
      </trkpt>
      <trkpt lat="44.39252" lon="6.05741">
        <ele>916.79998779297</ele>
        <time>2021-07-06T11:02:16.000Z</time>
      </trkpt>
      <trkpt lat="44.39246" lon="6.0574">
        <ele>916.40002441406</ele>
        <time>2021-07-06T11:02:17.000Z</time>
      </trkpt>
      <trkpt lat="44.3924" lon="6.0574">
        <ele>916</ele>
        <time>2021-07-06T11:02:18.000Z</time>
      </trkpt>
      <trkpt lat="44.39229" lon="6.0574">
        <ele>914.79998779297</ele>
        <time>2021-07-06T11:02:21.000Z</time>
      </trkpt>
      <trkpt lat="44.39213" lon="6.05737">
        <ele>913.59997558594</ele>
        <time>2021-07-06T11:02:25.000Z</time>
      </trkpt>
      <trkpt lat="44.39209" lon="6.05736">
        <ele>913.20001220703</ele>
        <time>2021-07-06T11:02:26.000Z</time>
      </trkpt>
      <trkpt lat="44.39204" lon="6.05737">
        <ele>913</ele>
        <time>2021-07-06T11:02:27.000Z</time>
      </trkpt>
      <trkpt lat="44.39198" lon="6.05738">
        <ele>912.40002441406</ele>
        <time>2021-07-06T11:02:28.000Z</time>
      </trkpt>
      <trkpt lat="44.39182" lon="6.05743">
        <ele>911.79998779297</ele>
        <time>2021-07-06T11:02:31.000Z</time>
      </trkpt>
      <trkpt lat="44.39172" lon="6.05746">
        <ele>911.40002441406</ele>
        <time>2021-07-06T11:02:35.000Z</time>
      </trkpt>
      <trkpt lat="44.39169" lon="6.05746">
        <ele>911.40002441406</ele>
        <time>2021-07-06T11:02:36.000Z</time>
      </trkpt>
      <trkpt lat="44.39158" lon="6.05745">
        <ele>910.59997558594</ele>
        <time>2021-07-06T11:02:41.000Z</time>
      </trkpt>
      <trkpt lat="44.3915" lon="6.05743">
        <ele>910.40002441406</ele>
        <time>2021-07-06T11:02:43.000Z</time>
      </trkpt>
      <trkpt lat="44.39144" lon="6.05737">
        <ele>910</ele>
        <time>2021-07-06T11:02:45.000Z</time>
      </trkpt>
      <trkpt lat="44.39136" lon="6.05727">
        <ele>909.79998779297</ele>
        <time>2021-07-06T11:02:49.000Z</time>
      </trkpt>
      <trkpt lat="44.39133" lon="6.05727">
        <ele>909.79998779297</ele>
        <time>2021-07-06T11:02:52.000Z</time>
      </trkpt>
      <trkpt lat="44.3913" lon="6.05729">
        <ele>909.79998779297</ele>
        <time>2021-07-06T11:02:54.000Z</time>
      </trkpt>
      <trkpt lat="44.39122" lon="6.05727">
        <ele>910</ele>
        <time>2021-07-06T11:02:57.000Z</time>
      </trkpt>
      <trkpt lat="44.39118" lon="6.05728">
        <ele>910.40002441406</ele>
        <time>2021-07-06T11:02:59.000Z</time>
      </trkpt>
      <trkpt lat="44.39101" lon="6.05729">
        <ele>911</ele>
        <time>2021-07-06T11:03:06.000Z</time>
      </trkpt>
      <trkpt lat="44.39099" lon="6.05728">
        <ele>911.59997558594</ele>
        <time>2021-07-06T11:03:09.000Z</time>
      </trkpt>
      <trkpt lat="44.39099" lon="6.05728">
        <ele>912</ele>
        <time>2021-07-06T11:03:10.000Z</time>
      </trkpt>
      <trkpt lat="44.39098" lon="6.05728">
        <ele>912.59997558594</ele>
        <time>2021-07-06T11:03:12.000Z</time>
      </trkpt>
      <trkpt lat="44.39098" lon="6.05728">
        <ele>913.79998779297</ele>
        <time>2021-07-06T11:03:14.000Z</time>
      </trkpt>
      <trkpt lat="44.39098" lon="6.05728">
        <ele>914.40002441406</ele>
        <time>2021-07-06T11:03:27.000Z</time>
      </trkpt>
      <trkpt lat="44.39099" lon="6.05726">
        <ele>914.40002441406</ele>
        <time>2021-07-06T11:03:39.000Z</time>
      </trkpt>
      <trkpt lat="44.39102" lon="6.05726">
        <ele>914.40002441406</ele>
        <time>2021-07-06T11:03:41.000Z</time>
      </trkpt>
      <trkpt lat="44.39108" lon="6.05721">
        <ele>914.59997558594</ele>
        <time>2021-07-06T11:03:47.000Z</time>
      </trkpt>
      <trkpt lat="44.39118" lon="6.05716">
        <ele>915.40002441406</ele>
        <time>2021-07-06T11:03:55.000Z</time>
      </trkpt>
      <trkpt lat="44.39122" lon="6.05714">
        <ele>916</ele>
        <time>2021-07-06T11:03:58.000Z</time>
      </trkpt>
      <trkpt lat="44.39127" lon="6.05712">
        <ele>916.59997558594</ele>
        <time>2021-07-06T11:04:01.000Z</time>
      </trkpt>
      <trkpt lat="44.39133" lon="6.05705">
        <ele>917.59997558594</ele>
        <time>2021-07-06T11:04:05.000Z</time>
      </trkpt>
      <trkpt lat="44.39134" lon="6.05703">
        <ele>917.79998779297</ele>
        <time>2021-07-06T11:04:06.000Z</time>
      </trkpt>
      <trkpt lat="44.39138" lon="6.05694">
        <ele>919</ele>
        <time>2021-07-06T11:04:10.000Z</time>
      </trkpt>
      <trkpt lat="44.39142" lon="6.05686">
        <ele>920</ele>
        <time>2021-07-06T11:04:14.000Z</time>
      </trkpt>
      <trkpt lat="44.39151" lon="6.05672">
        <ele>921.20001220703</ele>
        <time>2021-07-06T11:04:21.000Z</time>
      </trkpt>
      <trkpt lat="44.39153" lon="6.0567">
        <ele>921.40002441406</ele>
        <time>2021-07-06T11:04:23.000Z</time>
      </trkpt>
      <trkpt lat="44.39157" lon="6.05666">
        <ele>922.40002441406</ele>
        <time>2021-07-06T11:04:27.000Z</time>
      </trkpt>
      <trkpt lat="44.39161" lon="6.05663">
        <ele>923</ele>
        <time>2021-07-06T11:04:30.000Z</time>
      </trkpt>
      <trkpt lat="44.39163" lon="6.05662">
        <ele>923.40002441406</ele>
        <time>2021-07-06T11:04:32.000Z</time>
      </trkpt>
      <trkpt lat="44.39171" lon="6.05656">
        <ele>924.59997558594</ele>
        <time>2021-07-06T11:04:39.000Z</time>
      </trkpt>
      <trkpt lat="44.39174" lon="6.05652">
        <ele>924.59997558594</ele>
        <time>2021-07-06T11:04:41.000Z</time>
      </trkpt>
      <trkpt lat="44.39183" lon="6.0564">
        <ele>925.40002441406</ele>
        <time>2021-07-06T11:04:48.000Z</time>
      </trkpt>
      <trkpt lat="44.39184" lon="6.05635">
        <ele>925.79998779297</ele>
        <time>2021-07-06T11:04:50.000Z</time>
      </trkpt>
      <trkpt lat="44.39188" lon="6.05623">
        <ele>926.59997558594</ele>
        <time>2021-07-06T11:04:56.000Z</time>
      </trkpt>
      <trkpt lat="44.39188" lon="6.05617">
        <ele>926.79998779297</ele>
        <time>2021-07-06T11:04:59.000Z</time>
      </trkpt>
      <trkpt lat="44.39189" lon="6.05607">
        <ele>927.40002441406</ele>
        <time>2021-07-06T11:05:04.000Z</time>
      </trkpt>
      <trkpt lat="44.3919" lon="6.05601">
        <ele>928.59997558594</ele>
        <time>2021-07-06T11:05:07.000Z</time>
      </trkpt>
      <trkpt lat="44.39192" lon="6.0559">
        <ele>929.59997558594</ele>
        <time>2021-07-06T11:05:12.000Z</time>
      </trkpt>
      <trkpt lat="44.39192" lon="6.05589">
        <ele>929.79998779297</ele>
        <time>2021-07-06T11:05:13.000Z</time>
      </trkpt>
      <trkpt lat="44.39199" lon="6.05576">
        <ele>930.79998779297</ele>
        <time>2021-07-06T11:05:21.000Z</time>
      </trkpt>
      <trkpt lat="44.39207" lon="6.05568">
        <ele>932</ele>
        <time>2021-07-06T11:05:28.000Z</time>
      </trkpt>
      <trkpt lat="44.39207" lon="6.05567">
        <ele>932</ele>
        <time>2021-07-06T11:05:29.000Z</time>
      </trkpt>
      <trkpt lat="44.39213" lon="6.05562">
        <ele>933</ele>
        <time>2021-07-06T11:05:35.000Z</time>
      </trkpt>
      <trkpt lat="44.39215" lon="6.0556">
        <ele>933.20001220703</ele>
        <time>2021-07-06T11:05:37.000Z</time>
      </trkpt>
      <trkpt lat="44.39221" lon="6.05554">
        <ele>934.20001220703</ele>
        <time>2021-07-06T11:05:42.000Z</time>
      </trkpt>
      <trkpt lat="44.39225" lon="6.05548">
        <ele>934.59997558594</ele>
        <time>2021-07-06T11:05:46.000Z</time>
      </trkpt>
      <trkpt lat="44.3923" lon="6.05543">
        <ele>935.20001220703</ele>
        <time>2021-07-06T11:05:50.000Z</time>
      </trkpt>
      <trkpt lat="44.39238" lon="6.05534">
        <ele>936</ele>
        <time>2021-07-06T11:05:56.000Z</time>
      </trkpt>
      <trkpt lat="44.39239" lon="6.05532">
        <ele>936.20001220703</ele>
        <time>2021-07-06T11:05:57.000Z</time>
      </trkpt>
      <trkpt lat="44.39245" lon="6.05521">
        <ele>937.20001220703</ele>
        <time>2021-07-06T11:06:03.000Z</time>
      </trkpt>
      <trkpt lat="44.39247" lon="6.05518">
        <ele>937.59997558594</ele>
        <time>2021-07-06T11:06:05.000Z</time>
      </trkpt>
      <trkpt lat="44.39255" lon="6.05509">
        <ele>938.20001220703</ele>
        <time>2021-07-06T11:06:11.000Z</time>
      </trkpt>
      <trkpt lat="44.39257" lon="6.05508">
        <ele>938.40002441406</ele>
        <time>2021-07-06T11:06:12.000Z</time>
      </trkpt>
      <trkpt lat="44.39259" lon="6.05501">
        <ele>939.40002441406</ele>
        <time>2021-07-06T11:06:17.000Z</time>
      </trkpt>
      <trkpt lat="44.39262" lon="6.05497">
        <ele>940</ele>
        <time>2021-07-06T11:06:25.000Z</time>
      </trkpt>
      <trkpt lat="44.39263" lon="6.05494">
        <ele>940.20001220703</ele>
        <time>2021-07-06T11:06:31.000Z</time>
      </trkpt>
      <trkpt lat="44.39268" lon="6.05481">
        <ele>940.20001220703</ele>
        <time>2021-07-06T11:06:39.000Z</time>
      </trkpt>
      <trkpt lat="44.39278" lon="6.05454">
        <ele>940.20001220703</ele>
        <time>2021-07-06T11:06:45.000Z</time>
      </trkpt>
      <trkpt lat="44.39281" lon="6.05424">
        <ele>939.59997558594</ele>
        <time>2021-07-06T11:06:50.000Z</time>
      </trkpt>
      <trkpt lat="44.3929" lon="6.05407">
        <ele>938.40002441406</ele>
        <time>2021-07-06T11:06:54.000Z</time>
      </trkpt>
      <trkpt lat="44.39293" lon="6.05403">
        <ele>938.20001220703</ele>
        <time>2021-07-06T11:06:55.000Z</time>
      </trkpt>
      <trkpt lat="44.393" lon="6.05388">
        <ele>938</ele>
        <time>2021-07-06T11:07:01.000Z</time>
      </trkpt>
      <trkpt lat="44.39307" lon="6.05378">
        <ele>938</ele>
        <time>2021-07-06T11:07:05.000Z</time>
      </trkpt>
      <trkpt lat="44.39312" lon="6.05364">
        <ele>938.40002441406</ele>
        <time>2021-07-06T11:07:10.000Z</time>
      </trkpt>
      <trkpt lat="44.39315" lon="6.05345">
        <ele>939.59997558594</ele>
        <time>2021-07-06T11:07:16.000Z</time>
      </trkpt>
      <trkpt lat="44.39317" lon="6.05338">
        <ele>940.59997558594</ele>
        <time>2021-07-06T11:07:18.000Z</time>
      </trkpt>
      <trkpt lat="44.39317" lon="6.05335">
        <ele>941</ele>
        <time>2021-07-06T11:07:19.000Z</time>
      </trkpt>
      <trkpt lat="44.3932" lon="6.05323">
        <ele>942.20001220703</ele>
        <time>2021-07-06T11:07:23.000Z</time>
      </trkpt>
      <trkpt lat="44.39322" lon="6.05318">
        <ele>942.40002441406</ele>
        <time>2021-07-06T11:07:25.000Z</time>
      </trkpt>
      <trkpt lat="44.39331" lon="6.05306">
        <ele>942.40002441406</ele>
        <time>2021-07-06T11:07:31.000Z</time>
      </trkpt>
      <trkpt lat="44.3934" lon="6.05293">
        <ele>942.59997558594</ele>
        <time>2021-07-06T11:07:38.000Z</time>
      </trkpt>
      <trkpt lat="44.39342" lon="6.05284">
        <ele>943.20001220703</ele>
        <time>2021-07-06T11:07:41.000Z</time>
      </trkpt>
      <trkpt lat="44.39345" lon="6.05272">
        <ele>943.59997558594</ele>
        <time>2021-07-06T11:07:45.000Z</time>
      </trkpt>
      <trkpt lat="44.39352" lon="6.05254">
        <ele>944.40002441406</ele>
        <time>2021-07-06T11:07:52.000Z</time>
      </trkpt>
      <trkpt lat="44.39359" lon="6.05232">
        <ele>945.20001220703</ele>
        <time>2021-07-06T11:08:00.000Z</time>
      </trkpt>
      <trkpt lat="44.3936" lon="6.05227">
        <ele>945.40002441406</ele>
        <time>2021-07-06T11:08:02.000Z</time>
      </trkpt>
      <trkpt lat="44.39363" lon="6.05213">
        <ele>946.20001220703</ele>
        <time>2021-07-06T11:08:07.000Z</time>
      </trkpt>
      <trkpt lat="44.39364" lon="6.05205">
        <ele>946.40002441406</ele>
        <time>2021-07-06T11:08:10.000Z</time>
      </trkpt>
      <trkpt lat="44.39368" lon="6.05191">
        <ele>947.20001220703</ele>
        <time>2021-07-06T11:08:15.000Z</time>
      </trkpt>
      <trkpt lat="44.39369" lon="6.05186">
        <ele>947.59997558594</ele>
        <time>2021-07-06T11:08:17.000Z</time>
      </trkpt>
      <trkpt lat="44.39373" lon="6.05172">
        <ele>948.79998779297</ele>
        <time>2021-07-06T11:08:23.000Z</time>
      </trkpt>
      <trkpt lat="44.39377" lon="6.0516">
        <ele>950</ele>
        <time>2021-07-06T11:08:28.000Z</time>
      </trkpt>
      <trkpt lat="44.3938" lon="6.05152">
        <ele>950.59997558594</ele>
        <time>2021-07-06T11:08:31.000Z</time>
      </trkpt>
      <trkpt lat="44.39382" lon="6.05147">
        <ele>951</ele>
        <time>2021-07-06T11:08:33.000Z</time>
      </trkpt>
      <trkpt lat="44.39386" lon="6.05135">
        <ele>952</ele>
        <time>2021-07-06T11:08:38.000Z</time>
      </trkpt>
      <trkpt lat="44.39387" lon="6.05133">
        <ele>952</ele>
        <time>2021-07-06T11:08:39.000Z</time>
      </trkpt>
      <trkpt lat="44.39391" lon="6.05121">
        <ele>953.20001220703</ele>
        <time>2021-07-06T11:08:44.000Z</time>
      </trkpt>
      <trkpt lat="44.39392" lon="6.05119">
        <ele>953.59997558594</ele>
        <time>2021-07-06T11:08:45.000Z</time>
      </trkpt>
      <trkpt lat="44.39395" lon="6.0511">
        <ele>954.20001220703</ele>
        <time>2021-07-06T11:08:48.000Z</time>
      </trkpt>
      <trkpt lat="44.39396" lon="6.05105">
        <ele>954.79998779297</ele>
        <time>2021-07-06T11:08:50.000Z</time>
      </trkpt>
      <trkpt lat="44.39395" lon="6.051">
        <ele>955.20001220703</ele>
        <time>2021-07-06T11:08:52.000Z</time>
      </trkpt>
      <trkpt lat="44.39395" lon="6.05097">
        <ele>955.40002441406</ele>
        <time>2021-07-06T11:08:53.000Z</time>
      </trkpt>
      <trkpt lat="44.39393" lon="6.05082">
        <ele>956.40002441406</ele>
        <time>2021-07-06T11:08:58.000Z</time>
      </trkpt>
      <trkpt lat="44.39393" lon="6.05079">
        <ele>956.40002441406</ele>
        <time>2021-07-06T11:08:59.000Z</time>
      </trkpt>
      <trkpt lat="44.39394" lon="6.0506">
        <ele>957.59997558594</ele>
        <time>2021-07-06T11:09:06.000Z</time>
      </trkpt>
      <trkpt lat="44.39393" lon="6.05044">
        <ele>958</ele>
        <time>2021-07-06T11:09:13.000Z</time>
      </trkpt>
      <trkpt lat="44.39393" lon="6.0503">
        <ele>958.59997558594</ele>
        <time>2021-07-06T11:09:18.000Z</time>
      </trkpt>
      <trkpt lat="44.39394" lon="6.05025">
        <ele>958.79998779297</ele>
        <time>2021-07-06T11:09:20.000Z</time>
      </trkpt>
      <trkpt lat="44.39396" lon="6.05016">
        <ele>959.79998779297</ele>
        <time>2021-07-06T11:09:24.000Z</time>
      </trkpt>
      <trkpt lat="44.39398" lon="6.05008">
        <ele>960.59997558594</ele>
        <time>2021-07-06T11:09:27.000Z</time>
      </trkpt>
      <trkpt lat="44.39398" lon="6.05005">
        <ele>960.79998779297</ele>
        <time>2021-07-06T11:09:28.000Z</time>
      </trkpt>
      <trkpt lat="44.39402" lon="6.04997">
        <ele>961.79998779297</ele>
        <time>2021-07-06T11:09:32.000Z</time>
      </trkpt>
      <trkpt lat="44.39405" lon="6.04991">
        <ele>962.59997558594</ele>
        <time>2021-07-06T11:09:35.000Z</time>
      </trkpt>
      <trkpt lat="44.39407" lon="6.04988">
        <ele>963</ele>
        <time>2021-07-06T11:09:37.000Z</time>
      </trkpt>
      <trkpt lat="44.39411" lon="6.04982">
        <ele>964</ele>
        <time>2021-07-06T11:09:41.000Z</time>
      </trkpt>
      <trkpt lat="44.39412" lon="6.04981">
        <ele>964.20001220703</ele>
        <time>2021-07-06T11:09:42.000Z</time>
      </trkpt>
      <trkpt lat="44.39418" lon="6.04976">
        <ele>965.40002441406</ele>
        <time>2021-07-06T11:09:47.000Z</time>
      </trkpt>
      <trkpt lat="44.39421" lon="6.04975">
        <ele>965.79998779297</ele>
        <time>2021-07-06T11:09:49.000Z</time>
      </trkpt>
      <trkpt lat="44.39427" lon="6.04971">
        <ele>966.59997558594</ele>
        <time>2021-07-06T11:09:53.000Z</time>
      </trkpt>
      <trkpt lat="44.39432" lon="6.04968">
        <ele>967.20001220703</ele>
        <time>2021-07-06T11:09:56.000Z</time>
      </trkpt>
      <trkpt lat="44.39435" lon="6.04966">
        <ele>967.59997558594</ele>
        <time>2021-07-06T11:09:58.000Z</time>
      </trkpt>
      <trkpt lat="44.39436" lon="6.04965">
        <ele>967.79998779297</ele>
        <time>2021-07-06T11:09:59.000Z</time>
      </trkpt>
      <trkpt lat="44.39441" lon="6.04964">
        <ele>968.40002441406</ele>
        <time>2021-07-06T11:10:02.000Z</time>
      </trkpt>
      <trkpt lat="44.39446" lon="6.0496">
        <ele>969</ele>
        <time>2021-07-06T11:10:06.000Z</time>
      </trkpt>
      <trkpt lat="44.39449" lon="6.04956">
        <ele>969.40002441406</ele>
        <time>2021-07-06T11:10:08.000Z</time>
      </trkpt>
      <trkpt lat="44.39458" lon="6.04947">
        <ele>970</ele>
        <time>2021-07-06T11:10:14.000Z</time>
      </trkpt>
      <trkpt lat="44.39467" lon="6.04936">
        <ele>971</ele>
        <time>2021-07-06T11:10:20.000Z</time>
      </trkpt>
      <trkpt lat="44.39468" lon="6.04934">
        <ele>971.20001220703</ele>
        <time>2021-07-06T11:10:21.000Z</time>
      </trkpt>
      <trkpt lat="44.39471" lon="6.04919">
        <ele>972.40002441406</ele>
        <time>2021-07-06T11:10:27.000Z</time>
      </trkpt>
      <trkpt lat="44.39476" lon="6.04901">
        <ele>973.20001220703</ele>
        <time>2021-07-06T11:10:34.000Z</time>
      </trkpt>
      <trkpt lat="44.39478" lon="6.04897">
        <ele>973.40002441406</ele>
        <time>2021-07-06T11:10:36.000Z</time>
      </trkpt>
      <trkpt lat="44.3948" lon="6.04896">
        <ele>973.59997558594</ele>
        <time>2021-07-06T11:10:37.000Z</time>
      </trkpt>
      <trkpt lat="44.39485" lon="6.04895">
        <ele>974.20001220703</ele>
        <time>2021-07-06T11:10:40.000Z</time>
      </trkpt>
      <trkpt lat="44.39487" lon="6.04894">
        <ele>974.40002441406</ele>
        <time>2021-07-06T11:10:42.000Z</time>
      </trkpt>
      <trkpt lat="44.39492" lon="6.04893">
        <ele>974.79998779297</ele>
        <time>2021-07-06T11:10:46.000Z</time>
      </trkpt>
      <trkpt lat="44.39494" lon="6.04892">
        <ele>974.79998779297</ele>
        <time>2021-07-06T11:10:47.000Z</time>
      </trkpt>
      <trkpt lat="44.395" lon="6.0489">
        <ele>975.59997558594</ele>
        <time>2021-07-06T11:10:51.000Z</time>
      </trkpt>
      <trkpt lat="44.39504" lon="6.04889">
        <ele>976.59997558594</ele>
        <time>2021-07-06T11:10:55.000Z</time>
      </trkpt>
      <trkpt lat="44.39509" lon="6.04886">
        <ele>977.79998779297</ele>
        <time>2021-07-06T11:10:59.000Z</time>
      </trkpt>
      <trkpt lat="44.39514" lon="6.0488">
        <ele>979</ele>
        <time>2021-07-06T11:11:03.000Z</time>
      </trkpt>
      <trkpt lat="44.39517" lon="6.04874">
        <ele>980</ele>
        <time>2021-07-06T11:11:06.000Z</time>
      </trkpt>
      <trkpt lat="44.39519" lon="6.0487">
        <ele>981.20001220703</ele>
        <time>2021-07-06T11:11:08.000Z</time>
      </trkpt>
      <trkpt lat="44.3952" lon="6.04864">
        <ele>982.20001220703</ele>
        <time>2021-07-06T11:11:11.000Z</time>
      </trkpt>
      <trkpt lat="44.3952" lon="6.04862">
        <ele>982.40002441406</ele>
        <time>2021-07-06T11:11:12.000Z</time>
      </trkpt>
      <trkpt lat="44.39524" lon="6.04853">
        <ele>983.40002441406</ele>
        <time>2021-07-06T11:11:16.000Z</time>
      </trkpt>
      <trkpt lat="44.39528" lon="6.04844">
        <ele>984.20001220703</ele>
        <time>2021-07-06T11:11:20.000Z</time>
      </trkpt>
      <trkpt lat="44.3953" lon="6.04839">
        <ele>984.59997558594</ele>
        <time>2021-07-06T11:11:23.000Z</time>
      </trkpt>
      <trkpt lat="44.39534" lon="6.04833">
        <ele>985.20001220703</ele>
        <time>2021-07-06T11:11:27.000Z</time>
      </trkpt>
      <trkpt lat="44.39539" lon="6.04828">
        <ele>985.79998779297</ele>
        <time>2021-07-06T11:11:31.000Z</time>
      </trkpt>
      <trkpt lat="44.39542" lon="6.04825">
        <ele>986.40002441406</ele>
        <time>2021-07-06T11:11:34.000Z</time>
      </trkpt>
      <trkpt lat="44.39543" lon="6.04823">
        <ele>986.79998779297</ele>
        <time>2021-07-06T11:11:35.000Z</time>
      </trkpt>
      <trkpt lat="44.39547" lon="6.04821">
        <ele>988</ele>
        <time>2021-07-06T11:11:38.000Z</time>
      </trkpt>
      <trkpt lat="44.39551" lon="6.04817">
        <ele>989.20001220703</ele>
        <time>2021-07-06T11:11:41.000Z</time>
      </trkpt>
      <trkpt lat="44.39554" lon="6.04815">
        <ele>990.40002441406</ele>
        <time>2021-07-06T11:11:44.000Z</time>
      </trkpt>
      <trkpt lat="44.3956" lon="6.04811">
        <ele>991.79998779297</ele>
        <time>2021-07-06T11:11:48.000Z</time>
      </trkpt>
      <trkpt lat="44.39561" lon="6.0481">
        <ele>992.40002441406</ele>
        <time>2021-07-06T11:11:49.000Z</time>
      </trkpt>
      <trkpt lat="44.39564" lon="6.04808">
        <ele>993</ele>
        <time>2021-07-06T11:11:51.000Z</time>
      </trkpt>
      <trkpt lat="44.39568" lon="6.04803">
        <ele>994</ele>
        <time>2021-07-06T11:11:54.000Z</time>
      </trkpt>
      <trkpt lat="44.39573" lon="6.048">
        <ele>995.20001220703</ele>
        <time>2021-07-06T11:11:58.000Z</time>
      </trkpt>
      <trkpt lat="44.39582" lon="6.04793">
        <ele>996.59997558594</ele>
        <time>2021-07-06T11:12:04.000Z</time>
      </trkpt>
      <trkpt lat="44.39585" lon="6.0479">
        <ele>997</ele>
        <time>2021-07-06T11:12:06.000Z</time>
      </trkpt>
      <trkpt lat="44.39587" lon="6.04788">
        <ele>997.59997558594</ele>
        <time>2021-07-06T11:12:08.000Z</time>
      </trkpt>
      <trkpt lat="44.39591" lon="6.04785">
        <ele>999</ele>
        <time>2021-07-06T11:12:11.000Z</time>
      </trkpt>
      <trkpt lat="44.39594" lon="6.04782">
        <ele>999.59997558594</ele>
        <time>2021-07-06T11:12:13.000Z</time>
      </trkpt>
      <trkpt lat="44.39596" lon="6.04778">
        <ele>1000.200012207</ele>
        <time>2021-07-06T11:12:15.000Z</time>
      </trkpt>
      <trkpt lat="44.39602" lon="6.04766">
        <ele>1001</ele>
        <time>2021-07-06T11:12:19.000Z</time>
      </trkpt>
      <trkpt lat="44.39602" lon="6.04762">
        <ele>1001.200012207</ele>
        <time>2021-07-06T11:12:20.000Z</time>
      </trkpt>
      <trkpt lat="44.39608" lon="6.04751">
        <ele>1001.799987793</ele>
        <time>2021-07-06T11:12:23.000Z</time>
      </trkpt>
      <trkpt lat="44.39612" lon="6.04747">
        <ele>1001.799987793</ele>
        <time>2021-07-06T11:12:24.000Z</time>
      </trkpt>
      <trkpt lat="44.39624" lon="6.04738">
        <ele>1001.799987793</ele>
        <time>2021-07-06T11:12:26.000Z</time>
      </trkpt>
      <trkpt lat="44.3963" lon="6.04732">
        <ele>1001.799987793</ele>
        <time>2021-07-06T11:12:27.000Z</time>
      </trkpt>
      <trkpt lat="44.39639" lon="6.0472">
        <ele>1001.799987793</ele>
        <time>2021-07-06T11:12:29.000Z</time>
      </trkpt>
      <trkpt lat="44.39644" lon="6.04708">
        <ele>1001.799987793</ele>
        <time>2021-07-06T11:12:32.000Z</time>
      </trkpt>
      <trkpt lat="44.39646" lon="6.04704">
        <ele>1001</ele>
        <time>2021-07-06T11:12:34.000Z</time>
      </trkpt>
      <trkpt lat="44.3965" lon="6.04697">
        <ele>1000.799987793</ele>
        <time>2021-07-06T11:12:38.000Z</time>
      </trkpt>
      <trkpt lat="44.39661" lon="6.04686">
        <ele>1001.5999755859</ele>
        <time>2021-07-06T11:12:46.000Z</time>
      </trkpt>
      <trkpt lat="44.39665" lon="6.04682">
        <ele>1002.4000244141</ele>
        <time>2021-07-06T11:12:49.000Z</time>
      </trkpt>
      <trkpt lat="44.39669" lon="6.0468">
        <ele>1002.799987793</ele>
        <time>2021-07-06T11:12:52.000Z</time>
      </trkpt>
      <trkpt lat="44.39673" lon="6.04676">
        <ele>1003.4000244141</ele>
        <time>2021-07-06T11:12:56.000Z</time>
      </trkpt>
      <trkpt lat="44.39675" lon="6.04673">
        <ele>1003.5999755859</ele>
        <time>2021-07-06T11:12:58.000Z</time>
      </trkpt>
      <trkpt lat="44.3968" lon="6.04665">
        <ele>1004.5999755859</ele>
        <time>2021-07-06T11:13:03.000Z</time>
      </trkpt>
      <trkpt lat="44.39683" lon="6.04663">
        <ele>1005.200012207</ele>
        <time>2021-07-06T11:13:05.000Z</time>
      </trkpt>
      <trkpt lat="44.39686" lon="6.04661">
        <ele>1005.799987793</ele>
        <time>2021-07-06T11:13:07.000Z</time>
      </trkpt>
      <trkpt lat="44.39687" lon="6.0466">
        <ele>1006</ele>
        <time>2021-07-06T11:13:08.000Z</time>
      </trkpt>
      <trkpt lat="44.3969" lon="6.04656">
        <ele>1006.799987793</ele>
        <time>2021-07-06T11:13:11.000Z</time>
      </trkpt>
      <trkpt lat="44.39693" lon="6.04654">
        <ele>1007.5999755859</ele>
        <time>2021-07-06T11:13:14.000Z</time>
      </trkpt>
      <trkpt lat="44.39696" lon="6.04653">
        <ele>1008.200012207</ele>
        <time>2021-07-06T11:13:16.000Z</time>
      </trkpt>
      <trkpt lat="44.39699" lon="6.04652">
        <ele>1008.799987793</ele>
        <time>2021-07-06T11:13:19.000Z</time>
      </trkpt>
      <trkpt lat="44.39702" lon="6.04651">
        <ele>1009.200012207</ele>
        <time>2021-07-06T11:13:21.000Z</time>
      </trkpt>
      <trkpt lat="44.39709" lon="6.0465">
        <ele>1010.4000244141</ele>
        <time>2021-07-06T11:13:25.000Z</time>
      </trkpt>
      <trkpt lat="44.3971" lon="6.04649">
        <ele>1010.5999755859</ele>
        <time>2021-07-06T11:13:26.000Z</time>
      </trkpt>
      <trkpt lat="44.39714" lon="6.04646">
        <ele>1011.200012207</ele>
        <time>2021-07-06T11:13:28.000Z</time>
      </trkpt>
      <trkpt lat="44.39716" lon="6.04643">
        <ele>1011.5999755859</ele>
        <time>2021-07-06T11:13:30.000Z</time>
      </trkpt>
      <trkpt lat="44.39718" lon="6.04641">
        <ele>1012</ele>
        <time>2021-07-06T11:13:32.000Z</time>
      </trkpt>
      <trkpt lat="44.39719" lon="6.0464">
        <ele>1012</ele>
        <time>2021-07-06T11:13:33.000Z</time>
      </trkpt>
      <trkpt lat="44.39722" lon="6.04639">
        <ele>1012.5999755859</ele>
        <time>2021-07-06T11:13:35.000Z</time>
      </trkpt>
      <trkpt lat="44.39725" lon="6.04638">
        <ele>1013</ele>
        <time>2021-07-06T11:13:37.000Z</time>
      </trkpt>
      <trkpt lat="44.39726" lon="6.04638">
        <ele>1013.4000244141</ele>
        <time>2021-07-06T11:13:38.000Z</time>
      </trkpt>
      <trkpt lat="44.39727" lon="6.04638">
        <ele>1013.5999755859</ele>
        <time>2021-07-06T11:13:39.000Z</time>
      </trkpt>
      <trkpt lat="44.39729" lon="6.04638">
        <ele>1013.799987793</ele>
        <time>2021-07-06T11:13:40.000Z</time>
      </trkpt>
      <trkpt lat="44.39735" lon="6.04636">
        <ele>1014.5999755859</ele>
        <time>2021-07-06T11:13:44.000Z</time>
      </trkpt>
      <trkpt lat="44.39736" lon="6.04635">
        <ele>1014.799987793</ele>
        <time>2021-07-06T11:13:45.000Z</time>
      </trkpt>
      <trkpt lat="44.39744" lon="6.04627">
        <ele>1015.799987793</ele>
        <time>2021-07-06T11:13:51.000Z</time>
      </trkpt>
      <trkpt lat="44.39746" lon="6.04625">
        <ele>1016.200012207</ele>
        <time>2021-07-06T11:13:52.000Z</time>
      </trkpt>
      <trkpt lat="44.39751" lon="6.0462">
        <ele>1017</ele>
        <time>2021-07-06T11:13:56.000Z</time>
      </trkpt>
      <trkpt lat="44.39754" lon="6.04618">
        <ele>1017.5999755859</ele>
        <time>2021-07-06T11:13:59.000Z</time>
      </trkpt>
      <trkpt lat="44.39758" lon="6.04617">
        <ele>1018.200012207</ele>
        <time>2021-07-06T11:14:02.000Z</time>
      </trkpt>
      <trkpt lat="44.39764" lon="6.04615">
        <ele>1019</ele>
        <time>2021-07-06T11:14:06.000Z</time>
      </trkpt>
      <trkpt lat="44.39766" lon="6.04615">
        <ele>1019.200012207</ele>
        <time>2021-07-06T11:14:07.000Z</time>
      </trkpt>
      <trkpt lat="44.39767" lon="6.04614">
        <ele>1019.4000244141</ele>
        <time>2021-07-06T11:14:08.000Z</time>
      </trkpt>
      <trkpt lat="44.39772" lon="6.04611">
        <ele>1020.200012207</ele>
        <time>2021-07-06T11:14:12.000Z</time>
      </trkpt>
      <trkpt lat="44.39774" lon="6.0461">
        <ele>1020.5999755859</ele>
        <time>2021-07-06T11:14:13.000Z</time>
      </trkpt>
      <trkpt lat="44.39776" lon="6.04609">
        <ele>1021.200012207</ele>
        <time>2021-07-06T11:14:15.000Z</time>
      </trkpt>
      <trkpt lat="44.39778" lon="6.04609">
        <ele>1021.4000244141</ele>
        <time>2021-07-06T11:14:16.000Z</time>
      </trkpt>
      <trkpt lat="44.39783" lon="6.04609">
        <ele>1022</ele>
        <time>2021-07-06T11:14:19.000Z</time>
      </trkpt>
      <trkpt lat="44.39786" lon="6.04609">
        <ele>1022.5999755859</ele>
        <time>2021-07-06T11:14:21.000Z</time>
      </trkpt>
      <trkpt lat="44.3979" lon="6.04606">
        <ele>1023.5999755859</ele>
        <time>2021-07-06T11:14:24.000Z</time>
      </trkpt>
      <trkpt lat="44.39792" lon="6.04606">
        <ele>1023.799987793</ele>
        <time>2021-07-06T11:14:25.000Z</time>
      </trkpt>
      <trkpt lat="44.39794" lon="6.04604">
        <ele>1024.1999511719</ele>
        <time>2021-07-06T11:14:27.000Z</time>
      </trkpt>
      <trkpt lat="44.39796" lon="6.04605">
        <ele>1024.8000488281</ele>
        <time>2021-07-06T11:14:29.000Z</time>
      </trkpt>
      <trkpt lat="44.39798" lon="6.04606">
        <ele>1025.1999511719</ele>
        <time>2021-07-06T11:14:31.000Z</time>
      </trkpt>
      <trkpt lat="44.39801" lon="6.04608">
        <ele>1025.8000488281</ele>
        <time>2021-07-06T11:14:33.000Z</time>
      </trkpt>
      <trkpt lat="44.39807" lon="6.04608">
        <ele>1026.8000488281</ele>
        <time>2021-07-06T11:14:37.000Z</time>
      </trkpt>
      <trkpt lat="44.39808" lon="6.04608">
        <ele>1027.1999511719</ele>
        <time>2021-07-06T11:14:38.000Z</time>
      </trkpt>
      <trkpt lat="44.39813" lon="6.04609">
        <ele>1028.1999511719</ele>
        <time>2021-07-06T11:14:41.000Z</time>
      </trkpt>
      <trkpt lat="44.39816" lon="6.04609">
        <ele>1029</ele>
        <time>2021-07-06T11:14:44.000Z</time>
      </trkpt>
      <trkpt lat="44.39818" lon="6.04609">
        <ele>1029.4000244141</ele>
        <time>2021-07-06T11:14:45.000Z</time>
      </trkpt>
      <trkpt lat="44.39821" lon="6.04608">
        <ele>1030</ele>
        <time>2021-07-06T11:14:47.000Z</time>
      </trkpt>
      <trkpt lat="44.39825" lon="6.04608">
        <ele>1031</ele>
        <time>2021-07-06T11:14:50.000Z</time>
      </trkpt>
      <trkpt lat="44.39826" lon="6.04607">
        <ele>1031.4000244141</ele>
        <time>2021-07-06T11:14:51.000Z</time>
      </trkpt>
      <trkpt lat="44.39827" lon="6.04607">
        <ele>1032</ele>
        <time>2021-07-06T11:14:52.000Z</time>
      </trkpt>
      <trkpt lat="44.39829" lon="6.04607">
        <ele>1032.5999755859</ele>
        <time>2021-07-06T11:14:54.000Z</time>
      </trkpt>
      <trkpt lat="44.39834" lon="6.04606">
        <ele>1033.8000488281</ele>
        <time>2021-07-06T11:14:59.000Z</time>
      </trkpt>
      <trkpt lat="44.39835" lon="6.04606">
        <ele>1034.1999511719</ele>
        <time>2021-07-06T11:15:00.000Z</time>
      </trkpt>
      <trkpt lat="44.39838" lon="6.04605">
        <ele>1035</ele>
        <time>2021-07-06T11:15:03.000Z</time>
      </trkpt>
      <trkpt lat="44.39842" lon="6.04606">
        <ele>1036.1999511719</ele>
        <time>2021-07-06T11:15:07.000Z</time>
      </trkpt>
      <trkpt lat="44.39848" lon="6.04605">
        <ele>1037.4000244141</ele>
        <time>2021-07-06T11:15:12.000Z</time>
      </trkpt>
      <trkpt lat="44.39849" lon="6.04605">
        <ele>1037.5999755859</ele>
        <time>2021-07-06T11:15:13.000Z</time>
      </trkpt>
      <trkpt lat="44.39853" lon="6.04604">
        <ele>1038.8000488281</ele>
        <time>2021-07-06T11:15:17.000Z</time>
      </trkpt>
      <trkpt lat="44.39856" lon="6.04604">
        <ele>1040.1999511719</ele>
        <time>2021-07-06T11:15:20.000Z</time>
      </trkpt>
      <trkpt lat="44.39861" lon="6.04603">
        <ele>1041.1999511719</ele>
        <time>2021-07-06T11:15:24.000Z</time>
      </trkpt>
      <trkpt lat="44.39867" lon="6.04602">
        <ele>1042.1999511719</ele>
        <time>2021-07-06T11:15:28.000Z</time>
      </trkpt>
      <trkpt lat="44.39872" lon="6.04602">
        <ele>1043.4000244141</ele>
        <time>2021-07-06T11:15:32.000Z</time>
      </trkpt>
      <trkpt lat="44.39878" lon="6.04601">
        <ele>1044.4000244141</ele>
        <time>2021-07-06T11:15:36.000Z</time>
      </trkpt>
      <trkpt lat="44.39879" lon="6.04601">
        <ele>1044.5999755859</ele>
        <time>2021-07-06T11:15:37.000Z</time>
      </trkpt>
      <trkpt lat="44.39884" lon="6.046">
        <ele>1045.5999755859</ele>
        <time>2021-07-06T11:15:41.000Z</time>
      </trkpt>
      <trkpt lat="44.39888" lon="6.04598">
        <ele>1046.5999755859</ele>
        <time>2021-07-06T11:15:45.000Z</time>
      </trkpt>
      <trkpt lat="44.39892" lon="6.04597">
        <ele>1047.4000244141</ele>
        <time>2021-07-06T11:15:47.000Z</time>
      </trkpt>
      <trkpt lat="44.39893" lon="6.04596">
        <ele>1048</ele>
        <time>2021-07-06T11:15:48.000Z</time>
      </trkpt>
      <trkpt lat="44.39896" lon="6.04594">
        <ele>1048.5999755859</ele>
        <time>2021-07-06T11:15:50.000Z</time>
      </trkpt>
      <trkpt lat="44.39897" lon="6.04592">
        <ele>1049</ele>
        <time>2021-07-06T11:15:51.000Z</time>
      </trkpt>
      <trkpt lat="44.39901" lon="6.0459">
        <ele>1050.1999511719</ele>
        <time>2021-07-06T11:15:54.000Z</time>
      </trkpt>
      <trkpt lat="44.39905" lon="6.04588">
        <ele>1051.1999511719</ele>
        <time>2021-07-06T11:15:57.000Z</time>
      </trkpt>
      <trkpt lat="44.39907" lon="6.04586">
        <ele>1051.5999755859</ele>
        <time>2021-07-06T11:15:58.000Z</time>
      </trkpt>
      <trkpt lat="44.39911" lon="6.04584">
        <ele>1052.5999755859</ele>
        <time>2021-07-06T11:16:01.000Z</time>
      </trkpt>
      <trkpt lat="44.39915" lon="6.0458">
        <ele>1053.5999755859</ele>
        <time>2021-07-06T11:16:04.000Z</time>
      </trkpt>
      <trkpt lat="44.39919" lon="6.04576">
        <ele>1054.8000488281</ele>
        <time>2021-07-06T11:16:07.000Z</time>
      </trkpt>
      <trkpt lat="44.39923" lon="6.04573">
        <ele>1055.8000488281</ele>
        <time>2021-07-06T11:16:10.000Z</time>
      </trkpt>
      <trkpt lat="44.39924" lon="6.04571">
        <ele>1056</ele>
        <time>2021-07-06T11:16:11.000Z</time>
      </trkpt>
      <trkpt lat="44.39927" lon="6.04567">
        <ele>1057.4000244141</ele>
        <time>2021-07-06T11:16:14.000Z</time>
      </trkpt>
      <trkpt lat="44.3993" lon="6.04565">
        <ele>1058.1999511719</ele>
        <time>2021-07-06T11:16:16.000Z</time>
      </trkpt>
      <trkpt lat="44.39932" lon="6.04562">
        <ele>1059.4000244141</ele>
        <time>2021-07-06T11:16:18.000Z</time>
      </trkpt>
      <trkpt lat="44.39933" lon="6.0456">
        <ele>1059.8000488281</ele>
        <time>2021-07-06T11:16:19.000Z</time>
      </trkpt>
      <trkpt lat="44.39937" lon="6.04555">
        <ele>1061.1999511719</ele>
        <time>2021-07-06T11:16:23.000Z</time>
      </trkpt>
      <trkpt lat="44.3994" lon="6.0455">
        <ele>1061.8000488281</ele>
        <time>2021-07-06T11:16:26.000Z</time>
      </trkpt>
      <trkpt lat="44.39942" lon="6.04546">
        <ele>1062.1999511719</ele>
        <time>2021-07-06T11:16:28.000Z</time>
      </trkpt>
      <trkpt lat="44.39946" lon="6.04545">
        <ele>1062.8000488281</ele>
        <time>2021-07-06T11:16:31.000Z</time>
      </trkpt>
      <trkpt lat="44.39948" lon="6.04545">
        <ele>1063</ele>
        <time>2021-07-06T11:16:32.000Z</time>
      </trkpt>
      <trkpt lat="44.39949" lon="6.04545">
        <ele>1063.1999511719</ele>
        <time>2021-07-06T11:16:33.000Z</time>
      </trkpt>
      <trkpt lat="44.39956" lon="6.04548">
        <ele>1064.4000244141</ele>
        <time>2021-07-06T11:16:38.000Z</time>
      </trkpt>
      <trkpt lat="44.39959" lon="6.0455">
        <ele>1065</ele>
        <time>2021-07-06T11:16:40.000Z</time>
      </trkpt>
      <trkpt lat="44.39961" lon="6.04551">
        <ele>1065.4000244141</ele>
        <time>2021-07-06T11:16:42.000Z</time>
      </trkpt>
      <trkpt lat="44.39968" lon="6.04554">
        <ele>1066.4000244141</ele>
        <time>2021-07-06T11:16:47.000Z</time>
      </trkpt>
      <trkpt lat="44.3997" lon="6.04555">
        <ele>1066.5999755859</ele>
        <time>2021-07-06T11:16:48.000Z</time>
      </trkpt>
      <trkpt lat="44.39976" lon="6.04562">
        <ele>1067.5999755859</ele>
        <time>2021-07-06T11:16:53.000Z</time>
      </trkpt>
      <trkpt lat="44.3998" lon="6.04566">
        <ele>1068.1999511719</ele>
        <time>2021-07-06T11:16:56.000Z</time>
      </trkpt>
      <trkpt lat="44.39984" lon="6.0457">
        <ele>1068.8000488281</ele>
        <time>2021-07-06T11:16:59.000Z</time>
      </trkpt>
      <trkpt lat="44.3999" lon="6.04572">
        <ele>1070</ele>
        <time>2021-07-06T11:17:03.000Z</time>
      </trkpt>
      <trkpt lat="44.39992" lon="6.04571">
        <ele>1070.1999511719</ele>
        <time>2021-07-06T11:17:04.000Z</time>
      </trkpt>
      <trkpt lat="44.39995" lon="6.04567">
        <ele>1071.1999511719</ele>
        <time>2021-07-06T11:17:07.000Z</time>
      </trkpt>
      <trkpt lat="44.39999" lon="6.04561">
        <ele>1072.1999511719</ele>
        <time>2021-07-06T11:17:11.000Z</time>
      </trkpt>
      <trkpt lat="44.40001" lon="6.04555">
        <ele>1073.4000244141</ele>
        <time>2021-07-06T11:17:14.000Z</time>
      </trkpt>
      <trkpt lat="44.40001" lon="6.04545">
        <ele>1074.4000244141</ele>
        <time>2021-07-06T11:17:18.000Z</time>
      </trkpt>
      <trkpt lat="44.40001" lon="6.04543">
        <ele>1074.5999755859</ele>
        <time>2021-07-06T11:17:19.000Z</time>
      </trkpt>
      <trkpt lat="44.40001" lon="6.04532">
        <ele>1075.5999755859</ele>
        <time>2021-07-06T11:17:23.000Z</time>
      </trkpt>
      <trkpt lat="44.40001" lon="6.04524">
        <ele>1076.4000244141</ele>
        <time>2021-07-06T11:17:26.000Z</time>
      </trkpt>
      <trkpt lat="44.4" lon="6.04518">
        <ele>1076.8000488281</ele>
        <time>2021-07-06T11:17:28.000Z</time>
      </trkpt>
      <trkpt lat="44.4" lon="6.04502">
        <ele>1077.8000488281</ele>
        <time>2021-07-06T11:17:34.000Z</time>
      </trkpt>
      <trkpt lat="44.4" lon="6.045">
        <ele>1078.1999511719</ele>
        <time>2021-07-06T11:17:35.000Z</time>
      </trkpt>
      <trkpt lat="44.39999" lon="6.04488">
        <ele>1079</ele>
        <time>2021-07-06T11:17:39.000Z</time>
      </trkpt>
      <trkpt lat="44.39998" lon="6.04481">
        <ele>1079.4000244141</ele>
        <time>2021-07-06T11:17:41.000Z</time>
      </trkpt>
      <trkpt lat="44.39996" lon="6.04476">
        <ele>1079.5999755859</ele>
        <time>2021-07-06T11:17:43.000Z</time>
      </trkpt>
      <trkpt lat="44.39996" lon="6.04472">
        <ele>1080</ele>
        <time>2021-07-06T11:17:45.000Z</time>
      </trkpt>
      <trkpt lat="44.4" lon="6.04461">
        <ele>1080.4000244141</ele>
        <time>2021-07-06T11:17:49.000Z</time>
      </trkpt>
      <trkpt lat="44.40006" lon="6.04449">
        <ele>1080.4000244141</ele>
        <time>2021-07-06T11:17:52.000Z</time>
      </trkpt>
      <trkpt lat="44.40013" lon="6.04441">
        <ele>1080.4000244141</ele>
        <time>2021-07-06T11:17:54.000Z</time>
      </trkpt>
      <trkpt lat="44.40033" lon="6.0442">
        <ele>1080.1999511719</ele>
        <time>2021-07-06T11:17:58.000Z</time>
      </trkpt>
      <trkpt lat="44.40038" lon="6.04411">
        <ele>1080</ele>
        <time>2021-07-06T11:17:59.000Z</time>
      </trkpt>
      <trkpt lat="44.40045" lon="6.04394">
        <ele>1079.1999511719</ele>
        <time>2021-07-06T11:18:01.000Z</time>
      </trkpt>
      <trkpt lat="44.40047" lon="6.04385">
        <ele>1078.5999755859</ele>
        <time>2021-07-06T11:18:02.000Z</time>
      </trkpt>
      <trkpt lat="44.40046" lon="6.04367">
        <ele>1077.5999755859</ele>
        <time>2021-07-06T11:18:04.000Z</time>
      </trkpt>
      <trkpt lat="44.40043" lon="6.0435">
        <ele>1076.5999755859</ele>
        <time>2021-07-06T11:18:06.000Z</time>
      </trkpt>
      <trkpt lat="44.4004" lon="6.04341">
        <ele>1076</ele>
        <time>2021-07-06T11:18:07.000Z</time>
      </trkpt>
      <trkpt lat="44.40034" lon="6.04326">
        <ele>1074.8000488281</ele>
        <time>2021-07-06T11:18:09.000Z</time>
      </trkpt>
      <trkpt lat="44.40028" lon="6.04314">
        <ele>1074.4000244141</ele>
        <time>2021-07-06T11:18:11.000Z</time>
      </trkpt>
      <trkpt lat="44.40022" lon="6.04294">
        <ele>1074</ele>
        <time>2021-07-06T11:18:14.000Z</time>
      </trkpt>
      <trkpt lat="44.40019" lon="6.04279">
        <ele>1074</ele>
        <time>2021-07-06T11:18:16.000Z</time>
      </trkpt>
      <trkpt lat="44.40019" lon="6.04263">
        <ele>1073.8000488281</ele>
        <time>2021-07-06T11:18:18.000Z</time>
      </trkpt>
      <trkpt lat="44.4002" lon="6.04256">
        <ele>1073.8000488281</ele>
        <time>2021-07-06T11:18:20.000Z</time>
      </trkpt>
      <trkpt lat="44.40021" lon="6.04255">
        <ele>1073.4000244141</ele>
        <time>2021-07-06T11:18:21.000Z</time>
      </trkpt>
      <trkpt lat="44.40021" lon="6.04254">
        <ele>1072.4000244141</ele>
        <time>2021-07-06T11:18:25.000Z</time>
      </trkpt>
      <trkpt lat="44.40021" lon="6.04253">
        <ele>1071.4000244141</ele>
        <time>2021-07-06T11:18:29.000Z</time>
      </trkpt>
      <trkpt lat="44.40022" lon="6.04251">
        <ele>1071.4000244141</ele>
        <time>2021-07-06T11:18:30.000Z</time>
      </trkpt>
      <trkpt lat="44.40026" lon="6.0424">
        <ele>1071.1999511719</ele>
        <time>2021-07-06T11:18:33.000Z</time>
      </trkpt>
      <trkpt lat="44.4003" lon="6.04225">
        <ele>1071</ele>
        <time>2021-07-06T11:18:35.000Z</time>
      </trkpt>
      <trkpt lat="44.40032" lon="6.04216">
        <ele>1071</ele>
        <time>2021-07-06T11:18:36.000Z</time>
      </trkpt>
      <trkpt lat="44.40033" lon="6.04181">
        <ele>1070.8000488281</ele>
        <time>2021-07-06T11:18:39.000Z</time>
      </trkpt>
      <trkpt lat="44.40032" lon="6.04156">
        <ele>1070.4000244141</ele>
        <time>2021-07-06T11:18:41.000Z</time>
      </trkpt>
      <trkpt lat="44.4003" lon="6.04143">
        <ele>1069.8000488281</ele>
        <time>2021-07-06T11:18:42.000Z</time>
      </trkpt>
      <trkpt lat="44.40026" lon="6.0413">
        <ele>1069.4000244141</ele>
        <time>2021-07-06T11:18:43.000Z</time>
      </trkpt>
      <trkpt lat="44.40022" lon="6.04118">
        <ele>1068.4000244141</ele>
        <time>2021-07-06T11:18:44.000Z</time>
      </trkpt>
      <trkpt lat="44.40019" lon="6.04106">
        <ele>1067.4000244141</ele>
        <time>2021-07-06T11:18:45.000Z</time>
      </trkpt>
      <trkpt lat="44.40015" lon="6.04094">
        <ele>1066.4000244141</ele>
        <time>2021-07-06T11:18:46.000Z</time>
      </trkpt>
      <trkpt lat="44.40009" lon="6.04069">
        <ele>1065.1999511719</ele>
        <time>2021-07-06T11:18:48.000Z</time>
      </trkpt>
      <trkpt lat="44.40002" lon="6.04042">
        <ele>1064</ele>
        <time>2021-07-06T11:18:50.000Z</time>
      </trkpt>
      <trkpt lat="44.39991" lon="6.04016">
        <ele>1062.1999511719</ele>
        <time>2021-07-06T11:18:52.000Z</time>
      </trkpt>
      <trkpt lat="44.3998" lon="6.03991">
        <ele>1060.5999755859</ele>
        <time>2021-07-06T11:18:54.000Z</time>
      </trkpt>
      <trkpt lat="44.39969" lon="6.03965">
        <ele>1059.5999755859</ele>
        <time>2021-07-06T11:18:56.000Z</time>
      </trkpt>
      <trkpt lat="44.39964" lon="6.03952">
        <ele>1058.8000488281</ele>
        <time>2021-07-06T11:18:57.000Z</time>
      </trkpt>
      <trkpt lat="44.39961" lon="6.03939">
        <ele>1058</ele>
        <time>2021-07-06T11:18:58.000Z</time>
      </trkpt>
      <trkpt lat="44.39957" lon="6.03925">
        <ele>1057</ele>
        <time>2021-07-06T11:18:59.000Z</time>
      </trkpt>
      <trkpt lat="44.39954" lon="6.03911">
        <ele>1056</ele>
        <time>2021-07-06T11:19:00.000Z</time>
      </trkpt>
      <trkpt lat="44.39949" lon="6.03882">
        <ele>1054.4000244141</ele>
        <time>2021-07-06T11:19:02.000Z</time>
      </trkpt>
      <trkpt lat="44.39946" lon="6.03869">
        <ele>1053.1999511719</ele>
        <time>2021-07-06T11:19:03.000Z</time>
      </trkpt>
      <trkpt lat="44.39944" lon="6.03856">
        <ele>1052.5999755859</ele>
        <time>2021-07-06T11:19:04.000Z</time>
      </trkpt>
      <trkpt lat="44.39941" lon="6.03842">
        <ele>1052.1999511719</ele>
        <time>2021-07-06T11:19:05.000Z</time>
      </trkpt>
      <trkpt lat="44.3993" lon="6.03803">
        <ele>1050.4000244141</ele>
        <time>2021-07-06T11:19:08.000Z</time>
      </trkpt>
      <trkpt lat="44.39923" lon="6.03777">
        <ele>1049.1999511719</ele>
        <time>2021-07-06T11:19:10.000Z</time>
      </trkpt>
      <trkpt lat="44.39912" lon="6.0374">
        <ele>1048</ele>
        <time>2021-07-06T11:19:13.000Z</time>
      </trkpt>
      <trkpt lat="44.39909" lon="6.03729">
        <ele>1047.1999511719</ele>
        <time>2021-07-06T11:19:14.000Z</time>
      </trkpt>
      <trkpt lat="44.39906" lon="6.03718">
        <ele>1046.5999755859</ele>
        <time>2021-07-06T11:19:15.000Z</time>
      </trkpt>
      <trkpt lat="44.39902" lon="6.037">
        <ele>1045.1999511719</ele>
        <time>2021-07-06T11:19:17.000Z</time>
      </trkpt>
      <trkpt lat="44.39901" lon="6.03693">
        <ele>1044.5999755859</ele>
        <time>2021-07-06T11:19:18.000Z</time>
      </trkpt>
      <trkpt lat="44.39901" lon="6.03685">
        <ele>1044.1999511719</ele>
        <time>2021-07-06T11:19:19.000Z</time>
      </trkpt>
      <trkpt lat="44.39901" lon="6.03679">
        <ele>1043.5999755859</ele>
        <time>2021-07-06T11:19:20.000Z</time>
      </trkpt>
      <trkpt lat="44.39901" lon="6.03673">
        <ele>1043.1999511719</ele>
        <time>2021-07-06T11:19:21.000Z</time>
      </trkpt>
      <trkpt lat="44.39901" lon="6.03667">
        <ele>1042.5999755859</ele>
        <time>2021-07-06T11:19:22.000Z</time>
      </trkpt>
      <trkpt lat="44.39902" lon="6.03661">
        <ele>1042</ele>
        <time>2021-07-06T11:19:23.000Z</time>
      </trkpt>
      <trkpt lat="44.39906" lon="6.03651">
        <ele>1041</ele>
        <time>2021-07-06T11:19:25.000Z</time>
      </trkpt>
      <trkpt lat="44.39909" lon="6.03647">
        <ele>1040.4000244141</ele>
        <time>2021-07-06T11:19:26.000Z</time>
      </trkpt>
      <trkpt lat="44.39915" lon="6.03646">
        <ele>1039.8000488281</ele>
        <time>2021-07-06T11:19:27.000Z</time>
      </trkpt>
      <trkpt lat="44.39921" lon="6.03647">
        <ele>1039.1999511719</ele>
        <time>2021-07-06T11:19:28.000Z</time>
      </trkpt>
      <trkpt lat="44.39929" lon="6.03649">
        <ele>1038.5999755859</ele>
        <time>2021-07-06T11:19:29.000Z</time>
      </trkpt>
      <trkpt lat="44.39947" lon="6.03654">
        <ele>1036.5999755859</ele>
        <time>2021-07-06T11:19:31.000Z</time>
      </trkpt>
      <trkpt lat="44.39957" lon="6.03655">
        <ele>1035.8000488281</ele>
        <time>2021-07-06T11:19:32.000Z</time>
      </trkpt>
      <trkpt lat="44.39968" lon="6.03657">
        <ele>1035.1999511719</ele>
        <time>2021-07-06T11:19:33.000Z</time>
      </trkpt>
      <trkpt lat="44.3999" lon="6.0366">
        <ele>1033.5999755859</ele>
        <time>2021-07-06T11:19:35.000Z</time>
      </trkpt>
      <trkpt lat="44.40013" lon="6.03659">
        <ele>1031.5999755859</ele>
        <time>2021-07-06T11:19:37.000Z</time>
      </trkpt>
      <trkpt lat="44.40026" lon="6.03656">
        <ele>1030.4000244141</ele>
        <time>2021-07-06T11:19:38.000Z</time>
      </trkpt>
      <trkpt lat="44.40039" lon="6.0365">
        <ele>1029</ele>
        <time>2021-07-06T11:19:39.000Z</time>
      </trkpt>
      <trkpt lat="44.40053" lon="6.03643">
        <ele>1027.8000488281</ele>
        <time>2021-07-06T11:19:40.000Z</time>
      </trkpt>
      <trkpt lat="44.40067" lon="6.03635">
        <ele>1026.5999755859</ele>
        <time>2021-07-06T11:19:41.000Z</time>
      </trkpt>
      <trkpt lat="44.40096" lon="6.03619">
        <ele>1025</ele>
        <time>2021-07-06T11:19:43.000Z</time>
      </trkpt>
      <trkpt lat="44.40111" lon="6.03613">
        <ele>1024.1999511719</ele>
        <time>2021-07-06T11:19:44.000Z</time>
      </trkpt>
      <trkpt lat="44.40126" lon="6.03608">
        <ele>1023.200012207</ele>
        <time>2021-07-06T11:19:45.000Z</time>
      </trkpt>
      <trkpt lat="44.40138" lon="6.03604">
        <ele>1022</ele>
        <time>2021-07-06T11:19:46.000Z</time>
      </trkpt>
      <trkpt lat="44.40149" lon="6.03601">
        <ele>1020.4000244141</ele>
        <time>2021-07-06T11:19:47.000Z</time>
      </trkpt>
      <trkpt lat="44.40159" lon="6.03599">
        <ele>1018.200012207</ele>
        <time>2021-07-06T11:19:48.000Z</time>
      </trkpt>
      <trkpt lat="44.40169" lon="6.036">
        <ele>1016.200012207</ele>
        <time>2021-07-06T11:19:49.000Z</time>
      </trkpt>
      <trkpt lat="44.40179" lon="6.03603">
        <ele>1014.200012207</ele>
        <time>2021-07-06T11:19:50.000Z</time>
      </trkpt>
      <trkpt lat="44.40188" lon="6.03609">
        <ele>1012.200012207</ele>
        <time>2021-07-06T11:19:51.000Z</time>
      </trkpt>
      <trkpt lat="44.40198" lon="6.03616">
        <ele>1010.4000244141</ele>
        <time>2021-07-06T11:19:52.000Z</time>
      </trkpt>
      <trkpt lat="44.40207" lon="6.03624">
        <ele>1008.799987793</ele>
        <time>2021-07-06T11:19:53.000Z</time>
      </trkpt>
      <trkpt lat="44.40216" lon="6.03633">
        <ele>1007.5999755859</ele>
        <time>2021-07-06T11:19:54.000Z</time>
      </trkpt>
      <trkpt lat="44.40226" lon="6.03641">
        <ele>1006.4000244141</ele>
        <time>2021-07-06T11:19:55.000Z</time>
      </trkpt>
      <trkpt lat="44.40247" lon="6.0366">
        <ele>1004.799987793</ele>
        <time>2021-07-06T11:19:57.000Z</time>
      </trkpt>
      <trkpt lat="44.40258" lon="6.0367">
        <ele>1004</ele>
        <time>2021-07-06T11:19:58.000Z</time>
      </trkpt>
      <trkpt lat="44.4027" lon="6.03681">
        <ele>1002.4000244141</ele>
        <time>2021-07-06T11:19:59.000Z</time>
      </trkpt>
      <trkpt lat="44.40292" lon="6.03706">
        <ele>1001</ele>
        <time>2021-07-06T11:20:01.000Z</time>
      </trkpt>
      <trkpt lat="44.40304" lon="6.0372">
        <ele>1000</ele>
        <time>2021-07-06T11:20:02.000Z</time>
      </trkpt>
      <trkpt lat="44.40315" lon="6.03734">
        <ele>999.59997558594</ele>
        <time>2021-07-06T11:20:03.000Z</time>
      </trkpt>
      <trkpt lat="44.40336" lon="6.03761">
        <ele>997.59997558594</ele>
        <time>2021-07-06T11:20:05.000Z</time>
      </trkpt>
      <trkpt lat="44.40346" lon="6.03775">
        <ele>996.20001220703</ele>
        <time>2021-07-06T11:20:06.000Z</time>
      </trkpt>
      <trkpt lat="44.40357" lon="6.03787">
        <ele>994.59997558594</ele>
        <time>2021-07-06T11:20:07.000Z</time>
      </trkpt>
      <trkpt lat="44.40369" lon="6.03797">
        <ele>992.79998779297</ele>
        <time>2021-07-06T11:20:08.000Z</time>
      </trkpt>
      <trkpt lat="44.40381" lon="6.03806">
        <ele>991.20001220703</ele>
        <time>2021-07-06T11:20:09.000Z</time>
      </trkpt>
      <trkpt lat="44.40394" lon="6.03813">
        <ele>989.79998779297</ele>
        <time>2021-07-06T11:20:10.000Z</time>
      </trkpt>
      <trkpt lat="44.40407" lon="6.03817">
        <ele>988.40002441406</ele>
        <time>2021-07-06T11:20:11.000Z</time>
      </trkpt>
      <trkpt lat="44.4042" lon="6.0382">
        <ele>987.40002441406</ele>
        <time>2021-07-06T11:20:12.000Z</time>
      </trkpt>
      <trkpt lat="44.40432" lon="6.0382">
        <ele>986.20001220703</ele>
        <time>2021-07-06T11:20:13.000Z</time>
      </trkpt>
      <trkpt lat="44.40445" lon="6.0382">
        <ele>985.20001220703</ele>
        <time>2021-07-06T11:20:14.000Z</time>
      </trkpt>
      <trkpt lat="44.40468" lon="6.03811">
        <ele>984</ele>
        <time>2021-07-06T11:20:16.000Z</time>
      </trkpt>
      <trkpt lat="44.40491" lon="6.03795">
        <ele>982.20001220703</ele>
        <time>2021-07-06T11:20:18.000Z</time>
      </trkpt>
      <trkpt lat="44.40502" lon="6.03786">
        <ele>981.40002441406</ele>
        <time>2021-07-06T11:20:19.000Z</time>
      </trkpt>
      <trkpt lat="44.40513" lon="6.03774">
        <ele>980</ele>
        <time>2021-07-06T11:20:20.000Z</time>
      </trkpt>
      <trkpt lat="44.40524" lon="6.03761">
        <ele>978.59997558594</ele>
        <time>2021-07-06T11:20:21.000Z</time>
      </trkpt>
      <trkpt lat="44.40535" lon="6.03746">
        <ele>977.20001220703</ele>
        <time>2021-07-06T11:20:22.000Z</time>
      </trkpt>
      <trkpt lat="44.40547" lon="6.0373">
        <ele>975.79998779297</ele>
        <time>2021-07-06T11:20:23.000Z</time>
      </trkpt>
      <trkpt lat="44.40559" lon="6.03715">
        <ele>974.59997558594</ele>
        <time>2021-07-06T11:20:24.000Z</time>
      </trkpt>
      <trkpt lat="44.4057" lon="6.037">
        <ele>973.40002441406</ele>
        <time>2021-07-06T11:20:25.000Z</time>
      </trkpt>
      <trkpt lat="44.40582" lon="6.03686">
        <ele>972.20001220703</ele>
        <time>2021-07-06T11:20:26.000Z</time>
      </trkpt>
      <trkpt lat="44.40594" lon="6.03674">
        <ele>969.79998779297</ele>
        <time>2021-07-06T11:20:27.000Z</time>
      </trkpt>
      <trkpt lat="44.40605" lon="6.03664">
        <ele>968.40002441406</ele>
        <time>2021-07-06T11:20:28.000Z</time>
      </trkpt>
      <trkpt lat="44.40616" lon="6.03654">
        <ele>966.40002441406</ele>
        <time>2021-07-06T11:20:29.000Z</time>
      </trkpt>
      <trkpt lat="44.40627" lon="6.03645">
        <ele>964.20001220703</ele>
        <time>2021-07-06T11:20:30.000Z</time>
      </trkpt>
      <trkpt lat="44.40637" lon="6.03638">
        <ele>962.20001220703</ele>
        <time>2021-07-06T11:20:31.000Z</time>
      </trkpt>
      <trkpt lat="44.40645" lon="6.03632">
        <ele>960</ele>
        <time>2021-07-06T11:20:32.000Z</time>
      </trkpt>
      <trkpt lat="44.40651" lon="6.03627">
        <ele>958.20001220703</ele>
        <time>2021-07-06T11:20:33.000Z</time>
      </trkpt>
      <trkpt lat="44.40654" lon="6.03623">
        <ele>957</ele>
        <time>2021-07-06T11:20:34.000Z</time>
      </trkpt>
      <trkpt lat="44.40657" lon="6.03619">
        <ele>956.20001220703</ele>
        <time>2021-07-06T11:20:36.000Z</time>
      </trkpt>
      <trkpt lat="44.40658" lon="6.03619">
        <ele>955.79998779297</ele>
        <time>2021-07-06T11:20:38.000Z</time>
      </trkpt>
      <trkpt lat="44.40659" lon="6.03622">
        <ele>955.59997558594</ele>
        <time>2021-07-06T11:20:40.000Z</time>
      </trkpt>
      <trkpt lat="44.40662" lon="6.03632">
        <ele>955.59997558594</ele>
        <time>2021-07-06T11:20:43.000Z</time>
      </trkpt>
      <trkpt lat="44.40665" lon="6.03644">
        <ele>955.59997558594</ele>
        <time>2021-07-06T11:20:46.000Z</time>
      </trkpt>
      <trkpt lat="44.40672" lon="6.03667">
        <ele>955.59997558594</ele>
        <time>2021-07-06T11:20:51.000Z</time>
      </trkpt>
      <trkpt lat="44.40674" lon="6.03672">
        <ele>955.79998779297</ele>
        <time>2021-07-06T11:20:52.000Z</time>
      </trkpt>
      <trkpt lat="44.40685" lon="6.03679">
        <ele>956</ele>
        <time>2021-07-06T11:20:55.000Z</time>
      </trkpt>
      <trkpt lat="44.40689" lon="6.03681">
        <ele>956</ele>
        <time>2021-07-06T11:20:56.000Z</time>
      </trkpt>
      <trkpt lat="44.40708" lon="6.03687">
        <ele>955.79998779297</ele>
        <time>2021-07-06T11:21:01.000Z</time>
      </trkpt>
      <trkpt lat="44.40723" lon="6.03675">
        <ele>955.79998779297</ele>
        <time>2021-07-06T11:21:04.000Z</time>
      </trkpt>
      <trkpt lat="44.4073" lon="6.03668">
        <ele>955.79998779297</ele>
        <time>2021-07-06T11:21:05.000Z</time>
      </trkpt>
      <trkpt lat="44.40746" lon="6.03652">
        <ele>955.59997558594</ele>
        <time>2021-07-06T11:21:07.000Z</time>
      </trkpt>
      <trkpt lat="44.40773" lon="6.03634">
        <ele>955.59997558594</ele>
        <time>2021-07-06T11:21:10.000Z</time>
      </trkpt>
      <trkpt lat="44.40782" lon="6.03631">
        <ele>955.40002441406</ele>
        <time>2021-07-06T11:21:11.000Z</time>
      </trkpt>
      <trkpt lat="44.40793" lon="6.0363">
        <ele>954.79998779297</ele>
        <time>2021-07-06T11:21:12.000Z</time>
      </trkpt>
      <trkpt lat="44.40814" lon="6.03628">
        <ele>952.59997558594</ele>
        <time>2021-07-06T11:21:14.000Z</time>
      </trkpt>
      <trkpt lat="44.40825" lon="6.03626">
        <ele>951.20001220703</ele>
        <time>2021-07-06T11:21:15.000Z</time>
      </trkpt>
      <trkpt lat="44.40835" lon="6.03624">
        <ele>950.20001220703</ele>
        <time>2021-07-06T11:21:16.000Z</time>
      </trkpt>
      <trkpt lat="44.40854" lon="6.03618">
        <ele>948.40002441406</ele>
        <time>2021-07-06T11:21:18.000Z</time>
      </trkpt>
      <trkpt lat="44.40864" lon="6.03614">
        <ele>947.79998779297</ele>
        <time>2021-07-06T11:21:19.000Z</time>
      </trkpt>
      <trkpt lat="44.40873" lon="6.03608">
        <ele>947.40002441406</ele>
        <time>2021-07-06T11:21:20.000Z</time>
      </trkpt>
      <trkpt lat="44.4089" lon="6.03593">
        <ele>944.20001220703</ele>
        <time>2021-07-06T11:21:22.000Z</time>
      </trkpt>
      <trkpt lat="44.40898" lon="6.03586">
        <ele>943.20001220703</ele>
        <time>2021-07-06T11:21:23.000Z</time>
      </trkpt>
      <trkpt lat="44.4091" lon="6.03574">
        <ele>942</ele>
        <time>2021-07-06T11:21:25.000Z</time>
      </trkpt>
      <trkpt lat="44.40915" lon="6.0357">
        <ele>941.40002441406</ele>
        <time>2021-07-06T11:21:26.000Z</time>
      </trkpt>
      <trkpt lat="44.40919" lon="6.03566">
        <ele>941</ele>
        <time>2021-07-06T11:21:27.000Z</time>
      </trkpt>
      <trkpt lat="44.40924" lon="6.03563">
        <ele>940.20001220703</ele>
        <time>2021-07-06T11:21:28.000Z</time>
      </trkpt>
      <trkpt lat="44.40929" lon="6.0356">
        <ele>939</ele>
        <time>2021-07-06T11:21:29.000Z</time>
      </trkpt>
      <trkpt lat="44.40934" lon="6.03559">
        <ele>938</ele>
        <time>2021-07-06T11:21:30.000Z</time>
      </trkpt>
      <trkpt lat="44.4094" lon="6.03559">
        <ele>937.40002441406</ele>
        <time>2021-07-06T11:21:31.000Z</time>
      </trkpt>
      <trkpt lat="44.4095" lon="6.03565">
        <ele>935.79998779297</ele>
        <time>2021-07-06T11:21:33.000Z</time>
      </trkpt>
      <trkpt lat="44.40954" lon="6.0357">
        <ele>934.79998779297</ele>
        <time>2021-07-06T11:21:34.000Z</time>
      </trkpt>
      <trkpt lat="44.40961" lon="6.03574">
        <ele>934</ele>
        <time>2021-07-06T11:21:35.000Z</time>
      </trkpt>
      <trkpt lat="44.40969" lon="6.03577">
        <ele>933.20001220703</ele>
        <time>2021-07-06T11:21:36.000Z</time>
      </trkpt>
      <trkpt lat="44.40977" lon="6.03578">
        <ele>932.20001220703</ele>
        <time>2021-07-06T11:21:37.000Z</time>
      </trkpt>
      <trkpt lat="44.40985" lon="6.03579">
        <ele>931.20001220703</ele>
        <time>2021-07-06T11:21:38.000Z</time>
      </trkpt>
      <trkpt lat="44.41002" lon="6.03586">
        <ele>929.20001220703</ele>
        <time>2021-07-06T11:21:40.000Z</time>
      </trkpt>
      <trkpt lat="44.41017" lon="6.03601">
        <ele>927.40002441406</ele>
        <time>2021-07-06T11:21:42.000Z</time>
      </trkpt>
      <trkpt lat="44.41023" lon="6.03611">
        <ele>926.40002441406</ele>
        <time>2021-07-06T11:21:43.000Z</time>
      </trkpt>
      <trkpt lat="44.41028" lon="6.0362">
        <ele>925.20001220703</ele>
        <time>2021-07-06T11:21:44.000Z</time>
      </trkpt>
      <trkpt lat="44.41032" lon="6.03631">
        <ele>923.59997558594</ele>
        <time>2021-07-06T11:21:45.000Z</time>
      </trkpt>
      <trkpt lat="44.41036" lon="6.03643">
        <ele>922</ele>
        <time>2021-07-06T11:21:46.000Z</time>
      </trkpt>
      <trkpt lat="44.41039" lon="6.03654">
        <ele>920.59997558594</ele>
        <time>2021-07-06T11:21:47.000Z</time>
      </trkpt>
      <trkpt lat="44.41043" lon="6.03665">
        <ele>919.40002441406</ele>
        <time>2021-07-06T11:21:48.000Z</time>
      </trkpt>
      <trkpt lat="44.41047" lon="6.03675">
        <ele>917</ele>
        <time>2021-07-06T11:21:49.000Z</time>
      </trkpt>
      <trkpt lat="44.41051" lon="6.03686">
        <ele>916</ele>
        <time>2021-07-06T11:21:50.000Z</time>
      </trkpt>
      <trkpt lat="44.41061" lon="6.03707">
        <ele>914</ele>
        <time>2021-07-06T11:21:52.000Z</time>
      </trkpt>
      <trkpt lat="44.41067" lon="6.03717">
        <ele>912.79998779297</ele>
        <time>2021-07-06T11:21:53.000Z</time>
      </trkpt>
      <trkpt lat="44.41073" lon="6.03728">
        <ele>911.59997558594</ele>
        <time>2021-07-06T11:21:54.000Z</time>
      </trkpt>
      <trkpt lat="44.4108" lon="6.03738">
        <ele>910.59997558594</ele>
        <time>2021-07-06T11:21:55.000Z</time>
      </trkpt>
      <trkpt lat="44.41087" lon="6.03747">
        <ele>909.40002441406</ele>
        <time>2021-07-06T11:21:56.000Z</time>
      </trkpt>
      <trkpt lat="44.41094" lon="6.03755">
        <ele>908.40002441406</ele>
        <time>2021-07-06T11:21:57.000Z</time>
      </trkpt>
      <trkpt lat="44.41105" lon="6.03767">
        <ele>906.79998779297</ele>
        <time>2021-07-06T11:21:59.000Z</time>
      </trkpt>
      <trkpt lat="44.41114" lon="6.03777">
        <ele>905.20001220703</ele>
        <time>2021-07-06T11:22:01.000Z</time>
      </trkpt>
      <trkpt lat="44.4112" lon="6.03784">
        <ele>903.79998779297</ele>
        <time>2021-07-06T11:22:03.000Z</time>
      </trkpt>
      <trkpt lat="44.41128" lon="6.0379">
        <ele>902.79998779297</ele>
        <time>2021-07-06T11:22:06.000Z</time>
      </trkpt>
      <trkpt lat="44.41134" lon="6.03796">
        <ele>902.59997558594</ele>
        <time>2021-07-06T11:22:08.000Z</time>
      </trkpt>
      <trkpt lat="44.41138" lon="6.03799">
        <ele>902.20001220703</ele>
        <time>2021-07-06T11:22:09.000Z</time>
      </trkpt>
      <trkpt lat="44.41141" lon="6.03803">
        <ele>902</ele>
        <time>2021-07-06T11:22:10.000Z</time>
      </trkpt>
      <trkpt lat="44.41148" lon="6.03811">
        <ele>901.40002441406</ele>
        <time>2021-07-06T11:22:12.000Z</time>
      </trkpt>
      <trkpt lat="44.41154" lon="6.0381">
        <ele>900.79998779297</ele>
        <time>2021-07-06T11:22:14.000Z</time>
      </trkpt>
      <trkpt lat="44.41157" lon="6.03807">
        <ele>900.40002441406</ele>
        <time>2021-07-06T11:22:15.000Z</time>
      </trkpt>
      <trkpt lat="44.41163" lon="6.03802">
        <ele>899.20001220703</ele>
        <time>2021-07-06T11:22:17.000Z</time>
      </trkpt>
      <trkpt lat="44.4117" lon="6.03797">
        <ele>897.59997558594</ele>
        <time>2021-07-06T11:22:19.000Z</time>
      </trkpt>
      <trkpt lat="44.41175" lon="6.03793">
        <ele>896.20001220703</ele>
        <time>2021-07-06T11:22:21.000Z</time>
      </trkpt>
      <trkpt lat="44.41181" lon="6.0379">
        <ele>894.79998779297</ele>
        <time>2021-07-06T11:22:23.000Z</time>
      </trkpt>
      <trkpt lat="44.41186" lon="6.03788">
        <ele>893.79998779297</ele>
        <time>2021-07-06T11:22:25.000Z</time>
      </trkpt>
      <trkpt lat="44.41192" lon="6.03786">
        <ele>892.20001220703</ele>
        <time>2021-07-06T11:22:27.000Z</time>
      </trkpt>
      <trkpt lat="44.41194" lon="6.03786">
        <ele>891.59997558594</ele>
        <time>2021-07-06T11:22:28.000Z</time>
      </trkpt>
      <trkpt lat="44.41197" lon="6.03788">
        <ele>890.79998779297</ele>
        <time>2021-07-06T11:22:29.000Z</time>
      </trkpt>
      <trkpt lat="44.41202" lon="6.03792">
        <ele>889.20001220703</ele>
        <time>2021-07-06T11:22:31.000Z</time>
      </trkpt>
      <trkpt lat="44.41204" lon="6.03793">
        <ele>888.40002441406</ele>
        <time>2021-07-06T11:22:32.000Z</time>
      </trkpt>
      <trkpt lat="44.41205" lon="6.03792">
        <ele>887.40002441406</ele>
        <time>2021-07-06T11:22:33.000Z</time>
      </trkpt>
      <trkpt lat="44.41206" lon="6.03792">
        <ele>886.79998779297</ele>
        <time>2021-07-06T11:22:34.000Z</time>
      </trkpt>
      <trkpt lat="44.41207" lon="6.03791">
        <ele>886</ele>
        <time>2021-07-06T11:22:35.000Z</time>
      </trkpt>
      <trkpt lat="44.41209" lon="6.0379">
        <ele>885.20001220703</ele>
        <time>2021-07-06T11:22:36.000Z</time>
      </trkpt>
      <trkpt lat="44.41211" lon="6.03788">
        <ele>884.40002441406</ele>
        <time>2021-07-06T11:22:37.000Z</time>
      </trkpt>
      <trkpt lat="44.41216" lon="6.03785">
        <ele>882.79998779297</ele>
        <time>2021-07-06T11:22:39.000Z</time>
      </trkpt>
      <trkpt lat="44.41219" lon="6.03785">
        <ele>882</ele>
        <time>2021-07-06T11:22:40.000Z</time>
      </trkpt>
      <trkpt lat="44.41221" lon="6.03786">
        <ele>881.40002441406</ele>
        <time>2021-07-06T11:22:41.000Z</time>
      </trkpt>
      <trkpt lat="44.41225" lon="6.03791">
        <ele>880.40002441406</ele>
        <time>2021-07-06T11:22:43.000Z</time>
      </trkpt>
      <trkpt lat="44.41227" lon="6.03794">
        <ele>879.59997558594</ele>
        <time>2021-07-06T11:22:44.000Z</time>
      </trkpt>
      <trkpt lat="44.41229" lon="6.03798">
        <ele>879</ele>
        <time>2021-07-06T11:22:45.000Z</time>
      </trkpt>
      <trkpt lat="44.4123" lon="6.03805">
        <ele>876.79998779297</ele>
        <time>2021-07-06T11:22:47.000Z</time>
      </trkpt>
      <trkpt lat="44.41232" lon="6.03811">
        <ele>875.40002441406</ele>
        <time>2021-07-06T11:22:49.000Z</time>
      </trkpt>
      <trkpt lat="44.41233" lon="6.03812">
        <ele>874.79998779297</ele>
        <time>2021-07-06T11:22:50.000Z</time>
      </trkpt>
      <trkpt lat="44.41235" lon="6.03812">
        <ele>874</ele>
        <time>2021-07-06T11:22:52.000Z</time>
      </trkpt>
      <trkpt lat="44.41236" lon="6.03812">
        <ele>873.40002441406</ele>
        <time>2021-07-06T11:22:53.000Z</time>
      </trkpt>
      <trkpt lat="44.41238" lon="6.03811">
        <ele>872.79998779297</ele>
        <time>2021-07-06T11:22:54.000Z</time>
      </trkpt>
      <trkpt lat="44.41242" lon="6.03807">
        <ele>871.79998779297</ele>
        <time>2021-07-06T11:22:56.000Z</time>
      </trkpt>
      <trkpt lat="44.41243" lon="6.03804">
        <ele>871.20001220703</ele>
        <time>2021-07-06T11:22:57.000Z</time>
      </trkpt>
      <trkpt lat="44.41244" lon="6.03801">
        <ele>870.79998779297</ele>
        <time>2021-07-06T11:22:58.000Z</time>
      </trkpt>
      <trkpt lat="44.41247" lon="6.03801">
        <ele>869.40002441406</ele>
        <time>2021-07-06T11:23:01.000Z</time>
      </trkpt>
      <trkpt lat="44.4125" lon="6.03809">
        <ele>868.40002441406</ele>
        <time>2021-07-06T11:23:03.000Z</time>
      </trkpt>
      <trkpt lat="44.41252" lon="6.03815">
        <ele>867.59997558594</ele>
        <time>2021-07-06T11:23:04.000Z</time>
      </trkpt>
      <trkpt lat="44.41253" lon="6.0382">
        <ele>866.79998779297</ele>
        <time>2021-07-06T11:23:05.000Z</time>
      </trkpt>
      <trkpt lat="44.41257" lon="6.03829">
        <ele>865.59997558594</ele>
        <time>2021-07-06T11:23:07.000Z</time>
      </trkpt>
      <trkpt lat="44.41259" lon="6.03837">
        <ele>864.79998779297</ele>
        <time>2021-07-06T11:23:09.000Z</time>
      </trkpt>
      <trkpt lat="44.41258" lon="6.03841">
        <ele>864.20001220703</ele>
        <time>2021-07-06T11:23:10.000Z</time>
      </trkpt>
      <trkpt lat="44.41258" lon="6.03847">
        <ele>862.79998779297</ele>
        <time>2021-07-06T11:23:12.000Z</time>
      </trkpt>
      <trkpt lat="44.4126" lon="6.03848">
        <ele>862</ele>
        <time>2021-07-06T11:23:13.000Z</time>
      </trkpt>
      <trkpt lat="44.41263" lon="6.03846">
        <ele>861.40002441406</ele>
        <time>2021-07-06T11:23:14.000Z</time>
      </trkpt>
      <trkpt lat="44.41267" lon="6.03841">
        <ele>859.79998779297</ele>
        <time>2021-07-06T11:23:16.000Z</time>
      </trkpt>
      <trkpt lat="44.4127" lon="6.03838">
        <ele>858.20001220703</ele>
        <time>2021-07-06T11:23:18.000Z</time>
      </trkpt>
      <trkpt lat="44.41273" lon="6.0384">
        <ele>857.20001220703</ele>
        <time>2021-07-06T11:23:20.000Z</time>
      </trkpt>
      <trkpt lat="44.41275" lon="6.03843">
        <ele>856.20001220703</ele>
        <time>2021-07-06T11:23:22.000Z</time>
      </trkpt>
      <trkpt lat="44.41277" lon="6.03843">
        <ele>854.79998779297</ele>
        <time>2021-07-06T11:23:24.000Z</time>
      </trkpt>
      <trkpt lat="44.41278" lon="6.03842">
        <ele>854.20001220703</ele>
        <time>2021-07-06T11:23:25.000Z</time>
      </trkpt>
      <trkpt lat="44.41282" lon="6.03839">
        <ele>853.40002441406</ele>
        <time>2021-07-06T11:23:27.000Z</time>
      </trkpt>
      <trkpt lat="44.41287" lon="6.03831">
        <ele>852.20001220703</ele>
        <time>2021-07-06T11:23:30.000Z</time>
      </trkpt>
      <trkpt lat="44.4129" lon="6.03825">
        <ele>851.40002441406</ele>
        <time>2021-07-06T11:23:32.000Z</time>
      </trkpt>
      <trkpt lat="44.41292" lon="6.03823">
        <ele>851.20001220703</ele>
        <time>2021-07-06T11:23:33.000Z</time>
      </trkpt>
      <trkpt lat="44.41295" lon="6.03812">
        <ele>850</ele>
        <time>2021-07-06T11:23:36.000Z</time>
      </trkpt>
      <trkpt lat="44.41296" lon="6.03808">
        <ele>849.40002441406</ele>
        <time>2021-07-06T11:23:37.000Z</time>
      </trkpt>
      <trkpt lat="44.41296" lon="6.03803">
        <ele>848.79998779297</ele>
        <time>2021-07-06T11:23:38.000Z</time>
      </trkpt>
      <trkpt lat="44.41298" lon="6.03792">
        <ele>847.40002441406</ele>
        <time>2021-07-06T11:23:40.000Z</time>
      </trkpt>
      <trkpt lat="44.413" lon="6.03786">
        <ele>846.79998779297</ele>
        <time>2021-07-06T11:23:41.000Z</time>
      </trkpt>
      <trkpt lat="44.41302" lon="6.03781">
        <ele>846.40002441406</ele>
        <time>2021-07-06T11:23:42.000Z</time>
      </trkpt>
      <trkpt lat="44.41307" lon="6.03778">
        <ele>845.20001220703</ele>
        <time>2021-07-06T11:23:44.000Z</time>
      </trkpt>
      <trkpt lat="44.41313" lon="6.03786">
        <ele>844.20001220703</ele>
        <time>2021-07-06T11:23:46.000Z</time>
      </trkpt>
      <trkpt lat="44.41316" lon="6.0379">
        <ele>843.59997558594</ele>
        <time>2021-07-06T11:23:47.000Z</time>
      </trkpt>
      <trkpt lat="44.41322" lon="6.03795">
        <ele>842.59997558594</ele>
        <time>2021-07-06T11:23:49.000Z</time>
      </trkpt>
      <trkpt lat="44.41328" lon="6.03797">
        <ele>841.40002441406</ele>
        <time>2021-07-06T11:23:51.000Z</time>
      </trkpt>
      <trkpt lat="44.41335" lon="6.03798">
        <ele>839.59997558594</ele>
        <time>2021-07-06T11:23:53.000Z</time>
      </trkpt>
      <trkpt lat="44.4134" lon="6.03798">
        <ele>838.20001220703</ele>
        <time>2021-07-06T11:23:55.000Z</time>
      </trkpt>
      <trkpt lat="44.41343" lon="6.03798">
        <ele>837.79998779297</ele>
        <time>2021-07-06T11:23:56.000Z</time>
      </trkpt>
      <trkpt lat="44.41346" lon="6.03797">
        <ele>837</ele>
        <time>2021-07-06T11:23:57.000Z</time>
      </trkpt>
      <trkpt lat="44.41354" lon="6.03791">
        <ele>835.40002441406</ele>
        <time>2021-07-06T11:24:00.000Z</time>
      </trkpt>
      <trkpt lat="44.41359" lon="6.03786">
        <ele>833.79998779297</ele>
        <time>2021-07-06T11:24:02.000Z</time>
      </trkpt>
      <trkpt lat="44.41367" lon="6.0378">
        <ele>832.40002441406</ele>
        <time>2021-07-06T11:24:05.000Z</time>
      </trkpt>
      <trkpt lat="44.41372" lon="6.03778">
        <ele>831</ele>
        <time>2021-07-06T11:24:07.000Z</time>
      </trkpt>
      <trkpt lat="44.41378" lon="6.03774">
        <ele>829.59997558594</ele>
        <time>2021-07-06T11:24:09.000Z</time>
      </trkpt>
      <trkpt lat="44.41382" lon="6.03771">
        <ele>829</ele>
        <time>2021-07-06T11:24:10.000Z</time>
      </trkpt>
      <trkpt lat="44.41386" lon="6.03769">
        <ele>828.20001220703</ele>
        <time>2021-07-06T11:24:11.000Z</time>
      </trkpt>
      <trkpt lat="44.41395" lon="6.03766">
        <ele>826.79998779297</ele>
        <time>2021-07-06T11:24:14.000Z</time>
      </trkpt>
      <trkpt lat="44.41404" lon="6.0376">
        <ele>825.40002441406</ele>
        <time>2021-07-06T11:24:17.000Z</time>
      </trkpt>
      <trkpt lat="44.41406" lon="6.03757">
        <ele>825</ele>
        <time>2021-07-06T11:24:18.000Z</time>
      </trkpt>
      <trkpt lat="44.41409" lon="6.03754">
        <ele>824.40002441406</ele>
        <time>2021-07-06T11:24:19.000Z</time>
      </trkpt>
      <trkpt lat="44.41413" lon="6.03751">
        <ele>823.79998779297</ele>
        <time>2021-07-06T11:24:20.000Z</time>
      </trkpt>
      <trkpt lat="44.41418" lon="6.03748">
        <ele>823.20001220703</ele>
        <time>2021-07-06T11:24:21.000Z</time>
      </trkpt>
      <trkpt lat="44.41425" lon="6.03744">
        <ele>822.20001220703</ele>
        <time>2021-07-06T11:24:23.000Z</time>
      </trkpt>
      <trkpt lat="44.41429" lon="6.03741">
        <ele>821.59997558594</ele>
        <time>2021-07-06T11:24:24.000Z</time>
      </trkpt>
      <trkpt lat="44.41433" lon="6.03739">
        <ele>820.79998779297</ele>
        <time>2021-07-06T11:24:25.000Z</time>
      </trkpt>
      <trkpt lat="44.41439" lon="6.03739">
        <ele>819.20001220703</ele>
        <time>2021-07-06T11:24:27.000Z</time>
      </trkpt>
      <trkpt lat="44.41445" lon="6.03738">
        <ele>817.79998779297</ele>
        <time>2021-07-06T11:24:29.000Z</time>
      </trkpt>
      <trkpt lat="44.41451" lon="6.03737">
        <ele>816.20001220703</ele>
        <time>2021-07-06T11:24:31.000Z</time>
      </trkpt>
      <trkpt lat="44.4146" lon="6.03737">
        <ele>814.59997558594</ele>
        <time>2021-07-06T11:24:33.000Z</time>
      </trkpt>
      <trkpt lat="44.41467" lon="6.03739">
        <ele>813.20001220703</ele>
        <time>2021-07-06T11:24:35.000Z</time>
      </trkpt>
      <trkpt lat="44.4147" lon="6.03741">
        <ele>812.59997558594</ele>
        <time>2021-07-06T11:24:36.000Z</time>
      </trkpt>
      <trkpt lat="44.41474" lon="6.03741">
        <ele>812</ele>
        <time>2021-07-06T11:24:37.000Z</time>
      </trkpt>
      <trkpt lat="44.41481" lon="6.0374">
        <ele>810.40002441406</ele>
        <time>2021-07-06T11:24:39.000Z</time>
      </trkpt>
      <trkpt lat="44.41487" lon="6.03744">
        <ele>809</ele>
        <time>2021-07-06T11:24:41.000Z</time>
      </trkpt>
      <trkpt lat="44.41491" lon="6.03749">
        <ele>807.40002441406</ele>
        <time>2021-07-06T11:24:43.000Z</time>
      </trkpt>
      <trkpt lat="44.41495" lon="6.03755">
        <ele>805.79998779297</ele>
        <time>2021-07-06T11:24:45.000Z</time>
      </trkpt>
      <trkpt lat="44.41498" lon="6.03759">
        <ele>805</ele>
        <time>2021-07-06T11:24:46.000Z</time>
      </trkpt>
      <trkpt lat="44.41501" lon="6.03763">
        <ele>804.20001220703</ele>
        <time>2021-07-06T11:24:47.000Z</time>
      </trkpt>
      <trkpt lat="44.41506" lon="6.03772">
        <ele>803</ele>
        <time>2021-07-06T11:24:49.000Z</time>
      </trkpt>
      <trkpt lat="44.41509" lon="6.03777">
        <ele>802.40002441406</ele>
        <time>2021-07-06T11:24:50.000Z</time>
      </trkpt>
      <trkpt lat="44.41513" lon="6.03782">
        <ele>801.79998779297</ele>
        <time>2021-07-06T11:24:51.000Z</time>
      </trkpt>
      <trkpt lat="44.41516" lon="6.03788">
        <ele>801.20001220703</ele>
        <time>2021-07-06T11:24:52.000Z</time>
      </trkpt>
      <trkpt lat="44.41519" lon="6.03795">
        <ele>800.59997558594</ele>
        <time>2021-07-06T11:24:53.000Z</time>
      </trkpt>
      <trkpt lat="44.41525" lon="6.03806">
        <ele>799.20001220703</ele>
        <time>2021-07-06T11:24:55.000Z</time>
      </trkpt>
      <trkpt lat="44.41527" lon="6.03811">
        <ele>798.40002441406</ele>
        <time>2021-07-06T11:24:56.000Z</time>
      </trkpt>
      <trkpt lat="44.4153" lon="6.03816">
        <ele>797.79998779297</ele>
        <time>2021-07-06T11:24:57.000Z</time>
      </trkpt>
      <trkpt lat="44.41534" lon="6.03823">
        <ele>796.59997558594</ele>
        <time>2021-07-06T11:24:59.000Z</time>
      </trkpt>
      <trkpt lat="44.41536" lon="6.03825">
        <ele>796</ele>
        <time>2021-07-06T11:25:00.000Z</time>
      </trkpt>
      <trkpt lat="44.41538" lon="6.03823">
        <ele>795.40002441406</ele>
        <time>2021-07-06T11:25:01.000Z</time>
      </trkpt>
      <trkpt lat="44.41541" lon="6.03815">
        <ele>793.40002441406</ele>
        <time>2021-07-06T11:25:03.000Z</time>
      </trkpt>
      <trkpt lat="44.41544" lon="6.03804">
        <ele>792.20001220703</ele>
        <time>2021-07-06T11:25:05.000Z</time>
      </trkpt>
      <trkpt lat="44.41546" lon="6.03795">
        <ele>791.20001220703</ele>
        <time>2021-07-06T11:25:07.000Z</time>
      </trkpt>
      <trkpt lat="44.41547" lon="6.0379">
        <ele>790.59997558594</ele>
        <time>2021-07-06T11:25:08.000Z</time>
      </trkpt>
      <trkpt lat="44.41547" lon="6.03785">
        <ele>790.20001220703</ele>
        <time>2021-07-06T11:25:09.000Z</time>
      </trkpt>
      <trkpt lat="44.41547" lon="6.03779">
        <ele>789.59997558594</ele>
        <time>2021-07-06T11:25:10.000Z</time>
      </trkpt>
      <trkpt lat="44.41547" lon="6.03773">
        <ele>788.79998779297</ele>
        <time>2021-07-06T11:25:11.000Z</time>
      </trkpt>
      <trkpt lat="44.41547" lon="6.03769">
        <ele>788.40002441406</ele>
        <time>2021-07-06T11:25:12.000Z</time>
      </trkpt>
      <trkpt lat="44.41547" lon="6.0376">
        <ele>787.20001220703</ele>
        <time>2021-07-06T11:25:14.000Z</time>
      </trkpt>
      <trkpt lat="44.41547" lon="6.03753">
        <ele>786.79998779297</ele>
        <time>2021-07-06T11:25:15.000Z</time>
      </trkpt>
      <trkpt lat="44.41548" lon="6.03746">
        <ele>786.20001220703</ele>
        <time>2021-07-06T11:25:16.000Z</time>
      </trkpt>
      <trkpt lat="44.41548" lon="6.03729">
        <ele>785.20001220703</ele>
        <time>2021-07-06T11:25:18.000Z</time>
      </trkpt>
      <trkpt lat="44.41549" lon="6.03716">
        <ele>783.79998779297</ele>
        <time>2021-07-06T11:25:20.000Z</time>
      </trkpt>
      <trkpt lat="44.41549" lon="6.03704">
        <ele>782.59997558594</ele>
        <time>2021-07-06T11:25:22.000Z</time>
      </trkpt>
      <trkpt lat="44.41549" lon="6.03692">
        <ele>781.40002441406</ele>
        <time>2021-07-06T11:25:24.000Z</time>
      </trkpt>
      <trkpt lat="44.41547" lon="6.03682">
        <ele>779.79998779297</ele>
        <time>2021-07-06T11:25:26.000Z</time>
      </trkpt>
      <trkpt lat="44.41546" lon="6.03673">
        <ele>778.40002441406</ele>
        <time>2021-07-06T11:25:28.000Z</time>
      </trkpt>
      <trkpt lat="44.41544" lon="6.0367">
        <ele>777.59997558594</ele>
        <time>2021-07-06T11:25:29.000Z</time>
      </trkpt>
      <trkpt lat="44.41541" lon="6.03668">
        <ele>776.79998779297</ele>
        <time>2021-07-06T11:25:30.000Z</time>
      </trkpt>
      <trkpt lat="44.41538" lon="6.03666">
        <ele>775</ele>
        <time>2021-07-06T11:25:31.000Z</time>
      </trkpt>
      <trkpt lat="44.41534" lon="6.03659">
        <ele>773.40002441406</ele>
        <time>2021-07-06T11:25:33.000Z</time>
      </trkpt>
      <trkpt lat="44.41533" lon="6.03655">
        <ele>772.79998779297</ele>
        <time>2021-07-06T11:25:34.000Z</time>
      </trkpt>
      <trkpt lat="44.41533" lon="6.0365">
        <ele>772</ele>
        <time>2021-07-06T11:25:35.000Z</time>
      </trkpt>
      <trkpt lat="44.41531" lon="6.03634">
        <ele>770.59997558594</ele>
        <time>2021-07-06T11:25:37.000Z</time>
      </trkpt>
      <trkpt lat="44.41525" lon="6.03615">
        <ele>769.20001220703</ele>
        <time>2021-07-06T11:25:39.000Z</time>
      </trkpt>
      <trkpt lat="44.4152" lon="6.036">
        <ele>768</ele>
        <time>2021-07-06T11:25:41.000Z</time>
      </trkpt>
      <trkpt lat="44.41517" lon="6.03594">
        <ele>767.20001220703</ele>
        <time>2021-07-06T11:25:42.000Z</time>
      </trkpt>
      <trkpt lat="44.41515" lon="6.0359">
        <ele>766.40002441406</ele>
        <time>2021-07-06T11:25:43.000Z</time>
      </trkpt>
      <trkpt lat="44.41511" lon="6.03587">
        <ele>765.59997558594</ele>
        <time>2021-07-06T11:25:44.000Z</time>
      </trkpt>
      <trkpt lat="44.41508" lon="6.03584">
        <ele>764.40002441406</ele>
        <time>2021-07-06T11:25:45.000Z</time>
      </trkpt>
      <trkpt lat="44.41502" lon="6.0358">
        <ele>762.59997558594</ele>
        <time>2021-07-06T11:25:47.000Z</time>
      </trkpt>
      <trkpt lat="44.415" lon="6.03577">
        <ele>761.40002441406</ele>
        <time>2021-07-06T11:25:48.000Z</time>
      </trkpt>
      <trkpt lat="44.415" lon="6.03575">
        <ele>760.20001220703</ele>
        <time>2021-07-06T11:25:49.000Z</time>
      </trkpt>
      <trkpt lat="44.41501" lon="6.03574">
        <ele>759</ele>
        <time>2021-07-06T11:25:50.000Z</time>
      </trkpt>
      <trkpt lat="44.41502" lon="6.03573">
        <ele>758.20001220703</ele>
        <time>2021-07-06T11:25:51.000Z</time>
      </trkpt>
      <trkpt lat="44.41505" lon="6.03572">
        <ele>757.20001220703</ele>
        <time>2021-07-06T11:25:52.000Z</time>
      </trkpt>
      <trkpt lat="44.41511" lon="6.03569">
        <ele>755.79998779297</ele>
        <time>2021-07-06T11:25:54.000Z</time>
      </trkpt>
      <trkpt lat="44.41515" lon="6.03567">
        <ele>755.20001220703</ele>
        <time>2021-07-06T11:25:55.000Z</time>
      </trkpt>
      <trkpt lat="44.41519" lon="6.03566">
        <ele>754.59997558594</ele>
        <time>2021-07-06T11:25:56.000Z</time>
      </trkpt>
      <trkpt lat="44.41532" lon="6.03566">
        <ele>753</ele>
        <time>2021-07-06T11:25:59.000Z</time>
      </trkpt>
      <trkpt lat="44.41541" lon="6.03568">
        <ele>751.79998779297</ele>
        <time>2021-07-06T11:26:01.000Z</time>
      </trkpt>
      <trkpt lat="44.41548" lon="6.03571">
        <ele>750.59997558594</ele>
        <time>2021-07-06T11:26:03.000Z</time>
      </trkpt>
      <trkpt lat="44.41551" lon="6.03573">
        <ele>749.59997558594</ele>
        <time>2021-07-06T11:26:04.000Z</time>
      </trkpt>
      <trkpt lat="44.41552" lon="6.03575">
        <ele>749</ele>
        <time>2021-07-06T11:26:05.000Z</time>
      </trkpt>
      <trkpt lat="44.41553" lon="6.03575">
        <ele>747.79998779297</ele>
        <time>2021-07-06T11:26:07.000Z</time>
      </trkpt>
      <trkpt lat="44.41554" lon="6.03575">
        <ele>746.20001220703</ele>
        <time>2021-07-06T11:26:09.000Z</time>
      </trkpt>
      <trkpt lat="44.41553" lon="6.03575">
        <ele>744.79998779297</ele>
        <time>2021-07-06T11:26:11.000Z</time>
      </trkpt>
      <trkpt lat="44.41553" lon="6.03575">
        <ele>743.20001220703</ele>
        <time>2021-07-06T11:26:13.000Z</time>
      </trkpt>
      <trkpt lat="44.41555" lon="6.03575">
        <ele>742</ele>
        <time>2021-07-06T11:26:15.000Z</time>
      </trkpt>
      <trkpt lat="44.41555" lon="6.03574">
        <ele>741.79998779297</ele>
        <time>2021-07-06T11:26:16.000Z</time>
      </trkpt>
      <trkpt lat="44.41556" lon="6.0357">
        <ele>741.79998779297</ele>
        <time>2021-07-06T11:26:18.000Z</time>
      </trkpt>
      <trkpt lat="44.41554" lon="6.03562">
        <ele>741.59997558594</ele>
        <time>2021-07-06T11:26:20.000Z</time>
      </trkpt>
      <trkpt lat="44.41551" lon="6.03552">
        <ele>741.59997558594</ele>
        <time>2021-07-06T11:26:22.000Z</time>
      </trkpt>
      <trkpt lat="44.41549" lon="6.03548">
        <ele>741.59997558594</ele>
        <time>2021-07-06T11:26:23.000Z</time>
      </trkpt>
      <trkpt lat="44.41547" lon="6.03545">
        <ele>741.40002441406</ele>
        <time>2021-07-06T11:26:24.000Z</time>
      </trkpt>
      <trkpt lat="44.41539" lon="6.0354">
        <ele>740.59997558594</ele>
        <time>2021-07-06T11:26:26.000Z</time>
      </trkpt>
      <trkpt lat="44.41535" lon="6.03536">
        <ele>739.59997558594</ele>
        <time>2021-07-06T11:26:28.000Z</time>
      </trkpt>
      <trkpt lat="44.41535" lon="6.03532">
        <ele>739.20001220703</ele>
        <time>2021-07-06T11:26:29.000Z</time>
      </trkpt>
      <trkpt lat="44.41537" lon="6.03525">
        <ele>738</ele>
        <time>2021-07-06T11:26:31.000Z</time>
      </trkpt>
      <trkpt lat="44.41542" lon="6.03519">
        <ele>736.79998779297</ele>
        <time>2021-07-06T11:26:33.000Z</time>
      </trkpt>
      <trkpt lat="44.4155" lon="6.03519">
        <ele>735.40002441406</ele>
        <time>2021-07-06T11:26:35.000Z</time>
      </trkpt>
      <trkpt lat="44.41558" lon="6.03523">
        <ele>734</ele>
        <time>2021-07-06T11:26:37.000Z</time>
      </trkpt>
      <trkpt lat="44.41562" lon="6.03526">
        <ele>733.59997558594</ele>
        <time>2021-07-06T11:26:38.000Z</time>
      </trkpt>
      <trkpt lat="44.41567" lon="6.03531">
        <ele>733</ele>
        <time>2021-07-06T11:26:39.000Z</time>
      </trkpt>
      <trkpt lat="44.41571" lon="6.03535">
        <ele>732.20001220703</ele>
        <time>2021-07-06T11:26:40.000Z</time>
      </trkpt>
      <trkpt lat="44.41576" lon="6.03538">
        <ele>731.59997558594</ele>
        <time>2021-07-06T11:26:41.000Z</time>
      </trkpt>
      <trkpt lat="44.41581" lon="6.03542">
        <ele>731</ele>
        <time>2021-07-06T11:26:42.000Z</time>
      </trkpt>
      <trkpt lat="44.41583" lon="6.03545">
        <ele>730.20001220703</ele>
        <time>2021-07-06T11:26:43.000Z</time>
      </trkpt>
      <trkpt lat="44.41586" lon="6.03548">
        <ele>729.40002441406</ele>
        <time>2021-07-06T11:26:44.000Z</time>
      </trkpt>
      <trkpt lat="44.41588" lon="6.03548">
        <ele>728.79998779297</ele>
        <time>2021-07-06T11:26:45.000Z</time>
      </trkpt>
      <trkpt lat="44.41588" lon="6.03544">
        <ele>727.59997558594</ele>
        <time>2021-07-06T11:26:47.000Z</time>
      </trkpt>
      <trkpt lat="44.41588" lon="6.03541">
        <ele>727</ele>
        <time>2021-07-06T11:26:48.000Z</time>
      </trkpt>
      <trkpt lat="44.41587" lon="6.03539">
        <ele>726.20001220703</ele>
        <time>2021-07-06T11:26:49.000Z</time>
      </trkpt>
      <trkpt lat="44.41588" lon="6.03537">
        <ele>725.40002441406</ele>
        <time>2021-07-06T11:26:50.000Z</time>
      </trkpt>
      <trkpt lat="44.41589" lon="6.03537">
        <ele>724.59997558594</ele>
        <time>2021-07-06T11:26:51.000Z</time>
      </trkpt>
      <trkpt lat="44.41591" lon="6.03538">
        <ele>723.79998779297</ele>
        <time>2021-07-06T11:26:52.000Z</time>
      </trkpt>
      <trkpt lat="44.41593" lon="6.0354">
        <ele>723</ele>
        <time>2021-07-06T11:26:53.000Z</time>
      </trkpt>
      <trkpt lat="44.41595" lon="6.03542">
        <ele>721.79998779297</ele>
        <time>2021-07-06T11:26:54.000Z</time>
      </trkpt>
      <trkpt lat="44.41599" lon="6.03542">
        <ele>720.59997558594</ele>
        <time>2021-07-06T11:26:56.000Z</time>
      </trkpt>
      <trkpt lat="44.41599" lon="6.03538">
        <ele>719.20001220703</ele>
        <time>2021-07-06T11:26:58.000Z</time>
      </trkpt>
      <trkpt lat="44.41599" lon="6.03535">
        <ele>718.59997558594</ele>
        <time>2021-07-06T11:26:59.000Z</time>
      </trkpt>
      <trkpt lat="44.41598" lon="6.03533">
        <ele>718.40002441406</ele>
        <time>2021-07-06T11:27:00.000Z</time>
      </trkpt>
      <trkpt lat="44.41598" lon="6.03528">
        <ele>717.20001220703</ele>
        <time>2021-07-06T11:27:02.000Z</time>
      </trkpt>
      <trkpt lat="44.41599" lon="6.03527">
        <ele>716.79998779297</ele>
        <time>2021-07-06T11:27:03.000Z</time>
      </trkpt>
      <trkpt lat="44.41601" lon="6.03526">
        <ele>716.59997558594</ele>
        <time>2021-07-06T11:27:04.000Z</time>
      </trkpt>
      <trkpt lat="44.41602" lon="6.03525">
        <ele>716.40002441406</ele>
        <time>2021-07-06T11:27:05.000Z</time>
      </trkpt>
      <trkpt lat="44.41603" lon="6.03523">
        <ele>715.59997558594</ele>
        <time>2021-07-06T11:27:06.000Z</time>
      </trkpt>
      <trkpt lat="44.41603" lon="6.0352">
        <ele>714.59997558594</ele>
        <time>2021-07-06T11:27:07.000Z</time>
      </trkpt>
      <trkpt lat="44.41602" lon="6.03515">
        <ele>713.59997558594</ele>
        <time>2021-07-06T11:27:08.000Z</time>
      </trkpt>
      <trkpt lat="44.416" lon="6.0351">
        <ele>712.79998779297</ele>
        <time>2021-07-06T11:27:09.000Z</time>
      </trkpt>
      <trkpt lat="44.41598" lon="6.03504">
        <ele>712.20001220703</ele>
        <time>2021-07-06T11:27:10.000Z</time>
      </trkpt>
      <trkpt lat="44.41596" lon="6.03499">
        <ele>711.79998779297</ele>
        <time>2021-07-06T11:27:11.000Z</time>
      </trkpt>
      <trkpt lat="44.41594" lon="6.03494">
        <ele>711.20001220703</ele>
        <time>2021-07-06T11:27:12.000Z</time>
      </trkpt>
      <trkpt lat="44.41592" lon="6.03491">
        <ele>710.59997558594</ele>
        <time>2021-07-06T11:27:13.000Z</time>
      </trkpt>
      <trkpt lat="44.41589" lon="6.03488">
        <ele>710</ele>
        <time>2021-07-06T11:27:14.000Z</time>
      </trkpt>
      <trkpt lat="44.41587" lon="6.03483">
        <ele>708.40002441406</ele>
        <time>2021-07-06T11:27:16.000Z</time>
      </trkpt>
      <trkpt lat="44.41588" lon="6.03481">
        <ele>707.59997558594</ele>
        <time>2021-07-06T11:27:17.000Z</time>
      </trkpt>
      <trkpt lat="44.41591" lon="6.0348">
        <ele>706.59997558594</ele>
        <time>2021-07-06T11:27:18.000Z</time>
      </trkpt>
      <trkpt lat="44.41597" lon="6.03479">
        <ele>704.59997558594</ele>
        <time>2021-07-06T11:27:20.000Z</time>
      </trkpt>
      <trkpt lat="44.41604" lon="6.03479">
        <ele>702</ele>
        <time>2021-07-06T11:27:22.000Z</time>
      </trkpt>
      <trkpt lat="44.4161" lon="6.03483">
        <ele>700.79998779297</ele>
        <time>2021-07-06T11:27:24.000Z</time>
      </trkpt>
      <trkpt lat="44.41613" lon="6.03487">
        <ele>699.59997558594</ele>
        <time>2021-07-06T11:27:26.000Z</time>
      </trkpt>
      <trkpt lat="44.41616" lon="6.03483">
        <ele>698.20001220703</ele>
        <time>2021-07-06T11:27:28.000Z</time>
      </trkpt>
      <trkpt lat="44.41616" lon="6.03476">
        <ele>696.79998779297</ele>
        <time>2021-07-06T11:27:30.000Z</time>
      </trkpt>
      <trkpt lat="44.41614" lon="6.03471">
        <ele>695.79998779297</ele>
        <time>2021-07-06T11:27:31.000Z</time>
      </trkpt>
      <trkpt lat="44.41612" lon="6.03466">
        <ele>695</ele>
        <time>2021-07-06T11:27:32.000Z</time>
      </trkpt>
      <trkpt lat="44.41611" lon="6.03462">
        <ele>694.40002441406</ele>
        <time>2021-07-06T11:27:33.000Z</time>
      </trkpt>
      <trkpt lat="44.4161" lon="6.03458">
        <ele>693.79998779297</ele>
        <time>2021-07-06T11:27:34.000Z</time>
      </trkpt>
      <trkpt lat="44.41612" lon="6.03454">
        <ele>693</ele>
        <time>2021-07-06T11:27:35.000Z</time>
      </trkpt>
      <trkpt lat="44.41613" lon="6.03452">
        <ele>692.40002441406</ele>
        <time>2021-07-06T11:27:36.000Z</time>
      </trkpt>
      <trkpt lat="44.41618" lon="6.03453">
        <ele>691.20001220703</ele>
        <time>2021-07-06T11:27:38.000Z</time>
      </trkpt>
      <trkpt lat="44.41626" lon="6.03453">
        <ele>689.79998779297</ele>
        <time>2021-07-06T11:27:40.000Z</time>
      </trkpt>
      <trkpt lat="44.41632" lon="6.03451">
        <ele>688.20001220703</ele>
        <time>2021-07-06T11:27:42.000Z</time>
      </trkpt>
      <trkpt lat="44.41634" lon="6.03449">
        <ele>687.40002441406</ele>
        <time>2021-07-06T11:27:43.000Z</time>
      </trkpt>
      <trkpt lat="44.41635" lon="6.03446">
        <ele>686.59997558594</ele>
        <time>2021-07-06T11:27:44.000Z</time>
      </trkpt>
      <trkpt lat="44.41634" lon="6.03437">
        <ele>685.20001220703</ele>
        <time>2021-07-06T11:27:46.000Z</time>
      </trkpt>
      <trkpt lat="44.41631" lon="6.03429">
        <ele>684</ele>
        <time>2021-07-06T11:27:48.000Z</time>
      </trkpt>
      <trkpt lat="44.4163" lon="6.03424">
        <ele>683.20001220703</ele>
        <time>2021-07-06T11:27:49.000Z</time>
      </trkpt>
      <trkpt lat="44.4163" lon="6.03419">
        <ele>682</ele>
        <time>2021-07-06T11:27:50.000Z</time>
      </trkpt>
      <trkpt lat="44.41632" lon="6.03415">
        <ele>681.40002441406</ele>
        <time>2021-07-06T11:27:51.000Z</time>
      </trkpt>
      <trkpt lat="44.41634" lon="6.0341">
        <ele>680.79998779297</ele>
        <time>2021-07-06T11:27:52.000Z</time>
      </trkpt>
      <trkpt lat="44.41636" lon="6.034">
        <ele>679.59997558594</ele>
        <time>2021-07-06T11:27:54.000Z</time>
      </trkpt>
      <trkpt lat="44.41636" lon="6.03395">
        <ele>679</ele>
        <time>2021-07-06T11:27:55.000Z</time>
      </trkpt>
      <trkpt lat="44.41636" lon="6.0339">
        <ele>678.20001220703</ele>
        <time>2021-07-06T11:27:56.000Z</time>
      </trkpt>
      <trkpt lat="44.41636" lon="6.03385">
        <ele>677.20001220703</ele>
        <time>2021-07-06T11:27:57.000Z</time>
      </trkpt>
      <trkpt lat="44.41635" lon="6.03374">
        <ele>675.79998779297</ele>
        <time>2021-07-06T11:27:59.000Z</time>
      </trkpt>
      <trkpt lat="44.41634" lon="6.03369">
        <ele>675.59997558594</ele>
        <time>2021-07-06T11:28:00.000Z</time>
      </trkpt>
      <trkpt lat="44.41631" lon="6.03357">
        <ele>674.59997558594</ele>
        <time>2021-07-06T11:28:02.000Z</time>
      </trkpt>
      <trkpt lat="44.41626" lon="6.03344">
        <ele>673.79998779297</ele>
        <time>2021-07-06T11:28:04.000Z</time>
      </trkpt>
      <trkpt lat="44.41623" lon="6.03338">
        <ele>673.20001220703</ele>
        <time>2021-07-06T11:28:05.000Z</time>
      </trkpt>
      <trkpt lat="44.41613" lon="6.03318">
        <ele>672.20001220703</ele>
        <time>2021-07-06T11:28:08.000Z</time>
      </trkpt>
      <trkpt lat="44.4161" lon="6.03313">
        <ele>672</ele>
        <time>2021-07-06T11:28:09.000Z</time>
      </trkpt>
      <trkpt lat="44.41607" lon="6.03307">
        <ele>671.59997558594</ele>
        <time>2021-07-06T11:28:10.000Z</time>
      </trkpt>
      <trkpt lat="44.41603" lon="6.03302">
        <ele>670.79998779297</ele>
        <time>2021-07-06T11:28:11.000Z</time>
      </trkpt>
      <trkpt lat="44.416" lon="6.03293">
        <ele>669.40002441406</ele>
        <time>2021-07-06T11:28:13.000Z</time>
      </trkpt>
      <trkpt lat="44.416" lon="6.0329">
        <ele>668.59997558594</ele>
        <time>2021-07-06T11:28:14.000Z</time>
      </trkpt>
      <trkpt lat="44.41601" lon="6.03287">
        <ele>668</ele>
        <time>2021-07-06T11:28:15.000Z</time>
      </trkpt>
      <trkpt lat="44.41606" lon="6.03277">
        <ele>666.40002441406</ele>
        <time>2021-07-06T11:28:18.000Z</time>
      </trkpt>
      <trkpt lat="44.41608" lon="6.03273">
        <ele>665.79998779297</ele>
        <time>2021-07-06T11:28:19.000Z</time>
      </trkpt>
      <trkpt lat="44.41609" lon="6.03264">
        <ele>665.20001220703</ele>
        <time>2021-07-06T11:28:21.000Z</time>
      </trkpt>
      <trkpt lat="44.41607" lon="6.03254">
        <ele>664.79998779297</ele>
        <time>2021-07-06T11:28:23.000Z</time>
      </trkpt>
      <trkpt lat="44.41605" lon="6.03246">
        <ele>664.59997558594</ele>
        <time>2021-07-06T11:28:25.000Z</time>
      </trkpt>
      <trkpt lat="44.41604" lon="6.03238">
        <ele>664.20001220703</ele>
        <time>2021-07-06T11:28:27.000Z</time>
      </trkpt>
      <trkpt lat="44.41603" lon="6.03234">
        <ele>663.79998779297</ele>
        <time>2021-07-06T11:28:28.000Z</time>
      </trkpt>
      <trkpt lat="44.41601" lon="6.03225">
        <ele>663</ele>
        <time>2021-07-06T11:28:30.000Z</time>
      </trkpt>
      <trkpt lat="44.41596" lon="6.03213">
        <ele>662.40002441406</ele>
        <time>2021-07-06T11:28:32.000Z</time>
      </trkpt>
      <trkpt lat="44.41594" lon="6.03207">
        <ele>662</ele>
        <time>2021-07-06T11:28:33.000Z</time>
      </trkpt>
      <trkpt lat="44.41592" lon="6.03195">
        <ele>660.79998779297</ele>
        <time>2021-07-06T11:28:36.000Z</time>
      </trkpt>
      <trkpt lat="44.41588" lon="6.03175">
        <ele>659.59997558594</ele>
        <time>2021-07-06T11:28:40.000Z</time>
      </trkpt>
      <trkpt lat="44.41587" lon="6.0315">
        <ele>658.20001220703</ele>
        <time>2021-07-06T11:28:44.000Z</time>
      </trkpt>
      <trkpt lat="44.41582" lon="6.03139">
        <ele>656.59997558594</ele>
        <time>2021-07-06T11:28:46.000Z</time>
      </trkpt>
      <trkpt lat="44.41579" lon="6.03129">
        <ele>655.59997558594</ele>
        <time>2021-07-06T11:28:48.000Z</time>
      </trkpt>
      <trkpt lat="44.41577" lon="6.03116">
        <ele>654.59997558594</ele>
        <time>2021-07-06T11:28:50.000Z</time>
      </trkpt>
      <trkpt lat="44.41577" lon="6.03108">
        <ele>654.40002441406</ele>
        <time>2021-07-06T11:28:51.000Z</time>
      </trkpt>
      <trkpt lat="44.41576" lon="6.03101">
        <ele>653.79998779297</ele>
        <time>2021-07-06T11:28:52.000Z</time>
      </trkpt>
      <trkpt lat="44.41575" lon="6.03086">
        <ele>653</ele>
        <time>2021-07-06T11:28:54.000Z</time>
      </trkpt>
      <trkpt lat="44.41575" lon="6.03066">
        <ele>652.20001220703</ele>
        <time>2021-07-06T11:28:57.000Z</time>
      </trkpt>
      <trkpt lat="44.41573" lon="6.03051">
        <ele>650.79998779297</ele>
        <time>2021-07-06T11:29:00.000Z</time>
      </trkpt>
      <trkpt lat="44.41574" lon="6.03047">
        <ele>650.20001220703</ele>
        <time>2021-07-06T11:29:01.000Z</time>
      </trkpt>
      <trkpt lat="44.41575" lon="6.03043">
        <ele>649.59997558594</ele>
        <time>2021-07-06T11:29:02.000Z</time>
      </trkpt>
      <trkpt lat="44.41575" lon="6.03034">
        <ele>648</ele>
        <time>2021-07-06T11:29:04.000Z</time>
      </trkpt>
      <trkpt lat="44.41573" lon="6.03031">
        <ele>647.40002441406</ele>
        <time>2021-07-06T11:29:05.000Z</time>
      </trkpt>
      <trkpt lat="44.41572" lon="6.03027">
        <ele>646.79998779297</ele>
        <time>2021-07-06T11:29:06.000Z</time>
      </trkpt>
      <trkpt lat="44.41569" lon="6.0302">
        <ele>645.40002441406</ele>
        <time>2021-07-06T11:29:08.000Z</time>
      </trkpt>
      <trkpt lat="44.41567" lon="6.03012">
        <ele>644.40002441406</ele>
        <time>2021-07-06T11:29:10.000Z</time>
      </trkpt>
      <trkpt lat="44.41565" lon="6.02997">
        <ele>643</ele>
        <time>2021-07-06T11:29:13.000Z</time>
      </trkpt>
      <trkpt lat="44.41565" lon="6.02992">
        <ele>642.79998779297</ele>
        <time>2021-07-06T11:29:14.000Z</time>
      </trkpt>
      <trkpt lat="44.41566" lon="6.02988">
        <ele>642.59997558594</ele>
        <time>2021-07-06T11:29:15.000Z</time>
      </trkpt>
      <trkpt lat="44.41572" lon="6.02975">
        <ele>642.20001220703</ele>
        <time>2021-07-06T11:29:18.000Z</time>
      </trkpt>
      <trkpt lat="44.41573" lon="6.02971">
        <ele>642</ele>
        <time>2021-07-06T11:29:19.000Z</time>
      </trkpt>
      <trkpt lat="44.41574" lon="6.02968">
        <ele>641.79998779297</ele>
        <time>2021-07-06T11:29:20.000Z</time>
      </trkpt>
      <trkpt lat="44.41574" lon="6.02963">
        <ele>641.59997558594</ele>
        <time>2021-07-06T11:29:21.000Z</time>
      </trkpt>
      <trkpt lat="44.41574" lon="6.02956">
        <ele>641.40002441406</ele>
        <time>2021-07-06T11:29:23.000Z</time>
      </trkpt>
      <trkpt lat="44.41577" lon="6.02952">
        <ele>641.20001220703</ele>
        <time>2021-07-06T11:29:25.000Z</time>
      </trkpt>
      <trkpt lat="44.41578" lon="6.02952">
        <ele>640.79998779297</ele>
        <time>2021-07-06T11:29:26.000Z</time>
      </trkpt>
      <trkpt lat="44.4158" lon="6.02951">
        <ele>640.40002441406</ele>
        <time>2021-07-06T11:29:27.000Z</time>
      </trkpt>
      <trkpt lat="44.41588" lon="6.02949">
        <ele>639.79998779297</ele>
        <time>2021-07-06T11:29:30.000Z</time>
      </trkpt>
      <trkpt lat="44.41604" lon="6.02938">
        <ele>639.40002441406</ele>
        <time>2021-07-06T11:29:35.000Z</time>
      </trkpt>
      <trkpt lat="44.41625" lon="6.02919">
        <ele>638.79998779297</ele>
        <time>2021-07-06T11:29:41.000Z</time>
      </trkpt>
      <trkpt lat="44.4163" lon="6.02917">
        <ele>638.59997558594</ele>
        <time>2021-07-06T11:29:42.000Z</time>
      </trkpt>
      <trkpt lat="44.41644" lon="6.02916">
        <ele>638.40002441406</ele>
        <time>2021-07-06T11:29:45.000Z</time>
      </trkpt>
      <trkpt lat="44.41658" lon="6.02922">
        <ele>638.20001220703</ele>
        <time>2021-07-06T11:29:48.000Z</time>
      </trkpt>
      <trkpt lat="44.41668" lon="6.02926">
        <ele>638.20001220703</ele>
        <time>2021-07-06T11:29:50.000Z</time>
      </trkpt>
      <trkpt lat="44.41706" lon="6.02945">
        <ele>638</ele>
        <time>2021-07-06T11:29:57.000Z</time>
      </trkpt>
      <trkpt lat="44.41735" lon="6.0296">
        <ele>638.59997558594</ele>
        <time>2021-07-06T11:30:03.000Z</time>
      </trkpt>
      <trkpt lat="44.41743" lon="6.02964">
        <ele>638.59997558594</ele>
        <time>2021-07-06T11:30:05.000Z</time>
      </trkpt>
      <trkpt lat="44.41761" lon="6.02971">
        <ele>638.79998779297</ele>
        <time>2021-07-06T11:30:09.000Z</time>
      </trkpt>
      <trkpt lat="44.41792" lon="6.02986">
        <ele>639.20001220703</ele>
        <time>2021-07-06T11:30:15.000Z</time>
      </trkpt>
      <trkpt lat="44.4183" lon="6.03007">
        <ele>639</ele>
        <time>2021-07-06T11:30:23.000Z</time>
      </trkpt>
      <trkpt lat="44.4187" lon="6.03027">
        <ele>638.79998779297</ele>
        <time>2021-07-06T11:30:31.000Z</time>
      </trkpt>
      <trkpt lat="44.41876" lon="6.0303">
        <ele>638.40002441406</ele>
        <time>2021-07-06T11:30:32.000Z</time>
      </trkpt>
      <trkpt lat="44.41905" lon="6.03047">
        <ele>637.40002441406</ele>
        <time>2021-07-06T11:30:37.000Z</time>
      </trkpt>
      <trkpt lat="44.41916" lon="6.03054">
        <ele>637</ele>
        <time>2021-07-06T11:30:39.000Z</time>
      </trkpt>
      <trkpt lat="44.4194" lon="6.03067">
        <ele>636.59997558594</ele>
        <time>2021-07-06T11:30:43.000Z</time>
      </trkpt>
      <trkpt lat="44.41947" lon="6.03069">
        <ele>636.40002441406</ele>
        <time>2021-07-06T11:30:44.000Z</time>
      </trkpt>
      <trkpt lat="44.41955" lon="6.03067">
        <ele>636.40002441406</ele>
        <time>2021-07-06T11:30:45.000Z</time>
      </trkpt>
      <trkpt lat="44.41978" lon="6.03052">
        <ele>636.20001220703</ele>
        <time>2021-07-06T11:30:48.000Z</time>
      </trkpt>
      <trkpt lat="44.42022" lon="6.03015">
        <ele>635.40002441406</ele>
        <time>2021-07-06T11:30:53.000Z</time>
      </trkpt>
      <trkpt lat="44.42051" lon="6.02992">
        <ele>634</ele>
        <time>2021-07-06T11:30:56.000Z</time>
      </trkpt>
      <trkpt lat="44.42067" lon="6.0298">
        <ele>632.59997558594</ele>
        <time>2021-07-06T11:30:58.000Z</time>
      </trkpt>
      <trkpt lat="44.4208" lon="6.0297">
        <ele>630.59997558594</ele>
        <time>2021-07-06T11:31:00.000Z</time>
      </trkpt>
      <trkpt lat="44.42085" lon="6.02965">
        <ele>629.59997558594</ele>
        <time>2021-07-06T11:31:01.000Z</time>
      </trkpt>
      <trkpt lat="44.4209" lon="6.02956">
        <ele>626.79998779297</ele>
        <time>2021-07-06T11:31:03.000Z</time>
      </trkpt>
      <trkpt lat="44.42093" lon="6.02953">
        <ele>625.79998779297</ele>
        <time>2021-07-06T11:31:04.000Z</time>
      </trkpt>
      <trkpt lat="44.421" lon="6.02946">
        <ele>623.79998779297</ele>
        <time>2021-07-06T11:31:06.000Z</time>
      </trkpt>
      <trkpt lat="44.42102" lon="6.02944">
        <ele>623</ele>
        <time>2021-07-06T11:31:07.000Z</time>
      </trkpt>
      <trkpt lat="44.42104" lon="6.02943">
        <ele>622</ele>
        <time>2021-07-06T11:31:08.000Z</time>
      </trkpt>
      <trkpt lat="44.42104" lon="6.02942">
        <ele>621.40002441406</ele>
        <time>2021-07-06T11:31:09.000Z</time>
      </trkpt>
      <trkpt lat="44.42103" lon="6.02942">
        <ele>620</ele>
        <time>2021-07-06T11:31:11.000Z</time>
      </trkpt>
      <trkpt lat="44.42103" lon="6.02942">
        <ele>619.59997558594</ele>
        <time>2021-07-06T11:31:12.000Z</time>
      </trkpt>
      <trkpt lat="44.42103" lon="6.02942">
        <ele>619.20001220703</ele>
        <time>2021-07-06T11:31:13.000Z</time>
      </trkpt>
    </trkseg>
  </trk>
</gpx>